<?xml version="1.0" encoding="UTF-8" standalone="no" ?>
<gpx xmlns="http://www.topografix.com/GPX/1/1" xmlns:xsi="http://www.w3.org/2001/XMLSchema-instance" xmlns:gpx_style="http://www.topografix.com/GPX/gpx_style/0/2" xsi:schemaLocation="http://www.topografix.com/GPX/1/1 http://www.topografix.com/GPX/1/1/gpx.xsd http://www.topografix.com/GPX/gpx_style/0/2 http://www.topografix.com/GPX/gpx_style/0/2/gpx_style.xsd" version="1.1" creator="Map Plus 2.8.11.1">
  <metadata>
    <link href="http://www.duweis.com">
      <text>Map Plus</text>
    </link>
    <time>2022-10-01T14:59:47Z</time>
  </metadata>

  <trk>
    <name>Etapa 3 MEDI AMBIENT</name>
    <cmt>Belongs to bike071545</cmt>
    <extensions>
      <gpx_style:line>
        <gpx_style:color>0000ff</gpx_style:color>
        <gpx_style:width>4000</gpx_style:width>
      </gpx_style:line>
    </extensions>
    <trkseg>
      <trkpt lat="42.440175" lon="1.934636">
        <ele>1217.8</ele>
        <time>2022-09-07T13:45:22Z</time>
      </trkpt>
      <trkpt lat="42.44016" lon="1.934613">
        <ele>1217.8</ele>
        <time>2022-09-07T13:45:22Z</time>
      </trkpt>
      <trkpt lat="42.440054" lon="1.934429">
        <ele>1217.5</ele>
        <time>2022-09-07T13:45:26Z</time>
      </trkpt>
      <trkpt lat="42.439814" lon="1.93401">
        <ele>1217.5</ele>
        <time>2022-09-07T13:45:35Z</time>
      </trkpt>
      <trkpt lat="42.439722" lon="1.93385">
        <ele>1217.5</ele>
        <time>2022-09-07T13:45:38Z</time>
      </trkpt>
      <trkpt lat="42.439655" lon="1.933745">
        <ele>1217.3</ele>
        <time>2022-09-07T13:45:40Z</time>
      </trkpt>
      <trkpt lat="42.439545" lon="1.933574">
        <ele>1217</ele>
        <time>2022-09-07T13:45:44Z</time>
      </trkpt>
      <trkpt lat="42.439495" lon="1.933497">
        <ele>1216.8</ele>
        <time>2022-09-07T13:45:46Z</time>
      </trkpt>
      <trkpt lat="42.439242" lon="1.933111">
        <ele>1216.3</ele>
        <time>2022-09-07T13:45:54Z</time>
      </trkpt>
      <trkpt lat="42.439189" lon="1.93303">
        <ele>1215.8</ele>
        <time>2022-09-07T13:45:56Z</time>
      </trkpt>
      <trkpt lat="42.439014" lon="1.932763">
        <ele>1214.8</ele>
        <time>2022-09-07T13:46:02Z</time>
      </trkpt>
      <trkpt lat="42.438971" lon="1.932698">
        <ele>1214.8</ele>
        <time>2022-09-07T13:46:03Z</time>
      </trkpt>
      <trkpt lat="42.438847" lon="1.93261">
        <ele>1214.3</ele>
        <time>2022-09-07T13:46:06Z</time>
      </trkpt>
      <trkpt lat="42.43875" lon="1.932611">
        <ele>1213.5</ele>
        <time>2022-09-07T13:46:08Z</time>
      </trkpt>
      <trkpt lat="42.438535" lon="1.932613">
        <ele>1212.5</ele>
        <time>2022-09-07T13:46:13Z</time>
      </trkpt>
      <trkpt lat="42.438482" lon="1.932614">
        <ele>1212.3</ele>
        <time>2022-09-07T13:46:14Z</time>
      </trkpt>
      <trkpt lat="42.438352" lon="1.932631">
        <ele>1211.8</ele>
        <time>2022-09-07T13:46:17Z</time>
      </trkpt>
      <trkpt lat="42.438012" lon="1.932676">
        <ele>1210.5</ele>
        <time>2022-09-07T13:46:25Z</time>
      </trkpt>
      <trkpt lat="42.437991" lon="1.932678">
        <ele>1210.3</ele>
        <time>2022-09-07T13:46:25Z</time>
      </trkpt>
      <trkpt lat="42.437907" lon="1.93269">
        <ele>1210.3</ele>
        <time>2022-09-07T13:46:27Z</time>
      </trkpt>
      <trkpt lat="42.437785" lon="1.93269">
        <ele>1210</ele>
        <time>2022-09-07T13:46:30Z</time>
      </trkpt>
      <trkpt lat="42.437538" lon="1.93269">
        <ele>1209.5</ele>
        <time>2022-09-07T13:46:36Z</time>
      </trkpt>
      <trkpt lat="42.437381" lon="1.93269">
        <ele>1209.3</ele>
        <time>2022-09-07T13:46:39Z</time>
      </trkpt>
      <trkpt lat="42.437191" lon="1.932602">
        <ele>1210</ele>
        <time>2022-09-07T13:46:43Z</time>
      </trkpt>
      <trkpt lat="42.437171" lon="1.932581">
        <ele>1210</ele>
        <time>2022-09-07T13:46:44Z</time>
      </trkpt>
      <trkpt lat="42.437055" lon="1.932465">
        <ele>1211</ele>
        <time>2022-09-07T13:46:47Z</time>
      </trkpt>
      <trkpt lat="42.436907" lon="1.932297">
        <ele>1210.8</ele>
        <time>2022-09-07T13:46:52Z</time>
      </trkpt>
      <trkpt lat="42.436897" lon="1.932272">
        <ele>1210.8</ele>
        <time>2022-09-07T13:46:52Z</time>
      </trkpt>
      <trkpt lat="42.436797" lon="1.932022">
        <ele>1211</ele>
        <time>2022-09-07T13:46:57Z</time>
      </trkpt>
      <trkpt lat="42.43666" lon="1.931984">
        <ele>1210.5</ele>
        <time>2022-09-07T13:47:00Z</time>
      </trkpt>
      <trkpt lat="42.436511" lon="1.931944">
        <ele>1210</ele>
        <time>2022-09-07T13:47:03Z</time>
      </trkpt>
      <trkpt lat="42.436423" lon="1.93192">
        <ele>1209.8</ele>
        <time>2022-09-07T13:47:05Z</time>
      </trkpt>
      <trkpt lat="42.436169" lon="1.932034">
        <ele>1208.8</ele>
        <time>2022-09-07T13:47:11Z</time>
      </trkpt>
      <trkpt lat="42.436067" lon="1.93208">
        <ele>1208.5</ele>
        <time>2022-09-07T13:47:14Z</time>
      </trkpt>
      <trkpt lat="42.435907" lon="1.932281">
        <ele>1208</ele>
        <time>2022-09-07T13:47:18Z</time>
      </trkpt>
      <trkpt lat="42.435882" lon="1.932472">
        <ele>1207</ele>
        <time>2022-09-07T13:47:22Z</time>
      </trkpt>
      <trkpt lat="42.435854" lon="1.932701">
        <ele>1206.3</ele>
        <time>2022-09-07T13:47:25Z</time>
      </trkpt>
      <trkpt lat="42.435873" lon="1.932765">
        <ele>1205.5</ele>
        <time>2022-09-07T13:47:27Z</time>
      </trkpt>
      <trkpt lat="42.435968" lon="1.933088">
        <ele>1203.3</ele>
        <time>2022-09-07T13:47:32Z</time>
      </trkpt>
      <trkpt lat="42.436057" lon="1.933177">
        <ele>1202.5</ele>
        <time>2022-09-07T13:47:35Z</time>
      </trkpt>
      <trkpt lat="42.436169" lon="1.933287">
        <ele>1202</ele>
        <time>2022-09-07T13:47:38Z</time>
      </trkpt>
      <trkpt lat="42.436275" lon="1.93332">
        <ele>1201.8</ele>
        <time>2022-09-07T13:47:40Z</time>
      </trkpt>
      <trkpt lat="42.4365" lon="1.933392">
        <ele>1201.3</ele>
        <time>2022-09-07T13:47:45Z</time>
      </trkpt>
      <trkpt lat="42.436713" lon="1.933461">
        <ele>1200.8</ele>
        <time>2022-09-07T13:47:50Z</time>
      </trkpt>
      <trkpt lat="42.436767" lon="1.933478">
        <ele>1200.8</ele>
        <time>2022-09-07T13:47:52Z</time>
      </trkpt>
      <trkpt lat="42.436954" lon="1.933564">
        <ele>1199.3</ele>
        <time>2022-09-07T13:47:56Z</time>
      </trkpt>
      <trkpt lat="42.437026" lon="1.933598">
        <ele>1199</ele>
        <time>2022-09-07T13:47:58Z</time>
      </trkpt>
      <trkpt lat="42.43711" lon="1.933654">
        <ele>1198.3</ele>
        <time>2022-09-07T13:48:00Z</time>
      </trkpt>
      <trkpt lat="42.437242" lon="1.933744">
        <ele>1197.3</ele>
        <time>2022-09-07T13:48:03Z</time>
      </trkpt>
      <trkpt lat="42.437314" lon="1.933793">
        <ele>1197</ele>
        <time>2022-09-07T13:48:05Z</time>
      </trkpt>
      <trkpt lat="42.437414" lon="1.933982">
        <ele>1195.5</ele>
        <time>2022-09-07T13:48:09Z</time>
      </trkpt>
      <trkpt lat="42.437531" lon="1.934202">
        <ele>1194</ele>
        <time>2022-09-07T13:48:13Z</time>
      </trkpt>
      <trkpt lat="42.437546" lon="1.934231">
        <ele>1194</ele>
        <time>2022-09-07T13:48:14Z</time>
      </trkpt>
      <trkpt lat="42.437572" lon="1.934423">
        <ele>1192.5</ele>
        <time>2022-09-07T13:48:17Z</time>
      </trkpt>
      <trkpt lat="42.437581" lon="1.934488">
        <ele>1192.3</ele>
        <time>2022-09-07T13:48:18Z</time>
      </trkpt>
      <trkpt lat="42.437527" lon="1.934697">
        <ele>1189.3</ele>
        <time>2022-09-07T13:48:22Z</time>
      </trkpt>
      <trkpt lat="42.437495" lon="1.934824">
        <ele>1187.5</ele>
        <time>2022-09-07T13:48:24Z</time>
      </trkpt>
      <trkpt lat="42.437366" lon="1.934937">
        <ele>1185</ele>
        <time>2022-09-07T13:48:27Z</time>
      </trkpt>
      <trkpt lat="42.437274" lon="1.935019">
        <ele>1183.3</ele>
        <time>2022-09-07T13:48:30Z</time>
      </trkpt>
      <trkpt lat="42.437243" lon="1.935008">
        <ele>1181.4</ele>
        <time>2022-09-07T13:48:30Z</time>
      </trkpt>
      <trkpt lat="42.43701653146879" lon="1.934908395341873">
        <ele>1180.1</ele>
        <time>2022-09-07T13:48:36Z</time>
      </trkpt>
      <trkpt lat="42.43679006211912" lon="1.934808790683747">
        <ele>1179.5</ele>
        <time>2022-09-07T13:48:41Z</time>
      </trkpt>
      <trkpt lat="42.43673167233311" lon="1.934777945280075">
        <ele>1179.6</ele>
        <time>2022-09-07T13:48:42Z</time>
      </trkpt>
      <trkpt lat="42.43667328249265" lon="1.934747099876404">
        <ele>1179.6</ele>
        <time>2022-09-07T13:48:44Z</time>
      </trkpt>
      <trkpt lat="42.43662972849247" lon="1.934729665517807">
        <ele>1179.4</ele>
        <time>2022-09-07T13:48:45Z</time>
      </trkpt>
      <trkpt lat="42.43658617446199" lon="1.93471223115921">
        <ele>1179.1</ele>
        <time>2022-09-07T13:48:46Z</time>
      </trkpt>
      <trkpt lat="42.43648947603074" lon="1.93466529250145">
        <ele>1178.7</ele>
        <time>2022-09-07T13:48:48Z</time>
      </trkpt>
      <trkpt lat="42.43639277745024" lon="1.934618353843689">
        <ele>1178.8</ele>
        <time>2022-09-07T13:48:50Z</time>
      </trkpt>
      <trkpt lat="42.43630959201557" lon="1.934592872858048">
        <ele>1180.1</ele>
        <time>2022-09-07T13:48:52Z</time>
      </trkpt>
      <trkpt lat="42.43622640647045" lon="1.934567391872406">
        <ele>1181.5</ele>
        <time>2022-09-07T13:48:54Z</time>
      </trkpt>
      <trkpt lat="42.43609766671868" lon="1.934541910886765">
        <ele>1182.2</ele>
        <time>2022-09-07T13:48:57Z</time>
      </trkpt>
      <trkpt lat="42.43596892670244" lon="1.934516429901123">
        <ele>1182.2</ele>
        <time>2022-09-07T13:49:00Z</time>
      </trkpt>
      <trkpt lat="42.43584315735423" lon="1.934496313333512">
        <ele>1181.5</ele>
        <time>2022-09-07T13:49:03Z</time>
      </trkpt>
      <trkpt lat="42.43571738775363" lon="1.9344761967659">
        <ele>1180.9</ele>
        <time>2022-09-07T13:49:06Z</time>
      </trkpt>
      <trkpt lat="42.43562719394172" lon="1.93444809838295">
        <ele>1180.5</ele>
        <time>2022-09-07T13:49:08Z</time>
      </trkpt>
      <trkpt lat="42.43553699999999" lon="1.93442">
        <ele>1180.2</ele>
        <time>2022-09-07T13:49:10Z</time>
      </trkpt>
      <trkpt lat="42.43533411174516" lon="1.93432739897728">
        <ele>1179.8</ele>
        <time>2022-09-07T13:49:14Z</time>
      </trkpt>
      <trkpt lat="42.43513122283344" lon="1.93423479795456">
        <ele>1179</ele>
        <time>2022-09-07T13:49:19Z</time>
      </trkpt>
      <trkpt lat="42.43506489564344" lon="1.934181153774262">
        <ele>1178.7</ele>
        <time>2022-09-07T13:49:21Z</time>
      </trkpt>
      <trkpt lat="42.43499856838324" lon="1.934127509593964">
        <ele>1178.3</ele>
        <time>2022-09-07T13:49:23Z</time>
      </trkpt>
      <trkpt lat="42.43490578426032" lon="1.934013254796982">
        <ele>1177.6</ele>
        <time>2022-09-07T13:49:25Z</time>
      </trkpt>
      <trkpt lat="42.43481300000001" lon="1.933899">
        <ele>1176.3</ele>
        <time>2022-09-07T13:49:28Z</time>
      </trkpt>
      <trkpt lat="42.43469100000001" lon="1.933716">
        <ele>1173.7</ele>
        <time>2022-09-07T13:49:32Z</time>
      </trkpt>
      <trkpt lat="42.43461218144207" lon="1.933649510581971">
        <ele>1172.4</ele>
        <time>2022-09-07T13:49:34Z</time>
      </trkpt>
      <trkpt lat="42.434533362785" lon="1.933583021163941">
        <ele>1171.6</ele>
        <time>2022-09-07T13:49:36Z</time>
      </trkpt>
      <trkpt lat="42.43445168144575" lon="1.933585010581971">
        <ele>1170.4</ele>
        <time>2022-09-07T13:49:38Z</time>
      </trkpt>
      <trkpt lat="42.43437" lon="1.933587">
        <ele>1169.3</ele>
        <time>2022-09-07T13:49:40Z</time>
      </trkpt>
      <trkpt lat="42.43426" lon="1.933631">
        <ele>1169.5</ele>
        <time>2022-09-07T13:49:43Z</time>
      </trkpt>
      <trkpt lat="42.434216" lon="1.933665">
        <ele>1168.5</ele>
        <time>2022-09-07T13:49:44Z</time>
      </trkpt>
      <trkpt lat="42.434134" lon="1.933825">
        <ele>1166.8</ele>
        <time>2022-09-07T13:49:47Z</time>
      </trkpt>
      <trkpt lat="42.434122" lon="1.933953">
        <ele>1166.3</ele>
        <time>2022-09-07T13:49:49Z</time>
      </trkpt>
      <trkpt lat="42.43411" lon="1.934091">
        <ele>1165.8</ele>
        <time>2022-09-07T13:49:51Z</time>
      </trkpt>
      <trkpt lat="42.434135" lon="1.934223">
        <ele>1165.3</ele>
        <time>2022-09-07T13:49:54Z</time>
      </trkpt>
      <trkpt lat="42.434242" lon="1.934695">
        <ele>1163</ele>
        <time>2022-09-07T13:50:02Z</time>
      </trkpt>
      <trkpt lat="42.434246" lon="1.934708">
        <ele>1162.8</ele>
        <time>2022-09-07T13:50:02Z</time>
      </trkpt>
      <trkpt lat="42.434277" lon="1.934799">
        <ele>1162.5</ele>
        <time>2022-09-07T13:50:04Z</time>
      </trkpt>
      <trkpt lat="42.434359" lon="1.935033">
        <ele>1161.3</ele>
        <time>2022-09-07T13:50:08Z</time>
      </trkpt>
      <trkpt lat="42.434368" lon="1.935054">
        <ele>1161</ele>
        <time>2022-09-07T13:50:08Z</time>
      </trkpt>
      <trkpt lat="42.43448" lon="1.935312">
        <ele>1160</ele>
        <time>2022-09-07T13:50:13Z</time>
      </trkpt>
      <trkpt lat="42.434509" lon="1.93538">
        <ele>1159.5</ele>
        <time>2022-09-07T13:50:15Z</time>
      </trkpt>
      <trkpt lat="42.434583" lon="1.935551">
        <ele>1159</ele>
        <time>2022-09-07T13:50:18Z</time>
      </trkpt>
      <trkpt lat="42.434633" lon="1.935726">
        <ele>1158</ele>
        <time>2022-09-07T13:50:21Z</time>
      </trkpt>
      <trkpt lat="42.434699" lon="1.935949">
        <ele>1156.8</ele>
        <time>2022-09-07T13:50:25Z</time>
      </trkpt>
      <trkpt lat="42.434709" lon="1.936163">
        <ele>1155.3</ele>
        <time>2022-09-07T13:50:28Z</time>
      </trkpt>
      <trkpt lat="42.43468699999999" lon="1.936271">
        <ele>1153.6</ele>
        <time>2022-09-07T13:50:30Z</time>
      </trkpt>
      <trkpt lat="42.43464382823682" lon="1.936374062345505">
        <ele>1152.2</ele>
        <time>2022-09-07T13:50:32Z</time>
      </trkpt>
      <trkpt lat="42.43460065644387" lon="1.93647712469101">
        <ele>1150.9</ele>
        <time>2022-09-07T13:50:34Z</time>
      </trkpt>
      <trkpt lat="42.43453929946423" lon="1.93654015660286">
        <ele>1149.9</ele>
        <time>2022-09-07T13:50:36Z</time>
      </trkpt>
      <trkpt lat="42.43447794242451" lon="1.93660318851471">
        <ele>1149</ele>
        <time>2022-09-07T13:50:38Z</time>
      </trkpt>
      <trkpt lat="42.43440667349492" lon="1.936647444963455">
        <ele>1148.3</ele>
        <time>2022-09-07T13:50:39Z</time>
      </trkpt>
      <trkpt lat="42.43433540448429" lon="1.936691701412201">
        <ele>1147.6</ele>
        <time>2022-09-07T13:50:41Z</time>
      </trkpt>
      <trkpt lat="42.43429258547226" lon="1.936686336994171">
        <ele>1147.5</ele>
        <time>2022-09-07T13:50:42Z</time>
      </trkpt>
      <trkpt lat="42.43424976643094" lon="1.936680972576142">
        <ele>1147.3</ele>
        <time>2022-09-07T13:50:43Z</time>
      </trkpt>
      <trkpt lat="42.43414578106457" lon="1.936678290367127">
        <ele>1147.4</ele>
        <time>2022-09-07T13:50:45Z</time>
      </trkpt>
      <trkpt lat="42.43404179552566" lon="1.936675608158112">
        <ele>1147.4</ele>
        <time>2022-09-07T13:50:48Z</time>
      </trkpt>
      <trkpt lat="42.43392592572189" lon="1.936652809381485">
        <ele>1147.6</ele>
        <time>2022-09-07T13:50:50Z</time>
      </trkpt>
      <trkpt lat="42.43381005570392" lon="1.936630010604859">
        <ele>1147.9</ele>
        <time>2022-09-07T13:50:53Z</time>
      </trkpt>
      <trkpt lat="42.43375261578654" lon="1.936621963977814">
        <ele>1148</ele>
        <time>2022-09-07T13:50:54Z</time>
      </trkpt>
      <trkpt lat="42.4336951758165" lon="1.936613917350769">
        <ele>1147.9</ele>
        <time>2022-09-07T13:50:55Z</time>
      </trkpt>
      <trkpt lat="42.43364565855872" lon="1.936607211828232">
        <ele>1147.9</ele>
        <time>2022-09-07T13:50:56Z</time>
      </trkpt>
      <trkpt lat="42.43359614126179" lon="1.936600506305695">
        <ele>1147.8</ele>
        <time>2022-09-07T13:50:58Z</time>
      </trkpt>
      <trkpt lat="42.43354365288434" lon="1.936595141887665">
        <ele>1147.8</ele>
        <time>2022-09-07T13:50:59Z</time>
      </trkpt>
      <trkpt lat="42.43349116446291" lon="1.936589777469635">
        <ele>1147.5</ele>
        <time>2022-09-07T13:51:00Z</time>
      </trkpt>
      <trkpt lat="42.43343966634637" lon="1.936579048633576">
        <ele>1147.3</ele>
        <time>2022-09-07T13:51:01Z</time>
      </trkpt>
      <trkpt lat="42.4333881681875" lon="1.936568319797516">
        <ele>1147.1</ele>
        <time>2022-09-07T13:51:02Z</time>
      </trkpt>
      <trkpt lat="42.4333366699863" lon="1.936552226543427">
        <ele>1146.8</ele>
        <time>2022-09-07T13:51:03Z</time>
      </trkpt>
      <trkpt lat="42.4332851717428" lon="1.936536133289337">
        <ele>1146.6</ele>
        <time>2022-09-07T13:51:05Z</time>
      </trkpt>
      <trkpt lat="42.43323961556902" lon="1.936491876840592">
        <ele>1146.5</ele>
        <time>2022-09-07T13:51:06Z</time>
      </trkpt>
      <trkpt lat="42.43319405936214" lon="1.936447620391846">
        <ele>1146.3</ele>
        <time>2022-09-07T13:51:07Z</time>
      </trkpt>
      <trkpt lat="42.43317623301132" lon="1.936381906270982">
        <ele>1146.5</ele>
        <time>2022-09-07T13:51:08Z</time>
      </trkpt>
      <trkpt lat="42.43315840665542" lon="1.936316192150117">
        <ele>1146.6</ele>
        <time>2022-09-07T13:51:09Z</time>
      </trkpt>
      <trkpt lat="42.43314256100146" lon="1.936239749193192">
        <ele>1146.8</ele>
        <time>2022-09-07T13:51:11Z</time>
      </trkpt>
      <trkpt lat="42.43312671534354" lon="1.936163306236268">
        <ele>1147</ele>
        <time>2022-09-07T13:51:12Z</time>
      </trkpt>
      <trkpt lat="42.43312275392844" lon="1.936117708683014">
        <ele>1147.2</ele>
        <time>2022-09-07T13:51:13Z</time>
      </trkpt>
      <trkpt lat="42.43311879251306" lon="1.936072111129761">
        <ele>1147.5</ele>
        <time>2022-09-07T13:51:13Z</time>
      </trkpt>
      <trkpt lat="42.43310690826545" lon="1.936010420322418">
        <ele>1147.7</ele>
        <time>2022-09-07T13:51:15Z</time>
      </trkpt>
      <trkpt lat="42.43309502401559" lon="1.935948729515076">
        <ele>1147.8</ele>
        <time>2022-09-07T13:51:16Z</time>
      </trkpt>
      <trkpt lat="42.4330752169275" lon="1.935888379812241">
        <ele>1148</ele>
        <time>2022-09-07T13:51:17Z</time>
      </trkpt>
      <trkpt lat="42.43305540983314" lon="1.935828030109406">
        <ele>1148.1</ele>
        <time>2022-09-07T13:51:18Z</time>
      </trkpt>
      <trkpt lat="42.4330187666921" lon="1.935769021511078">
        <ele>1148.3</ele>
        <time>2022-09-07T13:51:19Z</time>
      </trkpt>
      <trkpt lat="42.43298212352963" lon="1.93571001291275">
        <ele>1148.6</ele>
        <time>2022-09-07T13:51:20Z</time>
      </trkpt>
      <trkpt lat="42.4329484514155" lon="1.935673803091049">
        <ele>1148.7</ele>
        <time>2022-09-07T13:51:21Z</time>
      </trkpt>
      <trkpt lat="42.43291477928325" lon="1.935637593269348">
        <ele>1148.8</ele>
        <time>2022-09-07T13:51:22Z</time>
      </trkpt>
      <trkpt lat="42.43286526140889" lon="1.935621500015259">
        <ele>1148.5</ele>
        <time>2022-09-07T13:51:23Z</time>
      </trkpt>
      <trkpt lat="42.43281574349536" lon="1.93560540676117">
        <ele>1148.3</ele>
        <time>2022-09-07T13:51:24Z</time>
      </trkpt>
      <trkpt lat="42.43277315805846" lon="1.935614794492722">
        <ele>1148.2</ele>
        <time>2022-09-07T13:51:25Z</time>
      </trkpt>
      <trkpt lat="42.43273057259263" lon="1.935624182224274">
        <ele>1148.2</ele>
        <time>2022-09-07T13:51:26Z</time>
      </trkpt>
      <trkpt lat="42.43270284250629" lon="1.935634911060333">
        <ele>1148.1</ele>
        <time>2022-09-07T13:51:27Z</time>
      </trkpt>
      <trkpt lat="42.43267511240769" lon="1.935645639896393">
        <ele>1148</ele>
        <time>2022-09-07T13:51:28Z</time>
      </trkpt>
      <trkpt lat="42.43263648832134" lon="1.935655027627945">
        <ele>1148</ele>
        <time>2022-09-07T13:51:29Z</time>
      </trkpt>
      <trkpt lat="42.43259786421118" lon="1.935664415359497">
        <ele>1147.9</ele>
        <time>2022-09-07T13:51:29Z</time>
      </trkpt>
      <trkpt lat="42.43255643211928" lon="1.935658707679748">
        <ele>1147.9</ele>
        <time>2022-09-07T13:51:30Z</time>
      </trkpt>
      <trkpt lat="42.432515" lon="1.935653">
        <ele>1147.8</ele>
        <time>2022-09-07T13:51:31Z</time>
      </trkpt>
      <trkpt lat="42.43231363384268" lon="1.935550078214645">
        <ele>1147.6</ele>
        <time>2022-09-07T13:51:36Z</time>
      </trkpt>
      <trkpt lat="42.43211226703841" lon="1.935447156429291">
        <ele>1146.3</ele>
        <time>2022-09-07T13:51:41Z</time>
      </trkpt>
      <trkpt lat="42.43205286022206" lon="1.935404241085053">
        <ele>1146.4</ele>
        <time>2022-09-07T13:51:42Z</time>
      </trkpt>
      <trkpt lat="42.43199345334942" lon="1.935361325740814">
        <ele>1146.5</ele>
        <time>2022-09-07T13:51:44Z</time>
      </trkpt>
      <trkpt lat="42.4318796359052" lon="1.935260742902756">
        <ele>1146.9</ele>
        <time>2022-09-07T13:51:47Z</time>
      </trkpt>
      <trkpt lat="42.43176581825429" lon="1.935160160064698">
        <ele>1147.3</ele>
        <time>2022-09-07T13:51:50Z</time>
      </trkpt>
      <trkpt lat="42.43168464406899" lon="1.93510115146637">
        <ele>1147.1</ele>
        <time>2022-09-07T13:51:52Z</time>
      </trkpt>
      <trkpt lat="42.43160346977854" lon="1.935042142868042">
        <ele>1146.9</ele>
        <time>2022-09-07T13:51:54Z</time>
      </trkpt>
      <trkpt lat="42.43137679816109" lon="1.934847682714463">
        <ele>1145.2</ele>
        <time>2022-09-07T13:52:00Z</time>
      </trkpt>
      <trkpt lat="42.43115012572387" lon="1.934653222560883">
        <ele>1142.8</ele>
        <time>2022-09-07T13:52:06Z</time>
      </trkpt>
      <trkpt lat="42.43095017861565" lon="1.934489607810975">
        <ele>1141.7</ele>
        <time>2022-09-07T13:52:11Z</time>
      </trkpt>
      <trkpt lat="42.43075023086959" lon="1.934325993061066">
        <ele>1141.4</ele>
        <time>2022-09-07T13:52:16Z</time>
      </trkpt>
      <trkpt lat="42.43065123891984" lon="1.934221386909485">
        <ele>1141.4</ele>
        <time>2022-09-07T13:52:19Z</time>
      </trkpt>
      <trkpt lat="42.43055224681374" lon="1.934116780757904">
        <ele>1141</ele>
        <time>2022-09-07T13:52:22Z</time>
      </trkpt>
      <trkpt lat="42.43045425662915" lon="1.93402960896492">
        <ele>1140.8</ele>
        <time>2022-09-07T13:52:25Z</time>
      </trkpt>
      <trkpt lat="42.4303562662914" lon="1.933942437171936">
        <ele>1140.8</ele>
        <time>2022-09-07T13:52:27Z</time>
      </trkpt>
      <trkpt lat="42.43026123637765" lon="1.933844536542893">
        <ele>1141.2</ele>
        <time>2022-09-07T13:52:30Z</time>
      </trkpt>
      <trkpt lat="42.43016620631986" lon="1.933746635913849">
        <ele>1142</ele>
        <time>2022-09-07T13:52:33Z</time>
      </trkpt>
      <trkpt lat="42.43004644048831" lon="1.933620572090149">
        <ele>1142.9</ele>
        <time>2022-09-07T13:52:36Z</time>
      </trkpt>
      <trkpt lat="42.42992667442789" lon="1.933494508266449">
        <ele>1143.5</ele>
        <time>2022-09-07T13:52:39Z</time>
      </trkpt>
      <trkpt lat="42.42984549839173" lon="1.933395266532898">
        <ele>1143.4</ele>
        <time>2022-09-07T13:52:42Z</time>
      </trkpt>
      <trkpt lat="42.42976432225043" lon="1.933296024799347">
        <ele>1143.2</ele>
        <time>2022-09-07T13:52:44Z</time>
      </trkpt>
      <trkpt lat="42.42966536007271" lon="1.933149844408036">
        <ele>1142.9</ele>
        <time>2022-09-07T13:52:47Z</time>
      </trkpt>
      <trkpt lat="42.42956639773872" lon="1.933003664016724">
        <ele>1142.6</ele>
        <time>2022-09-07T13:52:51Z</time>
      </trkpt>
      <trkpt lat="42.42950895977318" lon="1.932932585477829">
        <ele>1142.3</ele>
        <time>2022-09-07T13:52:52Z</time>
      </trkpt>
      <trkpt lat="42.42945152175498" lon="1.932861506938935">
        <ele>1142.2</ele>
        <time>2022-09-07T13:52:54Z</time>
      </trkpt>
      <trkpt lat="42.42936440262457" lon="1.93272739648819">
        <ele>1142</ele>
        <time>2022-09-07T13:52:57Z</time>
      </trkpt>
      <trkpt lat="42.42926839459851" lon="1.932569146156311">
        <ele>1141.5</ele>
        <time>2022-09-07T13:53:01Z</time>
      </trkpt>
      <trkpt lat="42.42917238642537" lon="1.932410895824433">
        <ele>1140.9</ele>
        <time>2022-09-07T13:53:04Z</time>
      </trkpt>
      <trkpt lat="42.42910407952863" lon="1.93229153752327">
        <ele>1140.7</ele>
        <time>2022-09-07T13:53:07Z</time>
      </trkpt>
      <trkpt lat="42.42903577255746" lon="1.932172179222108">
        <ele>1140.9</ele>
        <time>2022-09-07T13:53:09Z</time>
      </trkpt>
      <trkpt lat="42.42899024462446" lon="1.932080984115601">
        <ele>1141.1</ele>
        <time>2022-09-07T13:53:11Z</time>
      </trkpt>
      <trkpt lat="42.42894471665839" lon="1.931989789009094">
        <ele>1141.4</ele>
        <time>2022-09-07T13:53:13Z</time>
      </trkpt>
      <trkpt lat="42.42889422699818" lon="1.931897252798081">
        <ele>1141.7</ele>
        <time>2022-09-07T13:53:15Z</time>
      </trkpt>
      <trkpt lat="42.42884373729729" lon="1.931804716587067">
        <ele>1142</ele>
        <time>2022-09-07T13:53:17Z</time>
      </trkpt>
      <trkpt lat="42.42881107356016" lon="1.931744366884232">
        <ele>1142.2</ele>
        <time>2022-09-07T13:53:18Z</time>
      </trkpt>
      <trkpt lat="42.42877840980598" lon="1.931684017181397">
        <ele>1142.4</ele>
        <time>2022-09-07T13:53:19Z</time>
      </trkpt>
      <trkpt lat="42.42872891468314" lon="1.93159818649292">
        <ele>1142.4</ele>
        <time>2022-09-07T13:53:21Z</time>
      </trkpt>
      <trkpt lat="42.42867941952122" lon="1.931512355804444">
        <ele>1142.4</ele>
        <time>2022-09-07T13:53:23Z</time>
      </trkpt>
      <trkpt lat="42.42864279665524" lon="1.931427866220474">
        <ele>1142.4</ele>
        <time>2022-09-07T13:53:25Z</time>
      </trkpt>
      <trkpt lat="42.42860617376787" lon="1.931343376636505">
        <ele>1142.5</ele>
        <time>2022-09-07T13:53:26Z</time>
      </trkpt>
      <trkpt lat="42.42856855034412" lon="1.931273639202118">
        <ele>1142.7</ele>
        <time>2022-09-07T13:53:28Z</time>
      </trkpt>
      <trkpt lat="42.4285309268978" lon="1.931203901767731">
        <ele>1143.1</ele>
        <time>2022-09-07T13:53:29Z</time>
      </trkpt>
      <trkpt lat="42.42845173521945" lon="1.931032240390778">
        <ele>1144.7</ele>
        <time>2022-09-07T13:53:33Z</time>
      </trkpt>
      <trkpt lat="42.42837254344103" lon="1.930860579013825">
        <ele>1146.7</ele>
        <time>2022-09-07T13:53:36Z</time>
      </trkpt>
      <trkpt lat="42.42829335156259" lon="1.930688917636872">
        <ele>1148.7</ele>
        <time>2022-09-07T13:53:39Z</time>
      </trkpt>
      <trkpt lat="42.42821415958409" lon="1.930517256259918">
        <ele>1149.9</ele>
        <time>2022-09-07T13:53:43Z</time>
      </trkpt>
      <trkpt lat="42.428180505618" lon="1.930452883243561">
        <ele>1150.3</ele>
        <time>2022-09-07T13:53:44Z</time>
      </trkpt>
      <trkpt lat="42.42814685163385" lon="1.930388510227204">
        <ele>1150.6</ele>
        <time>2022-09-07T13:53:45Z</time>
      </trkpt>
      <trkpt lat="42.42811517424942" lon="1.930321455001831">
        <ele>1150.9</ele>
        <time>2022-09-07T13:53:47Z</time>
      </trkpt>
      <trkpt lat="42.42808349684896" lon="1.930254399776459">
        <ele>1151.1</ele>
        <time>2022-09-07T13:53:48Z</time>
      </trkpt>
      <trkpt lat="42.42803994272042" lon="1.930152475833893">
        <ele>1151.5</ele>
        <time>2022-09-07T13:53:50Z</time>
      </trkpt>
      <trkpt lat="42.4279963885616" lon="1.930050551891327">
        <ele>1151.8</ele>
        <time>2022-09-07T13:53:52Z</time>
      </trkpt>
      <trkpt lat="42.42793403627383" lon="1.929913759231568">
        <ele>1151.5</ele>
        <time>2022-09-07T13:53:54Z</time>
      </trkpt>
      <trkpt lat="42.427871683924" lon="1.929776966571808">
        <ele>1150.9</ele>
        <time>2022-09-07T13:53:57Z</time>
      </trkpt>
      <trkpt lat="42.42780732567878" lon="1.929645538330078">
        <ele>1150.2</ele>
        <time>2022-09-07T13:54:00Z</time>
      </trkpt>
      <trkpt lat="42.42774296736752" lon="1.929514110088349">
        <ele>1150.3</ele>
        <time>2022-09-07T13:54:02Z</time>
      </trkpt>
      <trkpt lat="42.42769446558382" lon="1.929414868354798">
        <ele>1150.3</ele>
        <time>2022-09-07T13:54:04Z</time>
      </trkpt>
      <trkpt lat="42.4276459637626" lon="1.929315626621247">
        <ele>1150.2</ele>
        <time>2022-09-07T13:54:06Z</time>
      </trkpt>
      <trkpt lat="42.4276093339206" lon="1.929263323545456">
        <ele>1149.8</ele>
        <time>2022-09-07T13:54:07Z</time>
      </trkpt>
      <trkpt lat="42.42757270405723" lon="1.929211020469666">
        <ele>1149.5</ele>
        <time>2022-09-07T13:54:09Z</time>
      </trkpt>
      <trkpt lat="42.42751185205815" lon="1.929220010234833">
        <ele>1148.8</ele>
        <time>2022-09-07T13:54:10Z</time>
      </trkpt>
      <trkpt lat="42.427451" lon="1.929229">
        <ele>1148.4</ele>
        <time>2022-09-07T13:54:11Z</time>
      </trkpt>
      <trkpt lat="42.427419" lon="1.929245">
        <ele>1149.3</ele>
        <time>2022-09-07T13:54:12Z</time>
      </trkpt>
      <trkpt lat="42.42741" lon="1.92925">
        <ele>1149.3</ele>
        <time>2022-09-07T13:54:12Z</time>
      </trkpt>
      <trkpt lat="42.427131" lon="1.9294">
        <ele>1147.3</ele>
        <time>2022-09-07T13:54:19Z</time>
      </trkpt>
      <trkpt lat="42.427009" lon="1.929466">
        <ele>1146.5</ele>
        <time>2022-09-07T13:54:22Z</time>
      </trkpt>
      <trkpt lat="42.426985" lon="1.929489">
        <ele>1146.3</ele>
        <time>2022-09-07T13:54:22Z</time>
      </trkpt>
      <trkpt lat="42.426863" lon="1.929614">
        <ele>1145.3</ele>
        <time>2022-09-07T13:54:26Z</time>
      </trkpt>
      <trkpt lat="42.426866" lon="1.929746">
        <ele>1144.8</ele>
        <time>2022-09-07T13:54:28Z</time>
      </trkpt>
      <trkpt lat="42.42682" lon="1.929806">
        <ele>1144.5</ele>
        <time>2022-09-07T13:54:29Z</time>
      </trkpt>
      <trkpt lat="42.42649" lon="1.930249">
        <ele>1143</ele>
        <time>2022-09-07T13:54:40Z</time>
      </trkpt>
      <trkpt lat="42.426192" lon="1.93065">
        <ele>1142</ele>
        <time>2022-09-07T13:54:49Z</time>
      </trkpt>
      <trkpt lat="42.426053" lon="1.930837">
        <ele>1141.5</ele>
        <time>2022-09-07T13:54:53Z</time>
      </trkpt>
      <trkpt lat="42.426031" lon="1.930867">
        <ele>1141.3</ele>
        <time>2022-09-07T13:54:54Z</time>
      </trkpt>
      <trkpt lat="42.425876" lon="1.931079">
        <ele>1140.5</ele>
        <time>2022-09-07T13:54:59Z</time>
      </trkpt>
      <trkpt lat="42.42583" lon="1.93113">
        <ele>1136.6</ele>
        <time>2022-09-07T13:55:00Z</time>
      </trkpt>
      <trkpt lat="42.42578" lon="1.93119">
        <ele>1135.8</ele>
        <time>2022-09-07T13:55:01Z</time>
      </trkpt>
      <trkpt lat="42.42574" lon="1.93125">
        <ele>1135.8</ele>
        <time>2022-09-07T13:55:02Z</time>
      </trkpt>
      <trkpt lat="42.42569" lon="1.93132">
        <ele>1135.8</ele>
        <time>2022-09-07T13:55:03Z</time>
      </trkpt>
      <trkpt lat="42.42563" lon="1.93138">
        <ele>1135.8</ele>
        <time>2022-09-07T13:55:04Z</time>
      </trkpt>
      <trkpt lat="42.42559" lon="1.93144">
        <ele>1135.4</ele>
        <time>2022-09-07T13:55:05Z</time>
      </trkpt>
      <trkpt lat="42.42554" lon="1.93151">
        <ele>1135.4</ele>
        <time>2022-09-07T13:55:06Z</time>
      </trkpt>
      <trkpt lat="42.42549" lon="1.93158">
        <ele>1135.4</ele>
        <time>2022-09-07T13:55:07Z</time>
      </trkpt>
      <trkpt lat="42.42544" lon="1.93165">
        <ele>1135.2</ele>
        <time>2022-09-07T13:55:08Z</time>
      </trkpt>
      <trkpt lat="42.42539" lon="1.93172">
        <ele>1134.6</ele>
        <time>2022-09-07T13:55:09Z</time>
      </trkpt>
      <trkpt lat="42.42533" lon="1.93179">
        <ele>1134.6</ele>
        <time>2022-09-07T13:55:10Z</time>
      </trkpt>
      <trkpt lat="42.42528" lon="1.93186">
        <ele>1134.6</ele>
        <time>2022-09-07T13:55:11Z</time>
      </trkpt>
      <trkpt lat="42.42523" lon="1.93193">
        <ele>1134.6</ele>
        <time>2022-09-07T13:55:12Z</time>
      </trkpt>
      <trkpt lat="42.42518" lon="1.932">
        <ele>1134.6</ele>
        <time>2022-09-07T13:55:13Z</time>
      </trkpt>
      <trkpt lat="42.42513" lon="1.93207">
        <ele>1134.6</ele>
        <time>2022-09-07T13:55:14Z</time>
      </trkpt>
      <trkpt lat="42.42508" lon="1.93213">
        <ele>1134.6</ele>
        <time>2022-09-07T13:55:15Z</time>
      </trkpt>
      <trkpt lat="42.42502" lon="1.93218">
        <ele>1134.2</ele>
        <time>2022-09-07T13:55:16Z</time>
      </trkpt>
      <trkpt lat="42.42496" lon="1.93224">
        <ele>1133.6</ele>
        <time>2022-09-07T13:55:17Z</time>
      </trkpt>
      <trkpt lat="42.42489" lon="1.93229">
        <ele>1133.6</ele>
        <time>2022-09-07T13:55:18Z</time>
      </trkpt>
      <trkpt lat="42.42483" lon="1.93235">
        <ele>1132.6</ele>
        <time>2022-09-07T13:55:19Z</time>
      </trkpt>
      <trkpt lat="42.42476" lon="1.93241">
        <ele>1132.6</ele>
        <time>2022-09-07T13:55:20Z</time>
      </trkpt>
      <trkpt lat="42.4247" lon="1.93246">
        <ele>1131.2</ele>
        <time>2022-09-07T13:55:21Z</time>
      </trkpt>
      <trkpt lat="42.42463" lon="1.93252">
        <ele>1131.2</ele>
        <time>2022-09-07T13:55:22Z</time>
      </trkpt>
      <trkpt lat="42.42456" lon="1.93257">
        <ele>1131.2</ele>
        <time>2022-09-07T13:55:23Z</time>
      </trkpt>
      <trkpt lat="42.42449" lon="1.93263">
        <ele>1131.4</ele>
        <time>2022-09-07T13:55:24Z</time>
      </trkpt>
      <trkpt lat="42.42441" lon="1.93267">
        <ele>1130.8</ele>
        <time>2022-09-07T13:55:25Z</time>
      </trkpt>
      <trkpt lat="42.42433" lon="1.93271">
        <ele>1130.8</ele>
        <time>2022-09-07T13:55:26Z</time>
      </trkpt>
      <trkpt lat="42.42425" lon="1.93274">
        <ele>1130.8</ele>
        <time>2022-09-07T13:55:27Z</time>
      </trkpt>
      <trkpt lat="42.42416" lon="1.93276">
        <ele>1130.8</ele>
        <time>2022-09-07T13:55:28Z</time>
      </trkpt>
      <trkpt lat="42.42408" lon="1.93279">
        <ele>1129.4</ele>
        <time>2022-09-07T13:55:29Z</time>
      </trkpt>
      <trkpt lat="42.42399" lon="1.93281">
        <ele>1129.4</ele>
        <time>2022-09-07T13:55:30Z</time>
      </trkpt>
      <trkpt lat="42.42391" lon="1.93285">
        <ele>1129.4</ele>
        <time>2022-09-07T13:55:31Z</time>
      </trkpt>
      <trkpt lat="42.42383" lon="1.93291">
        <ele>1129.4</ele>
        <time>2022-09-07T13:55:32Z</time>
      </trkpt>
      <trkpt lat="42.42376" lon="1.93298">
        <ele>1128.6</ele>
        <time>2022-09-07T13:55:33Z</time>
      </trkpt>
      <trkpt lat="42.42369" lon="1.93307">
        <ele>1128.8</ele>
        <time>2022-09-07T13:55:34Z</time>
      </trkpt>
      <trkpt lat="42.42364" lon="1.93317">
        <ele>1128.8</ele>
        <time>2022-09-07T13:55:35Z</time>
      </trkpt>
      <trkpt lat="42.42359" lon="1.93328">
        <ele>1127.8</ele>
        <time>2022-09-07T13:55:36Z</time>
      </trkpt>
      <trkpt lat="42.42355" lon="1.93339">
        <ele>1127.8</ele>
        <time>2022-09-07T13:55:37Z</time>
      </trkpt>
      <trkpt lat="42.42352" lon="1.9335">
        <ele>1127</ele>
        <time>2022-09-07T13:55:38Z</time>
      </trkpt>
      <trkpt lat="42.42347" lon="1.9336">
        <ele>1127</ele>
        <time>2022-09-07T13:55:39Z</time>
      </trkpt>
      <trkpt lat="42.42343" lon="1.9337">
        <ele>1127</ele>
        <time>2022-09-07T13:55:40Z</time>
      </trkpt>
      <trkpt lat="42.42337" lon="1.93378">
        <ele>1127</ele>
        <time>2022-09-07T13:55:41Z</time>
      </trkpt>
      <trkpt lat="42.42329" lon="1.93385">
        <ele>1125</ele>
        <time>2022-09-07T13:55:42Z</time>
      </trkpt>
      <trkpt lat="42.42321" lon="1.93391">
        <ele>1125</ele>
        <time>2022-09-07T13:55:43Z</time>
      </trkpt>
      <trkpt lat="42.42312" lon="1.93396">
        <ele>1125</ele>
        <time>2022-09-07T13:55:44Z</time>
      </trkpt>
      <trkpt lat="42.42302" lon="1.93401">
        <ele>1125</ele>
        <time>2022-09-07T13:55:45Z</time>
      </trkpt>
      <trkpt lat="42.42293" lon="1.93405">
        <ele>1123.8</ele>
        <time>2022-09-07T13:55:46Z</time>
      </trkpt>
      <trkpt lat="42.42284" lon="1.93409">
        <ele>1123.8</ele>
        <time>2022-09-07T13:55:47Z</time>
      </trkpt>
      <trkpt lat="42.42275" lon="1.93415">
        <ele>1123.8</ele>
        <time>2022-09-07T13:55:48Z</time>
      </trkpt>
      <trkpt lat="42.42267" lon="1.93421">
        <ele>1123</ele>
        <time>2022-09-07T13:55:49Z</time>
      </trkpt>
      <trkpt lat="42.42261" lon="1.93429">
        <ele>1123</ele>
        <time>2022-09-07T13:55:50Z</time>
      </trkpt>
      <trkpt lat="42.42254" lon="1.93438">
        <ele>1123</ele>
        <time>2022-09-07T13:55:51Z</time>
      </trkpt>
      <trkpt lat="42.42248" lon="1.93446">
        <ele>1123</ele>
        <time>2022-09-07T13:55:52Z</time>
      </trkpt>
      <trkpt lat="42.42242" lon="1.93455">
        <ele>1123</ele>
        <time>2022-09-07T13:55:53Z</time>
      </trkpt>
      <trkpt lat="42.42237" lon="1.93463">
        <ele>1123</ele>
        <time>2022-09-07T13:55:54Z</time>
      </trkpt>
      <trkpt lat="42.42231" lon="1.93471">
        <ele>1123</ele>
        <time>2022-09-07T13:55:55Z</time>
      </trkpt>
      <trkpt lat="42.42226" lon="1.93479">
        <ele>1123</ele>
        <time>2022-09-07T13:55:56Z</time>
      </trkpt>
      <trkpt lat="42.4222" lon="1.93487">
        <ele>1123</ele>
        <time>2022-09-07T13:55:57Z</time>
      </trkpt>
      <trkpt lat="42.42215" lon="1.93494">
        <ele>1123</ele>
        <time>2022-09-07T13:55:58Z</time>
      </trkpt>
      <trkpt lat="42.42209" lon="1.93502">
        <ele>1122.4</ele>
        <time>2022-09-07T13:55:59Z</time>
      </trkpt>
      <trkpt lat="42.42204" lon="1.9351">
        <ele>1122.4</ele>
        <time>2022-09-07T13:56:00Z</time>
      </trkpt>
      <trkpt lat="42.422" lon="1.93518">
        <ele>1122.4</ele>
        <time>2022-09-07T13:56:01Z</time>
      </trkpt>
      <trkpt lat="42.42195" lon="1.93526">
        <ele>1122.4</ele>
        <time>2022-09-07T13:56:02Z</time>
      </trkpt>
      <trkpt lat="42.42191" lon="1.93534">
        <ele>1122.8</ele>
        <time>2022-09-07T13:56:03Z</time>
      </trkpt>
      <trkpt lat="42.42187" lon="1.93542">
        <ele>1122.8</ele>
        <time>2022-09-07T13:56:04Z</time>
      </trkpt>
      <trkpt lat="42.42182" lon="1.9355">
        <ele>1122.8</ele>
        <time>2022-09-07T13:56:05Z</time>
      </trkpt>
      <trkpt lat="42.42177" lon="1.93558">
        <ele>1122.8</ele>
        <time>2022-09-07T13:56:06Z</time>
      </trkpt>
      <trkpt lat="42.42172" lon="1.93566">
        <ele>1122.4</ele>
        <time>2022-09-07T13:56:07Z</time>
      </trkpt>
      <trkpt lat="42.42168" lon="1.93574">
        <ele>1122.4</ele>
        <time>2022-09-07T13:56:08Z</time>
      </trkpt>
      <trkpt lat="42.42163" lon="1.93582">
        <ele>1122.4</ele>
        <time>2022-09-07T13:56:09Z</time>
      </trkpt>
      <trkpt lat="42.42158" lon="1.93591">
        <ele>1122.8</ele>
        <time>2022-09-07T13:56:10Z</time>
      </trkpt>
      <trkpt lat="42.42154" lon="1.93599">
        <ele>1122.8</ele>
        <time>2022-09-07T13:56:11Z</time>
      </trkpt>
      <trkpt lat="42.4215" lon="1.93607">
        <ele>1122.8</ele>
        <time>2022-09-07T13:56:12Z</time>
      </trkpt>
      <trkpt lat="42.42146" lon="1.93616">
        <ele>1122.8</ele>
        <time>2022-09-07T13:56:13Z</time>
      </trkpt>
      <trkpt lat="42.42143" lon="1.93625">
        <ele>1122.8</ele>
        <time>2022-09-07T13:56:14Z</time>
      </trkpt>
      <trkpt lat="42.4214" lon="1.93634">
        <ele>1123.2</ele>
        <time>2022-09-07T13:56:15Z</time>
      </trkpt>
      <trkpt lat="42.42137" lon="1.93643">
        <ele>1123.4</ele>
        <time>2022-09-07T13:56:16Z</time>
      </trkpt>
      <trkpt lat="42.42135" lon="1.93651">
        <ele>1123.4</ele>
        <time>2022-09-07T13:56:17Z</time>
      </trkpt>
      <trkpt lat="42.42133" lon="1.9366">
        <ele>1123.4</ele>
        <time>2022-09-07T13:56:18Z</time>
      </trkpt>
      <trkpt lat="42.4213" lon="1.93669">
        <ele>1123.4</ele>
        <time>2022-09-07T13:56:19Z</time>
      </trkpt>
      <trkpt lat="42.42129" lon="1.93677">
        <ele>1123</ele>
        <time>2022-09-07T13:56:20Z</time>
      </trkpt>
      <trkpt lat="42.42127" lon="1.93686">
        <ele>1123</ele>
        <time>2022-09-07T13:56:21Z</time>
      </trkpt>
      <trkpt lat="42.42125" lon="1.93694">
        <ele>1123</ele>
        <time>2022-09-07T13:56:22Z</time>
      </trkpt>
      <trkpt lat="42.42123" lon="1.93703">
        <ele>1124</ele>
        <time>2022-09-07T13:56:23Z</time>
      </trkpt>
      <trkpt lat="42.42121" lon="1.93711">
        <ele>1124.6</ele>
        <time>2022-09-07T13:56:24Z</time>
      </trkpt>
      <trkpt lat="42.42119" lon="1.93719">
        <ele>1124.6</ele>
        <time>2022-09-07T13:56:25Z</time>
      </trkpt>
      <trkpt lat="42.42117" lon="1.93728">
        <ele>1124.6</ele>
        <time>2022-09-07T13:56:26Z</time>
      </trkpt>
      <trkpt lat="42.42114" lon="1.93736">
        <ele>1123.8</ele>
        <time>2022-09-07T13:56:27Z</time>
      </trkpt>
      <trkpt lat="42.42111" lon="1.93745">
        <ele>1123.4</ele>
        <time>2022-09-07T13:56:28Z</time>
      </trkpt>
      <trkpt lat="42.42109" lon="1.93753">
        <ele>1123.4</ele>
        <time>2022-09-07T13:56:29Z</time>
      </trkpt>
      <trkpt lat="42.42105" lon="1.9376">
        <ele>1123.4</ele>
        <time>2022-09-07T13:56:30Z</time>
      </trkpt>
      <trkpt lat="42.421" lon="1.93767">
        <ele>1123.4</ele>
        <time>2022-09-07T13:56:31Z</time>
      </trkpt>
      <trkpt lat="42.42095" lon="1.93773">
        <ele>1124.2</ele>
        <time>2022-09-07T13:56:32Z</time>
      </trkpt>
      <trkpt lat="42.42091" lon="1.93779">
        <ele>1124</ele>
        <time>2022-09-07T13:56:33Z</time>
      </trkpt>
      <trkpt lat="42.42087" lon="1.93786">
        <ele>1124</ele>
        <time>2022-09-07T13:56:34Z</time>
      </trkpt>
      <trkpt lat="42.42083" lon="1.93792">
        <ele>1124</ele>
        <time>2022-09-07T13:56:35Z</time>
      </trkpt>
      <trkpt lat="42.42079" lon="1.93798">
        <ele>1124</ele>
        <time>2022-09-07T13:56:36Z</time>
      </trkpt>
      <trkpt lat="42.42075" lon="1.93804">
        <ele>1124</ele>
        <time>2022-09-07T13:56:37Z</time>
      </trkpt>
      <trkpt lat="42.4207" lon="1.9381">
        <ele>1124</ele>
        <time>2022-09-07T13:56:38Z</time>
      </trkpt>
      <trkpt lat="42.42066" lon="1.93817">
        <ele>1124</ele>
        <time>2022-09-07T13:56:39Z</time>
      </trkpt>
      <trkpt lat="42.42062" lon="1.93823">
        <ele>1124</ele>
        <time>2022-09-07T13:56:40Z</time>
      </trkpt>
      <trkpt lat="42.42058" lon="1.9383">
        <ele>1124</ele>
        <time>2022-09-07T13:56:41Z</time>
      </trkpt>
      <trkpt lat="42.42053" lon="1.93837">
        <ele>1124.6</ele>
        <time>2022-09-07T13:56:42Z</time>
      </trkpt>
      <trkpt lat="42.42049" lon="1.93843">
        <ele>1124.6</ele>
        <time>2022-09-07T13:56:43Z</time>
      </trkpt>
      <trkpt lat="42.42044" lon="1.9385">
        <ele>1124.6</ele>
        <time>2022-09-07T13:56:44Z</time>
      </trkpt>
      <trkpt lat="42.4204" lon="1.93856">
        <ele>1124.4</ele>
        <time>2022-09-07T13:56:45Z</time>
      </trkpt>
      <trkpt lat="42.42035" lon="1.93862">
        <ele>1124.4</ele>
        <time>2022-09-07T13:56:46Z</time>
      </trkpt>
      <trkpt lat="42.4203" lon="1.93868">
        <ele>1124.4</ele>
        <time>2022-09-07T13:56:47Z</time>
      </trkpt>
      <trkpt lat="42.42026" lon="1.93875">
        <ele>1124.4</ele>
        <time>2022-09-07T13:56:48Z</time>
      </trkpt>
      <trkpt lat="42.42021" lon="1.93882">
        <ele>1124.4</ele>
        <time>2022-09-07T13:56:49Z</time>
      </trkpt>
      <trkpt lat="42.42016" lon="1.93888">
        <ele>1124.8</ele>
        <time>2022-09-07T13:56:50Z</time>
      </trkpt>
      <trkpt lat="42.42011" lon="1.93895">
        <ele>1124.8</ele>
        <time>2022-09-07T13:56:51Z</time>
      </trkpt>
      <trkpt lat="42.42007" lon="1.93902">
        <ele>1124.8</ele>
        <time>2022-09-07T13:56:52Z</time>
      </trkpt>
      <trkpt lat="42.42002" lon="1.93909">
        <ele>1124.8</ele>
        <time>2022-09-07T13:56:53Z</time>
      </trkpt>
      <trkpt lat="42.41997" lon="1.93915">
        <ele>1127</ele>
        <time>2022-09-07T13:56:54Z</time>
      </trkpt>
      <trkpt lat="42.41992" lon="1.93922">
        <ele>1127</ele>
        <time>2022-09-07T13:56:55Z</time>
      </trkpt>
      <trkpt lat="42.41987" lon="1.93928">
        <ele>1127</ele>
        <time>2022-09-07T13:56:56Z</time>
      </trkpt>
      <trkpt lat="42.41982" lon="1.93934">
        <ele>1126</ele>
        <time>2022-09-07T13:56:57Z</time>
      </trkpt>
      <trkpt lat="42.41978" lon="1.9394">
        <ele>1126</ele>
        <time>2022-09-07T13:56:58Z</time>
      </trkpt>
      <trkpt lat="42.41973" lon="1.93945">
        <ele>1125.4</ele>
        <time>2022-09-07T13:56:59Z</time>
      </trkpt>
      <trkpt lat="42.41968" lon="1.93952">
        <ele>1125.4</ele>
        <time>2022-09-07T13:57:00Z</time>
      </trkpt>
      <trkpt lat="42.41964" lon="1.93958">
        <ele>1125.4</ele>
        <time>2022-09-07T13:57:01Z</time>
      </trkpt>
      <trkpt lat="42.41959" lon="1.93965">
        <ele>1126</ele>
        <time>2022-09-07T13:57:02Z</time>
      </trkpt>
      <trkpt lat="42.41954" lon="1.93972">
        <ele>1126</ele>
        <time>2022-09-07T13:57:03Z</time>
      </trkpt>
      <trkpt lat="42.41949" lon="1.93979">
        <ele>1126</ele>
        <time>2022-09-07T13:57:04Z</time>
      </trkpt>
      <trkpt lat="42.41945" lon="1.93986">
        <ele>1126</ele>
        <time>2022-09-07T13:57:05Z</time>
      </trkpt>
      <trkpt lat="42.4194" lon="1.93994">
        <ele>1126.2</ele>
        <time>2022-09-07T13:57:06Z</time>
      </trkpt>
      <trkpt lat="42.41936" lon="1.94001">
        <ele>1126.2</ele>
        <time>2022-09-07T13:57:07Z</time>
      </trkpt>
      <trkpt lat="42.41931" lon="1.94008">
        <ele>1126.2</ele>
        <time>2022-09-07T13:57:08Z</time>
      </trkpt>
      <trkpt lat="42.41927" lon="1.94015">
        <ele>1126.2</ele>
        <time>2022-09-07T13:57:09Z</time>
      </trkpt>
      <trkpt lat="42.41923" lon="1.94023">
        <ele>1126.2</ele>
        <time>2022-09-07T13:57:10Z</time>
      </trkpt>
      <trkpt lat="42.41919" lon="1.9403">
        <ele>1126.6</ele>
        <time>2022-09-07T13:57:11Z</time>
      </trkpt>
      <trkpt lat="42.41915" lon="1.94037">
        <ele>1126.6</ele>
        <time>2022-09-07T13:57:12Z</time>
      </trkpt>
      <trkpt lat="42.41911" lon="1.94044">
        <ele>1126.6</ele>
        <time>2022-09-07T13:57:13Z</time>
      </trkpt>
      <trkpt lat="42.41907" lon="1.94052">
        <ele>1127</ele>
        <time>2022-09-07T13:57:14Z</time>
      </trkpt>
      <trkpt lat="42.41904" lon="1.94059">
        <ele>1127.2</ele>
        <time>2022-09-07T13:57:15Z</time>
      </trkpt>
      <trkpt lat="42.419" lon="1.94066">
        <ele>1127.2</ele>
        <time>2022-09-07T13:57:16Z</time>
      </trkpt>
      <trkpt lat="42.41897" lon="1.94072">
        <ele>1127.2</ele>
        <time>2022-09-07T13:57:17Z</time>
      </trkpt>
      <trkpt lat="42.41893" lon="1.94079">
        <ele>1127.4</ele>
        <time>2022-09-07T13:57:18Z</time>
      </trkpt>
      <trkpt lat="42.4189" lon="1.94085">
        <ele>1127.4</ele>
        <time>2022-09-07T13:57:19Z</time>
      </trkpt>
      <trkpt lat="42.41886" lon="1.9409">
        <ele>1128.2</ele>
        <time>2022-09-07T13:57:20Z</time>
      </trkpt>
      <trkpt lat="42.41881" lon="1.94093">
        <ele>1128.2</ele>
        <time>2022-09-07T13:57:21Z</time>
      </trkpt>
      <trkpt lat="42.41875" lon="1.94094">
        <ele>1127.2</ele>
        <time>2022-09-07T13:57:22Z</time>
      </trkpt>
      <trkpt lat="42.41869" lon="1.94092">
        <ele>1127</ele>
        <time>2022-09-07T13:57:23Z</time>
      </trkpt>
      <trkpt lat="42.41862" lon="1.94088">
        <ele>1127</ele>
        <time>2022-09-07T13:57:24Z</time>
      </trkpt>
      <trkpt lat="42.41856" lon="1.94084">
        <ele>1127</ele>
        <time>2022-09-07T13:57:25Z</time>
      </trkpt>
      <trkpt lat="42.41851" lon="1.9408">
        <ele>1127</ele>
        <time>2022-09-07T13:57:26Z</time>
      </trkpt>
      <trkpt lat="42.41845" lon="1.94075">
        <ele>1127.8</ele>
        <time>2022-09-07T13:57:27Z</time>
      </trkpt>
      <trkpt lat="42.4184" lon="1.94071">
        <ele>1127.8</ele>
        <time>2022-09-07T13:57:28Z</time>
      </trkpt>
      <trkpt lat="42.41834" lon="1.94067">
        <ele>1127.8</ele>
        <time>2022-09-07T13:57:29Z</time>
      </trkpt>
      <trkpt lat="42.41829" lon="1.94062">
        <ele>1127.8</ele>
        <time>2022-09-07T13:57:30Z</time>
      </trkpt>
      <trkpt lat="42.41823" lon="1.94058">
        <ele>1127.8</ele>
        <time>2022-09-07T13:57:31Z</time>
      </trkpt>
      <trkpt lat="42.41817" lon="1.94054">
        <ele>1126.8</ele>
        <time>2022-09-07T13:57:32Z</time>
      </trkpt>
      <trkpt lat="42.41812" lon="1.94049">
        <ele>1126.8</ele>
        <time>2022-09-07T13:57:33Z</time>
      </trkpt>
      <trkpt lat="42.41806" lon="1.94045">
        <ele>1126.8</ele>
        <time>2022-09-07T13:57:34Z</time>
      </trkpt>
      <trkpt lat="42.41801" lon="1.9404">
        <ele>1126.8</ele>
        <time>2022-09-07T13:57:35Z</time>
      </trkpt>
      <trkpt lat="42.41795" lon="1.94036">
        <ele>1127.2</ele>
        <time>2022-09-07T13:57:36Z</time>
      </trkpt>
      <trkpt lat="42.4179" lon="1.94031">
        <ele>1127.2</ele>
        <time>2022-09-07T13:57:37Z</time>
      </trkpt>
      <trkpt lat="42.41784" lon="1.94027">
        <ele>1127.2</ele>
        <time>2022-09-07T13:57:38Z</time>
      </trkpt>
      <trkpt lat="42.41778" lon="1.94023">
        <ele>1127.2</ele>
        <time>2022-09-07T13:57:39Z</time>
      </trkpt>
      <trkpt lat="42.41773" lon="1.94019">
        <ele>1127.6</ele>
        <time>2022-09-07T13:57:40Z</time>
      </trkpt>
      <trkpt lat="42.41767" lon="1.94015">
        <ele>1127.6</ele>
        <time>2022-09-07T13:57:41Z</time>
      </trkpt>
      <trkpt lat="42.41761" lon="1.94011">
        <ele>1127.6</ele>
        <time>2022-09-07T13:57:42Z</time>
      </trkpt>
      <trkpt lat="42.41755" lon="1.94008">
        <ele>1127.4</ele>
        <time>2022-09-07T13:57:43Z</time>
      </trkpt>
      <trkpt lat="42.41749" lon="1.94005">
        <ele>1126.8</ele>
        <time>2022-09-07T13:57:44Z</time>
      </trkpt>
      <trkpt lat="42.41743" lon="1.94003">
        <ele>1126.8</ele>
        <time>2022-09-07T13:57:45Z</time>
      </trkpt>
      <trkpt lat="42.41736" lon="1.94003">
        <ele>1126.8</ele>
        <time>2022-09-07T13:57:46Z</time>
      </trkpt>
      <trkpt lat="42.4173" lon="1.94003">
        <ele>1127</ele>
        <time>2022-09-07T13:57:47Z</time>
      </trkpt>
      <trkpt lat="42.41724" lon="1.94003">
        <ele>1127.2</ele>
        <time>2022-09-07T13:57:48Z</time>
      </trkpt>
      <trkpt lat="42.41718" lon="1.94005">
        <ele>1127.2</ele>
        <time>2022-09-07T13:57:49Z</time>
      </trkpt>
      <trkpt lat="42.41712" lon="1.94006">
        <ele>1127.2</ele>
        <time>2022-09-07T13:57:50Z</time>
      </trkpt>
      <trkpt lat="42.41706" lon="1.94006">
        <ele>1127.2</ele>
        <time>2022-09-07T13:57:51Z</time>
      </trkpt>
      <trkpt lat="42.417" lon="1.94005">
        <ele>1127.2</ele>
        <time>2022-09-07T13:57:52Z</time>
      </trkpt>
      <trkpt lat="42.41694" lon="1.94004">
        <ele>1126.6</ele>
        <time>2022-09-07T13:57:53Z</time>
      </trkpt>
      <trkpt lat="42.41688" lon="1.94001">
        <ele>1126.6</ele>
        <time>2022-09-07T13:57:54Z</time>
      </trkpt>
      <trkpt lat="42.41682" lon="1.93998">
        <ele>1126.6</ele>
        <time>2022-09-07T13:57:55Z</time>
      </trkpt>
      <trkpt lat="42.41677" lon="1.93996">
        <ele>1126.6</ele>
        <time>2022-09-07T13:57:56Z</time>
      </trkpt>
      <trkpt lat="42.41671" lon="1.93994">
        <ele>1127</ele>
        <time>2022-09-07T13:57:57Z</time>
      </trkpt>
      <trkpt lat="42.41664" lon="1.93992">
        <ele>1127</ele>
        <time>2022-09-07T13:57:58Z</time>
      </trkpt>
      <trkpt lat="42.41658" lon="1.9399">
        <ele>1127</ele>
        <time>2022-09-07T13:57:59Z</time>
      </trkpt>
      <trkpt lat="42.41651" lon="1.93988">
        <ele>1127</ele>
        <time>2022-09-07T13:58:00Z</time>
      </trkpt>
      <trkpt lat="42.41645" lon="1.93986">
        <ele>1127</ele>
        <time>2022-09-07T13:58:01Z</time>
      </trkpt>
      <trkpt lat="42.41638" lon="1.93985">
        <ele>1127</ele>
        <time>2022-09-07T13:58:02Z</time>
      </trkpt>
      <trkpt lat="42.41631" lon="1.93984">
        <ele>1127</ele>
        <time>2022-09-07T13:58:03Z</time>
      </trkpt>
      <trkpt lat="42.41624" lon="1.93983">
        <ele>1127</ele>
        <time>2022-09-07T13:58:04Z</time>
      </trkpt>
      <trkpt lat="42.41618" lon="1.93982">
        <ele>1126.2</ele>
        <time>2022-09-07T13:58:05Z</time>
      </trkpt>
      <trkpt lat="42.41611" lon="1.93981">
        <ele>1126.2</ele>
        <time>2022-09-07T13:58:06Z</time>
      </trkpt>
      <trkpt lat="42.41604" lon="1.9398">
        <ele>1126.2</ele>
        <time>2022-09-07T13:58:07Z</time>
      </trkpt>
      <trkpt lat="42.41597" lon="1.93979">
        <ele>1126.2</ele>
        <time>2022-09-07T13:58:08Z</time>
      </trkpt>
      <trkpt lat="42.4159" lon="1.93977">
        <ele>1126.8</ele>
        <time>2022-09-07T13:58:09Z</time>
      </trkpt>
      <trkpt lat="42.41584" lon="1.93975">
        <ele>1126.8</ele>
        <time>2022-09-07T13:58:10Z</time>
      </trkpt>
      <trkpt lat="42.41577" lon="1.93973">
        <ele>1126.8</ele>
        <time>2022-09-07T13:58:11Z</time>
      </trkpt>
      <trkpt lat="42.41571" lon="1.93971">
        <ele>1126.8</ele>
        <time>2022-09-07T13:58:12Z</time>
      </trkpt>
      <trkpt lat="42.41565" lon="1.93969">
        <ele>1126.8</ele>
        <time>2022-09-07T13:58:13Z</time>
      </trkpt>
      <trkpt lat="42.4156" lon="1.93967">
        <ele>1126.6</ele>
        <time>2022-09-07T13:58:14Z</time>
      </trkpt>
      <trkpt lat="42.41555" lon="1.93966">
        <ele>1126.8</ele>
        <time>2022-09-07T13:58:15Z</time>
      </trkpt>
      <trkpt lat="42.4155" lon="1.93964">
        <ele>1126.8</ele>
        <time>2022-09-07T13:58:16Z</time>
      </trkpt>
      <trkpt lat="42.41546" lon="1.93962">
        <ele>1127.2</ele>
        <time>2022-09-07T13:58:17Z</time>
      </trkpt>
      <trkpt lat="42.41542" lon="1.93961">
        <ele>1127.4</ele>
        <time>2022-09-07T13:58:18Z</time>
      </trkpt>
      <trkpt lat="42.4154" lon="1.93961">
        <ele>1127.4</ele>
        <time>2022-09-07T13:58:19Z</time>
      </trkpt>
      <trkpt lat="42.4154" lon="1.93961">
        <ele>1127.4</ele>
        <time>2022-09-07T13:58:20Z</time>
      </trkpt>
      <trkpt lat="42.4154" lon="1.93961">
        <ele>1127.2</ele>
        <time>2022-09-07T13:58:21Z</time>
      </trkpt>
      <trkpt lat="42.4154" lon="1.93961">
        <ele>1127.4</ele>
        <time>2022-09-07T13:58:22Z</time>
      </trkpt>
      <trkpt lat="42.4154" lon="1.93961">
        <ele>1127.2</ele>
        <time>2022-09-07T13:58:23Z</time>
      </trkpt>
      <trkpt lat="42.41539" lon="1.9396">
        <ele>1127</ele>
        <time>2022-09-07T13:58:30Z</time>
      </trkpt>
      <trkpt lat="42.41537" lon="1.93959">
        <ele>1127</ele>
        <time>2022-09-07T13:58:31Z</time>
      </trkpt>
      <trkpt lat="42.41534" lon="1.93958">
        <ele>1127</ele>
        <time>2022-09-07T13:58:32Z</time>
      </trkpt>
      <trkpt lat="42.4153" lon="1.93957">
        <ele>1127</ele>
        <time>2022-09-07T13:58:33Z</time>
      </trkpt>
      <trkpt lat="42.41525" lon="1.93954">
        <ele>1127</ele>
        <time>2022-09-07T13:58:34Z</time>
      </trkpt>
      <trkpt lat="42.41519" lon="1.93952">
        <ele>1127.2</ele>
        <time>2022-09-07T13:58:35Z</time>
      </trkpt>
      <trkpt lat="42.41513" lon="1.93948">
        <ele>1127.2</ele>
        <time>2022-09-07T13:58:36Z</time>
      </trkpt>
      <trkpt lat="42.41507" lon="1.93945">
        <ele>1127.2</ele>
        <time>2022-09-07T13:58:37Z</time>
      </trkpt>
      <trkpt lat="42.41501" lon="1.93942">
        <ele>1126.6</ele>
        <time>2022-09-07T13:58:38Z</time>
      </trkpt>
      <trkpt lat="42.41495" lon="1.93938">
        <ele>1126.4</ele>
        <time>2022-09-07T13:58:39Z</time>
      </trkpt>
      <trkpt lat="42.4149" lon="1.93935">
        <ele>1126.4</ele>
        <time>2022-09-07T13:58:40Z</time>
      </trkpt>
      <trkpt lat="42.41484" lon="1.93931">
        <ele>1126.4</ele>
        <time>2022-09-07T13:58:41Z</time>
      </trkpt>
      <trkpt lat="42.41478" lon="1.93928">
        <ele>1126.4</ele>
        <time>2022-09-07T13:58:42Z</time>
      </trkpt>
      <trkpt lat="42.41472" lon="1.93924">
        <ele>1126.4</ele>
        <time>2022-09-07T13:58:43Z</time>
      </trkpt>
      <trkpt lat="42.41466" lon="1.93921">
        <ele>1127</ele>
        <time>2022-09-07T13:58:44Z</time>
      </trkpt>
      <trkpt lat="42.4146" lon="1.93918">
        <ele>1127</ele>
        <time>2022-09-07T13:58:45Z</time>
      </trkpt>
      <trkpt lat="42.41454" lon="1.93915">
        <ele>1127</ele>
        <time>2022-09-07T13:58:46Z</time>
      </trkpt>
      <trkpt lat="42.41448" lon="1.93911">
        <ele>1127</ele>
        <time>2022-09-07T13:58:47Z</time>
      </trkpt>
      <trkpt lat="42.41442" lon="1.93908">
        <ele>1127.6</ele>
        <time>2022-09-07T13:58:48Z</time>
      </trkpt>
      <trkpt lat="42.41436" lon="1.93905">
        <ele>1127.6</ele>
        <time>2022-09-07T13:58:49Z</time>
      </trkpt>
      <trkpt lat="42.4143" lon="1.93902">
        <ele>1127.6</ele>
        <time>2022-09-07T13:58:50Z</time>
      </trkpt>
      <trkpt lat="42.41424" lon="1.93899">
        <ele>1126.6</ele>
        <time>2022-09-07T13:58:51Z</time>
      </trkpt>
      <trkpt lat="42.41419" lon="1.93896">
        <ele>1127.2</ele>
        <time>2022-09-07T13:58:52Z</time>
      </trkpt>
      <trkpt lat="42.41413" lon="1.93893">
        <ele>1127.2</ele>
        <time>2022-09-07T13:58:53Z</time>
      </trkpt>
      <trkpt lat="42.41408" lon="1.9389">
        <ele>1127.2</ele>
        <time>2022-09-07T13:58:54Z</time>
      </trkpt>
      <trkpt lat="42.41401" lon="1.93887">
        <ele>1126.2</ele>
        <time>2022-09-07T13:58:55Z</time>
      </trkpt>
      <trkpt lat="42.41395" lon="1.93885">
        <ele>1122.4</ele>
        <time>2022-09-07T13:58:56Z</time>
      </trkpt>
      <trkpt lat="42.41388" lon="1.93882">
        <ele>1122.4</ele>
        <time>2022-09-07T13:58:57Z</time>
      </trkpt>
      <trkpt lat="42.41382" lon="1.9388">
        <ele>1122.4</ele>
        <time>2022-09-07T13:58:58Z</time>
      </trkpt>
      <trkpt lat="42.41377" lon="1.93881">
        <ele>1123.4</ele>
        <time>2022-09-07T13:58:59Z</time>
      </trkpt>
      <trkpt lat="42.41374" lon="1.93885">
        <ele>1123.4</ele>
        <time>2022-09-07T13:59:00Z</time>
      </trkpt>
      <trkpt lat="42.41372" lon="1.93892">
        <ele>1124.8</ele>
        <time>2022-09-07T13:59:01Z</time>
      </trkpt>
      <trkpt lat="42.41372" lon="1.93899">
        <ele>1124.8</ele>
        <time>2022-09-07T13:59:02Z</time>
      </trkpt>
      <trkpt lat="42.41373" lon="1.93906">
        <ele>1124.8</ele>
        <time>2022-09-07T13:59:03Z</time>
      </trkpt>
      <trkpt lat="42.41374" lon="1.93913">
        <ele>1125.8</ele>
        <time>2022-09-07T13:59:04Z</time>
      </trkpt>
      <trkpt lat="42.41373" lon="1.9392">
        <ele>1127.6</ele>
        <time>2022-09-07T13:59:05Z</time>
      </trkpt>
      <trkpt lat="42.41372" lon="1.93927">
        <ele>1127.6</ele>
        <time>2022-09-07T13:59:06Z</time>
      </trkpt>
      <trkpt lat="42.41368" lon="1.93933">
        <ele>1127.6</ele>
        <time>2022-09-07T13:59:07Z</time>
      </trkpt>
      <trkpt lat="42.41363" lon="1.93937">
        <ele>1127.6</ele>
        <time>2022-09-07T13:59:08Z</time>
      </trkpt>
      <trkpt lat="42.41357" lon="1.9394">
        <ele>1127.2</ele>
        <time>2022-09-07T13:59:09Z</time>
      </trkpt>
      <trkpt lat="42.41351" lon="1.93942">
        <ele>1127.2</ele>
        <time>2022-09-07T13:59:10Z</time>
      </trkpt>
      <trkpt lat="42.41345" lon="1.93944">
        <ele>1127.2</ele>
        <time>2022-09-07T13:59:11Z</time>
      </trkpt>
      <trkpt lat="42.41339" lon="1.93946">
        <ele>1127.2</ele>
        <time>2022-09-07T13:59:12Z</time>
      </trkpt>
      <trkpt lat="42.41333" lon="1.93948">
        <ele>1127.2</ele>
        <time>2022-09-07T13:59:13Z</time>
      </trkpt>
      <trkpt lat="42.41327" lon="1.93949">
        <ele>1123.8</ele>
        <time>2022-09-07T13:59:14Z</time>
      </trkpt>
      <trkpt lat="42.41321" lon="1.93951">
        <ele>1123.8</ele>
        <time>2022-09-07T13:59:15Z</time>
      </trkpt>
      <trkpt lat="42.41316" lon="1.93954">
        <ele>1123.8</ele>
        <time>2022-09-07T13:59:16Z</time>
      </trkpt>
      <trkpt lat="42.4131" lon="1.93956">
        <ele>1124.8</ele>
        <time>2022-09-07T13:59:17Z</time>
      </trkpt>
      <trkpt lat="42.41304" lon="1.93959">
        <ele>1124.6</ele>
        <time>2022-09-07T13:59:18Z</time>
      </trkpt>
      <trkpt lat="42.41298" lon="1.93961">
        <ele>1124.6</ele>
        <time>2022-09-07T13:59:19Z</time>
      </trkpt>
      <trkpt lat="42.41292" lon="1.93964">
        <ele>1124.6</ele>
        <time>2022-09-07T13:59:20Z</time>
      </trkpt>
      <trkpt lat="42.41286" lon="1.93966">
        <ele>1125.6</ele>
        <time>2022-09-07T13:59:21Z</time>
      </trkpt>
      <trkpt lat="42.41281" lon="1.93968">
        <ele>1127</ele>
        <time>2022-09-07T13:59:22Z</time>
      </trkpt>
      <trkpt lat="42.41275" lon="1.9397">
        <ele>1127</ele>
        <time>2022-09-07T13:59:23Z</time>
      </trkpt>
      <trkpt lat="42.41268" lon="1.93971">
        <ele>1127</ele>
        <time>2022-09-07T13:59:24Z</time>
      </trkpt>
      <trkpt lat="42.41262" lon="1.93973">
        <ele>1127</ele>
        <time>2022-09-07T13:59:25Z</time>
      </trkpt>
      <trkpt lat="42.41256" lon="1.93976">
        <ele>1128.4</ele>
        <time>2022-09-07T13:59:26Z</time>
      </trkpt>
      <trkpt lat="42.4125" lon="1.9398">
        <ele>1128.4</ele>
        <time>2022-09-07T13:59:27Z</time>
      </trkpt>
      <trkpt lat="42.41245" lon="1.93984">
        <ele>1128.4</ele>
        <time>2022-09-07T13:59:28Z</time>
      </trkpt>
      <trkpt lat="42.41239" lon="1.93988">
        <ele>1128</ele>
        <time>2022-09-07T13:59:29Z</time>
      </trkpt>
      <trkpt lat="42.41234" lon="1.9399">
        <ele>1126.8</ele>
        <time>2022-09-07T13:59:30Z</time>
      </trkpt>
      <trkpt lat="42.41231" lon="1.93991">
        <ele>1126.8</ele>
        <time>2022-09-07T13:59:31Z</time>
      </trkpt>
      <trkpt lat="42.41229" lon="1.93992">
        <ele>1126.8</ele>
        <time>2022-09-07T13:59:32Z</time>
      </trkpt>
      <trkpt lat="42.41227" lon="1.93993">
        <ele>1126.8</ele>
        <time>2022-09-07T13:59:33Z</time>
      </trkpt>
      <trkpt lat="42.41225" lon="1.93994">
        <ele>1126.8</ele>
        <time>2022-09-07T13:59:34Z</time>
      </trkpt>
      <trkpt lat="42.41223" lon="1.93995">
        <ele>1126.8</ele>
        <time>2022-09-07T13:59:35Z</time>
      </trkpt>
      <trkpt lat="42.41221" lon="1.93996">
        <ele>1126.8</ele>
        <time>2022-09-07T13:59:36Z</time>
      </trkpt>
      <trkpt lat="42.41219" lon="1.93997">
        <ele>1126.8</ele>
        <time>2022-09-07T13:59:37Z</time>
      </trkpt>
      <trkpt lat="42.41217" lon="1.93997">
        <ele>1126.8</ele>
        <time>2022-09-07T13:59:38Z</time>
      </trkpt>
      <trkpt lat="42.41215" lon="1.93999">
        <ele>1128.2</ele>
        <time>2022-09-07T13:59:39Z</time>
      </trkpt>
      <trkpt lat="42.41212" lon="1.94">
        <ele>1128.2</ele>
        <time>2022-09-07T13:59:40Z</time>
      </trkpt>
      <trkpt lat="42.4121" lon="1.94002">
        <ele>1128.2</ele>
        <time>2022-09-07T13:59:41Z</time>
      </trkpt>
      <trkpt lat="42.41208" lon="1.94004">
        <ele>1128.2</ele>
        <time>2022-09-07T13:59:42Z</time>
      </trkpt>
      <trkpt lat="42.41206" lon="1.94006">
        <ele>1127</ele>
        <time>2022-09-07T13:59:43Z</time>
      </trkpt>
      <trkpt lat="42.41204" lon="1.94007">
        <ele>1127</ele>
        <time>2022-09-07T13:59:44Z</time>
      </trkpt>
      <trkpt lat="42.41201" lon="1.94009">
        <ele>1127</ele>
        <time>2022-09-07T13:59:45Z</time>
      </trkpt>
      <trkpt lat="42.41199" lon="1.94011">
        <ele>1127.4</ele>
        <time>2022-09-07T13:59:46Z</time>
      </trkpt>
      <trkpt lat="42.41197" lon="1.94012">
        <ele>1127.2</ele>
        <time>2022-09-07T13:59:47Z</time>
      </trkpt>
      <trkpt lat="42.41194" lon="1.94013">
        <ele>1127.2</ele>
        <time>2022-09-07T13:59:48Z</time>
      </trkpt>
      <trkpt lat="42.4119" lon="1.94015">
        <ele>1127.2</ele>
        <time>2022-09-07T13:59:49Z</time>
      </trkpt>
      <trkpt lat="42.41187" lon="1.94017">
        <ele>1127.2</ele>
        <time>2022-09-07T13:59:50Z</time>
      </trkpt>
      <trkpt lat="42.41182" lon="1.94019">
        <ele>1128</ele>
        <time>2022-09-07T13:59:51Z</time>
      </trkpt>
      <trkpt lat="42.41177" lon="1.94023">
        <ele>1128</ele>
        <time>2022-09-07T13:59:52Z</time>
      </trkpt>
      <trkpt lat="42.41172" lon="1.94027">
        <ele>1128</ele>
        <time>2022-09-07T13:59:53Z</time>
      </trkpt>
      <trkpt lat="42.41166" lon="1.94031">
        <ele>1127.8</ele>
        <time>2022-09-07T13:59:54Z</time>
      </trkpt>
      <trkpt lat="42.4116" lon="1.94035">
        <ele>1128.6</ele>
        <time>2022-09-07T13:59:55Z</time>
      </trkpt>
      <trkpt lat="42.41154" lon="1.94039">
        <ele>1128.6</ele>
        <time>2022-09-07T13:59:56Z</time>
      </trkpt>
      <trkpt lat="42.41148" lon="1.94042">
        <ele>1128.6</ele>
        <time>2022-09-07T13:59:57Z</time>
      </trkpt>
      <trkpt lat="42.41142" lon="1.94046">
        <ele>1127.6</ele>
        <time>2022-09-07T13:59:58Z</time>
      </trkpt>
      <trkpt lat="42.41136" lon="1.94049">
        <ele>1128.6</ele>
        <time>2022-09-07T13:59:59Z</time>
      </trkpt>
      <trkpt lat="42.4113" lon="1.94051">
        <ele>1128.6</ele>
        <time>2022-09-07T14:00:00Z</time>
      </trkpt>
      <trkpt lat="42.41124" lon="1.94054">
        <ele>1128.6</ele>
        <time>2022-09-07T14:00:01Z</time>
      </trkpt>
      <trkpt lat="42.41118" lon="1.94057">
        <ele>1128.6</ele>
        <time>2022-09-07T14:00:02Z</time>
      </trkpt>
      <trkpt lat="42.41111" lon="1.94059">
        <ele>1126.8</ele>
        <time>2022-09-07T14:00:03Z</time>
      </trkpt>
      <trkpt lat="42.41105" lon="1.94062">
        <ele>1126.8</ele>
        <time>2022-09-07T14:00:04Z</time>
      </trkpt>
      <trkpt lat="42.41098" lon="1.94065">
        <ele>1126.8</ele>
        <time>2022-09-07T14:00:05Z</time>
      </trkpt>
      <trkpt lat="42.41092" lon="1.94068">
        <ele>1126.8</ele>
        <time>2022-09-07T14:00:06Z</time>
      </trkpt>
      <trkpt lat="42.41086" lon="1.94071">
        <ele>1126.8</ele>
        <time>2022-09-07T14:00:07Z</time>
      </trkpt>
      <trkpt lat="42.4108" lon="1.94074">
        <ele>1125.8</ele>
        <time>2022-09-07T14:00:08Z</time>
      </trkpt>
      <trkpt lat="42.41075" lon="1.94077">
        <ele>1125.8</ele>
        <time>2022-09-07T14:00:09Z</time>
      </trkpt>
      <trkpt lat="42.4107" lon="1.94082">
        <ele>1125.8</ele>
        <time>2022-09-07T14:00:10Z</time>
      </trkpt>
      <trkpt lat="42.41066" lon="1.94088">
        <ele>1126.8</ele>
        <time>2022-09-07T14:00:11Z</time>
      </trkpt>
      <trkpt lat="42.41062" lon="1.94094">
        <ele>1130.6</ele>
        <time>2022-09-07T14:00:12Z</time>
      </trkpt>
      <trkpt lat="42.41059" lon="1.941">
        <ele>1130.6</ele>
        <time>2022-09-07T14:00:13Z</time>
      </trkpt>
      <trkpt lat="42.41056" lon="1.94106">
        <ele>1130.6</ele>
        <time>2022-09-07T14:00:14Z</time>
      </trkpt>
      <trkpt lat="42.41055" lon="1.94113">
        <ele>1130.6</ele>
        <time>2022-09-07T14:00:15Z</time>
      </trkpt>
      <trkpt lat="42.41053" lon="1.9412">
        <ele>1132.8</ele>
        <time>2022-09-07T14:00:16Z</time>
      </trkpt>
      <trkpt lat="42.41052" lon="1.94126">
        <ele>1132.8</ele>
        <time>2022-09-07T14:00:17Z</time>
      </trkpt>
      <trkpt lat="42.41049" lon="1.94131">
        <ele>1132.8</ele>
        <time>2022-09-07T14:00:18Z</time>
      </trkpt>
      <trkpt lat="42.41047" lon="1.94134">
        <ele>1133.8</ele>
        <time>2022-09-07T14:00:19Z</time>
      </trkpt>
      <trkpt lat="42.41044" lon="1.94137">
        <ele>1137.4</ele>
        <time>2022-09-07T14:00:20Z</time>
      </trkpt>
      <trkpt lat="42.4104" lon="1.9414">
        <ele>1137.4</ele>
        <time>2022-09-07T14:00:21Z</time>
      </trkpt>
      <trkpt lat="42.41036" lon="1.94141">
        <ele>1137.4</ele>
        <time>2022-09-07T14:00:22Z</time>
      </trkpt>
      <trkpt lat="42.41033" lon="1.94141">
        <ele>1137.4</ele>
        <time>2022-09-07T14:00:23Z</time>
      </trkpt>
      <trkpt lat="42.41029" lon="1.94141">
        <ele>1136.2</ele>
        <time>2022-09-07T14:00:24Z</time>
      </trkpt>
      <trkpt lat="42.41025" lon="1.9414">
        <ele>1136.2</ele>
        <time>2022-09-07T14:00:25Z</time>
      </trkpt>
      <trkpt lat="42.41021" lon="1.9414">
        <ele>1136.2</ele>
        <time>2022-09-07T14:00:26Z</time>
      </trkpt>
      <trkpt lat="42.41016" lon="1.94139">
        <ele>1136.2</ele>
        <time>2022-09-07T14:00:27Z</time>
      </trkpt>
      <trkpt lat="42.41011" lon="1.94139">
        <ele>1137.2</ele>
        <time>2022-09-07T14:00:28Z</time>
      </trkpt>
      <trkpt lat="42.41006" lon="1.94139">
        <ele>1136</ele>
        <time>2022-09-07T14:00:29Z</time>
      </trkpt>
      <trkpt lat="42.41" lon="1.9414">
        <ele>1136</ele>
        <time>2022-09-07T14:00:30Z</time>
      </trkpt>
      <trkpt lat="42.40995" lon="1.94142">
        <ele>1136</ele>
        <time>2022-09-07T14:00:31Z</time>
      </trkpt>
      <trkpt lat="42.40991" lon="1.94148">
        <ele>1137</ele>
        <time>2022-09-07T14:00:32Z</time>
      </trkpt>
      <trkpt lat="42.4099" lon="1.94156">
        <ele>1140.2</ele>
        <time>2022-09-07T14:00:33Z</time>
      </trkpt>
      <trkpt lat="42.40988" lon="1.94164">
        <ele>1140.2</ele>
        <time>2022-09-07T14:00:34Z</time>
      </trkpt>
      <trkpt lat="42.40986" lon="1.94172">
        <ele>1140.2</ele>
        <time>2022-09-07T14:00:35Z</time>
      </trkpt>
      <trkpt lat="42.40984" lon="1.94181">
        <ele>1139.2</ele>
        <time>2022-09-07T14:00:36Z</time>
      </trkpt>
      <trkpt lat="42.40983" lon="1.94189">
        <ele>1139.2</ele>
        <time>2022-09-07T14:00:37Z</time>
      </trkpt>
      <trkpt lat="42.40981" lon="1.94197">
        <ele>1139.2</ele>
        <time>2022-09-07T14:00:38Z</time>
      </trkpt>
      <trkpt lat="42.4098" lon="1.94206">
        <ele>1139.2</ele>
        <time>2022-09-07T14:00:39Z</time>
      </trkpt>
      <trkpt lat="42.40978" lon="1.94214">
        <ele>1139.6</ele>
        <time>2022-09-07T14:00:40Z</time>
      </trkpt>
      <trkpt lat="42.40977" lon="1.94222">
        <ele>1139.4</ele>
        <time>2022-09-07T14:00:41Z</time>
      </trkpt>
      <trkpt lat="42.40976" lon="1.94231">
        <ele>1139.4</ele>
        <time>2022-09-07T14:00:42Z</time>
      </trkpt>
      <trkpt lat="42.40974" lon="1.94239">
        <ele>1139.4</ele>
        <time>2022-09-07T14:00:43Z</time>
      </trkpt>
      <trkpt lat="42.40973" lon="1.94247">
        <ele>1139.4</ele>
        <time>2022-09-07T14:00:44Z</time>
      </trkpt>
      <trkpt lat="42.40973" lon="1.94256">
        <ele>1139.4</ele>
        <time>2022-09-07T14:00:45Z</time>
      </trkpt>
      <trkpt lat="42.40972" lon="1.94264">
        <ele>1139.4</ele>
        <time>2022-09-07T14:00:46Z</time>
      </trkpt>
      <trkpt lat="42.4097" lon="1.94272">
        <ele>1139.4</ele>
        <time>2022-09-07T14:00:47Z</time>
      </trkpt>
      <trkpt lat="42.40968" lon="1.9428">
        <ele>1139.8</ele>
        <time>2022-09-07T14:00:48Z</time>
      </trkpt>
      <trkpt lat="42.40965" lon="1.94287">
        <ele>1140.2</ele>
        <time>2022-09-07T14:00:49Z</time>
      </trkpt>
      <trkpt lat="42.40962" lon="1.94294">
        <ele>1140.2</ele>
        <time>2022-09-07T14:00:50Z</time>
      </trkpt>
      <trkpt lat="42.40958" lon="1.943">
        <ele>1140.2</ele>
        <time>2022-09-07T14:00:51Z</time>
      </trkpt>
      <trkpt lat="42.40954" lon="1.94307">
        <ele>1140.2</ele>
        <time>2022-09-07T14:00:52Z</time>
      </trkpt>
      <trkpt lat="42.4095" lon="1.94313">
        <ele>1141.2</ele>
        <time>2022-09-07T14:00:53Z</time>
      </trkpt>
      <trkpt lat="42.40947" lon="1.9432">
        <ele>1141.4</ele>
        <time>2022-09-07T14:00:54Z</time>
      </trkpt>
      <trkpt lat="42.40944" lon="1.94327">
        <ele>1141.4</ele>
        <time>2022-09-07T14:00:55Z</time>
      </trkpt>
      <trkpt lat="42.40941" lon="1.94334">
        <ele>1141.4</ele>
        <time>2022-09-07T14:00:56Z</time>
      </trkpt>
      <trkpt lat="42.40938" lon="1.94342">
        <ele>1141.8</ele>
        <time>2022-09-07T14:00:57Z</time>
      </trkpt>
      <trkpt lat="42.40935" lon="1.94348">
        <ele>1142.2</ele>
        <time>2022-09-07T14:00:58Z</time>
      </trkpt>
      <trkpt lat="42.40931" lon="1.94355">
        <ele>1142.2</ele>
        <time>2022-09-07T14:00:59Z</time>
      </trkpt>
      <trkpt lat="42.40928" lon="1.94362">
        <ele>1142.2</ele>
        <time>2022-09-07T14:01:00Z</time>
      </trkpt>
      <trkpt lat="42.40924" lon="1.94368">
        <ele>1142.2</ele>
        <time>2022-09-07T14:01:01Z</time>
      </trkpt>
      <trkpt lat="42.4092" lon="1.94375">
        <ele>1143.4</ele>
        <time>2022-09-07T14:01:02Z</time>
      </trkpt>
      <trkpt lat="42.40918" lon="1.94382">
        <ele>1143.4</ele>
        <time>2022-09-07T14:01:03Z</time>
      </trkpt>
      <trkpt lat="42.40917" lon="1.9439">
        <ele>1143.4</ele>
        <time>2022-09-07T14:01:04Z</time>
      </trkpt>
      <trkpt lat="42.40917" lon="1.94399">
        <ele>1143.4</ele>
        <time>2022-09-07T14:01:05Z</time>
      </trkpt>
      <trkpt lat="42.40918" lon="1.94407">
        <ele>1143</ele>
        <time>2022-09-07T14:01:06Z</time>
      </trkpt>
      <trkpt lat="42.40919" lon="1.94415">
        <ele>1143</ele>
        <time>2022-09-07T14:01:07Z</time>
      </trkpt>
      <trkpt lat="42.40921" lon="1.94423">
        <ele>1143</ele>
        <time>2022-09-07T14:01:08Z</time>
      </trkpt>
      <trkpt lat="42.40923" lon="1.94431">
        <ele>1143</ele>
        <time>2022-09-07T14:01:09Z</time>
      </trkpt>
      <trkpt lat="42.40922" lon="1.94438">
        <ele>1144</ele>
        <time>2022-09-07T14:01:10Z</time>
      </trkpt>
      <trkpt lat="42.4092" lon="1.94446">
        <ele>1143.8</ele>
        <time>2022-09-07T14:01:11Z</time>
      </trkpt>
      <trkpt lat="42.40917" lon="1.94452">
        <ele>1143.8</ele>
        <time>2022-09-07T14:01:12Z</time>
      </trkpt>
      <trkpt lat="42.40913" lon="1.94459">
        <ele>1143.8</ele>
        <time>2022-09-07T14:01:13Z</time>
      </trkpt>
      <trkpt lat="42.4091" lon="1.94466">
        <ele>1144.4</ele>
        <time>2022-09-07T14:01:14Z</time>
      </trkpt>
      <trkpt lat="42.40908" lon="1.94474">
        <ele>1145.2</ele>
        <time>2022-09-07T14:01:15Z</time>
      </trkpt>
      <trkpt lat="42.40905" lon="1.94481">
        <ele>1145.2</ele>
        <time>2022-09-07T14:01:16Z</time>
      </trkpt>
      <trkpt lat="42.40903" lon="1.94488">
        <ele>1145.2</ele>
        <time>2022-09-07T14:01:17Z</time>
      </trkpt>
      <trkpt lat="42.40899" lon="1.94495">
        <ele>1145.2</ele>
        <time>2022-09-07T14:01:18Z</time>
      </trkpt>
      <trkpt lat="42.40896" lon="1.94502">
        <ele>1146.4</ele>
        <time>2022-09-07T14:01:19Z</time>
      </trkpt>
      <trkpt lat="42.40893" lon="1.94509">
        <ele>1146.4</ele>
        <time>2022-09-07T14:01:20Z</time>
      </trkpt>
      <trkpt lat="42.40892" lon="1.94517">
        <ele>1146.4</ele>
        <time>2022-09-07T14:01:21Z</time>
      </trkpt>
      <trkpt lat="42.40891" lon="1.94525">
        <ele>1146.4</ele>
        <time>2022-09-07T14:01:22Z</time>
      </trkpt>
      <trkpt lat="42.40891" lon="1.94533">
        <ele>1146.6</ele>
        <time>2022-09-07T14:01:23Z</time>
      </trkpt>
      <trkpt lat="42.40891" lon="1.94541">
        <ele>1146.6</ele>
        <time>2022-09-07T14:01:24Z</time>
      </trkpt>
      <trkpt lat="42.40891" lon="1.9455">
        <ele>1146.6</ele>
        <time>2022-09-07T14:01:25Z</time>
      </trkpt>
      <trkpt lat="42.40891" lon="1.94558">
        <ele>1146.6</ele>
        <time>2022-09-07T14:01:26Z</time>
      </trkpt>
      <trkpt lat="42.40891" lon="1.94566">
        <ele>1146.6</ele>
        <time>2022-09-07T14:01:27Z</time>
      </trkpt>
      <trkpt lat="42.40891" lon="1.94574">
        <ele>1147.2</ele>
        <time>2022-09-07T14:01:28Z</time>
      </trkpt>
      <trkpt lat="42.40891" lon="1.94582">
        <ele>1147.2</ele>
        <time>2022-09-07T14:01:29Z</time>
      </trkpt>
      <trkpt lat="42.40892" lon="1.9459">
        <ele>1147.2</ele>
        <time>2022-09-07T14:01:30Z</time>
      </trkpt>
      <trkpt lat="42.40892" lon="1.94598">
        <ele>1148.2</ele>
        <time>2022-09-07T14:01:31Z</time>
      </trkpt>
      <trkpt lat="42.40892" lon="1.94606">
        <ele>1148.8</ele>
        <time>2022-09-07T14:01:32Z</time>
      </trkpt>
      <trkpt lat="42.40892" lon="1.94614">
        <ele>1148.8</ele>
        <time>2022-09-07T14:01:33Z</time>
      </trkpt>
      <trkpt lat="42.40891" lon="1.94622">
        <ele>1148.8</ele>
        <time>2022-09-07T14:01:34Z</time>
      </trkpt>
      <trkpt lat="42.40891" lon="1.9463">
        <ele>1148.8</ele>
        <time>2022-09-07T14:01:35Z</time>
      </trkpt>
      <trkpt lat="42.40891" lon="1.94638">
        <ele>1150.2</ele>
        <time>2022-09-07T14:01:36Z</time>
      </trkpt>
      <trkpt lat="42.40892" lon="1.94646">
        <ele>1150.2</ele>
        <time>2022-09-07T14:01:37Z</time>
      </trkpt>
      <trkpt lat="42.40892" lon="1.94654">
        <ele>1150.2</ele>
        <time>2022-09-07T14:01:38Z</time>
      </trkpt>
      <trkpt lat="42.40892" lon="1.94662">
        <ele>1150.6</ele>
        <time>2022-09-07T14:01:39Z</time>
      </trkpt>
      <trkpt lat="42.40892" lon="1.9467">
        <ele>1150.6</ele>
        <time>2022-09-07T14:01:40Z</time>
      </trkpt>
      <trkpt lat="42.40891" lon="1.94678">
        <ele>1150.6</ele>
        <time>2022-09-07T14:01:41Z</time>
      </trkpt>
      <trkpt lat="42.4089" lon="1.94686">
        <ele>1150.6</ele>
        <time>2022-09-07T14:01:42Z</time>
      </trkpt>
      <trkpt lat="42.40888" lon="1.94694">
        <ele>1151.6</ele>
        <time>2022-09-07T14:01:43Z</time>
      </trkpt>
      <trkpt lat="42.40887" lon="1.94701">
        <ele>1153.2</ele>
        <time>2022-09-07T14:01:44Z</time>
      </trkpt>
      <trkpt lat="42.40885" lon="1.94709">
        <ele>1153.2</ele>
        <time>2022-09-07T14:01:45Z</time>
      </trkpt>
      <trkpt lat="42.40883" lon="1.94716">
        <ele>1153.2</ele>
        <time>2022-09-07T14:01:46Z</time>
      </trkpt>
      <trkpt lat="42.40882" lon="1.94724">
        <ele>1153.2</ele>
        <time>2022-09-07T14:01:47Z</time>
      </trkpt>
      <trkpt lat="42.4088" lon="1.94732">
        <ele>1153.2</ele>
        <time>2022-09-07T14:01:48Z</time>
      </trkpt>
      <trkpt lat="42.40878" lon="1.9474">
        <ele>1154.4</ele>
        <time>2022-09-07T14:01:49Z</time>
      </trkpt>
      <trkpt lat="42.40877" lon="1.94747">
        <ele>1154.4</ele>
        <time>2022-09-07T14:01:50Z</time>
      </trkpt>
      <trkpt lat="42.40876" lon="1.94755">
        <ele>1154.4</ele>
        <time>2022-09-07T14:01:51Z</time>
      </trkpt>
      <trkpt lat="42.40876" lon="1.94764">
        <ele>1155.4</ele>
        <time>2022-09-07T14:01:52Z</time>
      </trkpt>
      <trkpt lat="42.40876" lon="1.94772">
        <ele>1156.2</ele>
        <time>2022-09-07T14:01:53Z</time>
      </trkpt>
      <trkpt lat="42.40876" lon="1.9478">
        <ele>1156.2</ele>
        <time>2022-09-07T14:01:54Z</time>
      </trkpt>
      <trkpt lat="42.40874" lon="1.94787">
        <ele>1156.2</ele>
        <time>2022-09-07T14:01:55Z</time>
      </trkpt>
      <trkpt lat="42.40872" lon="1.94794">
        <ele>1156.2</ele>
        <time>2022-09-07T14:01:56Z</time>
      </trkpt>
      <trkpt lat="42.40867" lon="1.948">
        <ele>1156.2</ele>
        <time>2022-09-07T14:01:57Z</time>
      </trkpt>
      <trkpt lat="42.40862" lon="1.94803">
        <ele>1156.2</ele>
        <time>2022-09-07T14:01:58Z</time>
      </trkpt>
      <trkpt lat="42.40856" lon="1.94805">
        <ele>1156.2</ele>
        <time>2022-09-07T14:01:59Z</time>
      </trkpt>
      <trkpt lat="42.40849" lon="1.94807">
        <ele>1157.2</ele>
        <time>2022-09-07T14:02:00Z</time>
      </trkpt>
      <trkpt lat="42.40843" lon="1.94809">
        <ele>1155.8</ele>
        <time>2022-09-07T14:02:01Z</time>
      </trkpt>
      <trkpt lat="42.40837" lon="1.94811">
        <ele>1155.8</ele>
        <time>2022-09-07T14:02:02Z</time>
      </trkpt>
      <trkpt lat="42.40831" lon="1.94813">
        <ele>1155.8</ele>
        <time>2022-09-07T14:02:03Z</time>
      </trkpt>
      <trkpt lat="42.40826" lon="1.94816">
        <ele>1156.8</ele>
        <time>2022-09-07T14:02:04Z</time>
      </trkpt>
      <trkpt lat="42.4082" lon="1.9482">
        <ele>1158</ele>
        <time>2022-09-07T14:02:05Z</time>
      </trkpt>
      <trkpt lat="42.40814" lon="1.94823">
        <ele>1158</ele>
        <time>2022-09-07T14:02:06Z</time>
      </trkpt>
      <trkpt lat="42.40809" lon="1.94827">
        <ele>1158</ele>
        <time>2022-09-07T14:02:07Z</time>
      </trkpt>
      <trkpt lat="42.40804" lon="1.94832">
        <ele>1158</ele>
        <time>2022-09-07T14:02:08Z</time>
      </trkpt>
      <trkpt lat="42.40799" lon="1.94837">
        <ele>1159</ele>
        <time>2022-09-07T14:02:09Z</time>
      </trkpt>
      <trkpt lat="42.40795" lon="1.94843">
        <ele>1159.6</ele>
        <time>2022-09-07T14:02:10Z</time>
      </trkpt>
      <trkpt lat="42.40791" lon="1.9485">
        <ele>1159.6</ele>
        <time>2022-09-07T14:02:11Z</time>
      </trkpt>
      <trkpt lat="42.40788" lon="1.94856">
        <ele>1159.6</ele>
        <time>2022-09-07T14:02:12Z</time>
      </trkpt>
      <trkpt lat="42.40785" lon="1.94863">
        <ele>1160.2</ele>
        <time>2022-09-07T14:02:13Z</time>
      </trkpt>
      <trkpt lat="42.40785" lon="1.94871">
        <ele>1160.6</ele>
        <time>2022-09-07T14:02:14Z</time>
      </trkpt>
      <trkpt lat="42.40786" lon="1.94878">
        <ele>1160.6</ele>
        <time>2022-09-07T14:02:15Z</time>
      </trkpt>
      <trkpt lat="42.40789" lon="1.94886">
        <ele>1160.6</ele>
        <time>2022-09-07T14:02:16Z</time>
      </trkpt>
      <trkpt lat="42.40791" lon="1.94894">
        <ele>1160.6</ele>
        <time>2022-09-07T14:02:17Z</time>
      </trkpt>
      <trkpt lat="42.40793" lon="1.94901">
        <ele>1162.2</ele>
        <time>2022-09-07T14:02:18Z</time>
      </trkpt>
      <trkpt lat="42.40796" lon="1.94908">
        <ele>1162.2</ele>
        <time>2022-09-07T14:02:19Z</time>
      </trkpt>
      <trkpt lat="42.40799" lon="1.94916">
        <ele>1162.2</ele>
        <time>2022-09-07T14:02:20Z</time>
      </trkpt>
      <trkpt lat="42.40801" lon="1.94923">
        <ele>1161.2</ele>
        <time>2022-09-07T14:02:21Z</time>
      </trkpt>
      <trkpt lat="42.40803" lon="1.94931">
        <ele>1161.6</ele>
        <time>2022-09-07T14:02:22Z</time>
      </trkpt>
      <trkpt lat="42.40806" lon="1.94938">
        <ele>1161.6</ele>
        <time>2022-09-07T14:02:23Z</time>
      </trkpt>
      <trkpt lat="42.40808" lon="1.94947">
        <ele>1161.6</ele>
        <time>2022-09-07T14:02:24Z</time>
      </trkpt>
      <trkpt lat="42.40809" lon="1.94955">
        <ele>1161.6</ele>
        <time>2022-09-07T14:02:25Z</time>
      </trkpt>
      <trkpt lat="42.40811" lon="1.94963">
        <ele>1161.6</ele>
        <time>2022-09-07T14:02:26Z</time>
      </trkpt>
      <trkpt lat="42.40813" lon="1.94971">
        <ele>1162.2</ele>
        <time>2022-09-07T14:02:27Z</time>
      </trkpt>
      <trkpt lat="42.40815" lon="1.94979">
        <ele>1162.2</ele>
        <time>2022-09-07T14:02:28Z</time>
      </trkpt>
      <trkpt lat="42.40817" lon="1.94987">
        <ele>1162.2</ele>
        <time>2022-09-07T14:02:29Z</time>
      </trkpt>
      <trkpt lat="42.40818" lon="1.94995">
        <ele>1163</ele>
        <time>2022-09-07T14:02:30Z</time>
      </trkpt>
      <trkpt lat="42.4082" lon="1.95003">
        <ele>1163</ele>
        <time>2022-09-07T14:02:31Z</time>
      </trkpt>
      <trkpt lat="42.40822" lon="1.95011">
        <ele>1163</ele>
        <time>2022-09-07T14:02:32Z</time>
      </trkpt>
      <trkpt lat="42.40824" lon="1.95019">
        <ele>1163</ele>
        <time>2022-09-07T14:02:33Z</time>
      </trkpt>
      <trkpt lat="42.40825" lon="1.95026">
        <ele>1163</ele>
        <time>2022-09-07T14:02:34Z</time>
      </trkpt>
      <trkpt lat="42.40825" lon="1.95034">
        <ele>1163.4</ele>
        <time>2022-09-07T14:02:35Z</time>
      </trkpt>
      <trkpt lat="42.40822" lon="1.9504">
        <ele>1163.4</ele>
        <time>2022-09-07T14:02:36Z</time>
      </trkpt>
      <trkpt lat="42.40816" lon="1.95044">
        <ele>1163.4</ele>
        <time>2022-09-07T14:02:37Z</time>
      </trkpt>
      <trkpt lat="42.4081" lon="1.95047">
        <ele>1163.4</ele>
        <time>2022-09-07T14:02:38Z</time>
      </trkpt>
      <trkpt lat="42.40804" lon="1.9505">
        <ele>1164.4</ele>
        <time>2022-09-07T14:02:39Z</time>
      </trkpt>
      <trkpt lat="42.40798" lon="1.95053">
        <ele>1164.4</ele>
        <time>2022-09-07T14:02:40Z</time>
      </trkpt>
      <trkpt lat="42.40792" lon="1.95057">
        <ele>1164.4</ele>
        <time>2022-09-07T14:02:41Z</time>
      </trkpt>
      <trkpt lat="42.40786" lon="1.9506">
        <ele>1165</ele>
        <time>2022-09-07T14:02:42Z</time>
      </trkpt>
      <trkpt lat="42.4078" lon="1.95064">
        <ele>1165.2</ele>
        <time>2022-09-07T14:02:43Z</time>
      </trkpt>
      <trkpt lat="42.40774" lon="1.95067">
        <ele>1165.2</ele>
        <time>2022-09-07T14:02:44Z</time>
      </trkpt>
      <trkpt lat="42.40769" lon="1.95071">
        <ele>1165.2</ele>
        <time>2022-09-07T14:02:45Z</time>
      </trkpt>
      <trkpt lat="42.40764" lon="1.95074">
        <ele>1166</ele>
        <time>2022-09-07T14:02:46Z</time>
      </trkpt>
      <trkpt lat="42.40758" lon="1.95078">
        <ele>1165.8</ele>
        <time>2022-09-07T14:02:47Z</time>
      </trkpt>
      <trkpt lat="42.40753" lon="1.95081">
        <ele>1165.8</ele>
        <time>2022-09-07T14:02:48Z</time>
      </trkpt>
      <trkpt lat="42.40747" lon="1.95084">
        <ele>1165.8</ele>
        <time>2022-09-07T14:02:49Z</time>
      </trkpt>
      <trkpt lat="42.40741" lon="1.95085">
        <ele>1165.8</ele>
        <time>2022-09-07T14:02:50Z</time>
      </trkpt>
      <trkpt lat="42.40735" lon="1.95086">
        <ele>1166.4</ele>
        <time>2022-09-07T14:02:51Z</time>
      </trkpt>
      <trkpt lat="42.40729" lon="1.95087">
        <ele>1166.6</ele>
        <time>2022-09-07T14:02:52Z</time>
      </trkpt>
      <trkpt lat="42.40723" lon="1.95087">
        <ele>1166.6</ele>
        <time>2022-09-07T14:02:53Z</time>
      </trkpt>
      <trkpt lat="42.40717" lon="1.95087">
        <ele>1166.6</ele>
        <time>2022-09-07T14:02:54Z</time>
      </trkpt>
      <trkpt lat="42.40711" lon="1.95086">
        <ele>1166.8</ele>
        <time>2022-09-07T14:02:55Z</time>
      </trkpt>
      <trkpt lat="42.40706" lon="1.95086">
        <ele>1167.6</ele>
        <time>2022-09-07T14:02:56Z</time>
      </trkpt>
      <trkpt lat="42.407" lon="1.95086">
        <ele>1167.6</ele>
        <time>2022-09-07T14:02:57Z</time>
      </trkpt>
      <trkpt lat="42.40694" lon="1.95085">
        <ele>1167.6</ele>
        <time>2022-09-07T14:02:58Z</time>
      </trkpt>
      <trkpt lat="42.40689" lon="1.95085">
        <ele>1168.6</ele>
        <time>2022-09-07T14:02:59Z</time>
      </trkpt>
      <trkpt lat="42.40683" lon="1.95085">
        <ele>1169.8</ele>
        <time>2022-09-07T14:03:00Z</time>
      </trkpt>
      <trkpt lat="42.40678" lon="1.95085">
        <ele>1169.8</ele>
        <time>2022-09-07T14:03:01Z</time>
      </trkpt>
      <trkpt lat="42.40672" lon="1.95086">
        <ele>1169.8</ele>
        <time>2022-09-07T14:03:02Z</time>
      </trkpt>
      <trkpt lat="42.40667" lon="1.95086">
        <ele>1170.8</ele>
        <time>2022-09-07T14:03:03Z</time>
      </trkpt>
      <trkpt lat="42.40661" lon="1.95086">
        <ele>1171.8</ele>
        <time>2022-09-07T14:03:04Z</time>
      </trkpt>
      <trkpt lat="42.40656" lon="1.95086">
        <ele>1171.8</ele>
        <time>2022-09-07T14:03:05Z</time>
      </trkpt>
      <trkpt lat="42.4065" lon="1.95087">
        <ele>1171.8</ele>
        <time>2022-09-07T14:03:06Z</time>
      </trkpt>
      <trkpt lat="42.40645" lon="1.95087">
        <ele>1171.8</ele>
        <time>2022-09-07T14:03:07Z</time>
      </trkpt>
      <trkpt lat="42.40639" lon="1.95088">
        <ele>1171.6</ele>
        <time>2022-09-07T14:03:08Z</time>
      </trkpt>
      <trkpt lat="42.40633" lon="1.95088">
        <ele>1171.6</ele>
        <time>2022-09-07T14:03:09Z</time>
      </trkpt>
      <trkpt lat="42.40627" lon="1.95087">
        <ele>1171.6</ele>
        <time>2022-09-07T14:03:10Z</time>
      </trkpt>
      <trkpt lat="42.40621" lon="1.95086">
        <ele>1172.6</ele>
        <time>2022-09-07T14:03:11Z</time>
      </trkpt>
      <trkpt lat="42.40616" lon="1.95085">
        <ele>1174</ele>
        <time>2022-09-07T14:03:12Z</time>
      </trkpt>
      <trkpt lat="42.4061" lon="1.95084">
        <ele>1174</ele>
        <time>2022-09-07T14:03:13Z</time>
      </trkpt>
      <trkpt lat="42.40604" lon="1.95084">
        <ele>1174</ele>
        <time>2022-09-07T14:03:14Z</time>
      </trkpt>
      <trkpt lat="42.40599" lon="1.95083">
        <ele>1174</ele>
        <time>2022-09-07T14:03:15Z</time>
      </trkpt>
      <trkpt lat="42.40593" lon="1.95082">
        <ele>1174</ele>
        <time>2022-09-07T14:03:16Z</time>
      </trkpt>
      <trkpt lat="42.40588" lon="1.9508">
        <ele>1174</ele>
        <time>2022-09-07T14:03:17Z</time>
      </trkpt>
      <trkpt lat="42.40582" lon="1.95078">
        <ele>1174</ele>
        <time>2022-09-07T14:03:18Z</time>
      </trkpt>
      <trkpt lat="42.40577" lon="1.95075">
        <ele>1174</ele>
        <time>2022-09-07T14:03:19Z</time>
      </trkpt>
      <trkpt lat="42.40572" lon="1.95071">
        <ele>1175</ele>
        <time>2022-09-07T14:03:20Z</time>
      </trkpt>
      <trkpt lat="42.40567" lon="1.95068">
        <ele>1176.8</ele>
        <time>2022-09-07T14:03:21Z</time>
      </trkpt>
      <trkpt lat="42.40562" lon="1.95064">
        <ele>1176.8</ele>
        <time>2022-09-07T14:03:22Z</time>
      </trkpt>
      <trkpt lat="42.40558" lon="1.9506">
        <ele>1176.8</ele>
        <time>2022-09-07T14:03:23Z</time>
      </trkpt>
      <trkpt lat="42.40553" lon="1.95056">
        <ele>1177.8</ele>
        <time>2022-09-07T14:03:24Z</time>
      </trkpt>
      <trkpt lat="42.40548" lon="1.95052">
        <ele>1177.4</ele>
        <time>2022-09-07T14:03:25Z</time>
      </trkpt>
      <trkpt lat="42.40543" lon="1.95048">
        <ele>1177.4</ele>
        <time>2022-09-07T14:03:26Z</time>
      </trkpt>
      <trkpt lat="42.40539" lon="1.95044">
        <ele>1177.4</ele>
        <time>2022-09-07T14:03:27Z</time>
      </trkpt>
      <trkpt lat="42.40535" lon="1.95039">
        <ele>1178.2</ele>
        <time>2022-09-07T14:03:28Z</time>
      </trkpt>
      <trkpt lat="42.40531" lon="1.95035">
        <ele>1179.4</ele>
        <time>2022-09-07T14:03:29Z</time>
      </trkpt>
      <trkpt lat="42.40527" lon="1.9503">
        <ele>1179.4</ele>
        <time>2022-09-07T14:03:30Z</time>
      </trkpt>
      <trkpt lat="42.40523" lon="1.95025">
        <ele>1179.4</ele>
        <time>2022-09-07T14:03:31Z</time>
      </trkpt>
      <trkpt lat="42.40519" lon="1.95019">
        <ele>1180.4</ele>
        <time>2022-09-07T14:03:32Z</time>
      </trkpt>
      <trkpt lat="42.40516" lon="1.95014">
        <ele>1181.8</ele>
        <time>2022-09-07T14:03:33Z</time>
      </trkpt>
      <trkpt lat="42.40512" lon="1.95009">
        <ele>1181.8</ele>
        <time>2022-09-07T14:03:34Z</time>
      </trkpt>
      <trkpt lat="42.40509" lon="1.95003">
        <ele>1181.8</ele>
        <time>2022-09-07T14:03:35Z</time>
      </trkpt>
      <trkpt lat="42.40506" lon="1.94997">
        <ele>1181.8</ele>
        <time>2022-09-07T14:03:36Z</time>
      </trkpt>
      <trkpt lat="42.40503" lon="1.94991">
        <ele>1181.8</ele>
        <time>2022-09-07T14:03:37Z</time>
      </trkpt>
      <trkpt lat="42.405" lon="1.94985">
        <ele>1183.8</ele>
        <time>2022-09-07T14:03:38Z</time>
      </trkpt>
      <trkpt lat="42.40498" lon="1.94978">
        <ele>1183.8</ele>
        <time>2022-09-07T14:03:39Z</time>
      </trkpt>
      <trkpt lat="42.40495" lon="1.94972">
        <ele>1183.8</ele>
        <time>2022-09-07T14:03:40Z</time>
      </trkpt>
      <trkpt lat="42.40492" lon="1.94965">
        <ele>1183.8</ele>
        <time>2022-09-07T14:03:41Z</time>
      </trkpt>
      <trkpt lat="42.40489" lon="1.94959">
        <ele>1184</ele>
        <time>2022-09-07T14:03:42Z</time>
      </trkpt>
      <trkpt lat="42.40487" lon="1.94953">
        <ele>1184</ele>
        <time>2022-09-07T14:03:43Z</time>
      </trkpt>
      <trkpt lat="42.40484" lon="1.94946">
        <ele>1184</ele>
        <time>2022-09-07T14:03:44Z</time>
      </trkpt>
      <trkpt lat="42.40481" lon="1.9494">
        <ele>1184</ele>
        <time>2022-09-07T14:03:45Z</time>
      </trkpt>
      <trkpt lat="42.40478" lon="1.94934">
        <ele>1184.8</ele>
        <time>2022-09-07T14:03:46Z</time>
      </trkpt>
      <trkpt lat="42.40475" lon="1.94928">
        <ele>1184.8</ele>
        <time>2022-09-07T14:03:47Z</time>
      </trkpt>
      <trkpt lat="42.40473" lon="1.94922">
        <ele>1184.8</ele>
        <time>2022-09-07T14:03:48Z</time>
      </trkpt>
      <trkpt lat="42.4047" lon="1.94916">
        <ele>1185.8</ele>
        <time>2022-09-07T14:03:49Z</time>
      </trkpt>
      <trkpt lat="42.40467" lon="1.9491">
        <ele>1185.8</ele>
        <time>2022-09-07T14:03:50Z</time>
      </trkpt>
      <trkpt lat="42.40465" lon="1.94904">
        <ele>1188.4</ele>
        <time>2022-09-07T14:03:51Z</time>
      </trkpt>
      <trkpt lat="42.40462" lon="1.94899">
        <ele>1188.4</ele>
        <time>2022-09-07T14:03:52Z</time>
      </trkpt>
      <trkpt lat="42.4046" lon="1.94893">
        <ele>1188.4</ele>
        <time>2022-09-07T14:03:53Z</time>
      </trkpt>
      <trkpt lat="42.40459" lon="1.94889">
        <ele>1188.4</ele>
        <time>2022-09-07T14:03:54Z</time>
      </trkpt>
      <trkpt lat="42.40458" lon="1.94885">
        <ele>1188.8</ele>
        <time>2022-09-07T14:03:55Z</time>
      </trkpt>
      <trkpt lat="42.40457" lon="1.94882">
        <ele>1188.8</ele>
        <time>2022-09-07T14:03:56Z</time>
      </trkpt>
      <trkpt lat="42.40455" lon="1.94879">
        <ele>1188.8</ele>
        <time>2022-09-07T14:03:57Z</time>
      </trkpt>
      <trkpt lat="42.40455" lon="1.94876">
        <ele>1189.6</ele>
        <time>2022-09-07T14:03:58Z</time>
      </trkpt>
      <trkpt lat="42.40454" lon="1.94874">
        <ele>1189.8</ele>
        <time>2022-09-07T14:03:59Z</time>
      </trkpt>
      <trkpt lat="42.40453" lon="1.94872">
        <ele>1189.8</ele>
        <time>2022-09-07T14:04:00Z</time>
      </trkpt>
      <trkpt lat="42.40452" lon="1.94869">
        <ele>1189.8</ele>
        <time>2022-09-07T14:04:01Z</time>
      </trkpt>
      <trkpt lat="42.40452" lon="1.94867">
        <ele>1189.8</ele>
        <time>2022-09-07T14:04:02Z</time>
      </trkpt>
      <trkpt lat="42.40451" lon="1.94864">
        <ele>1190.4</ele>
        <time>2022-09-07T14:04:03Z</time>
      </trkpt>
      <trkpt lat="42.4045" lon="1.94862">
        <ele>1190.4</ele>
        <time>2022-09-07T14:04:04Z</time>
      </trkpt>
      <trkpt lat="42.40449" lon="1.94859">
        <ele>1190.4</ele>
        <time>2022-09-07T14:04:05Z</time>
      </trkpt>
      <trkpt lat="42.40448" lon="1.94857">
        <ele>1190.4</ele>
        <time>2022-09-07T14:04:06Z</time>
      </trkpt>
      <trkpt lat="42.40448" lon="1.94854">
        <ele>1190.6</ele>
        <time>2022-09-07T14:04:07Z</time>
      </trkpt>
      <trkpt lat="42.40447" lon="1.94852">
        <ele>1191.4</ele>
        <time>2022-09-07T14:04:08Z</time>
      </trkpt>
      <trkpt lat="42.40447" lon="1.9485">
        <ele>1191.4</ele>
        <time>2022-09-07T14:04:09Z</time>
      </trkpt>
      <trkpt lat="42.40446" lon="1.94848">
        <ele>1191.4</ele>
        <time>2022-09-07T14:04:10Z</time>
      </trkpt>
      <trkpt lat="42.40446" lon="1.94846">
        <ele>1191.4</ele>
        <time>2022-09-07T14:04:11Z</time>
      </trkpt>
      <trkpt lat="42.40445" lon="1.94844">
        <ele>1191.4</ele>
        <time>2022-09-07T14:04:12Z</time>
      </trkpt>
      <trkpt lat="42.40445" lon="1.94842">
        <ele>1191.4</ele>
        <time>2022-09-07T14:04:13Z</time>
      </trkpt>
      <trkpt lat="42.40444" lon="1.9484">
        <ele>1191.4</ele>
        <time>2022-09-07T14:04:14Z</time>
      </trkpt>
      <trkpt lat="42.40444" lon="1.94838">
        <ele>1191.4</ele>
        <time>2022-09-07T14:04:15Z</time>
      </trkpt>
      <trkpt lat="42.40443" lon="1.94837">
        <ele>1191.6</ele>
        <time>2022-09-07T14:04:16Z</time>
      </trkpt>
      <trkpt lat="42.40443" lon="1.94836">
        <ele>1191.6</ele>
        <time>2022-09-07T14:04:17Z</time>
      </trkpt>
      <trkpt lat="42.40442" lon="1.948349">
        <ele>1200</ele>
        <time>2022-09-07T14:04:17Z</time>
      </trkpt>
      <trkpt lat="42.404247" lon="1.947731">
        <ele>1202</ele>
        <time>2022-09-07T14:04:28Z</time>
      </trkpt>
      <trkpt lat="42.404021" lon="1.947362">
        <ele>1208</ele>
        <time>2022-09-07T14:04:36Z</time>
      </trkpt>
      <trkpt lat="42.404042" lon="1.947226">
        <ele>1208.3</ele>
        <time>2022-09-07T14:04:38Z</time>
      </trkpt>
      <trkpt lat="42.404176" lon="1.946749">
        <ele>1207.3</ele>
        <time>2022-09-07T14:04:47Z</time>
      </trkpt>
      <trkpt lat="42.404243" lon="1.946407">
        <ele>1207.5</ele>
        <time>2022-09-07T14:04:53Z</time>
      </trkpt>
      <trkpt lat="42.404243" lon="1.946128">
        <ele>1209</ele>
        <time>2022-09-07T14:04:57Z</time>
      </trkpt>
      <trkpt lat="42.404216" lon="1.945984">
        <ele>1210.5</ele>
        <time>2022-09-07T14:05:00Z</time>
      </trkpt>
      <trkpt lat="42.404145" lon="1.945994">
        <ele>1212.5</ele>
        <time>2022-09-07T14:05:01Z</time>
      </trkpt>
      <trkpt lat="42.404098" lon="1.94612">
        <ele>1213</ele>
        <time>2022-09-07T14:05:03Z</time>
      </trkpt>
      <trkpt lat="42.404077" lon="1.946337">
        <ele>1212.5</ele>
        <time>2022-09-07T14:05:07Z</time>
      </trkpt>
      <trkpt lat="42.404046" lon="1.946511">
        <ele>1212.3</ele>
        <time>2022-09-07T14:05:10Z</time>
      </trkpt>
      <trkpt lat="42.403996" lon="1.946605">
        <ele>1213.3</ele>
        <time>2022-09-07T14:05:12Z</time>
      </trkpt>
      <trkpt lat="42.403548" lon="1.947047">
        <ele>1224.3</ele>
        <time>2022-09-07T14:05:24Z</time>
      </trkpt>
      <trkpt lat="42.4034" lon="1.947278">
        <ele>1227.3</ele>
        <time>2022-09-07T14:05:29Z</time>
      </trkpt>
      <trkpt lat="42.403295" lon="1.947602">
        <ele>1229</ele>
        <time>2022-09-07T14:05:35Z</time>
      </trkpt>
      <trkpt lat="42.40328" lon="1.947763">
        <ele>1229.3</ele>
        <time>2022-09-07T14:05:38Z</time>
      </trkpt>
      <trkpt lat="42.403269" lon="1.947888">
        <ele>1229.5</ele>
        <time>2022-09-07T14:05:40Z</time>
      </trkpt>
      <trkpt lat="42.403217" lon="1.948348">
        <ele>1230.8</ele>
        <time>2022-09-07T14:05:47Z</time>
      </trkpt>
      <trkpt lat="42.403074" lon="1.948794">
        <ele>1235</ele>
        <time>2022-09-07T14:05:55Z</time>
      </trkpt>
      <trkpt lat="42.403012" lon="1.949176">
        <ele>1236</ele>
        <time>2022-09-07T14:06:02Z</time>
      </trkpt>
      <trkpt lat="42.403034" lon="1.949471">
        <ele>1234.5</ele>
        <time>2022-09-07T14:06:06Z</time>
      </trkpt>
      <trkpt lat="42.402984" lon="1.949549">
        <ele>1235.5</ele>
        <time>2022-09-07T14:06:08Z</time>
      </trkpt>
      <trkpt lat="42.402944" lon="1.949543">
        <ele>1236.5</ele>
        <time>2022-09-07T14:06:09Z</time>
      </trkpt>
      <trkpt lat="42.4029" lon="1.949503">
        <ele>1238</ele>
        <time>2022-09-07T14:06:10Z</time>
      </trkpt>
      <trkpt lat="42.402871" lon="1.949413">
        <ele>1239</ele>
        <time>2022-09-07T14:06:12Z</time>
      </trkpt>
      <trkpt lat="42.402866" lon="1.949244">
        <ele>1240</ele>
        <time>2022-09-07T14:06:15Z</time>
      </trkpt>
      <trkpt lat="42.402875" lon="1.94895">
        <ele>1240.8</ele>
        <time>2022-09-07T14:06:19Z</time>
      </trkpt>
      <trkpt lat="42.402848" lon="1.94853">
        <ele>1242.8</ele>
        <time>2022-09-07T14:06:26Z</time>
      </trkpt>
      <trkpt lat="42.402857" lon="1.948191">
        <ele>1243</ele>
        <time>2022-09-07T14:06:32Z</time>
      </trkpt>
      <trkpt lat="42.402838" lon="1.947969">
        <ele>1244</ele>
        <time>2022-09-07T14:06:35Z</time>
      </trkpt>
      <trkpt lat="42.402783" lon="1.947885">
        <ele>1246</ele>
        <time>2022-09-07T14:06:37Z</time>
      </trkpt>
      <trkpt lat="42.40273" lon="1.947933">
        <ele>1247.8</ele>
        <time>2022-09-07T14:06:39Z</time>
      </trkpt>
      <trkpt lat="42.402695" lon="1.948151">
        <ele>1248.5</ele>
        <time>2022-09-07T14:06:42Z</time>
      </trkpt>
      <trkpt lat="42.402654" lon="1.948616">
        <ele>1248.5</ele>
        <time>2022-09-07T14:06:50Z</time>
      </trkpt>
      <trkpt lat="42.402583" lon="1.948838">
        <ele>1250</ele>
        <time>2022-09-07T14:06:54Z</time>
      </trkpt>
      <trkpt lat="42.402536" lon="1.949022">
        <ele>1250.5</ele>
        <time>2022-09-07T14:06:57Z</time>
      </trkpt>
      <trkpt lat="42.402497" lon="1.949034">
        <ele>1251.5</ele>
        <time>2022-09-07T14:06:58Z</time>
      </trkpt>
      <trkpt lat="42.402441" lon="1.94892">
        <ele>1253.8</ele>
        <time>2022-09-07T14:07:00Z</time>
      </trkpt>
      <trkpt lat="42.402484" lon="1.948708">
        <ele>1253.5</ele>
        <time>2022-09-07T14:07:04Z</time>
      </trkpt>
      <trkpt lat="42.402487" lon="1.94853">
        <ele>1254.3</ele>
        <time>2022-09-07T14:07:07Z</time>
      </trkpt>
      <trkpt lat="42.402472" lon="1.948344">
        <ele>1255.8</ele>
        <time>2022-09-07T14:07:10Z</time>
      </trkpt>
      <trkpt lat="42.402448" lon="1.948233">
        <ele>1256.8</ele>
        <time>2022-09-07T14:07:12Z</time>
      </trkpt>
      <trkpt lat="42.402395" lon="1.948201">
        <ele>1258.5</ele>
        <time>2022-09-07T14:07:13Z</time>
      </trkpt>
      <trkpt lat="42.40233" lon="1.948225">
        <ele>1260.5</ele>
        <time>2022-09-07T14:07:15Z</time>
      </trkpt>
      <trkpt lat="42.402258" lon="1.948372">
        <ele>1262.5</ele>
        <time>2022-09-07T14:07:17Z</time>
      </trkpt>
      <trkpt lat="42.402086" lon="1.94862">
        <ele>1266.5</ele>
        <time>2022-09-07T14:07:23Z</time>
      </trkpt>
      <trkpt lat="42.401843" lon="1.948949">
        <ele>1271.3</ele>
        <time>2022-09-07T14:07:30Z</time>
      </trkpt>
      <trkpt lat="42.401807" lon="1.948999">
        <ele>1272.3</ele>
        <time>2022-09-07T14:07:32Z</time>
      </trkpt>
      <trkpt lat="42.401619" lon="1.949345">
        <ele>1274.8</ele>
        <time>2022-09-07T14:07:38Z</time>
      </trkpt>
      <trkpt lat="42.401565" lon="1.949594">
        <ele>1274.3</ele>
        <time>2022-09-07T14:07:43Z</time>
      </trkpt>
      <trkpt lat="42.401376" lon="1.950067">
        <ele>1275</ele>
        <time>2022-09-07T14:07:51Z</time>
      </trkpt>
      <trkpt lat="42.401305" lon="1.950315">
        <ele>1276.3</ele>
        <time>2022-09-07T14:07:56Z</time>
      </trkpt>
      <trkpt lat="42.401261" lon="1.950414">
        <ele>1277</ele>
        <time>2022-09-07T14:07:57Z</time>
      </trkpt>
      <trkpt lat="42.401236" lon="1.95042">
        <ele>1277.8</ele>
        <time>2022-09-07T14:07:58Z</time>
      </trkpt>
      <trkpt lat="42.40119" lon="1.950773">
        <ele>1278.8</ele>
        <time>2022-09-07T14:08:04Z</time>
      </trkpt>
      <trkpt lat="42.40119" lon="1.950967">
        <ele>1279.3</ele>
        <time>2022-09-07T14:08:07Z</time>
      </trkpt>
      <trkpt lat="42.401163" lon="1.95119">
        <ele>1281.5</ele>
        <time>2022-09-07T14:08:10Z</time>
      </trkpt>
      <trkpt lat="42.401066" lon="1.951366">
        <ele>1285.5</ele>
        <time>2022-09-07T14:08:14Z</time>
      </trkpt>
      <trkpt lat="42.401011" lon="1.951792">
        <ele>1289.8</ele>
        <time>2022-09-07T14:08:21Z</time>
      </trkpt>
      <trkpt lat="42.401111" lon="1.952371">
        <ele>1290.5</ele>
        <time>2022-09-07T14:08:31Z</time>
      </trkpt>
      <trkpt lat="42.401112" lon="1.952578">
        <ele>1291.8</ele>
        <time>2022-09-07T14:08:34Z</time>
      </trkpt>
      <trkpt lat="42.401087" lon="1.952724">
        <ele>1293</ele>
        <time>2022-09-07T14:08:36Z</time>
      </trkpt>
      <trkpt lat="42.401083" lon="1.952749">
        <ele>1293.3</ele>
        <time>2022-09-07T14:08:37Z</time>
      </trkpt>
      <trkpt lat="42.400793" lon="1.953707">
        <ele>1308</ele>
        <time>2022-09-07T14:08:53Z</time>
      </trkpt>
      <trkpt lat="42.400713" lon="1.954317">
        <ele>1314.8</ele>
        <time>2022-09-07T14:09:03Z</time>
      </trkpt>
      <trkpt lat="42.400699" lon="1.954473">
        <ele>1316.3</ele>
        <time>2022-09-07T14:09:06Z</time>
      </trkpt>
      <trkpt lat="42.400573" lon="1.954854">
        <ele>1322.5</ele>
        <time>2022-09-07T14:09:12Z</time>
      </trkpt>
      <trkpt lat="42.400524" lon="1.955216">
        <ele>1326.8</ele>
        <time>2022-09-07T14:09:18Z</time>
      </trkpt>
      <trkpt lat="42.40052" lon="1.955513">
        <ele>1329</ele>
        <time>2022-09-07T14:09:23Z</time>
      </trkpt>
      <trkpt lat="42.400561" lon="1.955691">
        <ele>1329</ele>
        <time>2022-09-07T14:09:26Z</time>
      </trkpt>
      <trkpt lat="42.400693" lon="1.956023">
        <ele>1327.3</ele>
        <time>2022-09-07T14:09:32Z</time>
      </trkpt>
      <trkpt lat="42.400643" lon="1.956278">
        <ele>1329.3</ele>
        <time>2022-09-07T14:09:36Z</time>
      </trkpt>
      <trkpt lat="42.400572" lon="1.956429">
        <ele>1331.5</ele>
        <time>2022-09-07T14:09:39Z</time>
      </trkpt>
      <trkpt lat="42.400452" lon="1.956556">
        <ele>1334.8</ele>
        <time>2022-09-07T14:09:43Z</time>
      </trkpt>
      <trkpt lat="42.400314" lon="1.956614">
        <ele>1337.5</ele>
        <time>2022-09-07T14:09:46Z</time>
      </trkpt>
      <trkpt lat="42.399925" lon="1.956781">
        <ele>1346</ele>
        <time>2022-09-07T14:09:57Z</time>
      </trkpt>
      <trkpt lat="42.399808" lon="1.956778">
        <ele>1346.5</ele>
        <time>2022-09-07T14:10:00Z</time>
      </trkpt>
      <trkpt lat="42.399721" lon="1.956712">
        <ele>1347.5</ele>
        <time>2022-09-07T14:10:02Z</time>
      </trkpt>
      <trkpt lat="42.399555" lon="1.956477">
        <ele>1349</ele>
        <time>2022-09-07T14:10:08Z</time>
      </trkpt>
      <trkpt lat="42.399389" lon="1.956283">
        <ele>1350.3</ele>
        <time>2022-09-07T14:10:14Z</time>
      </trkpt>
      <trkpt lat="42.399335" lon="1.956204">
        <ele>1350.5</ele>
        <time>2022-09-07T14:10:16Z</time>
      </trkpt>
      <trkpt lat="42.399257" lon="1.956152">
        <ele>1351.3</ele>
        <time>2022-09-07T14:10:18Z</time>
      </trkpt>
      <trkpt lat="42.399167" lon="1.95615">
        <ele>1351.8</ele>
        <time>2022-09-07T14:10:21Z</time>
      </trkpt>
      <trkpt lat="42.399056" lon="1.956206">
        <ele>1352</ele>
        <time>2022-09-07T14:10:24Z</time>
      </trkpt>
      <trkpt lat="42.398817" lon="1.956355">
        <ele>1353.5</ele>
        <time>2022-09-07T14:10:30Z</time>
      </trkpt>
      <trkpt lat="42.398594" lon="1.956471">
        <ele>1356.3</ele>
        <time>2022-09-07T14:10:36Z</time>
      </trkpt>
      <trkpt lat="42.398433" lon="1.956491">
        <ele>1357.8</ele>
        <time>2022-09-07T14:10:41Z</time>
      </trkpt>
      <trkpt lat="42.397801" lon="1.956481">
        <ele>1363.3</ele>
        <time>2022-09-07T14:10:57Z</time>
      </trkpt>
      <trkpt lat="42.397589" lon="1.956495">
        <ele>1365.5</ele>
        <time>2022-09-07T14:11:02Z</time>
      </trkpt>
      <trkpt lat="42.397476" lon="1.956572">
        <ele>1368</ele>
        <time>2022-09-07T14:11:05Z</time>
      </trkpt>
      <trkpt lat="42.397305" lon="1.95673">
        <ele>1371.3</ele>
        <time>2022-09-07T14:11:11Z</time>
      </trkpt>
      <trkpt lat="42.397145" lon="1.956783">
        <ele>1373.3</ele>
        <time>2022-09-07T14:11:15Z</time>
      </trkpt>
      <trkpt lat="42.397019" lon="1.956756">
        <ele>1375.5</ele>
        <time>2022-09-07T14:11:18Z</time>
      </trkpt>
      <trkpt lat="42.396881" lon="1.956803">
        <ele>1377.3</ele>
        <time>2022-09-07T14:11:22Z</time>
      </trkpt>
      <trkpt lat="42.396714" lon="1.956935">
        <ele>1378.5</ele>
        <time>2022-09-07T14:11:27Z</time>
      </trkpt>
      <trkpt lat="42.396485" lon="1.957136">
        <ele>1380</ele>
        <time>2022-09-07T14:11:34Z</time>
      </trkpt>
      <trkpt lat="42.396358" lon="1.957142">
        <ele>1382</ele>
        <time>2022-09-07T14:11:37Z</time>
      </trkpt>
      <trkpt lat="42.396156" lon="1.957224">
        <ele>1384.5</ele>
        <time>2022-09-07T14:11:42Z</time>
      </trkpt>
      <trkpt lat="42.396067" lon="1.957327">
        <ele>1385.5</ele>
        <time>2022-09-07T14:11:45Z</time>
      </trkpt>
      <trkpt lat="42.395884" lon="1.95739">
        <ele>1388.3</ele>
        <time>2022-09-07T14:11:50Z</time>
      </trkpt>
      <trkpt lat="42.395513" lon="1.957441">
        <ele>1392.5</ele>
        <time>2022-09-07T14:12:00Z</time>
      </trkpt>
      <trkpt lat="42.395216" lon="1.957427">
        <ele>1395.8</ele>
        <time>2022-09-07T14:12:07Z</time>
      </trkpt>
      <trkpt lat="42.394971" lon="1.957339">
        <ele>1397.3</ele>
        <time>2022-09-07T14:12:14Z</time>
      </trkpt>
      <trkpt lat="42.39478" lon="1.957321">
        <ele>1399.5</ele>
        <time>2022-09-07T14:12:19Z</time>
      </trkpt>
      <trkpt lat="42.394576" lon="1.957352">
        <ele>1402.5</ele>
        <time>2022-09-07T14:12:24Z</time>
      </trkpt>
      <trkpt lat="42.394423" lon="1.957439">
        <ele>1406</ele>
        <time>2022-09-07T14:12:28Z</time>
      </trkpt>
      <trkpt lat="42.394227" lon="1.957665">
        <ele>1408.5</ele>
        <time>2022-09-07T14:12:35Z</time>
      </trkpt>
      <trkpt lat="42.394055" lon="1.957814">
        <ele>1410.3</ele>
        <time>2022-09-07T14:12:40Z</time>
      </trkpt>
      <trkpt lat="42.393787" lon="1.957915">
        <ele>1415</ele>
        <time>2022-09-07T14:12:47Z</time>
      </trkpt>
      <trkpt lat="42.393709" lon="1.957916">
        <ele>1416.5</ele>
        <time>2022-09-07T14:12:49Z</time>
      </trkpt>
      <trkpt lat="42.393341" lon="1.957836">
        <ele>1423.3</ele>
        <time>2022-09-07T14:12:58Z</time>
      </trkpt>
      <trkpt lat="42.393304" lon="1.95784">
        <ele>1423.8</ele>
        <time>2022-09-07T14:12:59Z</time>
      </trkpt>
      <trkpt lat="42.393166" lon="1.957842">
        <ele>1425.3</ele>
        <time>2022-09-07T14:13:03Z</time>
      </trkpt>
      <trkpt lat="42.392586" lon="1.958007">
        <ele>1433.8</ele>
        <time>2022-09-07T14:13:18Z</time>
      </trkpt>
      <trkpt lat="42.392339" lon="1.958068">
        <ele>1438</ele>
        <time>2022-09-07T14:13:24Z</time>
      </trkpt>
      <trkpt lat="42.392251" lon="1.958215">
        <ele>1442</ele>
        <time>2022-09-07T14:13:28Z</time>
      </trkpt>
      <trkpt lat="42.392145" lon="1.958328">
        <ele>1445.8</ele>
        <time>2022-09-07T14:13:31Z</time>
      </trkpt>
      <trkpt lat="42.391707" lon="1.958351">
        <ele>1453.3</ele>
        <time>2022-09-07T14:13:43Z</time>
      </trkpt>
      <trkpt lat="42.390987" lon="1.958603">
        <ele>1464.8</ele>
        <time>2022-09-07T14:14:02Z</time>
      </trkpt>
      <trkpt lat="42.390534" lon="1.958742">
        <ele>1470.5</ele>
        <time>2022-09-07T14:14:14Z</time>
      </trkpt>
      <trkpt lat="42.390409" lon="1.958848">
        <ele>1473</ele>
        <time>2022-09-07T14:14:17Z</time>
      </trkpt>
      <trkpt lat="42.390286" lon="1.959033">
        <ele>1477.3</ele>
        <time>2022-09-07T14:14:22Z</time>
      </trkpt>
      <trkpt lat="42.3901" lon="1.959191">
        <ele>1482.5</ele>
        <time>2022-09-07T14:14:28Z</time>
      </trkpt>
      <trkpt lat="42.389844" lon="1.959496">
        <ele>1487.8</ele>
        <time>2022-09-07T14:14:36Z</time>
      </trkpt>
      <trkpt lat="42.389701" lon="1.959571">
        <ele>1490.3</ele>
        <time>2022-09-07T14:14:40Z</time>
      </trkpt>
      <trkpt lat="42.389241" lon="1.959637">
        <ele>1498</ele>
        <time>2022-09-07T14:14:52Z</time>
      </trkpt>
      <trkpt lat="42.388908" lon="1.95964">
        <ele>1502.3</ele>
        <time>2022-09-07T14:15:01Z</time>
      </trkpt>
      <trkpt lat="42.388547" lon="1.959695">
        <ele>1507.8</ele>
        <time>2022-09-07T14:15:10Z</time>
      </trkpt>
      <trkpt lat="42.387975" lon="1.959648">
        <ele>1516.3</ele>
        <time>2022-09-07T14:15:24Z</time>
      </trkpt>
      <trkpt lat="42.387632" lon="1.95961">
        <ele>1521.8</ele>
        <time>2022-09-07T14:15:33Z</time>
      </trkpt>
      <trkpt lat="42.387314" lon="1.959531">
        <ele>1525</ele>
        <time>2022-09-07T14:15:41Z</time>
      </trkpt>
      <trkpt lat="42.386901" lon="1.959509">
        <ele>1532</ele>
        <time>2022-09-07T14:15:52Z</time>
      </trkpt>
      <trkpt lat="42.386062" lon="1.959281">
        <ele>1543.5</ele>
        <time>2022-09-07T14:16:14Z</time>
      </trkpt>
      <trkpt lat="42.385777" lon="1.959151">
        <ele>1545.8</ele>
        <time>2022-09-07T14:16:22Z</time>
      </trkpt>
      <trkpt lat="42.385109" lon="1.95905">
        <ele>1558.8</ele>
        <time>2022-09-07T14:16:39Z</time>
      </trkpt>
      <trkpt lat="42.38483" lon="1.959087">
        <ele>1565.5</ele>
        <time>2022-09-07T14:16:46Z</time>
      </trkpt>
      <trkpt lat="42.384521" lon="1.95911">
        <ele>1572.3</ele>
        <time>2022-09-07T14:16:54Z</time>
      </trkpt>
      <trkpt lat="42.384215" lon="1.95911">
        <ele>1578.5</ele>
        <time>2022-09-07T14:17:02Z</time>
      </trkpt>
      <trkpt lat="42.383856" lon="1.959046">
        <ele>1581.5</ele>
        <time>2022-09-07T14:17:11Z</time>
      </trkpt>
      <trkpt lat="42.383212" lon="1.959168">
        <ele>1590.3</ele>
        <time>2022-09-07T14:17:27Z</time>
      </trkpt>
      <trkpt lat="42.382891" lon="1.959296">
        <ele>1600.3</ele>
        <time>2022-09-07T14:17:36Z</time>
      </trkpt>
      <trkpt lat="42.382364" lon="1.959466">
        <ele>1612.5</ele>
        <time>2022-09-07T14:17:50Z</time>
      </trkpt>
      <trkpt lat="42.38152000000002" lon="1.959474">
        <ele>1620.5</ele>
        <time>2022-09-07T14:18:11Z</time>
      </trkpt>
      <trkpt lat="42.38064830758318" lon="1.959944502968347">
        <ele>1636.3</ele>
        <time>2022-09-07T14:18:35Z</time>
      </trkpt>
      <trkpt lat="42.37977660306466" lon="1.960415005936694">
        <ele>1652.6</ele>
        <time>2022-09-07T14:18:59Z</time>
      </trkpt>
      <trkpt lat="42.37890488644448" lon="1.960885508905042">
        <ele>1664.3</ele>
        <time>2022-09-07T14:19:23Z</time>
      </trkpt>
      <trkpt lat="42.378667" lon="1.961029">
        <ele>1668.5</ele>
        <time>2022-09-07T14:19:30Z</time>
      </trkpt>
      <trkpt lat="42.378656" lon="1.961038">
        <ele>1668.8</ele>
        <time>2022-09-07T14:19:30Z</time>
      </trkpt>
      <trkpt lat="42.378184" lon="1.961429">
        <ele>1675</ele>
        <time>2022-09-07T14:19:44Z</time>
      </trkpt>
      <trkpt lat="42.377873" lon="1.961678">
        <ele>1677</ele>
        <time>2022-09-07T14:19:53Z</time>
      </trkpt>
      <trkpt lat="42.377675" lon="1.961838">
        <ele>1678.5</ele>
        <time>2022-09-07T14:19:58Z</time>
      </trkpt>
      <trkpt lat="42.377501" lon="1.962035">
        <ele>1680.8</ele>
        <time>2022-09-07T14:20:04Z</time>
      </trkpt>
      <trkpt lat="42.37743" lon="1.962175">
        <ele>1683</ele>
        <time>2022-09-07T14:20:07Z</time>
      </trkpt>
      <trkpt lat="42.377396" lon="1.96236">
        <ele>1685.8</ele>
        <time>2022-09-07T14:20:11Z</time>
      </trkpt>
      <trkpt lat="42.377415" lon="1.962816">
        <ele>1692.8</ele>
        <time>2022-09-07T14:20:19Z</time>
      </trkpt>
      <trkpt lat="42.377412" lon="1.963074">
        <ele>1696.5</ele>
        <time>2022-09-07T14:20:24Z</time>
      </trkpt>
      <trkpt lat="42.377398" lon="1.963445">
        <ele>1702</ele>
        <time>2022-09-07T14:20:30Z</time>
      </trkpt>
      <trkpt lat="42.377354" lon="1.963607">
        <ele>1704.5</ele>
        <time>2022-09-07T14:20:33Z</time>
      </trkpt>
      <trkpt lat="42.377282" lon="1.963768">
        <ele>1707</ele>
        <time>2022-09-07T14:20:37Z</time>
      </trkpt>
      <trkpt lat="42.377235" lon="1.964114">
        <ele>1711.8</ele>
        <time>2022-09-07T14:20:43Z</time>
      </trkpt>
      <trkpt lat="42.377262" lon="1.964382">
        <ele>1715</ele>
        <time>2022-09-07T14:20:48Z</time>
      </trkpt>
      <trkpt lat="42.377251" lon="1.964526">
        <ele>1716.8</ele>
        <time>2022-09-07T14:20:51Z</time>
      </trkpt>
      <trkpt lat="42.377154" lon="1.964877">
        <ele>1721.3</ele>
        <time>2022-09-07T14:20:58Z</time>
      </trkpt>
      <trkpt lat="42.377094" lon="1.965099">
        <ele>1724.3</ele>
        <time>2022-09-07T14:21:02Z</time>
      </trkpt>
      <trkpt lat="42.377091" lon="1.965193">
        <ele>1725.3</ele>
        <time>2022-09-07T14:21:03Z</time>
      </trkpt>
      <trkpt lat="42.377041" lon="1.965272">
        <ele>1726.3</ele>
        <time>2022-09-07T14:21:05Z</time>
      </trkpt>
      <trkpt lat="42.376973" lon="1.965349">
        <ele>1727</ele>
        <time>2022-09-07T14:21:07Z</time>
      </trkpt>
      <trkpt lat="42.376877" lon="1.965336">
        <ele>1727</ele>
        <time>2022-09-07T14:21:10Z</time>
      </trkpt>
      <trkpt lat="42.376827" lon="1.965274">
        <ele>1726.5</ele>
        <time>2022-09-07T14:21:11Z</time>
      </trkpt>
      <trkpt lat="42.376788" lon="1.965083">
        <ele>1725</ele>
        <time>2022-09-07T14:21:15Z</time>
      </trkpt>
      <trkpt lat="42.376747" lon="1.964822">
        <ele>1722.5</ele>
        <time>2022-09-07T14:21:20Z</time>
      </trkpt>
      <trkpt lat="42.376655" lon="1.964436">
        <ele>1719</ele>
        <time>2022-09-07T14:21:27Z</time>
      </trkpt>
      <trkpt lat="42.376507" lon="1.964066">
        <ele>1717.5</ele>
        <time>2022-09-07T14:21:34Z</time>
      </trkpt>
      <trkpt lat="42.376316" lon="1.96383">
        <ele>1717.5</ele>
        <time>2022-09-07T14:21:41Z</time>
      </trkpt>
      <trkpt lat="42.376265" lon="1.963809">
        <ele>1717.8</ele>
        <time>2022-09-07T14:21:42Z</time>
      </trkpt>
      <trkpt lat="42.375982" lon="1.96369">
        <ele>1720</ele>
        <time>2022-09-07T14:21:49Z</time>
      </trkpt>
      <trkpt lat="42.375679" lon="1.9636">
        <ele>1720.5</ele>
        <time>2022-09-07T14:21:57Z</time>
      </trkpt>
      <trkpt lat="42.375198" lon="1.963719">
        <ele>1722.8</ele>
        <time>2022-09-07T14:22:08Z</time>
      </trkpt>
      <trkpt lat="42.374164" lon="1.964012">
        <ele>1719.8</ele>
        <time>2022-09-07T14:22:34Z</time>
      </trkpt>
      <trkpt lat="42.373758" lon="1.964237">
        <ele>1719.3</ele>
        <time>2022-09-07T14:22:44Z</time>
      </trkpt>
      <trkpt lat="42.373421" lon="1.964371">
        <ele>1717.8</ele>
        <time>2022-09-07T14:22:53Z</time>
      </trkpt>
      <trkpt lat="42.373085" lon="1.964619">
        <ele>1720</ele>
        <time>2022-09-07T14:23:02Z</time>
      </trkpt>
      <trkpt lat="42.372943" lon="1.964643">
        <ele>1720.3</ele>
        <time>2022-09-07T14:23:06Z</time>
      </trkpt>
      <trkpt lat="42.372819" lon="1.964609">
        <ele>1720</ele>
        <time>2022-09-07T14:23:09Z</time>
      </trkpt>
      <trkpt lat="42.372794" lon="1.96453">
        <ele>1719.5</ele>
        <time>2022-09-07T14:23:10Z</time>
      </trkpt>
      <trkpt lat="42.372772" lon="1.964456">
        <ele>1719.5</ele>
        <time>2022-09-07T14:23:12Z</time>
      </trkpt>
      <trkpt lat="42.3728" lon="1.96429">
        <ele>1718.8</ele>
        <time>2022-09-07T14:23:15Z</time>
      </trkpt>
      <trkpt lat="42.372869" lon="1.963949">
        <ele>1716.8</ele>
        <time>2022-09-07T14:23:21Z</time>
      </trkpt>
      <trkpt lat="42.372933" lon="1.963531">
        <ele>1714.5</ele>
        <time>2022-09-07T14:23:28Z</time>
      </trkpt>
      <trkpt lat="42.372937" lon="1.963496">
        <ele>1714.3</ele>
        <time>2022-09-07T14:23:29Z</time>
      </trkpt>
      <trkpt lat="42.372993" lon="1.963018">
        <ele>1712</ele>
        <time>2022-09-07T14:23:38Z</time>
      </trkpt>
      <trkpt lat="42.373027" lon="1.962569">
        <ele>1710.3</ele>
        <time>2022-09-07T14:23:47Z</time>
      </trkpt>
      <trkpt lat="42.373068" lon="1.962317">
        <ele>1710.8</ele>
        <time>2022-09-07T14:23:52Z</time>
      </trkpt>
      <trkpt lat="42.373121" lon="1.962088">
        <ele>1711.8</ele>
        <time>2022-09-07T14:23:57Z</time>
      </trkpt>
      <trkpt lat="42.373121" lon="1.962088">
        <ele>1711.8</ele>
        <time>2022-09-07T14:23:57Z</time>
      </trkpt>
      <trkpt lat="42.373844" lon="1.961288">
        <ele>1713</ele>
        <time>2022-09-07T14:24:21Z</time>
      </trkpt>
      <trkpt lat="42.374036" lon="1.961104">
        <ele>1713</ele>
        <time>2022-09-07T14:24:27Z</time>
      </trkpt>
      <trkpt lat="42.374732" lon="1.960497">
        <ele>1712.8</ele>
        <time>2022-09-07T14:24:48Z</time>
      </trkpt>
      <trkpt lat="42.375353" lon="1.960002">
        <ele>1713.5</ele>
        <time>2022-09-07T14:25:06Z</time>
      </trkpt>
      <trkpt lat="42.375919" lon="1.959526">
        <ele>1712.5</ele>
        <time>2022-09-07T14:25:23Z</time>
      </trkpt>
      <trkpt lat="42.376336" lon="1.959139">
        <ele>1712</ele>
        <time>2022-09-07T14:25:36Z</time>
      </trkpt>
      <trkpt lat="42.376713" lon="1.958809">
        <ele>1710.3</ele>
        <time>2022-09-07T14:25:48Z</time>
      </trkpt>
      <trkpt lat="42.377106" lon="1.958318">
        <ele>1709.3</ele>
        <time>2022-09-07T14:26:01Z</time>
      </trkpt>
      <trkpt lat="42.377194" lon="1.958126">
        <ele>1708.3</ele>
        <time>2022-09-07T14:26:06Z</time>
      </trkpt>
      <trkpt lat="42.377239" lon="1.957935">
        <ele>1707.5</ele>
        <time>2022-09-07T14:26:09Z</time>
      </trkpt>
      <trkpt lat="42.377251" lon="1.957774">
        <ele>1706.8</ele>
        <time>2022-09-07T14:26:12Z</time>
      </trkpt>
      <trkpt lat="42.377226" lon="1.957677">
        <ele>1706.3</ele>
        <time>2022-09-07T14:26:14Z</time>
      </trkpt>
      <trkpt lat="42.377159" lon="1.957585">
        <ele>1705.8</ele>
        <time>2022-09-07T14:26:17Z</time>
      </trkpt>
      <trkpt lat="42.377032" lon="1.957503">
        <ele>1704.8</ele>
        <time>2022-09-07T14:26:20Z</time>
      </trkpt>
      <trkpt lat="42.376766" lon="1.957515">
        <ele>1703.5</ele>
        <time>2022-09-07T14:26:27Z</time>
      </trkpt>
      <trkpt lat="42.376594" lon="1.957425">
        <ele>1702</ele>
        <time>2022-09-07T14:26:32Z</time>
      </trkpt>
      <trkpt lat="42.37624" lon="1.956991">
        <ele>1696.8</ele>
        <time>2022-09-07T14:26:44Z</time>
      </trkpt>
      <trkpt lat="42.37601" lon="1.956819">
        <ele>1693.8</ele>
        <time>2022-09-07T14:26:51Z</time>
      </trkpt>
      <trkpt lat="42.37583" lon="1.956606">
        <ele>1690.8</ele>
        <time>2022-09-07T14:26:57Z</time>
      </trkpt>
      <trkpt lat="42.375684" lon="1.956404">
        <ele>1690</ele>
        <time>2022-09-07T14:27:02Z</time>
      </trkpt>
      <trkpt lat="42.375488" lon="1.956282">
        <ele>1690</ele>
        <time>2022-09-07T14:27:08Z</time>
      </trkpt>
      <trkpt lat="42.375409" lon="1.956375">
        <ele>1689.8</ele>
        <time>2022-09-07T14:27:10Z</time>
      </trkpt>
      <trkpt lat="42.375295" lon="1.95651">
        <ele>1689.5</ele>
        <time>2022-09-07T14:27:14Z</time>
      </trkpt>
      <trkpt lat="42.374912" lon="1.956864">
        <ele>1688.3</ele>
        <time>2022-09-07T14:27:41Z</time>
      </trkpt>
      <trkpt lat="42.37486" lon="1.95691">
        <ele>1659</ele>
        <time>2022-09-07T14:27:44Z</time>
      </trkpt>
      <trkpt lat="42.37482" lon="1.95697">
        <ele>1659</ele>
        <time>2022-09-07T14:27:45Z</time>
      </trkpt>
      <trkpt lat="42.37477" lon="1.95704">
        <ele>1659</ele>
        <time>2022-09-07T14:27:46Z</time>
      </trkpt>
      <trkpt lat="42.37472" lon="1.9571">
        <ele>1659</ele>
        <time>2022-09-07T14:27:47Z</time>
      </trkpt>
      <trkpt lat="42.37467" lon="1.95716">
        <ele>1659</ele>
        <time>2022-09-07T14:27:48Z</time>
      </trkpt>
      <trkpt lat="42.37461" lon="1.95721">
        <ele>1659</ele>
        <time>2022-09-07T14:27:49Z</time>
      </trkpt>
      <trkpt lat="42.37456" lon="1.95726">
        <ele>1659</ele>
        <time>2022-09-07T14:27:50Z</time>
      </trkpt>
      <trkpt lat="42.37451" lon="1.95731">
        <ele>1658</ele>
        <time>2022-09-07T14:27:51Z</time>
      </trkpt>
      <trkpt lat="42.37445" lon="1.95736">
        <ele>1656.8</ele>
        <time>2022-09-07T14:27:52Z</time>
      </trkpt>
      <trkpt lat="42.3744" lon="1.95741">
        <ele>1656.8</ele>
        <time>2022-09-07T14:27:53Z</time>
      </trkpt>
      <trkpt lat="42.37434" lon="1.95746">
        <ele>1656.8</ele>
        <time>2022-09-07T14:27:54Z</time>
      </trkpt>
      <trkpt lat="42.37428" lon="1.9575">
        <ele>1656.8</ele>
        <time>2022-09-07T14:27:55Z</time>
      </trkpt>
      <trkpt lat="42.37422" lon="1.95755">
        <ele>1657</ele>
        <time>2022-09-07T14:27:56Z</time>
      </trkpt>
      <trkpt lat="42.37416" lon="1.95759">
        <ele>1657</ele>
        <time>2022-09-07T14:27:57Z</time>
      </trkpt>
      <trkpt lat="42.37411" lon="1.95764">
        <ele>1657</ele>
        <time>2022-09-07T14:27:58Z</time>
      </trkpt>
      <trkpt lat="42.37406" lon="1.95769">
        <ele>1657</ele>
        <time>2022-09-07T14:27:59Z</time>
      </trkpt>
      <trkpt lat="42.37401" lon="1.95774">
        <ele>1656.6</ele>
        <time>2022-09-07T14:28:00Z</time>
      </trkpt>
      <trkpt lat="42.37396" lon="1.95779">
        <ele>1656.6</ele>
        <time>2022-09-07T14:28:01Z</time>
      </trkpt>
      <trkpt lat="42.37391" lon="1.95784">
        <ele>1656.6</ele>
        <time>2022-09-07T14:28:02Z</time>
      </trkpt>
      <trkpt lat="42.37385" lon="1.95789">
        <ele>1656.6</ele>
        <time>2022-09-07T14:28:03Z</time>
      </trkpt>
      <trkpt lat="42.3738" lon="1.95794">
        <ele>1657.6</ele>
        <time>2022-09-07T14:28:04Z</time>
      </trkpt>
      <trkpt lat="42.37375" lon="1.95799">
        <ele>1657.6</ele>
        <time>2022-09-07T14:28:05Z</time>
      </trkpt>
      <trkpt lat="42.3737" lon="1.95803">
        <ele>1657.6</ele>
        <time>2022-09-07T14:28:06Z</time>
      </trkpt>
      <trkpt lat="42.37365" lon="1.95808">
        <ele>1656.6</ele>
        <time>2022-09-07T14:28:07Z</time>
      </trkpt>
      <trkpt lat="42.37359" lon="1.95814">
        <ele>1654.6</ele>
        <time>2022-09-07T14:28:08Z</time>
      </trkpt>
      <trkpt lat="42.37354" lon="1.95818">
        <ele>1654.6</ele>
        <time>2022-09-07T14:28:09Z</time>
      </trkpt>
      <trkpt lat="42.37348" lon="1.95823">
        <ele>1654.6</ele>
        <time>2022-09-07T14:28:10Z</time>
      </trkpt>
      <trkpt lat="42.37341" lon="1.95827">
        <ele>1654.6</ele>
        <time>2022-09-07T14:28:11Z</time>
      </trkpt>
      <trkpt lat="42.37335" lon="1.9583">
        <ele>1654.4</ele>
        <time>2022-09-07T14:28:12Z</time>
      </trkpt>
      <trkpt lat="42.37328" lon="1.95834">
        <ele>1654.4</ele>
        <time>2022-09-07T14:28:13Z</time>
      </trkpt>
      <trkpt lat="42.37321" lon="1.95837">
        <ele>1654.4</ele>
        <time>2022-09-07T14:28:14Z</time>
      </trkpt>
      <trkpt lat="42.37314" lon="1.9584">
        <ele>1654.4</ele>
        <time>2022-09-07T14:28:15Z</time>
      </trkpt>
      <trkpt lat="42.37307" lon="1.95844">
        <ele>1653.6</ele>
        <time>2022-09-07T14:28:16Z</time>
      </trkpt>
      <trkpt lat="42.373" lon="1.95848">
        <ele>1653.4</ele>
        <time>2022-09-07T14:28:17Z</time>
      </trkpt>
      <trkpt lat="42.37292" lon="1.95852">
        <ele>1653.4</ele>
        <time>2022-09-07T14:28:18Z</time>
      </trkpt>
      <trkpt lat="42.37285" lon="1.95854">
        <ele>1653.4</ele>
        <time>2022-09-07T14:28:19Z</time>
      </trkpt>
      <trkpt lat="42.37278" lon="1.95856">
        <ele>1653.4</ele>
        <time>2022-09-07T14:28:20Z</time>
      </trkpt>
      <trkpt lat="42.37271" lon="1.95858">
        <ele>1653.4</ele>
        <time>2022-09-07T14:28:21Z</time>
      </trkpt>
      <trkpt lat="42.37264" lon="1.9586">
        <ele>1653.4</ele>
        <time>2022-09-07T14:28:22Z</time>
      </trkpt>
      <trkpt lat="42.37258" lon="1.95864">
        <ele>1653.4</ele>
        <time>2022-09-07T14:28:23Z</time>
      </trkpt>
      <trkpt lat="42.37251" lon="1.95868">
        <ele>1652.4</ele>
        <time>2022-09-07T14:28:24Z</time>
      </trkpt>
      <trkpt lat="42.37243" lon="1.95871">
        <ele>1650</ele>
        <time>2022-09-07T14:28:25Z</time>
      </trkpt>
      <trkpt lat="42.37236" lon="1.95875">
        <ele>1650</ele>
        <time>2022-09-07T14:28:26Z</time>
      </trkpt>
      <trkpt lat="42.37228" lon="1.95879">
        <ele>1650</ele>
        <time>2022-09-07T14:28:27Z</time>
      </trkpt>
      <trkpt lat="42.3722" lon="1.95884">
        <ele>1650</ele>
        <time>2022-09-07T14:28:28Z</time>
      </trkpt>
      <trkpt lat="42.37211" lon="1.95889">
        <ele>1650</ele>
        <time>2022-09-07T14:28:29Z</time>
      </trkpt>
      <trkpt lat="42.37203" lon="1.95893">
        <ele>1649.6</ele>
        <time>2022-09-07T14:28:30Z</time>
      </trkpt>
      <trkpt lat="42.37195" lon="1.95898">
        <ele>1649.6</ele>
        <time>2022-09-07T14:28:31Z</time>
      </trkpt>
      <trkpt lat="42.37187" lon="1.95904">
        <ele>1649.6</ele>
        <time>2022-09-07T14:28:32Z</time>
      </trkpt>
      <trkpt lat="42.37179" lon="1.9591">
        <ele>1648.6</ele>
        <time>2022-09-07T14:28:33Z</time>
      </trkpt>
      <trkpt lat="42.37172" lon="1.95916">
        <ele>1648.4</ele>
        <time>2022-09-07T14:28:34Z</time>
      </trkpt>
      <trkpt lat="42.37164" lon="1.95923">
        <ele>1648.4</ele>
        <time>2022-09-07T14:28:35Z</time>
      </trkpt>
      <trkpt lat="42.37157" lon="1.95929">
        <ele>1648.4</ele>
        <time>2022-09-07T14:28:36Z</time>
      </trkpt>
      <trkpt lat="42.3715" lon="1.95936">
        <ele>1648</ele>
        <time>2022-09-07T14:28:37Z</time>
      </trkpt>
      <trkpt lat="42.37143" lon="1.95944">
        <ele>1647</ele>
        <time>2022-09-07T14:28:38Z</time>
      </trkpt>
      <trkpt lat="42.37137" lon="1.95952">
        <ele>1647</ele>
        <time>2022-09-07T14:28:39Z</time>
      </trkpt>
      <trkpt lat="42.37131" lon="1.95959">
        <ele>1647</ele>
        <time>2022-09-07T14:28:40Z</time>
      </trkpt>
      <trkpt lat="42.37125" lon="1.95967">
        <ele>1647</ele>
        <time>2022-09-07T14:28:41Z</time>
      </trkpt>
      <trkpt lat="42.3712" lon="1.95975">
        <ele>1646.4</ele>
        <time>2022-09-07T14:28:42Z</time>
      </trkpt>
      <trkpt lat="42.37115" lon="1.95983">
        <ele>1646.4</ele>
        <time>2022-09-07T14:28:43Z</time>
      </trkpt>
      <trkpt lat="42.3711" lon="1.95991">
        <ele>1646.4</ele>
        <time>2022-09-07T14:28:44Z</time>
      </trkpt>
      <trkpt lat="42.37106" lon="1.95999">
        <ele>1646.4</ele>
        <time>2022-09-07T14:28:45Z</time>
      </trkpt>
      <trkpt lat="42.37102" lon="1.96008">
        <ele>1647.4</ele>
        <time>2022-09-07T14:28:46Z</time>
      </trkpt>
      <trkpt lat="42.37098" lon="1.96016">
        <ele>1647.8</ele>
        <time>2022-09-07T14:28:47Z</time>
      </trkpt>
      <trkpt lat="42.37093" lon="1.96024">
        <ele>1647.8</ele>
        <time>2022-09-07T14:28:48Z</time>
      </trkpt>
      <trkpt lat="42.37088" lon="1.96032">
        <ele>1647.8</ele>
        <time>2022-09-07T14:28:49Z</time>
      </trkpt>
      <trkpt lat="42.37083" lon="1.96039">
        <ele>1646.8</ele>
        <time>2022-09-07T14:28:50Z</time>
      </trkpt>
      <trkpt lat="42.37077" lon="1.96047">
        <ele>1647</ele>
        <time>2022-09-07T14:28:51Z</time>
      </trkpt>
      <trkpt lat="42.37071" lon="1.96055">
        <ele>1647</ele>
        <time>2022-09-07T14:28:52Z</time>
      </trkpt>
      <trkpt lat="42.37065" lon="1.96063">
        <ele>1647</ele>
        <time>2022-09-07T14:28:53Z</time>
      </trkpt>
      <trkpt lat="42.37059" lon="1.9607">
        <ele>1646</ele>
        <time>2022-09-07T14:28:54Z</time>
      </trkpt>
      <trkpt lat="42.37052" lon="1.96078">
        <ele>1643.6</ele>
        <time>2022-09-07T14:28:55Z</time>
      </trkpt>
      <trkpt lat="42.37046" lon="1.96086">
        <ele>1643.6</ele>
        <time>2022-09-07T14:28:56Z</time>
      </trkpt>
      <trkpt lat="42.3704" lon="1.96095">
        <ele>1643.6</ele>
        <time>2022-09-07T14:28:57Z</time>
      </trkpt>
      <trkpt lat="42.37036" lon="1.96105">
        <ele>1643</ele>
        <time>2022-09-07T14:28:58Z</time>
      </trkpt>
      <trkpt lat="42.37032" lon="1.96116">
        <ele>1643.4</ele>
        <time>2022-09-07T14:28:59Z</time>
      </trkpt>
      <trkpt lat="42.3703" lon="1.96127">
        <ele>1643.4</ele>
        <time>2022-09-07T14:29:00Z</time>
      </trkpt>
      <trkpt lat="42.3703" lon="1.96138">
        <ele>1643.4</ele>
        <time>2022-09-07T14:29:01Z</time>
      </trkpt>
      <trkpt lat="42.37032" lon="1.9615">
        <ele>1643.4</ele>
        <time>2022-09-07T14:29:02Z</time>
      </trkpt>
      <trkpt lat="42.37035" lon="1.9616">
        <ele>1644.6</ele>
        <time>2022-09-07T14:29:03Z</time>
      </trkpt>
      <trkpt lat="42.37038" lon="1.96169">
        <ele>1644.6</ele>
        <time>2022-09-07T14:29:04Z</time>
      </trkpt>
      <trkpt lat="42.37042" lon="1.96178">
        <ele>1644.6</ele>
        <time>2022-09-07T14:29:05Z</time>
      </trkpt>
      <trkpt lat="42.37045" lon="1.96188">
        <ele>1644.6</ele>
        <time>2022-09-07T14:29:06Z</time>
      </trkpt>
      <trkpt lat="42.37047" lon="1.96197">
        <ele>1643.6</ele>
        <time>2022-09-07T14:29:07Z</time>
      </trkpt>
      <trkpt lat="42.37048" lon="1.96207">
        <ele>1641.2</ele>
        <time>2022-09-07T14:29:08Z</time>
      </trkpt>
      <trkpt lat="42.37046" lon="1.96218">
        <ele>1641.2</ele>
        <time>2022-09-07T14:29:09Z</time>
      </trkpt>
      <trkpt lat="42.37041" lon="1.96227">
        <ele>1641.2</ele>
        <time>2022-09-07T14:29:10Z</time>
      </trkpt>
      <trkpt lat="42.37033" lon="1.96233">
        <ele>1641.2</ele>
        <time>2022-09-07T14:29:11Z</time>
      </trkpt>
      <trkpt lat="42.37024" lon="1.96235">
        <ele>1642.2</ele>
        <time>2022-09-07T14:29:12Z</time>
      </trkpt>
      <trkpt lat="42.37015" lon="1.96234">
        <ele>1642.2</ele>
        <time>2022-09-07T14:29:13Z</time>
      </trkpt>
      <trkpt lat="42.37007" lon="1.96234">
        <ele>1642.2</ele>
        <time>2022-09-07T14:29:14Z</time>
      </trkpt>
      <trkpt lat="42.36999" lon="1.96236">
        <ele>1641.2</ele>
        <time>2022-09-07T14:29:15Z</time>
      </trkpt>
      <trkpt lat="42.36991" lon="1.96241">
        <ele>1637</ele>
        <time>2022-09-07T14:29:16Z</time>
      </trkpt>
      <trkpt lat="42.36983" lon="1.96247">
        <ele>1637</ele>
        <time>2022-09-07T14:29:17Z</time>
      </trkpt>
      <trkpt lat="42.36975" lon="1.96253">
        <ele>1637</ele>
        <time>2022-09-07T14:29:18Z</time>
      </trkpt>
      <trkpt lat="42.36966" lon="1.9626">
        <ele>1636</ele>
        <time>2022-09-07T14:29:19Z</time>
      </trkpt>
      <trkpt lat="42.36957" lon="1.96266">
        <ele>1630.2</ele>
        <time>2022-09-07T14:29:20Z</time>
      </trkpt>
      <trkpt lat="42.36948" lon="1.96272">
        <ele>1630.2</ele>
        <time>2022-09-07T14:29:21Z</time>
      </trkpt>
      <trkpt lat="42.36939" lon="1.96279">
        <ele>1630.2</ele>
        <time>2022-09-07T14:29:22Z</time>
      </trkpt>
      <trkpt lat="42.36931" lon="1.96285">
        <ele>1630.2</ele>
        <time>2022-09-07T14:29:23Z</time>
      </trkpt>
      <trkpt lat="42.36924" lon="1.96292">
        <ele>1630</ele>
        <time>2022-09-07T14:29:24Z</time>
      </trkpt>
      <trkpt lat="42.36917" lon="1.96299">
        <ele>1630</ele>
        <time>2022-09-07T14:29:25Z</time>
      </trkpt>
      <trkpt lat="42.36911" lon="1.96307">
        <ele>1630</ele>
        <time>2022-09-07T14:29:26Z</time>
      </trkpt>
      <trkpt lat="42.36905" lon="1.96317">
        <ele>1629</ele>
        <time>2022-09-07T14:29:27Z</time>
      </trkpt>
      <trkpt lat="42.36899" lon="1.96325">
        <ele>1627.8</ele>
        <time>2022-09-07T14:29:28Z</time>
      </trkpt>
      <trkpt lat="42.36895" lon="1.96334">
        <ele>1627.8</ele>
        <time>2022-09-07T14:29:29Z</time>
      </trkpt>
      <trkpt lat="42.36891" lon="1.96341">
        <ele>1627.8</ele>
        <time>2022-09-07T14:29:30Z</time>
      </trkpt>
      <trkpt lat="42.36887" lon="1.96347">
        <ele>1626.8</ele>
        <time>2022-09-07T14:29:31Z</time>
      </trkpt>
      <trkpt lat="42.36881" lon="1.96351">
        <ele>1626</ele>
        <time>2022-09-07T14:29:32Z</time>
      </trkpt>
      <trkpt lat="42.36876" lon="1.96349">
        <ele>1626</ele>
        <time>2022-09-07T14:29:33Z</time>
      </trkpt>
      <trkpt lat="42.3687" lon="1.96341">
        <ele>1626</ele>
        <time>2022-09-07T14:29:34Z</time>
      </trkpt>
      <trkpt lat="42.36866" lon="1.96331">
        <ele>1626</ele>
        <time>2022-09-07T14:29:35Z</time>
      </trkpt>
      <trkpt lat="42.36863" lon="1.96321">
        <ele>1626.2</ele>
        <time>2022-09-07T14:29:36Z</time>
      </trkpt>
      <trkpt lat="42.36863" lon="1.9631">
        <ele>1626.2</ele>
        <time>2022-09-07T14:29:37Z</time>
      </trkpt>
      <trkpt lat="42.36862" lon="1.963">
        <ele>1626.2</ele>
        <time>2022-09-07T14:29:38Z</time>
      </trkpt>
      <trkpt lat="42.36861" lon="1.9629">
        <ele>1626.2</ele>
        <time>2022-09-07T14:29:39Z</time>
      </trkpt>
      <trkpt lat="42.36859" lon="1.96279">
        <ele>1625.4</ele>
        <time>2022-09-07T14:29:40Z</time>
      </trkpt>
      <trkpt lat="42.36857" lon="1.96269">
        <ele>1625.8</ele>
        <time>2022-09-07T14:29:41Z</time>
      </trkpt>
      <trkpt lat="42.36855" lon="1.96259">
        <ele>1625.8</ele>
        <time>2022-09-07T14:29:42Z</time>
      </trkpt>
      <trkpt lat="42.36853" lon="1.96249">
        <ele>1625.8</ele>
        <time>2022-09-07T14:29:43Z</time>
      </trkpt>
      <trkpt lat="42.36851" lon="1.96238">
        <ele>1624.8</ele>
        <time>2022-09-07T14:29:44Z</time>
      </trkpt>
      <trkpt lat="42.36849" lon="1.96228">
        <ele>1625</ele>
        <time>2022-09-07T14:29:45Z</time>
      </trkpt>
      <trkpt lat="42.36847" lon="1.96217">
        <ele>1625</ele>
        <time>2022-09-07T14:29:46Z</time>
      </trkpt>
      <trkpt lat="42.36844" lon="1.96207">
        <ele>1625</ele>
        <time>2022-09-07T14:29:47Z</time>
      </trkpt>
      <trkpt lat="42.36841" lon="1.96197">
        <ele>1624</ele>
        <time>2022-09-07T14:29:48Z</time>
      </trkpt>
      <trkpt lat="42.36837" lon="1.96188">
        <ele>1623.6</ele>
        <time>2022-09-07T14:29:49Z</time>
      </trkpt>
      <trkpt lat="42.36832" lon="1.96179">
        <ele>1623.6</ele>
        <time>2022-09-07T14:29:50Z</time>
      </trkpt>
      <trkpt lat="42.36826" lon="1.9617">
        <ele>1623.6</ele>
        <time>2022-09-07T14:29:51Z</time>
      </trkpt>
      <trkpt lat="42.3682" lon="1.96163">
        <ele>1622.6</ele>
        <time>2022-09-07T14:29:52Z</time>
      </trkpt>
      <trkpt lat="42.36813" lon="1.96156">
        <ele>1622.6</ele>
        <time>2022-09-07T14:29:53Z</time>
      </trkpt>
      <trkpt lat="42.36806" lon="1.9615">
        <ele>1623.6</ele>
        <time>2022-09-07T14:29:54Z</time>
      </trkpt>
      <trkpt lat="42.36798" lon="1.96145">
        <ele>1623.6</ele>
        <time>2022-09-07T14:29:55Z</time>
      </trkpt>
      <trkpt lat="42.36791" lon="1.96141">
        <ele>1623.6</ele>
        <time>2022-09-07T14:29:56Z</time>
      </trkpt>
      <trkpt lat="42.36784" lon="1.96137">
        <ele>1622.6</ele>
        <time>2022-09-07T14:29:57Z</time>
      </trkpt>
      <trkpt lat="42.36776" lon="1.96135">
        <ele>1622.6</ele>
        <time>2022-09-07T14:29:58Z</time>
      </trkpt>
      <trkpt lat="42.36769" lon="1.96133">
        <ele>1622.6</ele>
        <time>2022-09-07T14:29:59Z</time>
      </trkpt>
      <trkpt lat="42.36761" lon="1.96132">
        <ele>1622.6</ele>
        <time>2022-09-07T14:30:00Z</time>
      </trkpt>
      <trkpt lat="42.36754" lon="1.96132">
        <ele>1622.6</ele>
        <time>2022-09-07T14:30:01Z</time>
      </trkpt>
      <trkpt lat="42.36747" lon="1.96132">
        <ele>1623</ele>
        <time>2022-09-07T14:30:02Z</time>
      </trkpt>
      <trkpt lat="42.3674" lon="1.96133">
        <ele>1623</ele>
        <time>2022-09-07T14:30:03Z</time>
      </trkpt>
      <trkpt lat="42.36734" lon="1.96134">
        <ele>1623</ele>
        <time>2022-09-07T14:30:04Z</time>
      </trkpt>
      <trkpt lat="42.36728" lon="1.96136">
        <ele>1623</ele>
        <time>2022-09-07T14:30:05Z</time>
      </trkpt>
      <trkpt lat="42.36721" lon="1.96138">
        <ele>1623.4</ele>
        <time>2022-09-07T14:30:06Z</time>
      </trkpt>
      <trkpt lat="42.36715" lon="1.9614">
        <ele>1623.4</ele>
        <time>2022-09-07T14:30:07Z</time>
      </trkpt>
      <trkpt lat="42.36709" lon="1.96141">
        <ele>1623.4</ele>
        <time>2022-09-07T14:30:08Z</time>
      </trkpt>
      <trkpt lat="42.36702" lon="1.96144">
        <ele>1623.4</ele>
        <time>2022-09-07T14:30:09Z</time>
      </trkpt>
      <trkpt lat="42.36696" lon="1.96146">
        <ele>1623.2</ele>
        <time>2022-09-07T14:30:10Z</time>
      </trkpt>
      <trkpt lat="42.3669" lon="1.96149">
        <ele>1623.2</ele>
        <time>2022-09-07T14:30:11Z</time>
      </trkpt>
      <trkpt lat="42.36683" lon="1.96151">
        <ele>1623.2</ele>
        <time>2022-09-07T14:30:12Z</time>
      </trkpt>
      <trkpt lat="42.36676" lon="1.96154">
        <ele>1623.2</ele>
        <time>2022-09-07T14:30:13Z</time>
      </trkpt>
      <trkpt lat="42.36669" lon="1.96157">
        <ele>1624</ele>
        <time>2022-09-07T14:30:14Z</time>
      </trkpt>
      <trkpt lat="42.36663" lon="1.96161">
        <ele>1624</ele>
        <time>2022-09-07T14:30:15Z</time>
      </trkpt>
      <trkpt lat="42.36657" lon="1.96164">
        <ele>1624</ele>
        <time>2022-09-07T14:30:16Z</time>
      </trkpt>
      <trkpt lat="42.36651" lon="1.96167">
        <ele>1624</ele>
        <time>2022-09-07T14:30:17Z</time>
      </trkpt>
      <trkpt lat="42.36645" lon="1.9617">
        <ele>1624.2</ele>
        <time>2022-09-07T14:30:18Z</time>
      </trkpt>
      <trkpt lat="42.3664" lon="1.96173">
        <ele>1625.2</ele>
        <time>2022-09-07T14:30:19Z</time>
      </trkpt>
      <trkpt lat="42.36635" lon="1.96176">
        <ele>1625.2</ele>
        <time>2022-09-07T14:30:20Z</time>
      </trkpt>
      <trkpt lat="42.36629" lon="1.9618">
        <ele>1625.2</ele>
        <time>2022-09-07T14:30:21Z</time>
      </trkpt>
      <trkpt lat="42.36624" lon="1.96183">
        <ele>1624.6</ele>
        <time>2022-09-07T14:30:22Z</time>
      </trkpt>
      <trkpt lat="42.36619" lon="1.96187">
        <ele>1624</ele>
        <time>2022-09-07T14:30:23Z</time>
      </trkpt>
      <trkpt lat="42.36614" lon="1.96191">
        <ele>1624</ele>
        <time>2022-09-07T14:30:24Z</time>
      </trkpt>
      <trkpt lat="42.36608" lon="1.96196">
        <ele>1624</ele>
        <time>2022-09-07T14:30:25Z</time>
      </trkpt>
      <trkpt lat="42.36603" lon="1.962">
        <ele>1625</ele>
        <time>2022-09-07T14:30:26Z</time>
      </trkpt>
      <trkpt lat="42.36597" lon="1.96205">
        <ele>1624.2</ele>
        <time>2022-09-07T14:30:27Z</time>
      </trkpt>
      <trkpt lat="42.36592" lon="1.96211">
        <ele>1624.2</ele>
        <time>2022-09-07T14:30:28Z</time>
      </trkpt>
      <trkpt lat="42.36587" lon="1.96217">
        <ele>1624.2</ele>
        <time>2022-09-07T14:30:29Z</time>
      </trkpt>
      <trkpt lat="42.36582" lon="1.96223">
        <ele>1624</ele>
        <time>2022-09-07T14:30:30Z</time>
      </trkpt>
      <trkpt lat="42.36577" lon="1.96229">
        <ele>1624.8</ele>
        <time>2022-09-07T14:30:31Z</time>
      </trkpt>
      <trkpt lat="42.36572" lon="1.96236">
        <ele>1624.8</ele>
        <time>2022-09-07T14:30:32Z</time>
      </trkpt>
      <trkpt lat="42.36567" lon="1.96243">
        <ele>1624.8</ele>
        <time>2022-09-07T14:30:33Z</time>
      </trkpt>
      <trkpt lat="42.36563" lon="1.9625">
        <ele>1624.8</ele>
        <time>2022-09-07T14:30:34Z</time>
      </trkpt>
      <trkpt lat="42.36559" lon="1.96257">
        <ele>1624.8</ele>
        <time>2022-09-07T14:30:35Z</time>
      </trkpt>
      <trkpt lat="42.36555" lon="1.96264">
        <ele>1625.6</ele>
        <time>2022-09-07T14:30:36Z</time>
      </trkpt>
      <trkpt lat="42.36552" lon="1.96272">
        <ele>1625.6</ele>
        <time>2022-09-07T14:30:37Z</time>
      </trkpt>
      <trkpt lat="42.36549" lon="1.96281">
        <ele>1625.6</ele>
        <time>2022-09-07T14:30:38Z</time>
      </trkpt>
      <trkpt lat="42.36546" lon="1.96289">
        <ele>1624.6</ele>
        <time>2022-09-07T14:30:39Z</time>
      </trkpt>
      <trkpt lat="42.36542" lon="1.96297">
        <ele>1623.6</ele>
        <time>2022-09-07T14:30:40Z</time>
      </trkpt>
      <trkpt lat="42.36537" lon="1.96303">
        <ele>1623.6</ele>
        <time>2022-09-07T14:30:41Z</time>
      </trkpt>
      <trkpt lat="42.36531" lon="1.96308">
        <ele>1623.6</ele>
        <time>2022-09-07T14:30:42Z</time>
      </trkpt>
      <trkpt lat="42.36525" lon="1.96311">
        <ele>1624.6</ele>
        <time>2022-09-07T14:30:43Z</time>
      </trkpt>
      <trkpt lat="42.36519" lon="1.96314">
        <ele>1624.2</ele>
        <time>2022-09-07T14:30:44Z</time>
      </trkpt>
      <trkpt lat="42.36512" lon="1.96317">
        <ele>1624.2</ele>
        <time>2022-09-07T14:30:45Z</time>
      </trkpt>
      <trkpt lat="42.36506" lon="1.96321">
        <ele>1624.2</ele>
        <time>2022-09-07T14:30:46Z</time>
      </trkpt>
      <trkpt lat="42.36501" lon="1.96324">
        <ele>1624.2</ele>
        <time>2022-09-07T14:30:47Z</time>
      </trkpt>
      <trkpt lat="42.36495" lon="1.96327">
        <ele>1623.8</ele>
        <time>2022-09-07T14:30:48Z</time>
      </trkpt>
      <trkpt lat="42.36489" lon="1.96329">
        <ele>1623.8</ele>
        <time>2022-09-07T14:30:49Z</time>
      </trkpt>
      <trkpt lat="42.36483" lon="1.96331">
        <ele>1623.8</ele>
        <time>2022-09-07T14:30:50Z</time>
      </trkpt>
      <trkpt lat="42.36476" lon="1.96334">
        <ele>1624.8</ele>
        <time>2022-09-07T14:30:51Z</time>
      </trkpt>
      <trkpt lat="42.36469" lon="1.96336">
        <ele>1624</ele>
        <time>2022-09-07T14:30:52Z</time>
      </trkpt>
      <trkpt lat="42.36462" lon="1.96338">
        <ele>1624</ele>
        <time>2022-09-07T14:30:53Z</time>
      </trkpt>
      <trkpt lat="42.36456" lon="1.9634">
        <ele>1624</ele>
        <time>2022-09-07T14:30:54Z</time>
      </trkpt>
      <trkpt lat="42.36449" lon="1.96342">
        <ele>1624</ele>
        <time>2022-09-07T14:30:55Z</time>
      </trkpt>
      <trkpt lat="42.36443" lon="1.96343">
        <ele>1624</ele>
        <time>2022-09-07T14:30:56Z</time>
      </trkpt>
      <trkpt lat="42.36437" lon="1.96345">
        <ele>1624.2</ele>
        <time>2022-09-07T14:30:57Z</time>
      </trkpt>
      <trkpt lat="42.3643" lon="1.96345">
        <ele>1624.2</ele>
        <time>2022-09-07T14:30:58Z</time>
      </trkpt>
      <trkpt lat="42.36424" lon="1.96345">
        <ele>1624.2</ele>
        <time>2022-09-07T14:30:59Z</time>
      </trkpt>
      <trkpt lat="42.36417" lon="1.96346">
        <ele>1624.2</ele>
        <time>2022-09-07T14:31:00Z</time>
      </trkpt>
      <trkpt lat="42.36411" lon="1.96348">
        <ele>1622.2</ele>
        <time>2022-09-07T14:31:01Z</time>
      </trkpt>
      <trkpt lat="42.36404" lon="1.96351">
        <ele>1622.2</ele>
        <time>2022-09-07T14:31:02Z</time>
      </trkpt>
      <trkpt lat="42.36397" lon="1.96354">
        <ele>1622.2</ele>
        <time>2022-09-07T14:31:03Z</time>
      </trkpt>
      <trkpt lat="42.36391" lon="1.96358">
        <ele>1622.2</ele>
        <time>2022-09-07T14:31:04Z</time>
      </trkpt>
      <trkpt lat="42.36384" lon="1.96363">
        <ele>1621.8</ele>
        <time>2022-09-07T14:31:05Z</time>
      </trkpt>
      <trkpt lat="42.36378" lon="1.96367">
        <ele>1621.8</ele>
        <time>2022-09-07T14:31:06Z</time>
      </trkpt>
      <trkpt lat="42.36372" lon="1.96372">
        <ele>1621.8</ele>
        <time>2022-09-07T14:31:07Z</time>
      </trkpt>
      <trkpt lat="42.36367" lon="1.96377">
        <ele>1621.8</ele>
        <time>2022-09-07T14:31:08Z</time>
      </trkpt>
      <trkpt lat="42.36362" lon="1.96382">
        <ele>1621.8</ele>
        <time>2022-09-07T14:31:09Z</time>
      </trkpt>
      <trkpt lat="42.36356" lon="1.96387">
        <ele>1621</ele>
        <time>2022-09-07T14:31:10Z</time>
      </trkpt>
      <trkpt lat="42.3635" lon="1.96391">
        <ele>1621</ele>
        <time>2022-09-07T14:31:11Z</time>
      </trkpt>
      <trkpt lat="42.36343" lon="1.96394">
        <ele>1621</ele>
        <time>2022-09-07T14:31:12Z</time>
      </trkpt>
      <trkpt lat="42.36337" lon="1.96398">
        <ele>1620</ele>
        <time>2022-09-07T14:31:13Z</time>
      </trkpt>
      <trkpt lat="42.3633" lon="1.96402">
        <ele>1618.8</ele>
        <time>2022-09-07T14:31:14Z</time>
      </trkpt>
      <trkpt lat="42.36323" lon="1.96407">
        <ele>1618.8</ele>
        <time>2022-09-07T14:31:15Z</time>
      </trkpt>
      <trkpt lat="42.36316" lon="1.96412">
        <ele>1618.8</ele>
        <time>2022-09-07T14:31:16Z</time>
      </trkpt>
      <trkpt lat="42.3631" lon="1.96419">
        <ele>1618.8</ele>
        <time>2022-09-07T14:31:17Z</time>
      </trkpt>
      <trkpt lat="42.36303" lon="1.96425">
        <ele>1616.8</ele>
        <time>2022-09-07T14:31:18Z</time>
      </trkpt>
      <trkpt lat="42.36296" lon="1.96431">
        <ele>1616.8</ele>
        <time>2022-09-07T14:31:19Z</time>
      </trkpt>
      <trkpt lat="42.36288" lon="1.96436">
        <ele>1616.8</ele>
        <time>2022-09-07T14:31:20Z</time>
      </trkpt>
      <trkpt lat="42.36281" lon="1.96442">
        <ele>1616.8</ele>
        <time>2022-09-07T14:31:21Z</time>
      </trkpt>
      <trkpt lat="42.36274" lon="1.96449">
        <ele>1616.8</ele>
        <time>2022-09-07T14:31:22Z</time>
      </trkpt>
      <trkpt lat="42.36269" lon="1.96457">
        <ele>1616.8</ele>
        <time>2022-09-07T14:31:23Z</time>
      </trkpt>
      <trkpt lat="42.36263" lon="1.96465">
        <ele>1616.8</ele>
        <time>2022-09-07T14:31:24Z</time>
      </trkpt>
      <trkpt lat="42.36258" lon="1.96473">
        <ele>1616.8</ele>
        <time>2022-09-07T14:31:25Z</time>
      </trkpt>
      <trkpt lat="42.36252" lon="1.96479">
        <ele>1615.4</ele>
        <time>2022-09-07T14:31:26Z</time>
      </trkpt>
      <trkpt lat="42.36245" lon="1.96481">
        <ele>1615.4</ele>
        <time>2022-09-07T14:31:27Z</time>
      </trkpt>
      <trkpt lat="42.36237" lon="1.96479">
        <ele>1615.4</ele>
        <time>2022-09-07T14:31:28Z</time>
      </trkpt>
      <trkpt lat="42.3623" lon="1.96475">
        <ele>1614.4</ele>
        <time>2022-09-07T14:31:29Z</time>
      </trkpt>
      <trkpt lat="42.36223" lon="1.96471">
        <ele>1612.4</ele>
        <time>2022-09-07T14:31:30Z</time>
      </trkpt>
      <trkpt lat="42.36216" lon="1.96466">
        <ele>1612.4</ele>
        <time>2022-09-07T14:31:31Z</time>
      </trkpt>
      <trkpt lat="42.3621" lon="1.96461">
        <ele>1612.4</ele>
        <time>2022-09-07T14:31:32Z</time>
      </trkpt>
      <trkpt lat="42.36204" lon="1.96458">
        <ele>1612.4</ele>
        <time>2022-09-07T14:31:33Z</time>
      </trkpt>
      <trkpt lat="42.36197" lon="1.96455">
        <ele>1613.4</ele>
        <time>2022-09-07T14:31:34Z</time>
      </trkpt>
      <trkpt lat="42.36191" lon="1.96453">
        <ele>1615.4</ele>
        <time>2022-09-07T14:31:35Z</time>
      </trkpt>
      <trkpt lat="42.36185" lon="1.96454">
        <ele>1615.4</ele>
        <time>2022-09-07T14:31:36Z</time>
      </trkpt>
      <trkpt lat="42.36179" lon="1.96455">
        <ele>1615.4</ele>
        <time>2022-09-07T14:31:37Z</time>
      </trkpt>
      <trkpt lat="42.36173" lon="1.96459">
        <ele>1614.4</ele>
        <time>2022-09-07T14:31:38Z</time>
      </trkpt>
      <trkpt lat="42.36168" lon="1.96463">
        <ele>1612.6</ele>
        <time>2022-09-07T14:31:39Z</time>
      </trkpt>
      <trkpt lat="42.36163" lon="1.96468">
        <ele>1612.6</ele>
        <time>2022-09-07T14:31:40Z</time>
      </trkpt>
      <trkpt lat="42.36157" lon="1.96474">
        <ele>1612.6</ele>
        <time>2022-09-07T14:31:41Z</time>
      </trkpt>
      <trkpt lat="42.36152" lon="1.96481">
        <ele>1612.6</ele>
        <time>2022-09-07T14:31:42Z</time>
      </trkpt>
      <trkpt lat="42.36146" lon="1.96488">
        <ele>1611.2</ele>
        <time>2022-09-07T14:31:43Z</time>
      </trkpt>
      <trkpt lat="42.36141" lon="1.96494">
        <ele>1611.2</ele>
        <time>2022-09-07T14:31:44Z</time>
      </trkpt>
      <trkpt lat="42.36134" lon="1.96499">
        <ele>1611.2</ele>
        <time>2022-09-07T14:31:45Z</time>
      </trkpt>
      <trkpt lat="42.36127" lon="1.96504">
        <ele>1611.2</ele>
        <time>2022-09-07T14:31:46Z</time>
      </trkpt>
      <trkpt lat="42.3612" lon="1.96509">
        <ele>1608.8</ele>
        <time>2022-09-07T14:31:47Z</time>
      </trkpt>
      <trkpt lat="42.36112" lon="1.96514">
        <ele>1608.8</ele>
        <time>2022-09-07T14:31:48Z</time>
      </trkpt>
      <trkpt lat="42.36104" lon="1.96518">
        <ele>1608.8</ele>
        <time>2022-09-07T14:31:49Z</time>
      </trkpt>
      <trkpt lat="42.36096" lon="1.96522">
        <ele>1607.8</ele>
        <time>2022-09-07T14:31:50Z</time>
      </trkpt>
      <trkpt lat="42.36087" lon="1.96525">
        <ele>1606.4</ele>
        <time>2022-09-07T14:31:51Z</time>
      </trkpt>
      <trkpt lat="42.36078" lon="1.96528">
        <ele>1606.4</ele>
        <time>2022-09-07T14:31:52Z</time>
      </trkpt>
      <trkpt lat="42.36069" lon="1.9653">
        <ele>1606.4</ele>
        <time>2022-09-07T14:31:53Z</time>
      </trkpt>
      <trkpt lat="42.3606" lon="1.96532">
        <ele>1606.4</ele>
        <time>2022-09-07T14:31:54Z</time>
      </trkpt>
      <trkpt lat="42.36051" lon="1.96535">
        <ele>1605.4</ele>
        <time>2022-09-07T14:31:55Z</time>
      </trkpt>
      <trkpt lat="42.36042" lon="1.96538">
        <ele>1603.8</ele>
        <time>2022-09-07T14:31:56Z</time>
      </trkpt>
      <trkpt lat="42.36034" lon="1.96541">
        <ele>1603.8</ele>
        <time>2022-09-07T14:31:57Z</time>
      </trkpt>
      <trkpt lat="42.36028" lon="1.96542">
        <ele>1603.8</ele>
        <time>2022-09-07T14:31:58Z</time>
      </trkpt>
      <trkpt lat="42.36024" lon="1.9654">
        <ele>1602.8</ele>
        <time>2022-09-07T14:31:59Z</time>
      </trkpt>
      <trkpt lat="42.36019" lon="1.96535">
        <ele>1599.8</ele>
        <time>2022-09-07T14:32:00Z</time>
      </trkpt>
      <trkpt lat="42.36015" lon="1.9653">
        <ele>1599.8</ele>
        <time>2022-09-07T14:32:01Z</time>
      </trkpt>
      <trkpt lat="42.36009" lon="1.96526">
        <ele>1599.8</ele>
        <time>2022-09-07T14:32:02Z</time>
      </trkpt>
      <trkpt lat="42.36002" lon="1.96526">
        <ele>1598.8</ele>
        <time>2022-09-07T14:32:03Z</time>
      </trkpt>
      <trkpt lat="42.35994" lon="1.96525">
        <ele>1593.8</ele>
        <time>2022-09-07T14:32:04Z</time>
      </trkpt>
      <trkpt lat="42.35987" lon="1.96525">
        <ele>1593.8</ele>
        <time>2022-09-07T14:32:05Z</time>
      </trkpt>
      <trkpt lat="42.35981" lon="1.96524">
        <ele>1593.8</ele>
        <time>2022-09-07T14:32:06Z</time>
      </trkpt>
      <trkpt lat="42.35975" lon="1.96526">
        <ele>1594.4</ele>
        <time>2022-09-07T14:32:07Z</time>
      </trkpt>
      <trkpt lat="42.3597" lon="1.96528">
        <ele>1594.6</ele>
        <time>2022-09-07T14:32:08Z</time>
      </trkpt>
      <trkpt lat="42.35965" lon="1.96528">
        <ele>1594.6</ele>
        <time>2022-09-07T14:32:09Z</time>
      </trkpt>
      <trkpt lat="42.35961" lon="1.96529">
        <ele>1594.6</ele>
        <time>2022-09-07T14:32:10Z</time>
      </trkpt>
      <trkpt lat="42.35956" lon="1.9653">
        <ele>1593.6</ele>
        <time>2022-09-07T14:32:11Z</time>
      </trkpt>
      <trkpt lat="42.35949" lon="1.96531">
        <ele>1593.2</ele>
        <time>2022-09-07T14:32:12Z</time>
      </trkpt>
      <trkpt lat="42.35942" lon="1.96532">
        <ele>1593.2</ele>
        <time>2022-09-07T14:32:13Z</time>
      </trkpt>
      <trkpt lat="42.35934" lon="1.96534">
        <ele>1593.2</ele>
        <time>2022-09-07T14:32:14Z</time>
      </trkpt>
      <trkpt lat="42.35927" lon="1.96538">
        <ele>1592.2</ele>
        <time>2022-09-07T14:32:15Z</time>
      </trkpt>
      <trkpt lat="42.3592" lon="1.96543">
        <ele>1588.4</ele>
        <time>2022-09-07T14:32:16Z</time>
      </trkpt>
      <trkpt lat="42.35914" lon="1.9655">
        <ele>1588.4</ele>
        <time>2022-09-07T14:32:17Z</time>
      </trkpt>
      <trkpt lat="42.3591" lon="1.96558">
        <ele>1588.4</ele>
        <time>2022-09-07T14:32:18Z</time>
      </trkpt>
      <trkpt lat="42.35907" lon="1.96566">
        <ele>1589.2</ele>
        <time>2022-09-07T14:32:19Z</time>
      </trkpt>
      <trkpt lat="42.35904" lon="1.96575">
        <ele>1589.2</ele>
        <time>2022-09-07T14:32:20Z</time>
      </trkpt>
      <trkpt lat="42.35902" lon="1.96583">
        <ele>1588</ele>
        <time>2022-09-07T14:32:21Z</time>
      </trkpt>
      <trkpt lat="42.35902" lon="1.96593">
        <ele>1588</ele>
        <time>2022-09-07T14:32:22Z</time>
      </trkpt>
      <trkpt lat="42.35902" lon="1.96602">
        <ele>1588</ele>
        <time>2022-09-07T14:32:23Z</time>
      </trkpt>
      <trkpt lat="42.35903" lon="1.96612">
        <ele>1588.4</ele>
        <time>2022-09-07T14:32:24Z</time>
      </trkpt>
      <trkpt lat="42.35903" lon="1.96622">
        <ele>1585.8</ele>
        <time>2022-09-07T14:32:25Z</time>
      </trkpt>
      <trkpt lat="42.35902" lon="1.96632">
        <ele>1585.8</ele>
        <time>2022-09-07T14:32:26Z</time>
      </trkpt>
      <trkpt lat="42.35899" lon="1.9664">
        <ele>1585.8</ele>
        <time>2022-09-07T14:32:27Z</time>
      </trkpt>
      <trkpt lat="42.35895" lon="1.96648">
        <ele>1585.8</ele>
        <time>2022-09-07T14:32:28Z</time>
      </trkpt>
      <trkpt lat="42.35891" lon="1.96655">
        <ele>1583.2</ele>
        <time>2022-09-07T14:32:29Z</time>
      </trkpt>
      <trkpt lat="42.35888" lon="1.96663">
        <ele>1583.2</ele>
        <time>2022-09-07T14:32:30Z</time>
      </trkpt>
      <trkpt lat="42.358846" lon="1.966708">
        <ele>1612</ele>
        <time>2022-09-07T14:32:31Z</time>
      </trkpt>
      <trkpt lat="42.358826" lon="1.966754">
        <ele>1612</ele>
        <time>2022-09-07T14:32:32Z</time>
      </trkpt>
      <trkpt lat="42.358629" lon="1.967002">
        <ele>1611.5</ele>
        <time>2022-09-07T14:32:37Z</time>
      </trkpt>
      <trkpt lat="42.358613" lon="1.967009">
        <ele>1611.3</ele>
        <time>2022-09-07T14:32:37Z</time>
      </trkpt>
      <trkpt lat="42.358536" lon="1.967048">
        <ele>1610.5</ele>
        <time>2022-09-07T14:32:38Z</time>
      </trkpt>
      <trkpt lat="42.35846" lon="1.967029">
        <ele>1609</ele>
        <time>2022-09-07T14:32:40Z</time>
      </trkpt>
      <trkpt lat="42.358326" lon="1.966997">
        <ele>1606.8</ele>
        <time>2022-09-07T14:32:42Z</time>
      </trkpt>
      <trkpt lat="42.358015" lon="1.966983">
        <ele>1602.3</ele>
        <time>2022-09-07T14:32:51Z</time>
      </trkpt>
      <trkpt lat="42.357783" lon="1.96694">
        <ele>1599.3</ele>
        <time>2022-09-07T14:32:57Z</time>
      </trkpt>
      <trkpt lat="42.357734" lon="1.966931">
        <ele>1598.5</ele>
        <time>2022-09-07T14:32:59Z</time>
      </trkpt>
      <trkpt lat="42.357632" lon="1.966913">
        <ele>1597.5</ele>
        <time>2022-09-07T14:33:02Z</time>
      </trkpt>
      <trkpt lat="42.357582" lon="1.966848">
        <ele>1596.8</ele>
        <time>2022-09-07T14:33:05Z</time>
      </trkpt>
      <trkpt lat="42.357484" lon="1.966723">
        <ele>1595.5</ele>
        <time>2022-09-07T14:33:12Z</time>
      </trkpt>
      <trkpt lat="42.357469" lon="1.966704">
        <ele>1595.3</ele>
        <time>2022-09-07T14:33:13Z</time>
      </trkpt>
      <trkpt lat="42.3574" lon="1.9668">
        <ele>1578.6</ele>
        <time>2022-09-07T14:33:18Z</time>
      </trkpt>
      <trkpt lat="42.35739" lon="1.96681">
        <ele>1578.6</ele>
        <time>2022-09-07T14:33:19Z</time>
      </trkpt>
      <trkpt lat="42.35737" lon="1.96684">
        <ele>1577.2</ele>
        <time>2022-09-07T14:33:20Z</time>
      </trkpt>
      <trkpt lat="42.35736" lon="1.96688">
        <ele>1577.2</ele>
        <time>2022-09-07T14:33:21Z</time>
      </trkpt>
      <trkpt lat="42.35735" lon="1.96693">
        <ele>1577.2</ele>
        <time>2022-09-07T14:33:22Z</time>
      </trkpt>
      <trkpt lat="42.35733" lon="1.96698">
        <ele>1577.2</ele>
        <time>2022-09-07T14:33:23Z</time>
      </trkpt>
      <trkpt lat="42.35731" lon="1.96701">
        <ele>1575</ele>
        <time>2022-09-07T14:33:24Z</time>
      </trkpt>
      <trkpt lat="42.3573" lon="1.96704">
        <ele>1575</ele>
        <time>2022-09-07T14:33:25Z</time>
      </trkpt>
      <trkpt lat="42.35731" lon="1.96708">
        <ele>1575</ele>
        <time>2022-09-07T14:33:26Z</time>
      </trkpt>
      <trkpt lat="42.35732" lon="1.96711">
        <ele>1574.6</ele>
        <time>2022-09-07T14:33:27Z</time>
      </trkpt>
      <trkpt lat="42.35734" lon="1.96714">
        <ele>1574.8</ele>
        <time>2022-09-07T14:33:28Z</time>
      </trkpt>
      <trkpt lat="42.35736" lon="1.96716">
        <ele>1574.8</ele>
        <time>2022-09-07T14:33:29Z</time>
      </trkpt>
      <trkpt lat="42.35737" lon="1.96718">
        <ele>1574.8</ele>
        <time>2022-09-07T14:33:30Z</time>
      </trkpt>
      <trkpt lat="42.35738" lon="1.9672">
        <ele>1574.8</ele>
        <time>2022-09-07T14:33:31Z</time>
      </trkpt>
      <trkpt lat="42.3574" lon="1.96721">
        <ele>1574</ele>
        <time>2022-09-07T14:33:32Z</time>
      </trkpt>
      <trkpt lat="42.35741" lon="1.96723">
        <ele>1574</ele>
        <time>2022-09-07T14:33:33Z</time>
      </trkpt>
      <trkpt lat="42.35743" lon="1.96724">
        <ele>1574</ele>
        <time>2022-09-07T14:33:34Z</time>
      </trkpt>
      <trkpt lat="42.35745" lon="1.96725">
        <ele>1575</ele>
        <time>2022-09-07T14:33:35Z</time>
      </trkpt>
      <trkpt lat="42.35747" lon="1.96726">
        <ele>1576.2</ele>
        <time>2022-09-07T14:33:36Z</time>
      </trkpt>
      <trkpt lat="42.35749" lon="1.96726">
        <ele>1576.2</ele>
        <time>2022-09-07T14:33:37Z</time>
      </trkpt>
      <trkpt lat="42.35752" lon="1.96726">
        <ele>1576.2</ele>
        <time>2022-09-07T14:33:38Z</time>
      </trkpt>
      <trkpt lat="42.35754" lon="1.96726">
        <ele>1577.2</ele>
        <time>2022-09-07T14:33:39Z</time>
      </trkpt>
      <trkpt lat="42.35756" lon="1.96728">
        <ele>1577.2</ele>
        <time>2022-09-07T14:33:40Z</time>
      </trkpt>
      <trkpt lat="42.35759" lon="1.9673">
        <ele>1577.8</ele>
        <time>2022-09-07T14:33:41Z</time>
      </trkpt>
      <trkpt lat="42.35761" lon="1.96733">
        <ele>1577.8</ele>
        <time>2022-09-07T14:33:42Z</time>
      </trkpt>
      <trkpt lat="42.35763" lon="1.96737">
        <ele>1577.8</ele>
        <time>2022-09-07T14:33:43Z</time>
      </trkpt>
      <trkpt lat="42.35765" lon="1.9674">
        <ele>1577.8</ele>
        <time>2022-09-07T14:33:44Z</time>
      </trkpt>
      <trkpt lat="42.35766" lon="1.96742">
        <ele>1579.4</ele>
        <time>2022-09-07T14:33:45Z</time>
      </trkpt>
      <trkpt lat="42.35767" lon="1.96745">
        <ele>1579.4</ele>
        <time>2022-09-07T14:33:46Z</time>
      </trkpt>
      <trkpt lat="42.35768" lon="1.96749">
        <ele>1579.4</ele>
        <time>2022-09-07T14:33:47Z</time>
      </trkpt>
      <trkpt lat="42.35769" lon="1.96754">
        <ele>1579.4</ele>
        <time>2022-09-07T14:33:48Z</time>
      </trkpt>
      <trkpt lat="42.35771" lon="1.96759">
        <ele>1579.6</ele>
        <time>2022-09-07T14:33:49Z</time>
      </trkpt>
      <trkpt lat="42.35773" lon="1.96762">
        <ele>1579.6</ele>
        <time>2022-09-07T14:33:50Z</time>
      </trkpt>
      <trkpt lat="42.35775" lon="1.96766">
        <ele>1579.6</ele>
        <time>2022-09-07T14:33:51Z</time>
      </trkpt>
      <trkpt lat="42.35777" lon="1.96769">
        <ele>1579.6</ele>
        <time>2022-09-07T14:33:52Z</time>
      </trkpt>
      <trkpt lat="42.35779" lon="1.96773">
        <ele>1579.6</ele>
        <time>2022-09-07T14:33:53Z</time>
      </trkpt>
      <trkpt lat="42.3578" lon="1.96777">
        <ele>1579.6</ele>
        <time>2022-09-07T14:33:54Z</time>
      </trkpt>
      <trkpt lat="42.35782" lon="1.9678">
        <ele>1579.6</ele>
        <time>2022-09-07T14:33:55Z</time>
      </trkpt>
      <trkpt lat="42.35783" lon="1.96784">
        <ele>1579.6</ele>
        <time>2022-09-07T14:33:56Z</time>
      </trkpt>
      <trkpt lat="42.35783" lon="1.96787">
        <ele>1580</ele>
        <time>2022-09-07T14:33:57Z</time>
      </trkpt>
      <trkpt lat="42.35783" lon="1.9679">
        <ele>1580</ele>
        <time>2022-09-07T14:33:58Z</time>
      </trkpt>
      <trkpt lat="42.35783" lon="1.96792">
        <ele>1580</ele>
        <time>2022-09-07T14:33:59Z</time>
      </trkpt>
      <trkpt lat="42.35784" lon="1.96791">
        <ele>1580</ele>
        <time>2022-09-07T14:34:00Z</time>
      </trkpt>
      <trkpt lat="42.35784" lon="1.96791">
        <ele>1579</ele>
        <time>2022-09-07T14:34:01Z</time>
      </trkpt>
      <trkpt lat="42.35784" lon="1.96791">
        <ele>1579</ele>
        <time>2022-09-07T14:34:02Z</time>
      </trkpt>
      <trkpt lat="42.35784" lon="1.96791">
        <ele>1579</ele>
        <time>2022-09-07T14:34:03Z</time>
      </trkpt>
      <trkpt lat="42.35784" lon="1.96793">
        <ele>1579.8</ele>
        <time>2022-09-07T14:34:04Z</time>
      </trkpt>
      <trkpt lat="42.35785" lon="1.96796">
        <ele>1578.2</ele>
        <time>2022-09-07T14:34:30Z</time>
      </trkpt>
      <trkpt lat="42.35785" lon="1.968">
        <ele>1578.2</ele>
        <time>2022-09-07T14:34:31Z</time>
      </trkpt>
      <trkpt lat="42.35785" lon="1.96804">
        <ele>1578.2</ele>
        <time>2022-09-07T14:34:32Z</time>
      </trkpt>
      <trkpt lat="42.35785000000001" lon="1.96808">
        <ele>1600.1</ele>
        <time>2022-09-07T14:34:33Z</time>
      </trkpt>
      <trkpt lat="42.35778173774288" lon="1.968269892492295">
        <ele>1600</ele>
        <time>2022-09-07T14:34:37Z</time>
      </trkpt>
      <trkpt lat="42.35771347541161" lon="1.968459784984589">
        <ele>1600.6</ele>
        <time>2022-09-07T14:34:41Z</time>
      </trkpt>
      <trkpt lat="42.35765273773514" lon="1.968580392492295">
        <ele>1601.1</ele>
        <time>2022-09-07T14:34:45Z</time>
      </trkpt>
      <trkpt lat="42.357592" lon="1.968701">
        <ele>1602.9</ele>
        <time>2022-09-07T14:34:48Z</time>
      </trkpt>
      <trkpt lat="42.357574" lon="1.968759">
        <ele>1604</ele>
        <time>2022-09-07T14:34:49Z</time>
      </trkpt>
      <trkpt lat="42.357358" lon="1.96865">
        <ele>1599.5</ele>
        <time>2022-09-07T14:34:54Z</time>
      </trkpt>
      <trkpt lat="42.357319" lon="1.968631">
        <ele>1598.8</ele>
        <time>2022-09-07T14:34:55Z</time>
      </trkpt>
      <trkpt lat="42.35725" lon="1.968438">
        <ele>1594</ele>
        <time>2022-09-07T14:34:59Z</time>
      </trkpt>
      <trkpt lat="42.357042" lon="1.96836">
        <ele>1590.3</ele>
        <time>2022-09-07T14:35:04Z</time>
      </trkpt>
      <trkpt lat="42.356826" lon="1.968279">
        <ele>1586.5</ele>
        <time>2022-09-07T14:35:09Z</time>
      </trkpt>
      <trkpt lat="42.356378" lon="1.968256">
        <ele>1582.8</ele>
        <time>2022-09-07T14:35:18Z</time>
      </trkpt>
      <trkpt lat="42.35636" lon="1.968256">
        <ele>1582.8</ele>
        <time>2022-09-07T14:35:18Z</time>
      </trkpt>
      <trkpt lat="42.355715" lon="1.968335">
        <ele>1582.5</ele>
        <time>2022-09-07T14:35:31Z</time>
      </trkpt>
      <trkpt lat="42.355356" lon="1.968274">
        <ele>1578.8</ele>
        <time>2022-09-07T14:35:38Z</time>
      </trkpt>
      <trkpt lat="42.354945" lon="1.968223">
        <ele>1574.3</ele>
        <time>2022-09-07T14:35:47Z</time>
      </trkpt>
      <trkpt lat="42.354624" lon="1.968134">
        <ele>1565</ele>
        <time>2022-09-07T14:35:53Z</time>
      </trkpt>
      <trkpt lat="42.354473" lon="1.968162">
        <ele>1563.3</ele>
        <time>2022-09-07T14:35:56Z</time>
      </trkpt>
      <trkpt lat="42.354386" lon="1.968288">
        <ele>1564.8</ele>
        <time>2022-09-07T14:35:59Z</time>
      </trkpt>
      <trkpt lat="42.354292" lon="1.968428">
        <ele>1563.8</ele>
        <time>2022-09-07T14:36:02Z</time>
      </trkpt>
      <trkpt lat="42.354221" lon="1.968536">
        <ele>1563.3</ele>
        <time>2022-09-07T14:36:04Z</time>
      </trkpt>
      <trkpt lat="42.354138" lon="1.969185">
        <ele>1563.8</ele>
        <time>2022-09-07T14:36:14Z</time>
      </trkpt>
      <trkpt lat="42.354103" lon="1.969713">
        <ele>1562.8</ele>
        <time>2022-09-07T14:36:22Z</time>
      </trkpt>
      <trkpt lat="42.35408" lon="1.969836">
        <ele>1562.3</ele>
        <time>2022-09-07T14:36:23Z</time>
      </trkpt>
      <trkpt lat="42.35402" lon="1.970166">
        <ele>1561.3</ele>
        <time>2022-09-07T14:36:29Z</time>
      </trkpt>
      <trkpt lat="42.353986" lon="1.970328">
        <ele>1560.8</ele>
        <time>2022-09-07T14:36:31Z</time>
      </trkpt>
      <trkpt lat="42.3539" lon="1.970745">
        <ele>1560</ele>
        <time>2022-09-07T14:36:37Z</time>
      </trkpt>
      <trkpt lat="42.353849" lon="1.970906">
        <ele>1559.8</ele>
        <time>2022-09-07T14:36:40Z</time>
      </trkpt>
      <trkpt lat="42.35382162691739" lon="1.971013247966767">
        <ele>1552.9</ele>
        <time>2022-09-07T14:36:41Z</time>
      </trkpt>
      <trkpt lat="42.35379486684214" lon="1.971120536327362">
        <ele>1552.6</ele>
        <time>2022-09-07T14:36:43Z</time>
      </trkpt>
      <trkpt lat="42.35380743342233" lon="1.971215268163681">
        <ele>1553.6</ele>
        <time>2022-09-07T14:36:44Z</time>
      </trkpt>
      <trkpt lat="42.353736" lon="1.971301">
        <ele>1559.3</ele>
        <time>2022-09-07T14:36:48Z</time>
      </trkpt>
      <trkpt lat="42.353728" lon="1.971437">
        <ele>1559.5</ele>
        <time>2022-09-07T14:36:52Z</time>
      </trkpt>
      <trkpt lat="42.353721" lon="1.971569">
        <ele>1559.8</ele>
        <time>2022-09-07T14:36:56Z</time>
      </trkpt>
      <trkpt lat="42.35373" lon="1.97157">
        <ele>1524.6</ele>
        <time>2022-09-07T14:36:57Z</time>
      </trkpt>
      <trkpt lat="42.35373" lon="1.97157">
        <ele>1524.4</ele>
        <time>2022-09-07T14:36:58Z</time>
      </trkpt>
      <trkpt lat="42.35368" lon="1.97157">
        <ele>1521.6</ele>
        <time>2022-09-07T14:36:59Z</time>
      </trkpt>
      <trkpt lat="42.35366" lon="1.97158">
        <ele>1521.6</ele>
        <time>2022-09-07T14:37:23Z</time>
      </trkpt>
      <trkpt lat="42.35364" lon="1.97159">
        <ele>1520.6</ele>
        <time>2022-09-07T14:37:24Z</time>
      </trkpt>
      <trkpt lat="42.35363" lon="1.97159">
        <ele>1517</ele>
        <time>2022-09-07T14:37:25Z</time>
      </trkpt>
      <trkpt lat="42.35361" lon="1.9716">
        <ele>1517</ele>
        <time>2022-09-07T14:37:26Z</time>
      </trkpt>
      <trkpt lat="42.3536" lon="1.97161">
        <ele>1517</ele>
        <time>2022-09-07T14:37:27Z</time>
      </trkpt>
      <trkpt lat="42.35358" lon="1.97164">
        <ele>1516</ele>
        <time>2022-09-07T14:37:28Z</time>
      </trkpt>
      <trkpt lat="42.35355999999999" lon="1.97166">
        <ele>1547.1</ele>
        <time>2022-09-07T14:37:28Z</time>
      </trkpt>
      <trkpt lat="42.35360224351363" lon="1.972239083848341">
        <ele>1549</ele>
        <time>2022-09-07T14:37:41Z</time>
      </trkpt>
      <trkpt lat="42.35364448699887" lon="1.972818167696682">
        <ele>1553.2</ele>
        <time>2022-09-07T14:37:53Z</time>
      </trkpt>
      <trkpt lat="42.35354127028831" lon="1.973408257874643">
        <ele>1558.4</ele>
        <time>2022-09-07T14:38:06Z</time>
      </trkpt>
      <trkpt lat="42.35343805340828" lon="1.973998348052604">
        <ele>1569.8</ele>
        <time>2022-09-07T14:38:17Z</time>
      </trkpt>
      <trkpt lat="42.35320013412841" lon="1.974921006980364">
        <ele>1579.1</ele>
        <time>2022-09-07T14:38:35Z</time>
      </trkpt>
      <trkpt lat="42.35304833521566" lon="1.975211795585459">
        <ele>1585.8</ele>
        <time>2022-09-07T14:38:44Z</time>
      </trkpt>
      <trkpt lat="42.352742" lon="1.975793">
        <ele>1592.5</ele>
        <time>2022-09-07T14:38:52Z</time>
      </trkpt>
      <trkpt lat="42.352827" lon="1.975123">
        <ele>1594.3</ele>
        <time>2022-09-07T14:39:03Z</time>
      </trkpt>
      <trkpt lat="42.352833" lon="1.975003">
        <ele>1593.8</ele>
        <time>2022-09-07T14:39:05Z</time>
      </trkpt>
      <trkpt lat="42.352848" lon="1.974711">
        <ele>1593.3</ele>
        <time>2022-09-07T14:39:10Z</time>
      </trkpt>
      <trkpt lat="42.352897" lon="1.974014">
        <ele>1587.5</ele>
        <time>2022-09-07T14:39:22Z</time>
      </trkpt>
      <trkpt lat="42.352932" lon="1.973531">
        <ele>1583.8</ele>
        <time>2022-09-07T14:39:30Z</time>
      </trkpt>
      <trkpt lat="42.353051" lon="1.972645">
        <ele>1571.8</ele>
        <time>2022-09-07T14:39:47Z</time>
      </trkpt>
      <trkpt lat="42.352995" lon="1.972399">
        <ele>1573</ele>
        <time>2022-09-07T14:39:52Z</time>
      </trkpt>
      <trkpt lat="42.352918" lon="1.972148">
        <ele>1573.8</ele>
        <time>2022-09-07T14:39:58Z</time>
      </trkpt>
      <trkpt lat="42.352722" lon="1.971498">
        <ele>1576.3</ele>
        <time>2022-09-07T14:40:11Z</time>
      </trkpt>
      <trkpt lat="42.352617" lon="1.971205">
        <ele>1577.3</ele>
        <time>2022-09-07T14:40:18Z</time>
      </trkpt>
      <trkpt lat="42.352519" lon="1.971067">
        <ele>1579.3</ele>
        <time>2022-09-07T14:40:21Z</time>
      </trkpt>
      <trkpt lat="42.352477" lon="1.970949">
        <ele>1579.3</ele>
        <time>2022-09-07T14:40:24Z</time>
      </trkpt>
      <trkpt lat="42.352494" lon="1.970807">
        <ele>1577.3</ele>
        <time>2022-09-07T14:40:27Z</time>
      </trkpt>
      <trkpt lat="42.352552" lon="1.970645">
        <ele>1575.3</ele>
        <time>2022-09-07T14:40:30Z</time>
      </trkpt>
      <trkpt lat="42.352564" lon="1.970612">
        <ele>1575</ele>
        <time>2022-09-07T14:40:31Z</time>
      </trkpt>
      <trkpt lat="42.35262" lon="1.970361">
        <ele>1573</ele>
        <time>2022-09-07T14:40:37Z</time>
      </trkpt>
      <trkpt lat="42.352648" lon="1.970139">
        <ele>1572</ele>
        <time>2022-09-07T14:40:42Z</time>
      </trkpt>
      <trkpt lat="42.352634" lon="1.969868">
        <ele>1571.3</ele>
        <time>2022-09-07T14:40:48Z</time>
      </trkpt>
      <trkpt lat="42.352598" lon="1.969644">
        <ele>1569.8</ele>
        <time>2022-09-07T14:40:53Z</time>
      </trkpt>
      <trkpt lat="42.35255" lon="1.969343">
        <ele>1568</ele>
        <time>2022-09-07T14:41:00Z</time>
      </trkpt>
      <trkpt lat="42.352449" lon="1.969106">
        <ele>1569.3</ele>
        <time>2022-09-07T14:41:06Z</time>
      </trkpt>
      <trkpt lat="42.352221" lon="1.968779">
        <ele>1573.3</ele>
        <time>2022-09-07T14:41:16Z</time>
      </trkpt>
      <trkpt lat="42.351947" lon="1.968199">
        <ele>1575</ele>
        <time>2022-09-07T14:41:32Z</time>
      </trkpt>
      <trkpt lat="42.351934" lon="1.968172">
        <ele>1575.3</ele>
        <time>2022-09-07T14:41:32Z</time>
      </trkpt>
      <trkpt lat="42.351843" lon="1.968002">
        <ele>1577.8</ele>
        <time>2022-09-07T14:41:37Z</time>
      </trkpt>
      <trkpt lat="42.351661" lon="1.967765">
        <ele>1584.3</ele>
        <time>2022-09-07T14:41:45Z</time>
      </trkpt>
      <trkpt lat="42.351594" lon="1.967466">
        <ele>1583.8</ele>
        <time>2022-09-07T14:41:52Z</time>
      </trkpt>
      <trkpt lat="42.351517" lon="1.966893">
        <ele>1583</ele>
        <time>2022-09-07T14:42:05Z</time>
      </trkpt>
      <trkpt lat="42.351531" lon="1.966561">
        <ele>1582</ele>
        <time>2022-09-07T14:42:13Z</time>
      </trkpt>
      <trkpt lat="42.35164" lon="1.966102">
        <ele>1582.3</ele>
        <time>2022-09-07T14:42:24Z</time>
      </trkpt>
      <trkpt lat="42.351885" lon="1.965576">
        <ele>1578</ele>
        <time>2022-09-07T14:42:38Z</time>
      </trkpt>
      <trkpt lat="42.352294" lon="1.964656">
        <ele>1573.8</ele>
        <time>2022-09-07T14:43:03Z</time>
      </trkpt>
      <trkpt lat="42.352427" lon="1.964102">
        <ele>1575.3</ele>
        <time>2022-09-07T14:43:16Z</time>
      </trkpt>
      <trkpt lat="42.352511" lon="1.96368">
        <ele>1573.5</ele>
        <time>2022-09-07T14:43:26Z</time>
      </trkpt>
      <trkpt lat="42.352442" lon="1.963244">
        <ele>1575.8</ele>
        <time>2022-09-07T14:43:36Z</time>
      </trkpt>
      <trkpt lat="42.352326" lon="1.962946">
        <ele>1575.8</ele>
        <time>2022-09-07T14:43:44Z</time>
      </trkpt>
      <trkpt lat="42.352277" lon="1.962742">
        <ele>1575</ele>
        <time>2022-09-07T14:43:49Z</time>
      </trkpt>
      <trkpt lat="42.352301" lon="1.962169">
        <ele>1569.3</ele>
        <time>2022-09-07T14:44:02Z</time>
      </trkpt>
      <trkpt lat="42.352301" lon="1.96194">
        <ele>1567</ele>
        <time>2022-09-07T14:44:07Z</time>
      </trkpt>
      <trkpt lat="42.352275" lon="1.961881">
        <ele>1566.3</ele>
        <time>2022-09-07T14:44:08Z</time>
      </trkpt>
      <trkpt lat="42.352272" lon="1.961796">
        <ele>1565.5</ele>
        <time>2022-09-07T14:44:10Z</time>
      </trkpt>
      <trkpt lat="42.352218" lon="1.961747">
        <ele>1564.8</ele>
        <time>2022-09-07T14:44:12Z</time>
      </trkpt>
      <trkpt lat="42.352095" lon="1.961763">
        <ele>1564.8</ele>
        <time>2022-09-07T14:44:16Z</time>
      </trkpt>
      <trkpt lat="42.351833" lon="1.96184">
        <ele>1565.5</ele>
        <time>2022-09-07T14:44:24Z</time>
      </trkpt>
      <trkpt lat="42.351259" lon="1.962075">
        <ele>1562</ele>
        <time>2022-09-07T14:44:43Z</time>
      </trkpt>
      <trkpt lat="42.351058" lon="1.962208">
        <ele>1560.5</ele>
        <time>2022-09-07T14:44:50Z</time>
      </trkpt>
      <trkpt lat="42.350948" lon="1.96233">
        <ele>1560.8</ele>
        <time>2022-09-07T14:44:54Z</time>
      </trkpt>
      <trkpt lat="42.35073" lon="1.962682">
        <ele>1563.8</ele>
        <time>2022-09-07T14:45:05Z</time>
      </trkpt>
      <trkpt lat="42.350511" lon="1.962952">
        <ele>1565</ele>
        <time>2022-09-07T14:45:14Z</time>
      </trkpt>
      <trkpt lat="42.350446" lon="1.963005">
        <ele>1564.8</ele>
        <time>2022-09-07T14:45:16Z</time>
      </trkpt>
      <trkpt lat="42.350377" lon="1.963041">
        <ele>1564</ele>
        <time>2022-09-07T14:45:18Z</time>
      </trkpt>
      <trkpt lat="42.350102" lon="1.963106">
        <ele>1559.3</ele>
        <time>2022-09-07T14:45:27Z</time>
      </trkpt>
      <trkpt lat="42.349964" lon="1.963171">
        <ele>1557.5</ele>
        <time>2022-09-07T14:45:32Z</time>
      </trkpt>
      <trkpt lat="42.349833" lon="1.963248">
        <ele>1556</ele>
        <time>2022-09-07T14:45:36Z</time>
      </trkpt>
      <trkpt lat="42.349648" lon="1.963414">
        <ele>1555</ele>
        <time>2022-09-07T14:45:43Z</time>
      </trkpt>
      <trkpt lat="42.349591" lon="1.963474">
        <ele>1554.8</ele>
        <time>2022-09-07T14:45:45Z</time>
      </trkpt>
      <trkpt lat="42.34954" lon="1.963543">
        <ele>1555</ele>
        <time>2022-09-07T14:45:47Z</time>
      </trkpt>
      <trkpt lat="42.348975" lon="1.96415">
        <ele>1552</ele>
        <time>2022-09-07T14:46:09Z</time>
      </trkpt>
      <trkpt lat="42.34885" lon="1.964259">
        <ele>1550.8</ele>
        <time>2022-09-07T14:46:14Z</time>
      </trkpt>
      <trkpt lat="42.348637" lon="1.96451">
        <ele>1549</ele>
        <time>2022-09-07T14:46:23Z</time>
      </trkpt>
      <trkpt lat="42.348485" lon="1.964724">
        <ele>1547.8</ele>
        <time>2022-09-07T14:46:29Z</time>
      </trkpt>
      <trkpt lat="42.348273" lon="1.9651">
        <ele>1544.8</ele>
        <time>2022-09-07T14:46:40Z</time>
      </trkpt>
      <trkpt lat="42.348237" lon="1.965181">
        <ele>1543.8</ele>
        <time>2022-09-07T14:46:42Z</time>
      </trkpt>
      <trkpt lat="42.348234" lon="1.965314">
        <ele>1544</ele>
        <time>2022-09-07T14:46:45Z</time>
      </trkpt>
      <trkpt lat="42.348249" lon="1.965411">
        <ele>1544.8</ele>
        <time>2022-09-07T14:46:48Z</time>
      </trkpt>
      <trkpt lat="42.348246" lon="1.965808">
        <ele>1545.5</ele>
        <time>2022-09-07T14:46:57Z</time>
      </trkpt>
      <trkpt lat="42.348255" lon="1.965905">
        <ele>1546.8</ele>
        <time>2022-09-07T14:46:59Z</time>
      </trkpt>
      <trkpt lat="42.348252" lon="1.966002">
        <ele>1547.8</ele>
        <time>2022-09-07T14:47:01Z</time>
      </trkpt>
      <trkpt lat="42.348234" lon="1.966099">
        <ele>1548.5</ele>
        <time>2022-09-07T14:47:03Z</time>
      </trkpt>
      <trkpt lat="42.348195" lon="1.966184">
        <ele>1548</ele>
        <time>2022-09-07T14:47:06Z</time>
      </trkpt>
      <trkpt lat="42.348147" lon="1.966253">
        <ele>1547.3</ele>
        <time>2022-09-07T14:47:08Z</time>
      </trkpt>
      <trkpt lat="42.348028" lon="1.966487">
        <ele>1546.5</ele>
        <time>2022-09-07T14:47:14Z</time>
      </trkpt>
      <trkpt lat="42.34789" lon="1.966944">
        <ele>1552.3</ele>
        <time>2022-09-07T14:47:26Z</time>
      </trkpt>
      <trkpt lat="42.347848" lon="1.967021">
        <ele>1553.3</ele>
        <time>2022-09-07T14:47:28Z</time>
      </trkpt>
      <trkpt lat="42.347785" lon="1.967057">
        <ele>1552.8</ele>
        <time>2022-09-07T14:47:30Z</time>
      </trkpt>
      <trkpt lat="42.347714" lon="1.967074">
        <ele>1551.5</ele>
        <time>2022-09-07T14:47:32Z</time>
      </trkpt>
      <trkpt lat="42.347182" lon="1.967057">
        <ele>1540</ele>
        <time>2022-09-07T14:47:49Z</time>
      </trkpt>
      <trkpt lat="42.346653" lon="1.967102">
        <ele>1532.3</ele>
        <time>2022-09-07T14:48:05Z</time>
      </trkpt>
      <trkpt lat="42.346189" lon="1.967037">
        <ele>1523</ele>
        <time>2022-09-07T14:48:19Z</time>
      </trkpt>
      <trkpt lat="42.346127" lon="1.967001">
        <ele>1521.3</ele>
        <time>2022-09-07T14:48:21Z</time>
      </trkpt>
      <trkpt lat="42.346061" lon="1.966993">
        <ele>1520</ele>
        <time>2022-09-07T14:48:23Z</time>
      </trkpt>
      <trkpt lat="42.345932" lon="1.967053">
        <ele>1519.3</ele>
        <time>2022-09-07T14:48:28Z</time>
      </trkpt>
      <trkpt lat="42.345879" lon="1.967122">
        <ele>1519.8</ele>
        <time>2022-09-07T14:48:30Z</time>
      </trkpt>
      <trkpt lat="42.345747" lon="1.967365">
        <ele>1521</ele>
        <time>2022-09-07T14:48:37Z</time>
      </trkpt>
      <trkpt lat="42.345714" lon="1.96745">
        <ele>1521.5</ele>
        <time>2022-09-07T14:48:39Z</time>
      </trkpt>
      <trkpt lat="42.34566" lon="1.967636">
        <ele>1523</ele>
        <time>2022-09-07T14:48:43Z</time>
      </trkpt>
      <trkpt lat="42.345589" lon="1.968028">
        <ele>1526.8</ele>
        <time>2022-09-07T14:48:53Z</time>
      </trkpt>
      <trkpt lat="42.345616" lon="1.968408">
        <ele>1533.5</ele>
        <time>2022-09-07T14:49:01Z</time>
      </trkpt>
      <trkpt lat="42.345574" lon="1.968481">
        <ele>1533.8</ele>
        <time>2022-09-07T14:49:03Z</time>
      </trkpt>
      <trkpt lat="42.345508" lon="1.968521">
        <ele>1532.8</ele>
        <time>2022-09-07T14:49:06Z</time>
      </trkpt>
      <trkpt lat="42.345439" lon="1.968529">
        <ele>1531</ele>
        <time>2022-09-07T14:49:08Z</time>
      </trkpt>
      <trkpt lat="42.345236" lon="1.968509">
        <ele>1525</ele>
        <time>2022-09-07T14:49:14Z</time>
      </trkpt>
      <trkpt lat="42.344973" lon="1.96842">
        <ele>1516.8</ele>
        <time>2022-09-07T14:49:22Z</time>
      </trkpt>
      <trkpt lat="42.344832" lon="1.968347">
        <ele>1513</ele>
        <time>2022-09-07T14:49:27Z</time>
      </trkpt>
      <trkpt lat="42.344575" lon="1.968186">
        <ele>1507</ele>
        <time>2022-09-07T14:49:36Z</time>
      </trkpt>
      <trkpt lat="42.344492" lon="1.968116">
        <ele>1505.3</ele>
        <time>2022-09-07T14:49:39Z</time>
      </trkpt>
      <trkpt lat="42.344399" lon="1.967979">
        <ele>1503.5</ele>
        <time>2022-09-07T14:49:43Z</time>
      </trkpt>
      <trkpt lat="42.344244" lon="1.967692">
        <ele>1501.3</ele>
        <time>2022-09-07T14:49:51Z</time>
      </trkpt>
      <trkpt lat="42.344139" lon="1.967579">
        <ele>1500.5</ele>
        <time>2022-09-07T14:49:55Z</time>
      </trkpt>
      <trkpt lat="42.343918" lon="1.967365">
        <ele>1498.3</ele>
        <time>2022-09-07T14:50:04Z</time>
      </trkpt>
      <trkpt lat="42.343738" lon="1.967223">
        <ele>1497</ele>
        <time>2022-09-07T14:50:10Z</time>
      </trkpt>
      <trkpt lat="42.343472" lon="1.967061">
        <ele>1496.3</ele>
        <time>2022-09-07T14:50:19Z</time>
      </trkpt>
      <trkpt lat="42.343284" lon="1.966964">
        <ele>1495.3</ele>
        <time>2022-09-07T14:50:25Z</time>
      </trkpt>
      <trkpt lat="42.343114" lon="1.966811">
        <ele>1493</ele>
        <time>2022-09-07T14:50:32Z</time>
      </trkpt>
      <trkpt lat="42.343105" lon="1.966726">
        <ele>1493.5</ele>
        <time>2022-09-07T14:50:34Z</time>
      </trkpt>
      <trkpt lat="42.34312" lon="1.966552">
        <ele>1493</ele>
        <time>2022-09-07T14:50:38Z</time>
      </trkpt>
      <trkpt lat="42.34317" lon="1.966394">
        <ele>1492</ele>
        <time>2022-09-07T14:50:41Z</time>
      </trkpt>
      <trkpt lat="42.343251" lon="1.966249">
        <ele>1491.8</ele>
        <time>2022-09-07T14:50:46Z</time>
      </trkpt>
      <trkpt lat="42.343511" lon="1.965856">
        <ele>1489.8</ele>
        <time>2022-09-07T14:50:58Z</time>
      </trkpt>
      <trkpt lat="42.343616" lon="1.965719">
        <ele>1488.5</ele>
        <time>2022-09-07T14:51:02Z</time>
      </trkpt>
      <trkpt lat="42.343726" lon="1.965622">
        <ele>1487.8</ele>
        <time>2022-09-07T14:51:06Z</time>
      </trkpt>
      <trkpt lat="42.343846" lon="1.965549">
        <ele>1488</ele>
        <time>2022-09-07T14:51:10Z</time>
      </trkpt>
      <trkpt lat="42.343915" lon="1.965525">
        <ele>1488.3</ele>
        <time>2022-09-07T14:51:12Z</time>
      </trkpt>
      <trkpt lat="42.343983" lon="1.965521">
        <ele>1489</ele>
        <time>2022-09-07T14:51:15Z</time>
      </trkpt>
      <trkpt lat="42.344396" lon="1.96567">
        <ele>1489.8</ele>
        <time>2022-09-07T14:51:28Z</time>
      </trkpt>
      <trkpt lat="42.344525" lon="1.965763">
        <ele>1489</ele>
        <time>2022-09-07T14:51:32Z</time>
      </trkpt>
      <trkpt lat="42.344695" lon="1.966018">
        <ele>1489</ele>
        <time>2022-09-07T14:51:40Z</time>
      </trkpt>
      <trkpt lat="42.344764" lon="1.96618">
        <ele>1489.8</ele>
        <time>2022-09-07T14:51:44Z</time>
      </trkpt>
      <trkpt lat="42.344853" lon="1.966661">
        <ele>1494.5</ele>
        <time>2022-09-07T14:51:56Z</time>
      </trkpt>
      <trkpt lat="42.344904" lon="1.96673">
        <ele>1494.5</ele>
        <time>2022-09-07T14:51:58Z</time>
      </trkpt>
      <trkpt lat="42.344964" lon="1.966778">
        <ele>1494.5</ele>
        <time>2022-09-07T14:52:00Z</time>
      </trkpt>
      <trkpt lat="42.34503" lon="1.966762">
        <ele>1494.5</ele>
        <time>2022-09-07T14:52:02Z</time>
      </trkpt>
      <trkpt lat="42.345081" lon="1.96671">
        <ele>1495</ele>
        <time>2022-09-07T14:52:04Z</time>
      </trkpt>
      <trkpt lat="42.345155" lon="1.966568">
        <ele>1494.5</ele>
        <time>2022-09-07T14:52:08Z</time>
      </trkpt>
      <trkpt lat="42.345302" lon="1.96616">
        <ele>1489.5</ele>
        <time>2022-09-07T14:52:18Z</time>
      </trkpt>
      <trkpt lat="42.345442" lon="1.965836">
        <ele>1484</ele>
        <time>2022-09-07T14:52:27Z</time>
      </trkpt>
      <trkpt lat="42.345484" lon="1.965763">
        <ele>1483.3</ele>
        <time>2022-09-07T14:52:29Z</time>
      </trkpt>
      <trkpt lat="42.345559" lon="1.965678">
        <ele>1482.5</ele>
        <time>2022-09-07T14:52:32Z</time>
      </trkpt>
      <trkpt lat="42.345675" lon="1.965589">
        <ele>1481.8</ele>
        <time>2022-09-07T14:52:36Z</time>
      </trkpt>
      <trkpt lat="42.345819" lon="1.965533">
        <ele>1481.5</ele>
        <time>2022-09-07T14:52:41Z</time>
      </trkpt>
      <trkpt lat="42.345938" lon="1.965452">
        <ele>1482.3</ele>
        <time>2022-09-07T14:52:45Z</time>
      </trkpt>
      <trkpt lat="42.345977" lon="1.965383">
        <ele>1482</ele>
        <time>2022-09-07T14:52:47Z</time>
      </trkpt>
      <trkpt lat="42.345998" lon="1.965302">
        <ele>1481.3</ele>
        <time>2022-09-07T14:52:49Z</time>
      </trkpt>
      <trkpt lat="42.345935" lon="1.965157">
        <ele>1478.3</ele>
        <time>2022-09-07T14:52:53Z</time>
      </trkpt>
      <trkpt lat="42.345834" lon="1.965035">
        <ele>1474.5</ele>
        <time>2022-09-07T14:52:57Z</time>
      </trkpt>
      <trkpt lat="42.345636" lon="1.964934">
        <ele>1472.8</ele>
        <time>2022-09-07T14:53:03Z</time>
      </trkpt>
      <trkpt lat="42.34558" lon="1.964886">
        <ele>1472.3</ele>
        <time>2022-09-07T14:53:05Z</time>
      </trkpt>
      <trkpt lat="42.345532" lon="1.964813">
        <ele>1471.5</ele>
        <time>2022-09-07T14:53:08Z</time>
      </trkpt>
      <trkpt lat="42.345502" lon="1.964728">
        <ele>1470.8</ele>
        <time>2022-09-07T14:53:10Z</time>
      </trkpt>
      <trkpt lat="42.345463" lon="1.964469">
        <ele>1468.3</ele>
        <time>2022-09-07T14:53:16Z</time>
      </trkpt>
      <trkpt lat="42.345454" lon="1.963992">
        <ele>1464.8</ele>
        <time>2022-09-07T14:53:27Z</time>
      </trkpt>
      <trkpt lat="42.345472" lon="1.963907">
        <ele>1464.5</ele>
        <time>2022-09-07T14:53:29Z</time>
      </trkpt>
      <trkpt lat="42.345526" lon="1.963854">
        <ele>1465</ele>
        <time>2022-09-07T14:53:31Z</time>
      </trkpt>
      <trkpt lat="42.345595" lon="1.963858">
        <ele>1466</ele>
        <time>2022-09-07T14:53:33Z</time>
      </trkpt>
      <trkpt lat="42.345723" lon="1.963903">
        <ele>1468</ele>
        <time>2022-09-07T14:53:37Z</time>
      </trkpt>
      <trkpt lat="42.345792" lon="1.963903">
        <ele>1469</ele>
        <time>2022-09-07T14:53:39Z</time>
      </trkpt>
      <trkpt lat="42.345855" lon="1.963883">
        <ele>1470</ele>
        <time>2022-09-07T14:53:41Z</time>
      </trkpt>
      <trkpt lat="42.345897" lon="1.963818">
        <ele>1470.5</ele>
        <time>2022-09-07T14:53:43Z</time>
      </trkpt>
      <trkpt lat="42.345885" lon="1.963729">
        <ele>1470</ele>
        <time>2022-09-07T14:53:45Z</time>
      </trkpt>
      <trkpt lat="42.345816" lon="1.963579">
        <ele>1467.8</ele>
        <time>2022-09-07T14:53:49Z</time>
      </trkpt>
      <trkpt lat="42.345768" lon="1.963401">
        <ele>1466</ele>
        <time>2022-09-07T14:53:53Z</time>
      </trkpt>
      <trkpt lat="42.345687" lon="1.96326">
        <ele>1463.8</ele>
        <time>2022-09-07T14:53:57Z</time>
      </trkpt>
      <trkpt lat="42.345523" lon="1.96307">
        <ele>1459.3</ele>
        <time>2022-09-07T14:54:04Z</time>
      </trkpt>
      <trkpt lat="42.345484" lon="1.962993">
        <ele>1457.8</ele>
        <time>2022-09-07T14:54:06Z</time>
      </trkpt>
      <trkpt lat="42.34546" lon="1.962908">
        <ele>1456.5</ele>
        <time>2022-09-07T14:54:08Z</time>
      </trkpt>
      <trkpt lat="42.345454" lon="1.962819">
        <ele>1455.5</ele>
        <time>2022-09-07T14:54:10Z</time>
      </trkpt>
      <trkpt lat="42.345478" lon="1.962738">
        <ele>1455.3</ele>
        <time>2022-09-07T14:54:12Z</time>
      </trkpt>
      <trkpt lat="42.34552" lon="1.962673">
        <ele>1455.3</ele>
        <time>2022-09-07T14:54:14Z</time>
      </trkpt>
      <trkpt lat="42.345568" lon="1.962613">
        <ele>1455.5</ele>
        <time>2022-09-07T14:54:16Z</time>
      </trkpt>
      <trkpt lat="42.345858" lon="1.962394">
        <ele>1458.5</ele>
        <time>2022-09-07T14:54:27Z</time>
      </trkpt>
      <trkpt lat="42.345911" lon="1.962338">
        <ele>1459.3</ele>
        <time>2022-09-07T14:54:29Z</time>
      </trkpt>
      <trkpt lat="42.345947" lon="1.962265">
        <ele>1459.5</ele>
        <time>2022-09-07T14:54:31Z</time>
      </trkpt>
      <trkpt lat="42.345974" lon="1.96218">
        <ele>1459.3</ele>
        <time>2022-09-07T14:54:33Z</time>
      </trkpt>
      <trkpt lat="42.34598" lon="1.962091">
        <ele>1458.5</ele>
        <time>2022-09-07T14:54:35Z</time>
      </trkpt>
      <trkpt lat="42.345959" lon="1.96201">
        <ele>1457.3</ele>
        <time>2022-09-07T14:54:37Z</time>
      </trkpt>
      <trkpt lat="42.345905" lon="1.961958">
        <ele>1455.5</ele>
        <time>2022-09-07T14:54:39Z</time>
      </trkpt>
      <trkpt lat="42.345723" lon="1.961836">
        <ele>1450.8</ele>
        <time>2022-09-07T14:54:45Z</time>
      </trkpt>
      <trkpt lat="42.345672" lon="1.961776">
        <ele>1449.5</ele>
        <time>2022-09-07T14:54:47Z</time>
      </trkpt>
      <trkpt lat="42.345645" lon="1.961693">
        <ele>1448.5</ele>
        <time>2022-09-07T14:54:49Z</time>
      </trkpt>
      <trkpt lat="42.345642" lon="1.9616">
        <ele>1447.8</ele>
        <time>2022-09-07T14:54:51Z</time>
      </trkpt>
      <trkpt lat="42.34566" lon="1.961507">
        <ele>1447.5</ele>
        <time>2022-09-07T14:54:53Z</time>
      </trkpt>
      <trkpt lat="42.345741" lon="1.961401">
        <ele>1448.3</ele>
        <time>2022-09-07T14:54:57Z</time>
      </trkpt>
      <trkpt lat="42.345852" lon="1.961305">
        <ele>1449.5</ele>
        <time>2022-09-07T14:55:01Z</time>
      </trkpt>
      <trkpt lat="42.345956" lon="1.961255">
        <ele>1452.3</ele>
        <time>2022-09-07T14:55:04Z</time>
      </trkpt>
      <trkpt lat="42.346011" lon="1.961137">
        <ele>1453</ele>
        <time>2022-09-07T14:55:08Z</time>
      </trkpt>
      <trkpt lat="42.346003" lon="1.961017">
        <ele>1452.3</ele>
        <time>2022-09-07T14:55:10Z</time>
      </trkpt>
      <trkpt lat="42.345907" lon="1.960901">
        <ele>1449.3</ele>
        <time>2022-09-07T14:55:14Z</time>
      </trkpt>
      <trkpt lat="42.345834" lon="1.960767">
        <ele>1446.8</ele>
        <time>2022-09-07T14:55:18Z</time>
      </trkpt>
      <trkpt lat="42.345653" lon="1.960521">
        <ele>1443.5</ele>
        <time>2022-09-07T14:55:26Z</time>
      </trkpt>
      <trkpt lat="42.345588" lon="1.960249">
        <ele>1441.8</ele>
        <time>2022-09-07T14:55:33Z</time>
      </trkpt>
      <trkpt lat="42.345536" lon="1.959997">
        <ele>1440.8</ele>
        <time>2022-09-07T14:55:38Z</time>
      </trkpt>
      <trkpt lat="42.345515" lon="1.959921">
        <ele>1440.3</ele>
        <time>2022-09-07T14:55:40Z</time>
      </trkpt>
      <trkpt lat="42.345494" lon="1.95984">
        <ele>1439.8</ele>
        <time>2022-09-07T14:55:42Z</time>
      </trkpt>
      <trkpt lat="42.345522" lon="1.959588">
        <ele>1439.3</ele>
        <time>2022-09-07T14:55:48Z</time>
      </trkpt>
      <trkpt lat="42.345537" lon="1.959348">
        <ele>1438.5</ele>
        <time>2022-09-07T14:55:54Z</time>
      </trkpt>
      <trkpt lat="42.345501" lon="1.959161">
        <ele>1437.8</ele>
        <time>2022-09-07T14:55:58Z</time>
      </trkpt>
      <trkpt lat="42.345416" lon="1.958868">
        <ele>1436.3</ele>
        <time>2022-09-07T14:56:05Z</time>
      </trkpt>
      <trkpt lat="42.345403" lon="1.958652">
        <ele>1435.8</ele>
        <time>2022-09-07T14:56:10Z</time>
      </trkpt>
      <trkpt lat="42.345352" lon="1.958391">
        <ele>1434.3</ele>
        <time>2022-09-07T14:56:16Z</time>
      </trkpt>
      <trkpt lat="42.345302" lon="1.95806">
        <ele>1429.8</ele>
        <time>2022-09-07T14:56:24Z</time>
      </trkpt>
      <trkpt lat="42.345349" lon="1.957754">
        <ele>1426.3</ele>
        <time>2022-09-07T14:56:31Z</time>
      </trkpt>
      <trkpt lat="42.345507" lon="1.957595">
        <ele>1426.5</ele>
        <time>2022-09-07T14:56:37Z</time>
      </trkpt>
      <trkpt lat="42.34574" lon="1.957404">
        <ele>1427.5</ele>
        <time>2022-09-07T14:56:46Z</time>
      </trkpt>
      <trkpt lat="42.345899" lon="1.957224">
        <ele>1427.5</ele>
        <time>2022-09-07T14:56:52Z</time>
      </trkpt>
      <trkpt lat="42.346023" lon="1.956938">
        <ele>1426</ele>
        <time>2022-09-07T14:56:59Z</time>
      </trkpt>
      <trkpt lat="42.346154" lon="1.956738">
        <ele>1425.8</ele>
        <time>2022-09-07T14:57:06Z</time>
      </trkpt>
      <trkpt lat="42.346295" lon="1.956471">
        <ele>1425</ele>
        <time>2022-09-07T14:57:13Z</time>
      </trkpt>
      <trkpt lat="42.34651" lon="1.955815">
        <ele>1419.5</ele>
        <time>2022-09-07T14:57:29Z</time>
      </trkpt>
      <trkpt lat="42.346662" lon="1.955302">
        <ele>1415.3</ele>
        <time>2022-09-07T14:57:42Z</time>
      </trkpt>
      <trkpt lat="42.346689" lon="1.955093">
        <ele>1412.8</ele>
        <time>2022-09-07T14:57:47Z</time>
      </trkpt>
      <trkpt lat="42.346684" lon="1.954972">
        <ele>1411.8</ele>
        <time>2022-09-07T14:57:50Z</time>
      </trkpt>
      <trkpt lat="42.34665" lon="1.954817">
        <ele>1411.3</ele>
        <time>2022-09-07T14:57:53Z</time>
      </trkpt>
      <trkpt lat="42.346494" lon="1.954838">
        <ele>1412.5</ele>
        <time>2022-09-07T14:57:58Z</time>
      </trkpt>
      <trkpt lat="42.346345" lon="1.954659">
        <ele>1413.8</ele>
        <time>2022-09-07T14:58:04Z</time>
      </trkpt>
      <trkpt lat="42.346345" lon="1.954659">
        <ele>1413.8</ele>
        <time>2022-09-07T14:58:04Z</time>
      </trkpt>
      <trkpt lat="42.346288" lon="1.954734">
        <ele>1414</ele>
        <time>2022-09-07T14:58:07Z</time>
      </trkpt>
      <trkpt lat="42.346213" lon="1.954775">
        <ele>1414</ele>
        <time>2022-09-07T14:58:10Z</time>
      </trkpt>
      <trkpt lat="42.34613" lon="1.954803">
        <ele>1415</ele>
        <time>2022-09-07T14:58:13Z</time>
      </trkpt>
      <trkpt lat="42.346087" lon="1.954828">
        <ele>1415</ele>
        <time>2022-09-07T14:58:15Z</time>
      </trkpt>
      <trkpt lat="42.346063" lon="1.954735">
        <ele>1415.8</ele>
        <time>2022-09-07T14:58:18Z</time>
      </trkpt>
      <trkpt lat="42.346019" lon="1.954701">
        <ele>1416.3</ele>
        <time>2022-09-07T14:58:20Z</time>
      </trkpt>
      <trkpt lat="42.346002" lon="1.954687">
        <ele>1416.8</ele>
        <time>2022-09-07T14:58:21Z</time>
      </trkpt>
      <trkpt lat="42.345787" lon="1.954676">
        <ele>1419.8</ele>
        <time>2022-09-07T14:58:30Z</time>
      </trkpt>
      <trkpt lat="42.345748" lon="1.954706">
        <ele>1420.3</ele>
        <time>2022-09-07T14:58:32Z</time>
      </trkpt>
      <trkpt lat="42.345722" lon="1.954727">
        <ele>1421</ele>
        <time>2022-09-07T14:58:33Z</time>
      </trkpt>
      <trkpt lat="42.345482" lon="1.955011">
        <ele>1423.5</ele>
        <time>2022-09-07T14:59:56Z</time>
      </trkpt>
      <trkpt lat="42.345347" lon="1.955173">
        <ele>1425.3</ele>
        <time>2022-09-07T15:00:43Z</time>
      </trkpt>
      <trkpt lat="42.345122" lon="1.955375">
        <ele>1427.8</ele>
        <time>2022-09-07T15:01:54Z</time>
      </trkpt>
      <trkpt lat="42.34496" lon="1.955586">
        <ele>1427.8</ele>
        <time>2022-09-07T15:02:52Z</time>
      </trkpt>
      <trkpt lat="42.3449" lon="1.955666">
        <ele>1428</ele>
        <time>2022-09-07T15:03:14Z</time>
      </trkpt>
      <trkpt lat="42.344696" lon="1.956027">
        <ele>1426.5</ele>
        <time>2022-09-07T15:04:42Z</time>
      </trkpt>
      <trkpt lat="42.344591" lon="1.956157">
        <ele>1426.5</ele>
        <time>2022-09-07T15:05:19Z</time>
      </trkpt>
      <trkpt lat="42.344496" lon="1.956234">
        <ele>1426.5</ele>
        <time>2022-09-07T15:05:48Z</time>
      </trkpt>
      <trkpt lat="42.34447113060165" lon="1.956200748682022">
        <ele>1426.4</ele>
        <time>2022-09-07T15:05:57Z</time>
      </trkpt>
      <trkpt lat="42.344481" lon="1.956246">
        <ele>1426.5</ele>
        <time>2022-09-07T15:05:59Z</time>
      </trkpt>
      <trkpt lat="42.344444" lon="1.956277">
        <ele>1426.8</ele>
        <time>2022-09-07T15:06:01Z</time>
      </trkpt>
      <trkpt lat="42.344429" lon="1.956256">
        <ele>1427</ele>
        <time>2022-09-07T15:06:02Z</time>
      </trkpt>
      <trkpt lat="42.344421" lon="1.956245">
        <ele>1427.5</ele>
        <time>2022-09-07T15:06:02Z</time>
      </trkpt>
      <trkpt lat="42.344218" lon="1.955909">
        <ele>1435</ele>
        <time>2022-09-07T15:06:17Z</time>
      </trkpt>
      <trkpt lat="42.34418" lon="1.955846">
        <ele>1436.5</ele>
        <time>2022-09-07T15:06:20Z</time>
      </trkpt>
      <trkpt lat="42.344117" lon="1.955904">
        <ele>1436.8</ele>
        <time>2022-09-07T15:06:21Z</time>
      </trkpt>
      <trkpt lat="42.34408" lon="1.95594">
        <ele>1437.3</ele>
        <time>2022-09-07T15:06:22Z</time>
      </trkpt>
      <trkpt lat="42.344026" lon="1.955957">
        <ele>1438.5</ele>
        <time>2022-09-07T15:06:22Z</time>
      </trkpt>
      <trkpt lat="42.344058" lon="1.955898">
        <ele>1439</ele>
        <time>2022-09-07T15:06:24Z</time>
      </trkpt>
      <trkpt lat="42.344199" lon="1.955646">
        <ele>1441.8</ele>
        <time>2022-09-07T15:06:30Z</time>
      </trkpt>
      <trkpt lat="42.344288" lon="1.955457">
        <ele>1445</ele>
        <time>2022-09-07T15:06:34Z</time>
      </trkpt>
      <trkpt lat="42.344319" lon="1.95533">
        <ele>1447.5</ele>
        <time>2022-09-07T15:06:37Z</time>
      </trkpt>
      <trkpt lat="42.344332" lon="1.95528">
        <ele>1448.5</ele>
        <time>2022-09-07T15:06:38Z</time>
      </trkpt>
      <trkpt lat="42.344296" lon="1.955232">
        <ele>1450.8</ele>
        <time>2022-09-07T15:06:39Z</time>
      </trkpt>
      <trkpt lat="42.34433" lon="1.955202">
        <ele>1450.5</ele>
        <time>2022-09-07T15:06:40Z</time>
      </trkpt>
      <trkpt lat="42.344362" lon="1.955175">
        <ele>1450.5</ele>
        <time>2022-09-07T15:06:41Z</time>
      </trkpt>
      <trkpt lat="42.344764" lon="1.954314">
        <ele>1460.5</ele>
        <time>2022-09-07T15:07:07Z</time>
      </trkpt>
      <trkpt lat="42.344965" lon="1.953466">
        <ele>1469.8</ele>
        <time>2022-09-07T15:07:29Z</time>
      </trkpt>
      <trkpt lat="42.345111" lon="1.953025">
        <ele>1473.8</ele>
        <time>2022-09-07T15:07:41Z</time>
      </trkpt>
      <trkpt lat="42.345122" lon="1.952909">
        <ele>1476</ele>
        <time>2022-09-07T15:07:44Z</time>
      </trkpt>
      <trkpt lat="42.345172" lon="1.952652">
        <ele>1479.5</ele>
        <time>2022-09-07T15:07:51Z</time>
      </trkpt>
      <trkpt lat="42.34531" lon="1.952504">
        <ele>1477.3</ele>
        <time>2022-09-07T15:07:57Z</time>
      </trkpt>
      <trkpt lat="42.345375" lon="1.952417">
        <ele>1475.8</ele>
        <time>2022-09-07T15:08:00Z</time>
      </trkpt>
      <trkpt lat="42.345463" lon="1.95221">
        <ele>1475</ele>
        <time>2022-09-07T15:08:06Z</time>
      </trkpt>
      <trkpt lat="42.345494" lon="1.952099">
        <ele>1475.3</ele>
        <time>2022-09-07T15:08:09Z</time>
      </trkpt>
      <trkpt lat="42.345517" lon="1.951989">
        <ele>1475.5</ele>
        <time>2022-09-07T15:08:11Z</time>
      </trkpt>
      <trkpt lat="42.345531" lon="1.95187">
        <ele>1476.5</ele>
        <time>2022-09-07T15:08:14Z</time>
      </trkpt>
      <trkpt lat="42.345531" lon="1.951746">
        <ele>1478.3</ele>
        <time>2022-09-07T15:08:18Z</time>
      </trkpt>
      <trkpt lat="42.3455" lon="1.951268">
        <ele>1484.3</ele>
        <time>2022-09-07T15:08:29Z</time>
      </trkpt>
      <trkpt lat="42.3455" lon="1.951029">
        <ele>1486.5</ele>
        <time>2022-09-07T15:08:35Z</time>
      </trkpt>
      <trkpt lat="42.345531" lon="1.950794">
        <ele>1487.8</ele>
        <time>2022-09-07T15:08:41Z</time>
      </trkpt>
      <trkpt lat="42.345555" lon="1.950675">
        <ele>1488.8</ele>
        <time>2022-09-07T15:08:44Z</time>
      </trkpt>
      <trkpt lat="42.345589" lon="1.950555">
        <ele>1489.5</ele>
        <time>2022-09-07T15:08:48Z</time>
      </trkpt>
      <trkpt lat="42.345629" lon="1.950454">
        <ele>1489.8</ele>
        <time>2022-09-07T15:08:51Z</time>
      </trkpt>
      <trkpt lat="42.345735" lon="1.950266">
        <ele>1489.3</ele>
        <time>2022-09-07T15:08:56Z</time>
      </trkpt>
      <trkpt lat="42.345877" lon="1.950123">
        <ele>1486.3</ele>
        <time>2022-09-07T15:09:02Z</time>
      </trkpt>
      <trkpt lat="42.345935" lon="1.950031">
        <ele>1485.5</ele>
        <time>2022-09-07T15:09:05Z</time>
      </trkpt>
      <trkpt lat="42.346081" lon="1.949631">
        <ele>1485.8</ele>
        <time>2022-09-07T15:09:17Z</time>
      </trkpt>
      <trkpt lat="42.346103" lon="1.9495">
        <ele>1487</ele>
        <time>2022-09-07T15:09:20Z</time>
      </trkpt>
      <trkpt lat="42.3461" lon="1.94943">
        <ele>1465.2</ele>
        <time>2022-09-07T15:09:22Z</time>
      </trkpt>
      <trkpt lat="42.34611" lon="1.94937">
        <ele>1465.2</ele>
        <time>2022-09-07T15:09:23Z</time>
      </trkpt>
      <trkpt lat="42.34611" lon="1.94929">
        <ele>1465.2</ele>
        <time>2022-09-07T15:09:24Z</time>
      </trkpt>
      <trkpt lat="42.34611" lon="1.94922">
        <ele>1465.6</ele>
        <time>2022-09-07T15:09:25Z</time>
      </trkpt>
      <trkpt lat="42.34611" lon="1.94915">
        <ele>1465.6</ele>
        <time>2022-09-07T15:09:26Z</time>
      </trkpt>
      <trkpt lat="42.34612" lon="1.94908">
        <ele>1465.6</ele>
        <time>2022-09-07T15:09:27Z</time>
      </trkpt>
      <trkpt lat="42.34611" lon="1.94902">
        <ele>1465.2</ele>
        <time>2022-09-07T15:09:28Z</time>
      </trkpt>
      <trkpt lat="42.34611" lon="1.94897">
        <ele>1465</ele>
        <time>2022-09-07T15:09:29Z</time>
      </trkpt>
      <trkpt lat="42.3461" lon="1.94891">
        <ele>1465</ele>
        <time>2022-09-07T15:09:30Z</time>
      </trkpt>
      <trkpt lat="42.34609" lon="1.94885">
        <ele>1465</ele>
        <time>2022-09-07T15:09:31Z</time>
      </trkpt>
      <trkpt lat="42.34609" lon="1.94878">
        <ele>1465</ele>
        <time>2022-09-07T15:09:32Z</time>
      </trkpt>
      <trkpt lat="42.34608" lon="1.94872">
        <ele>1465</ele>
        <time>2022-09-07T15:09:33Z</time>
      </trkpt>
      <trkpt lat="42.34607" lon="1.94866">
        <ele>1466</ele>
        <time>2022-09-07T15:09:34Z</time>
      </trkpt>
      <trkpt lat="42.34608" lon="1.94861">
        <ele>1466</ele>
        <time>2022-09-07T15:09:35Z</time>
      </trkpt>
      <trkpt lat="42.34608" lon="1.94855">
        <ele>1466</ele>
        <time>2022-09-07T15:09:36Z</time>
      </trkpt>
      <trkpt lat="42.34611" lon="1.9485">
        <ele>1466.4</ele>
        <time>2022-09-07T15:09:37Z</time>
      </trkpt>
      <trkpt lat="42.34613" lon="1.94844">
        <ele>1465.2</ele>
        <time>2022-09-07T15:09:38Z</time>
      </trkpt>
      <trkpt lat="42.34617" lon="1.94838">
        <ele>1465.2</ele>
        <time>2022-09-07T15:09:39Z</time>
      </trkpt>
      <trkpt lat="42.3462" lon="1.94832">
        <ele>1465.2</ele>
        <time>2022-09-07T15:09:40Z</time>
      </trkpt>
      <trkpt lat="42.34623" lon="1.94826">
        <ele>1466.2</ele>
        <time>2022-09-07T15:09:41Z</time>
      </trkpt>
      <trkpt lat="42.34625" lon="1.94819">
        <ele>1467.4</ele>
        <time>2022-09-07T15:09:42Z</time>
      </trkpt>
      <trkpt lat="42.34626" lon="1.94812">
        <ele>1467.4</ele>
        <time>2022-09-07T15:09:43Z</time>
      </trkpt>
      <trkpt lat="42.34628" lon="1.94805">
        <ele>1467.4</ele>
        <time>2022-09-07T15:09:44Z</time>
      </trkpt>
      <trkpt lat="42.34628" lon="1.94799">
        <ele>1467.4</ele>
        <time>2022-09-07T15:09:45Z</time>
      </trkpt>
      <trkpt lat="42.34629" lon="1.94792">
        <ele>1466.6</ele>
        <time>2022-09-07T15:09:46Z</time>
      </trkpt>
      <trkpt lat="42.34629" lon="1.94786">
        <ele>1466.6</ele>
        <time>2022-09-07T15:09:47Z</time>
      </trkpt>
      <trkpt lat="42.34629" lon="1.9478">
        <ele>1466.6</ele>
        <time>2022-09-07T15:09:48Z</time>
      </trkpt>
      <trkpt lat="42.34629" lon="1.94775">
        <ele>1467.6</ele>
        <time>2022-09-07T15:09:49Z</time>
      </trkpt>
      <trkpt lat="42.34629" lon="1.9477">
        <ele>1468.4</ele>
        <time>2022-09-07T15:09:50Z</time>
      </trkpt>
      <trkpt lat="42.34629" lon="1.94765">
        <ele>1468.4</ele>
        <time>2022-09-07T15:09:51Z</time>
      </trkpt>
      <trkpt lat="42.3463" lon="1.94761">
        <ele>1468.4</ele>
        <time>2022-09-07T15:09:52Z</time>
      </trkpt>
      <trkpt lat="42.34631" lon="1.94758">
        <ele>1468.4</ele>
        <time>2022-09-07T15:09:53Z</time>
      </trkpt>
      <trkpt lat="42.3463" lon="1.94755">
        <ele>1468.4</ele>
        <time>2022-09-07T15:09:54Z</time>
      </trkpt>
      <trkpt lat="42.3463" lon="1.94753">
        <ele>1468.6</ele>
        <time>2022-09-07T15:09:55Z</time>
      </trkpt>
      <trkpt lat="42.34629" lon="1.94749">
        <ele>1468.6</ele>
        <time>2022-09-07T15:09:56Z</time>
      </trkpt>
      <trkpt lat="42.34629" lon="1.94744">
        <ele>1468.6</ele>
        <time>2022-09-07T15:09:57Z</time>
      </trkpt>
      <trkpt lat="42.34629" lon="1.94738">
        <ele>1468.6</ele>
        <time>2022-09-07T15:09:58Z</time>
      </trkpt>
      <trkpt lat="42.34629" lon="1.9473">
        <ele>1468.2</ele>
        <time>2022-09-07T15:09:59Z</time>
      </trkpt>
      <trkpt lat="42.34629" lon="1.94722">
        <ele>1468.2</ele>
        <time>2022-09-07T15:10:00Z</time>
      </trkpt>
      <trkpt lat="42.3463" lon="1.94715">
        <ele>1468.2</ele>
        <time>2022-09-07T15:10:01Z</time>
      </trkpt>
      <trkpt lat="42.34631" lon="1.94709">
        <ele>1468.2</ele>
        <time>2022-09-07T15:10:02Z</time>
      </trkpt>
      <trkpt lat="42.34633" lon="1.94702">
        <ele>1468.6</ele>
        <time>2022-09-07T15:10:03Z</time>
      </trkpt>
      <trkpt lat="42.34635" lon="1.94696">
        <ele>1468.6</ele>
        <time>2022-09-07T15:10:04Z</time>
      </trkpt>
      <trkpt lat="42.34637" lon="1.94689">
        <ele>1468.6</ele>
        <time>2022-09-07T15:10:05Z</time>
      </trkpt>
      <trkpt lat="42.34639" lon="1.94682">
        <ele>1467.6</ele>
        <time>2022-09-07T15:10:06Z</time>
      </trkpt>
      <trkpt lat="42.34642" lon="1.94675">
        <ele>1465.6</ele>
        <time>2022-09-07T15:10:07Z</time>
      </trkpt>
      <trkpt lat="42.34643" lon="1.94667">
        <ele>1465.6</ele>
        <time>2022-09-07T15:10:08Z</time>
      </trkpt>
      <trkpt lat="42.34643" lon="1.9466">
        <ele>1465.6</ele>
        <time>2022-09-07T15:10:09Z</time>
      </trkpt>
      <trkpt lat="42.34643" lon="1.94652">
        <ele>1465.6</ele>
        <time>2022-09-07T15:10:10Z</time>
      </trkpt>
      <trkpt lat="42.34641" lon="1.94645">
        <ele>1465.2</ele>
        <time>2022-09-07T15:10:11Z</time>
      </trkpt>
      <trkpt lat="42.34638" lon="1.94639">
        <ele>1465.2</ele>
        <time>2022-09-07T15:10:12Z</time>
      </trkpt>
      <trkpt lat="42.34635" lon="1.94633">
        <ele>1465.2</ele>
        <time>2022-09-07T15:10:13Z</time>
      </trkpt>
      <trkpt lat="42.34631" lon="1.94628">
        <ele>1465.2</ele>
        <time>2022-09-07T15:10:14Z</time>
      </trkpt>
      <trkpt lat="42.34627" lon="1.94623">
        <ele>1465.4</ele>
        <time>2022-09-07T15:10:15Z</time>
      </trkpt>
      <trkpt lat="42.34623" lon="1.94619">
        <ele>1464.4</ele>
        <time>2022-09-07T15:10:16Z</time>
      </trkpt>
      <trkpt lat="42.34618" lon="1.94615">
        <ele>1464.4</ele>
        <time>2022-09-07T15:10:17Z</time>
      </trkpt>
      <trkpt lat="42.34613" lon="1.94612">
        <ele>1464.4</ele>
        <time>2022-09-07T15:10:18Z</time>
      </trkpt>
      <trkpt lat="42.34608" lon="1.9461">
        <ele>1464.6</ele>
        <time>2022-09-07T15:10:19Z</time>
      </trkpt>
      <trkpt lat="42.34602" lon="1.94607">
        <ele>1464.2</ele>
        <time>2022-09-07T15:10:20Z</time>
      </trkpt>
      <trkpt lat="42.34597" lon="1.94604">
        <ele>1464.2</ele>
        <time>2022-09-07T15:10:21Z</time>
      </trkpt>
      <trkpt lat="42.34592" lon="1.946">
        <ele>1464.2</ele>
        <time>2022-09-07T15:10:22Z</time>
      </trkpt>
      <trkpt lat="42.34586" lon="1.94596">
        <ele>1464.2</ele>
        <time>2022-09-07T15:10:23Z</time>
      </trkpt>
      <trkpt lat="42.34582" lon="1.9459">
        <ele>1465.2</ele>
        <time>2022-09-07T15:10:24Z</time>
      </trkpt>
      <trkpt lat="42.3458" lon="1.94583">
        <ele>1465.2</ele>
        <time>2022-09-07T15:10:25Z</time>
      </trkpt>
      <trkpt lat="42.3458" lon="1.94575">
        <ele>1465.2</ele>
        <time>2022-09-07T15:10:26Z</time>
      </trkpt>
      <trkpt lat="42.34581" lon="1.94567">
        <ele>1464.2</ele>
        <time>2022-09-07T15:10:27Z</time>
      </trkpt>
      <trkpt lat="42.34582" lon="1.94558">
        <ele>1464.2</ele>
        <time>2022-09-07T15:10:28Z</time>
      </trkpt>
      <trkpt lat="42.34583" lon="1.94549">
        <ele>1460.4</ele>
        <time>2022-09-07T15:10:29Z</time>
      </trkpt>
      <trkpt lat="42.34585" lon="1.94541">
        <ele>1460.4</ele>
        <time>2022-09-07T15:10:30Z</time>
      </trkpt>
      <trkpt lat="42.34587" lon="1.94533">
        <ele>1460.4</ele>
        <time>2022-09-07T15:10:31Z</time>
      </trkpt>
      <trkpt lat="42.34588" lon="1.94525">
        <ele>1460.4</ele>
        <time>2022-09-07T15:10:32Z</time>
      </trkpt>
      <trkpt lat="42.34588" lon="1.94517">
        <ele>1459.4</ele>
        <time>2022-09-07T15:10:33Z</time>
      </trkpt>
      <trkpt lat="42.34586" lon="1.94507">
        <ele>1459.4</ele>
        <time>2022-09-07T15:10:34Z</time>
      </trkpt>
      <trkpt lat="42.34584" lon="1.94498">
        <ele>1459.4</ele>
        <time>2022-09-07T15:10:35Z</time>
      </trkpt>
      <trkpt lat="42.34581" lon="1.94488">
        <ele>1458.4</ele>
        <time>2022-09-07T15:10:36Z</time>
      </trkpt>
      <trkpt lat="42.34578" lon="1.94477">
        <ele>1456.8</ele>
        <time>2022-09-07T15:10:37Z</time>
      </trkpt>
      <trkpt lat="42.34575" lon="1.94467">
        <ele>1456.8</ele>
        <time>2022-09-07T15:10:38Z</time>
      </trkpt>
      <trkpt lat="42.34573" lon="1.94458">
        <ele>1456.8</ele>
        <time>2022-09-07T15:10:39Z</time>
      </trkpt>
      <trkpt lat="42.34571" lon="1.94448">
        <ele>1455.8</ele>
        <time>2022-09-07T15:10:40Z</time>
      </trkpt>
      <trkpt lat="42.3457" lon="1.94438">
        <ele>1455.2</ele>
        <time>2022-09-07T15:10:41Z</time>
      </trkpt>
      <trkpt lat="42.34571" lon="1.94429">
        <ele>1455.2</ele>
        <time>2022-09-07T15:10:42Z</time>
      </trkpt>
      <trkpt lat="42.34573" lon="1.9442">
        <ele>1455.2</ele>
        <time>2022-09-07T15:10:43Z</time>
      </trkpt>
      <trkpt lat="42.34576" lon="1.94412">
        <ele>1455.2</ele>
        <time>2022-09-07T15:10:44Z</time>
      </trkpt>
      <trkpt lat="42.34579" lon="1.94406">
        <ele>1455.2</ele>
        <time>2022-09-07T15:10:45Z</time>
      </trkpt>
      <trkpt lat="42.34584" lon="1.944">
        <ele>1453.6</ele>
        <time>2022-09-07T15:10:46Z</time>
      </trkpt>
      <trkpt lat="42.34587" lon="1.94394">
        <ele>1453.6</ele>
        <time>2022-09-07T15:10:47Z</time>
      </trkpt>
      <trkpt lat="42.34591" lon="1.94389">
        <ele>1453.6</ele>
        <time>2022-09-07T15:10:48Z</time>
      </trkpt>
      <trkpt lat="42.34594" lon="1.94383">
        <ele>1454.6</ele>
        <time>2022-09-07T15:10:49Z</time>
      </trkpt>
      <trkpt lat="42.34598" lon="1.94377">
        <ele>1457.4</ele>
        <time>2022-09-07T15:10:50Z</time>
      </trkpt>
      <trkpt lat="42.34601" lon="1.94371">
        <ele>1457.4</ele>
        <time>2022-09-07T15:10:51Z</time>
      </trkpt>
      <trkpt lat="42.34604" lon="1.94365">
        <ele>1457.4</ele>
        <time>2022-09-07T15:10:52Z</time>
      </trkpt>
      <trkpt lat="42.34607" lon="1.94359">
        <ele>1456.4</ele>
        <time>2022-09-07T15:10:53Z</time>
      </trkpt>
      <trkpt lat="42.34609" lon="1.94352">
        <ele>1456.4</ele>
        <time>2022-09-07T15:10:54Z</time>
      </trkpt>
      <trkpt lat="42.34612" lon="1.94344">
        <ele>1456.4</ele>
        <time>2022-09-07T15:10:55Z</time>
      </trkpt>
      <trkpt lat="42.34614" lon="1.94337">
        <ele>1456.4</ele>
        <time>2022-09-07T15:10:56Z</time>
      </trkpt>
      <trkpt lat="42.34616" lon="1.9433">
        <ele>1456.6</ele>
        <time>2022-09-07T15:10:57Z</time>
      </trkpt>
      <trkpt lat="42.34618" lon="1.94324">
        <ele>1457.2</ele>
        <time>2022-09-07T15:10:58Z</time>
      </trkpt>
      <trkpt lat="42.3462" lon="1.94318">
        <ele>1457.2</ele>
        <time>2022-09-07T15:10:59Z</time>
      </trkpt>
      <trkpt lat="42.34622" lon="1.94311">
        <ele>1457.2</ele>
        <time>2022-09-07T15:11:00Z</time>
      </trkpt>
      <trkpt lat="42.34622" lon="1.94304">
        <ele>1456.2</ele>
        <time>2022-09-07T15:11:01Z</time>
      </trkpt>
      <trkpt lat="42.34622" lon="1.94297">
        <ele>1456.2</ele>
        <time>2022-09-07T15:11:02Z</time>
      </trkpt>
      <trkpt lat="42.34622" lon="1.9429">
        <ele>1456</ele>
        <time>2022-09-07T15:11:03Z</time>
      </trkpt>
      <trkpt lat="42.34622" lon="1.94284">
        <ele>1456</ele>
        <time>2022-09-07T15:11:04Z</time>
      </trkpt>
      <trkpt lat="42.34621" lon="1.94278">
        <ele>1456</ele>
        <time>2022-09-07T15:11:05Z</time>
      </trkpt>
      <trkpt lat="42.34621" lon="1.94272">
        <ele>1456</ele>
        <time>2022-09-07T15:11:06Z</time>
      </trkpt>
      <trkpt lat="42.34621" lon="1.94265">
        <ele>1455.2</ele>
        <time>2022-09-07T15:11:07Z</time>
      </trkpt>
      <trkpt lat="42.34622" lon="1.94258">
        <ele>1455.2</ele>
        <time>2022-09-07T15:11:08Z</time>
      </trkpt>
      <trkpt lat="42.34623" lon="1.94251">
        <ele>1455.2</ele>
        <time>2022-09-07T15:11:09Z</time>
      </trkpt>
      <trkpt lat="42.34624" lon="1.94245">
        <ele>1455.2</ele>
        <time>2022-09-07T15:11:10Z</time>
      </trkpt>
      <trkpt lat="42.34626" lon="1.94238">
        <ele>1456</ele>
        <time>2022-09-07T15:11:11Z</time>
      </trkpt>
      <trkpt lat="42.34628" lon="1.94232">
        <ele>1456</ele>
        <time>2022-09-07T15:11:12Z</time>
      </trkpt>
      <trkpt lat="42.34629" lon="1.94226">
        <ele>1456</ele>
        <time>2022-09-07T15:11:13Z</time>
      </trkpt>
      <trkpt lat="42.34631" lon="1.94219">
        <ele>1455.2</ele>
        <time>2022-09-07T15:11:14Z</time>
      </trkpt>
      <trkpt lat="42.34632" lon="1.94212">
        <ele>1454</ele>
        <time>2022-09-07T15:11:15Z</time>
      </trkpt>
      <trkpt lat="42.34634" lon="1.94205">
        <ele>1454</ele>
        <time>2022-09-07T15:11:16Z</time>
      </trkpt>
      <trkpt lat="42.34634" lon="1.94198">
        <ele>1454</ele>
        <time>2022-09-07T15:11:17Z</time>
      </trkpt>
      <trkpt lat="42.34636" lon="1.9419">
        <ele>1455</ele>
        <time>2022-09-07T15:11:18Z</time>
      </trkpt>
      <trkpt lat="42.34637" lon="1.94183">
        <ele>1455</ele>
        <time>2022-09-07T15:11:19Z</time>
      </trkpt>
      <trkpt lat="42.34639" lon="1.94176">
        <ele>1457.8</ele>
        <time>2022-09-07T15:11:20Z</time>
      </trkpt>
      <trkpt lat="42.34641" lon="1.94169">
        <ele>1457.8</ele>
        <time>2022-09-07T15:11:21Z</time>
      </trkpt>
      <trkpt lat="42.34643" lon="1.94162">
        <ele>1457.8</ele>
        <time>2022-09-07T15:11:22Z</time>
      </trkpt>
      <trkpt lat="42.34645" lon="1.94154">
        <ele>1457.8</ele>
        <time>2022-09-07T15:11:23Z</time>
      </trkpt>
      <trkpt lat="42.34648" lon="1.94147">
        <ele>1456.8</ele>
        <time>2022-09-07T15:11:24Z</time>
      </trkpt>
      <trkpt lat="42.3465" lon="1.9414">
        <ele>1456.8</ele>
        <time>2022-09-07T15:11:25Z</time>
      </trkpt>
      <trkpt lat="42.34653" lon="1.94133">
        <ele>1456.8</ele>
        <time>2022-09-07T15:11:26Z</time>
      </trkpt>
      <trkpt lat="42.34655" lon="1.94126">
        <ele>1456.8</ele>
        <time>2022-09-07T15:11:27Z</time>
      </trkpt>
      <trkpt lat="42.34657" lon="1.94119">
        <ele>1459</ele>
        <time>2022-09-07T15:11:28Z</time>
      </trkpt>
      <trkpt lat="42.34659" lon="1.94112">
        <ele>1459</ele>
        <time>2022-09-07T15:11:29Z</time>
      </trkpt>
      <trkpt lat="42.34661" lon="1.94106">
        <ele>1459</ele>
        <time>2022-09-07T15:11:30Z</time>
      </trkpt>
      <trkpt lat="42.34663" lon="1.941">
        <ele>1459</ele>
        <time>2022-09-07T15:11:31Z</time>
      </trkpt>
      <trkpt lat="42.34665" lon="1.94096">
        <ele>1459.2</ele>
        <time>2022-09-07T15:11:32Z</time>
      </trkpt>
      <trkpt lat="42.34666" lon="1.94092">
        <ele>1459.2</ele>
        <time>2022-09-07T15:11:33Z</time>
      </trkpt>
      <trkpt lat="42.34667" lon="1.94089">
        <ele>1459.2</ele>
        <time>2022-09-07T15:11:34Z</time>
      </trkpt>
      <trkpt lat="42.34668" lon="1.94087">
        <ele>1459.8</ele>
        <time>2022-09-07T15:11:35Z</time>
      </trkpt>
      <trkpt lat="42.34669" lon="1.94084">
        <ele>1460.6</ele>
        <time>2022-09-07T15:11:36Z</time>
      </trkpt>
      <trkpt lat="42.34671" lon="1.94081">
        <ele>1460.6</ele>
        <time>2022-09-07T15:11:37Z</time>
      </trkpt>
      <trkpt lat="42.34675" lon="1.94076">
        <ele>1460.6</ele>
        <time>2022-09-07T15:11:38Z</time>
      </trkpt>
      <trkpt lat="42.34678" lon="1.9407">
        <ele>1460.6</ele>
        <time>2022-09-07T15:11:39Z</time>
      </trkpt>
      <trkpt lat="42.34682" lon="1.94064">
        <ele>1459.6</ele>
        <time>2022-09-07T15:11:40Z</time>
      </trkpt>
      <trkpt lat="42.34685" lon="1.94057">
        <ele>1458.4</ele>
        <time>2022-09-07T15:11:41Z</time>
      </trkpt>
      <trkpt lat="42.34688" lon="1.9405">
        <ele>1458.4</ele>
        <time>2022-09-07T15:11:42Z</time>
      </trkpt>
      <trkpt lat="42.3469" lon="1.94043">
        <ele>1458.4</ele>
        <time>2022-09-07T15:11:43Z</time>
      </trkpt>
      <trkpt lat="42.34693" lon="1.94036">
        <ele>1458.8</ele>
        <time>2022-09-07T15:11:44Z</time>
      </trkpt>
      <trkpt lat="42.34696" lon="1.94029">
        <ele>1460</ele>
        <time>2022-09-07T15:11:45Z</time>
      </trkpt>
      <trkpt lat="42.34699" lon="1.94023">
        <ele>1460</ele>
        <time>2022-09-07T15:11:46Z</time>
      </trkpt>
      <trkpt lat="42.34703" lon="1.94017">
        <ele>1460</ele>
        <time>2022-09-07T15:11:47Z</time>
      </trkpt>
      <trkpt lat="42.34708" lon="1.9401">
        <ele>1459</ele>
        <time>2022-09-07T15:11:48Z</time>
      </trkpt>
      <trkpt lat="42.34713" lon="1.94004">
        <ele>1460.2</ele>
        <time>2022-09-07T15:11:49Z</time>
      </trkpt>
      <trkpt lat="42.34718" lon="1.93998">
        <ele>1460.2</ele>
        <time>2022-09-07T15:11:50Z</time>
      </trkpt>
      <trkpt lat="42.34721" lon="1.93991">
        <ele>1460.2</ele>
        <time>2022-09-07T15:11:51Z</time>
      </trkpt>
      <trkpt lat="42.34724" lon="1.93984">
        <ele>1459.2</ele>
        <time>2022-09-07T15:11:52Z</time>
      </trkpt>
      <trkpt lat="42.34726" lon="1.93976">
        <ele>1455.4</ele>
        <time>2022-09-07T15:11:53Z</time>
      </trkpt>
      <trkpt lat="42.34726" lon="1.93968">
        <ele>1455.4</ele>
        <time>2022-09-07T15:11:54Z</time>
      </trkpt>
      <trkpt lat="42.34727" lon="1.93959">
        <ele>1455.4</ele>
        <time>2022-09-07T15:11:55Z</time>
      </trkpt>
      <trkpt lat="42.34727" lon="1.9395">
        <ele>1455.4</ele>
        <time>2022-09-07T15:11:56Z</time>
      </trkpt>
      <trkpt lat="42.34726" lon="1.93942">
        <ele>1455.6</ele>
        <time>2022-09-07T15:11:57Z</time>
      </trkpt>
      <trkpt lat="42.34725" lon="1.93935">
        <ele>1455.6</ele>
        <time>2022-09-07T15:11:58Z</time>
      </trkpt>
      <trkpt lat="42.34724" lon="1.93928">
        <ele>1455.6</ele>
        <time>2022-09-07T15:11:59Z</time>
      </trkpt>
      <trkpt lat="42.34723" lon="1.93922">
        <ele>1456</ele>
        <time>2022-09-07T15:12:00Z</time>
      </trkpt>
      <trkpt lat="42.34722" lon="1.93914">
        <ele>1456</ele>
        <time>2022-09-07T15:12:01Z</time>
      </trkpt>
      <trkpt lat="42.34721" lon="1.93907">
        <ele>1456</ele>
        <time>2022-09-07T15:12:02Z</time>
      </trkpt>
      <trkpt lat="42.34721" lon="1.93899">
        <ele>1456</ele>
        <time>2022-09-07T15:12:03Z</time>
      </trkpt>
      <trkpt lat="42.34721" lon="1.93891">
        <ele>1456</ele>
        <time>2022-09-07T15:12:04Z</time>
      </trkpt>
      <trkpt lat="42.34721" lon="1.93883">
        <ele>1458.2</ele>
        <time>2022-09-07T15:12:05Z</time>
      </trkpt>
      <trkpt lat="42.34721" lon="1.93877">
        <ele>1458.2</ele>
        <time>2022-09-07T15:12:06Z</time>
      </trkpt>
      <trkpt lat="42.3472" lon="1.9387">
        <ele>1458.2</ele>
        <time>2022-09-07T15:12:07Z</time>
      </trkpt>
      <trkpt lat="42.3472" lon="1.93863">
        <ele>1458.2</ele>
        <time>2022-09-07T15:12:08Z</time>
      </trkpt>
      <trkpt lat="42.3472" lon="1.93857">
        <ele>1458.2</ele>
        <time>2022-09-07T15:12:09Z</time>
      </trkpt>
      <trkpt lat="42.3472" lon="1.9385">
        <ele>1458</ele>
        <time>2022-09-07T15:12:10Z</time>
      </trkpt>
      <trkpt lat="42.3472" lon="1.93844">
        <ele>1458</ele>
        <time>2022-09-07T15:12:11Z</time>
      </trkpt>
      <trkpt lat="42.34721" lon="1.93838">
        <ele>1458</ele>
        <time>2022-09-07T15:12:12Z</time>
      </trkpt>
      <trkpt lat="42.3472" lon="1.93832">
        <ele>1458</ele>
        <time>2022-09-07T15:12:13Z</time>
      </trkpt>
      <trkpt lat="42.3472" lon="1.93826">
        <ele>1458.2</ele>
        <time>2022-09-07T15:12:14Z</time>
      </trkpt>
      <trkpt lat="42.34719" lon="1.9382">
        <ele>1458.2</ele>
        <time>2022-09-07T15:12:15Z</time>
      </trkpt>
      <trkpt lat="42.34718" lon="1.93812">
        <ele>1458.2</ele>
        <time>2022-09-07T15:12:16Z</time>
      </trkpt>
      <trkpt lat="42.34717" lon="1.93804">
        <ele>1458.2</ele>
        <time>2022-09-07T15:12:17Z</time>
      </trkpt>
      <trkpt lat="42.34716" lon="1.93796">
        <ele>1458.6</ele>
        <time>2022-09-07T15:12:18Z</time>
      </trkpt>
      <trkpt lat="42.34714" lon="1.93788">
        <ele>1458.6</ele>
        <time>2022-09-07T15:12:19Z</time>
      </trkpt>
      <trkpt lat="42.34712" lon="1.93781">
        <ele>1458.6</ele>
        <time>2022-09-07T15:12:20Z</time>
      </trkpt>
      <trkpt lat="42.34711" lon="1.93773">
        <ele>1457.6</ele>
        <time>2022-09-07T15:12:21Z</time>
      </trkpt>
      <trkpt lat="42.34709" lon="1.93765">
        <ele>1459.2</ele>
        <time>2022-09-07T15:12:22Z</time>
      </trkpt>
      <trkpt lat="42.34707" lon="1.93757">
        <ele>1459.2</ele>
        <time>2022-09-07T15:12:23Z</time>
      </trkpt>
      <trkpt lat="42.34705" lon="1.93749">
        <ele>1459.2</ele>
        <time>2022-09-07T15:12:24Z</time>
      </trkpt>
      <trkpt lat="42.34703" lon="1.93741">
        <ele>1459.2</ele>
        <time>2022-09-07T15:12:25Z</time>
      </trkpt>
      <trkpt lat="42.34702" lon="1.93734">
        <ele>1459.8</ele>
        <time>2022-09-07T15:12:26Z</time>
      </trkpt>
      <trkpt lat="42.347" lon="1.93727">
        <ele>1459.8</ele>
        <time>2022-09-07T15:12:27Z</time>
      </trkpt>
      <trkpt lat="42.34698" lon="1.9372">
        <ele>1459.8</ele>
        <time>2022-09-07T15:12:28Z</time>
      </trkpt>
      <trkpt lat="42.34696" lon="1.93713">
        <ele>1459.8</ele>
        <time>2022-09-07T15:12:29Z</time>
      </trkpt>
      <trkpt lat="42.34693" lon="1.93706">
        <ele>1459.8</ele>
        <time>2022-09-07T15:12:30Z</time>
      </trkpt>
      <trkpt lat="42.3469" lon="1.93699">
        <ele>1458.4</ele>
        <time>2022-09-07T15:12:31Z</time>
      </trkpt>
      <trkpt lat="42.34687" lon="1.93692">
        <ele>1458.4</ele>
        <time>2022-09-07T15:12:32Z</time>
      </trkpt>
      <trkpt lat="42.34685" lon="1.93686">
        <ele>1458.4</ele>
        <time>2022-09-07T15:12:33Z</time>
      </trkpt>
      <trkpt lat="42.346859" lon="1.936762">
        <ele>1485.5</ele>
        <time>2022-09-07T15:12:34Z</time>
      </trkpt>
      <trkpt lat="42.346815" lon="1.936665">
        <ele>1485.8</ele>
        <time>2022-09-07T15:12:36Z</time>
      </trkpt>
      <trkpt lat="42.346669" lon="1.936389">
        <ele>1483.5</ele>
        <time>2022-09-07T15:12:42Z</time>
      </trkpt>
      <trkpt lat="42.346615" lon="1.936302">
        <ele>1481.5</ele>
        <time>2022-09-07T15:12:44Z</time>
      </trkpt>
      <trkpt lat="42.34655" lon="1.936229">
        <ele>1479.8</ele>
        <time>2022-09-07T15:12:46Z</time>
      </trkpt>
      <trkpt lat="42.346535" lon="1.936223">
        <ele>1479.5</ele>
        <time>2022-09-07T15:12:46Z</time>
      </trkpt>
      <trkpt lat="42.346472" lon="1.936196">
        <ele>1479</ele>
        <time>2022-09-07T15:12:48Z</time>
      </trkpt>
      <trkpt lat="42.346387" lon="1.936183">
        <ele>1478.8</ele>
        <time>2022-09-07T15:12:50Z</time>
      </trkpt>
      <trkpt lat="42.346302" lon="1.936183">
        <ele>1478.8</ele>
        <time>2022-09-07T15:12:51Z</time>
      </trkpt>
      <trkpt lat="42.346217" lon="1.936196">
        <ele>1479</ele>
        <time>2022-09-07T15:12:53Z</time>
      </trkpt>
      <trkpt lat="42.346139" lon="1.936238">
        <ele>1480</ele>
        <time>2022-09-07T15:12:55Z</time>
      </trkpt>
      <trkpt lat="42.34599" lon="1.936334">
        <ele>1482.8</ele>
        <time>2022-09-07T15:12:59Z</time>
      </trkpt>
      <trkpt lat="42.345918" lon="1.936385">
        <ele>1484.3</ele>
        <time>2022-09-07T15:13:01Z</time>
      </trkpt>
      <trkpt lat="42.345847" lon="1.936449">
        <ele>1486.3</ele>
        <time>2022-09-07T15:13:03Z</time>
      </trkpt>
      <trkpt lat="42.345769" lon="1.936495">
        <ele>1488</ele>
        <time>2022-09-07T15:13:05Z</time>
      </trkpt>
      <trkpt lat="42.345687" lon="1.936518">
        <ele>1489.3</ele>
        <time>2022-09-07T15:13:07Z</time>
      </trkpt>
      <trkpt lat="42.345602" lon="1.936523">
        <ele>1489.8</ele>
        <time>2022-09-07T15:13:09Z</time>
      </trkpt>
      <trkpt lat="42.345293" lon="1.936481">
        <ele>1490.5</ele>
        <time>2022-09-07T15:13:16Z</time>
      </trkpt>
      <trkpt lat="42.345069" lon="1.936445">
        <ele>1491</ele>
        <time>2022-09-07T15:13:21Z</time>
      </trkpt>
      <trkpt lat="42.344991" lon="1.936417">
        <ele>1491</ele>
        <time>2022-09-07T15:13:23Z</time>
      </trkpt>
      <trkpt lat="42.344834" lon="1.936307">
        <ele>1491</ele>
        <time>2022-09-07T15:13:27Z</time>
      </trkpt>
      <trkpt lat="42.344688" lon="1.936178">
        <ele>1490.5</ele>
        <time>2022-09-07T15:13:31Z</time>
      </trkpt>
      <trkpt lat="42.344614" lon="1.936127">
        <ele>1490.5</ele>
        <time>2022-09-07T15:13:32Z</time>
      </trkpt>
      <trkpt lat="42.344532" lon="1.936086">
        <ele>1491</ele>
        <time>2022-09-07T15:13:34Z</time>
      </trkpt>
      <trkpt lat="42.344372" lon="1.936026">
        <ele>1492</ele>
        <time>2022-09-07T15:13:38Z</time>
      </trkpt>
      <trkpt lat="42.344288" lon="1.936008">
        <ele>1492.8</ele>
        <time>2022-09-07T15:13:40Z</time>
      </trkpt>
      <trkpt lat="42.344203" lon="1.936008">
        <ele>1494</ele>
        <time>2022-09-07T15:13:42Z</time>
      </trkpt>
      <trkpt lat="42.344121" lon="1.935989">
        <ele>1495</ele>
        <time>2022-09-07T15:13:44Z</time>
      </trkpt>
      <trkpt lat="42.343871" lon="1.935875">
        <ele>1497.3</ele>
        <time>2022-09-07T15:13:54Z</time>
      </trkpt>
      <trkpt lat="42.343785" lon="1.935836">
        <ele>1498.3</ele>
        <time>2022-09-07T15:13:57Z</time>
      </trkpt>
      <trkpt lat="42.343735" lon="1.935822">
        <ele>1499.3</ele>
        <time>2022-09-07T15:13:59Z</time>
      </trkpt>
      <trkpt lat="42.343681" lon="1.93583">
        <ele>1500.3</ele>
        <time>2022-09-07T15:14:01Z</time>
      </trkpt>
      <trkpt lat="42.343629" lon="1.935863">
        <ele>1501.8</ele>
        <time>2022-09-07T15:14:03Z</time>
      </trkpt>
      <trkpt lat="42.343538" lon="1.935948">
        <ele>1504.8</ele>
        <time>2022-09-07T15:14:07Z</time>
      </trkpt>
      <trkpt lat="42.343431" lon="1.936107">
        <ele>1509.3</ele>
        <time>2022-09-07T15:14:13Z</time>
      </trkpt>
      <trkpt lat="42.343232" lon="1.936405">
        <ele>1518</ele>
        <time>2022-09-07T15:14:25Z</time>
      </trkpt>
      <trkpt lat="42.343133" lon="1.936523">
        <ele>1522.8</ele>
        <time>2022-09-07T15:14:30Z</time>
      </trkpt>
      <trkpt lat="42.343055" lon="1.936664">
        <ele>1527.3</ele>
        <time>2022-09-07T15:14:34Z</time>
      </trkpt>
      <trkpt lat="42.343009" lon="1.936613">
        <ele>1527.8</ele>
        <time>2022-09-07T15:14:37Z</time>
      </trkpt>
      <trkpt lat="42.34298" lon="1.936519">
        <ele>1527</ele>
        <time>2022-09-07T15:14:40Z</time>
      </trkpt>
      <trkpt lat="42.342949" lon="1.936284">
        <ele>1524</ele>
        <time>2022-09-07T15:14:46Z</time>
      </trkpt>
      <trkpt lat="42.342947" lon="1.936265">
        <ele>1523.8</ele>
        <time>2022-09-07T15:14:47Z</time>
      </trkpt>
      <trkpt lat="42.342928" lon="1.936172">
        <ele>1522.8</ele>
        <time>2022-09-07T15:14:52Z</time>
      </trkpt>
      <trkpt lat="42.342892" lon="1.936082">
        <ele>1522.3</ele>
        <time>2022-09-07T15:14:58Z</time>
      </trkpt>
      <trkpt lat="42.342845" lon="1.936005">
        <ele>1522.3</ele>
        <time>2022-09-07T15:15:03Z</time>
      </trkpt>
      <trkpt lat="42.342781" lon="1.935947">
        <ele>1522.8</ele>
        <time>2022-09-07T15:15:09Z</time>
      </trkpt>
      <trkpt lat="42.342645" lon="1.935866">
        <ele>1524.8</ele>
        <time>2022-09-07T15:15:21Z</time>
      </trkpt>
      <trkpt lat="42.34261" lon="1.935791">
        <ele>1525.5</ele>
        <time>2022-09-07T15:15:26Z</time>
      </trkpt>
      <trkpt lat="42.34258" lon="1.93576">
        <ele>1495</ele>
        <time>2022-09-07T15:15:28Z</time>
      </trkpt>
      <trkpt lat="42.34256" lon="1.93573">
        <ele>1495</ele>
        <time>2022-09-07T15:15:29Z</time>
      </trkpt>
      <trkpt lat="42.34253" lon="1.93567">
        <ele>1495</ele>
        <time>2022-09-07T15:15:30Z</time>
      </trkpt>
      <trkpt lat="42.34251" lon="1.93562">
        <ele>1496</ele>
        <time>2022-09-07T15:15:31Z</time>
      </trkpt>
      <trkpt lat="42.34249" lon="1.93558">
        <ele>1496</ele>
        <time>2022-09-07T15:15:32Z</time>
      </trkpt>
      <trkpt lat="42.34246" lon="1.93554">
        <ele>1496.4</ele>
        <time>2022-09-07T15:15:33Z</time>
      </trkpt>
      <trkpt lat="42.34245" lon="1.9355">
        <ele>1496.4</ele>
        <time>2022-09-07T15:15:34Z</time>
      </trkpt>
      <trkpt lat="42.34243" lon="1.93546">
        <ele>1496.4</ele>
        <time>2022-09-07T15:15:35Z</time>
      </trkpt>
      <trkpt lat="42.34241" lon="1.93542">
        <ele>1497.4</ele>
        <time>2022-09-07T15:15:36Z</time>
      </trkpt>
      <trkpt lat="42.34239" lon="1.93538">
        <ele>1500</ele>
        <time>2022-09-07T15:15:37Z</time>
      </trkpt>
      <trkpt lat="42.34237" lon="1.93534">
        <ele>1500</ele>
        <time>2022-09-07T15:15:38Z</time>
      </trkpt>
      <trkpt lat="42.34236" lon="1.9353">
        <ele>1500</ele>
        <time>2022-09-07T15:15:39Z</time>
      </trkpt>
      <trkpt lat="42.34233" lon="1.93526">
        <ele>1500</ele>
        <time>2022-09-07T15:15:40Z</time>
      </trkpt>
      <trkpt lat="42.34231" lon="1.93523">
        <ele>1501.8</ele>
        <time>2022-09-07T15:15:41Z</time>
      </trkpt>
      <trkpt lat="42.34228" lon="1.9352">
        <ele>1501.8</ele>
        <time>2022-09-07T15:15:42Z</time>
      </trkpt>
      <trkpt lat="42.34226" lon="1.93518">
        <ele>1501.8</ele>
        <time>2022-09-07T15:15:43Z</time>
      </trkpt>
      <trkpt lat="42.34223" lon="1.93515">
        <ele>1502.4</ele>
        <time>2022-09-07T15:15:44Z</time>
      </trkpt>
      <trkpt lat="42.34221" lon="1.93512">
        <ele>1503.6</ele>
        <time>2022-09-07T15:15:45Z</time>
      </trkpt>
      <trkpt lat="42.34218" lon="1.93508">
        <ele>1503.6</ele>
        <time>2022-09-07T15:15:46Z</time>
      </trkpt>
      <trkpt lat="42.34216" lon="1.93503">
        <ele>1503.6</ele>
        <time>2022-09-07T15:15:47Z</time>
      </trkpt>
      <trkpt lat="42.34215580873695" lon="1.934994999469298">
        <ele>1503.6</ele>
        <time>2022-09-07T15:15:48Z</time>
      </trkpt>
      <trkpt lat="42.34215" lon="1.93497">
        <ele>1503.6</ele>
        <time>2022-09-07T15:15:48Z</time>
      </trkpt>
      <trkpt lat="42.34213" lon="1.93491">
        <ele>1506</ele>
        <time>2022-09-07T15:15:49Z</time>
      </trkpt>
      <trkpt lat="42.34213" lon="1.93486">
        <ele>1506</ele>
        <time>2022-09-07T15:15:50Z</time>
      </trkpt>
      <trkpt lat="42.34212" lon="1.93482">
        <ele>1506</ele>
        <time>2022-09-07T15:15:51Z</time>
      </trkpt>
      <trkpt lat="42.34212" lon="1.93478">
        <ele>1506</ele>
        <time>2022-09-07T15:15:52Z</time>
      </trkpt>
      <trkpt lat="42.34213" lon="1.93473">
        <ele>1506</ele>
        <time>2022-09-07T15:15:53Z</time>
      </trkpt>
      <trkpt lat="42.34215" lon="1.9347">
        <ele>1505.2</ele>
        <time>2022-09-07T15:15:54Z</time>
      </trkpt>
      <trkpt lat="42.34217" lon="1.93466">
        <ele>1505.2</ele>
        <time>2022-09-07T15:15:55Z</time>
      </trkpt>
      <trkpt lat="42.34219" lon="1.93464">
        <ele>1505.2</ele>
        <time>2022-09-07T15:15:56Z</time>
      </trkpt>
      <trkpt lat="42.34222" lon="1.93461">
        <ele>1506.2</ele>
        <time>2022-09-07T15:15:57Z</time>
      </trkpt>
      <trkpt lat="42.34224" lon="1.93459">
        <ele>1507</ele>
        <time>2022-09-07T15:15:58Z</time>
      </trkpt>
      <trkpt lat="42.34228" lon="1.93456">
        <ele>1507</ele>
        <time>2022-09-07T15:15:59Z</time>
      </trkpt>
      <trkpt lat="42.3423" lon="1.93453">
        <ele>1507</ele>
        <time>2022-09-07T15:16:00Z</time>
      </trkpt>
      <trkpt lat="42.34231" lon="1.93449">
        <ele>1508</ele>
        <time>2022-09-07T15:16:01Z</time>
      </trkpt>
      <trkpt lat="42.34232" lon="1.93445">
        <ele>1509.8</ele>
        <time>2022-09-07T15:16:02Z</time>
      </trkpt>
      <trkpt lat="42.34233" lon="1.93441">
        <ele>1509.8</ele>
        <time>2022-09-07T15:16:03Z</time>
      </trkpt>
      <trkpt lat="42.34233" lon="1.93437">
        <ele>1509.8</ele>
        <time>2022-09-07T15:16:04Z</time>
      </trkpt>
      <trkpt lat="42.34234" lon="1.93434">
        <ele>1510.8</ele>
        <time>2022-09-07T15:16:05Z</time>
      </trkpt>
      <trkpt lat="42.34234" lon="1.9343">
        <ele>1510.8</ele>
        <time>2022-09-07T15:16:06Z</time>
      </trkpt>
      <trkpt lat="42.34233" lon="1.93426">
        <ele>1511.8</ele>
        <time>2022-09-07T15:16:07Z</time>
      </trkpt>
      <trkpt lat="42.34233" lon="1.93421">
        <ele>1511.8</ele>
        <time>2022-09-07T15:16:08Z</time>
      </trkpt>
      <trkpt lat="42.34233" lon="1.93417">
        <ele>1511.8</ele>
        <time>2022-09-07T15:16:09Z</time>
      </trkpt>
      <trkpt lat="42.34233" lon="1.93413">
        <ele>1511.8</ele>
        <time>2022-09-07T15:16:10Z</time>
      </trkpt>
      <trkpt lat="42.34232" lon="1.93409">
        <ele>1510</ele>
        <time>2022-09-07T15:16:11Z</time>
      </trkpt>
      <trkpt lat="42.34231" lon="1.93404">
        <ele>1510</ele>
        <time>2022-09-07T15:16:12Z</time>
      </trkpt>
      <trkpt lat="42.3423" lon="1.93397">
        <ele>1510</ele>
        <time>2022-09-07T15:16:13Z</time>
      </trkpt>
      <trkpt lat="42.342273" lon="1.933912">
        <ele>1535.3</ele>
        <time>2022-09-07T15:16:15Z</time>
      </trkpt>
      <trkpt lat="42.342243" lon="1.933805">
        <ele>1535.3</ele>
        <time>2022-09-07T15:16:17Z</time>
      </trkpt>
      <trkpt lat="42.342207" lon="1.933757">
        <ele>1535.8</ele>
        <time>2022-09-07T15:16:18Z</time>
      </trkpt>
      <trkpt lat="42.342022" lon="1.933609">
        <ele>1540.5</ele>
        <time>2022-09-07T15:16:24Z</time>
      </trkpt>
      <trkpt lat="42.341748" lon="1.933434">
        <ele>1548</ele>
        <time>2022-09-07T15:16:32Z</time>
      </trkpt>
      <trkpt lat="42.341615" lon="1.933302">
        <ele>1551.8</ele>
        <time>2022-09-07T15:16:36Z</time>
      </trkpt>
      <trkpt lat="42.34154" lon="1.933207">
        <ele>1553.5</ele>
        <time>2022-09-07T15:16:39Z</time>
      </trkpt>
      <trkpt lat="42.341284" lon="1.932922">
        <ele>1559.5</ele>
        <time>2022-09-07T15:16:48Z</time>
      </trkpt>
      <trkpt lat="42.34117" lon="1.932768">
        <ele>1561.3</ele>
        <time>2022-09-07T15:16:52Z</time>
      </trkpt>
      <trkpt lat="42.341102" lon="1.932656">
        <ele>1562</ele>
        <time>2022-09-07T15:16:55Z</time>
      </trkpt>
      <trkpt lat="42.341023" lon="1.932547">
        <ele>1562.8</ele>
        <time>2022-09-07T15:16:58Z</time>
      </trkpt>
      <trkpt lat="42.340899" lon="1.932315">
        <ele>1565.3</ele>
        <time>2022-09-07T15:17:03Z</time>
      </trkpt>
      <trkpt lat="42.340782" lon="1.932017">
        <ele>1567</ele>
        <time>2022-09-07T15:17:10Z</time>
      </trkpt>
      <trkpt lat="42.340647" lon="1.931772">
        <ele>1571.8</ele>
        <time>2022-09-07T15:17:16Z</time>
      </trkpt>
      <trkpt lat="42.340521" lon="1.93146">
        <ele>1579.8</ele>
        <time>2022-09-07T15:17:23Z</time>
      </trkpt>
      <trkpt lat="42.340435" lon="1.931299">
        <ele>1584.8</ele>
        <time>2022-09-07T15:17:26Z</time>
      </trkpt>
      <trkpt lat="42.34038" lon="1.931222">
        <ele>1587</ele>
        <time>2022-09-07T15:17:28Z</time>
      </trkpt>
      <trkpt lat="42.34028" lon="1.931036">
        <ele>1590.3</ele>
        <time>2022-09-07T15:17:33Z</time>
      </trkpt>
      <trkpt lat="42.340242" lon="1.930949">
        <ele>1591</ele>
        <time>2022-09-07T15:17:35Z</time>
      </trkpt>
      <trkpt lat="42.340198" lon="1.930787">
        <ele>1592.5</ele>
        <time>2022-09-07T15:17:38Z</time>
      </trkpt>
      <trkpt lat="42.340162" lon="1.930656">
        <ele>1593.8</ele>
        <time>2022-09-07T15:17:41Z</time>
      </trkpt>
      <trkpt lat="42.340114" lon="1.930585">
        <ele>1594.8</ele>
        <time>2022-09-07T15:17:43Z</time>
      </trkpt>
      <trkpt lat="42.34001" lon="1.930559">
        <ele>1595.3</ele>
        <time>2022-09-07T15:17:46Z</time>
      </trkpt>
      <trkpt lat="42.339965" lon="1.930582">
        <ele>1595.3</ele>
        <time>2022-09-07T15:17:48Z</time>
      </trkpt>
      <trkpt lat="42.339914" lon="1.930591">
        <ele>1595.5</ele>
        <time>2022-09-07T15:17:49Z</time>
      </trkpt>
      <trkpt lat="42.33981" lon="1.930587">
        <ele>1596</ele>
        <time>2022-09-07T15:17:52Z</time>
      </trkpt>
      <trkpt lat="42.339789" lon="1.930579">
        <ele>1596</ele>
        <time>2022-09-07T15:17:53Z</time>
      </trkpt>
      <trkpt lat="42.339513" lon="1.930475">
        <ele>1597.5</ele>
        <time>2022-09-07T15:18:01Z</time>
      </trkpt>
      <trkpt lat="42.339467" lon="1.930443">
        <ele>1597.8</ele>
        <time>2022-09-07T15:18:02Z</time>
      </trkpt>
      <trkpt lat="42.339316" lon="1.930259">
        <ele>1598.3</ele>
        <time>2022-09-07T15:18:08Z</time>
      </trkpt>
      <trkpt lat="42.33925" lon="1.930157">
        <ele>1598.3</ele>
        <time>2022-09-07T15:18:11Z</time>
      </trkpt>
      <trkpt lat="42.339225" lon="1.930098">
        <ele>1598</ele>
        <time>2022-09-07T15:18:12Z</time>
      </trkpt>
      <trkpt lat="42.339186" lon="1.930052">
        <ele>1598</ele>
        <time>2022-09-07T15:18:13Z</time>
      </trkpt>
      <trkpt lat="42.339137" lon="1.930041">
        <ele>1598.3</ele>
        <time>2022-09-07T15:18:15Z</time>
      </trkpt>
      <trkpt lat="42.33883" lon="1.930023">
        <ele>1601.3</ele>
        <time>2022-09-07T15:18:23Z</time>
      </trkpt>
      <trkpt lat="42.338729" lon="1.929988">
        <ele>1602.5</ele>
        <time>2022-09-07T15:18:26Z</time>
      </trkpt>
      <trkpt lat="42.338623" lon="1.929988">
        <ele>1603.5</ele>
        <time>2022-09-07T15:18:29Z</time>
      </trkpt>
      <trkpt lat="42.338423" lon="1.930025">
        <ele>1605.3</ele>
        <time>2022-09-07T15:18:35Z</time>
      </trkpt>
      <trkpt lat="42.338315" lon="1.930086">
        <ele>1607</ele>
        <time>2022-09-07T15:18:38Z</time>
      </trkpt>
      <trkpt lat="42.338119" lon="1.930155">
        <ele>1610.5</ele>
        <time>2022-09-07T15:18:44Z</time>
      </trkpt>
      <trkpt lat="42.33807" lon="1.930161">
        <ele>1611.3</ele>
        <time>2022-09-07T15:18:45Z</time>
      </trkpt>
      <trkpt lat="42.337976" lon="1.930225">
        <ele>1613.8</ele>
        <time>2022-09-07T15:18:48Z</time>
      </trkpt>
      <trkpt lat="42.337927" lon="1.930248">
        <ele>1614.8</ele>
        <time>2022-09-07T15:18:50Z</time>
      </trkpt>
      <trkpt lat="42.337878" lon="1.930257">
        <ele>1615.8</ele>
        <time>2022-09-07T15:18:51Z</time>
      </trkpt>
      <trkpt lat="42.337831" lon="1.930234">
        <ele>1616</ele>
        <time>2022-09-07T15:18:52Z</time>
      </trkpt>
      <trkpt lat="42.337802" lon="1.930177">
        <ele>1615.5</ele>
        <time>2022-09-07T15:18:54Z</time>
      </trkpt>
      <trkpt lat="42.337799" lon="1.930104">
        <ele>1614.3</ele>
        <time>2022-09-07T15:18:55Z</time>
      </trkpt>
      <trkpt lat="42.337777" lon="1.930043">
        <ele>1613.3</ele>
        <time>2022-09-07T15:18:57Z</time>
      </trkpt>
      <trkpt lat="42.337717" lon="1.929918">
        <ele>1614</ele>
        <time>2022-09-07T15:19:00Z</time>
      </trkpt>
      <trkpt lat="42.337533" lon="1.929695">
        <ele>1616.8</ele>
        <time>2022-09-07T15:19:07Z</time>
      </trkpt>
      <trkpt lat="42.337399" lon="1.929597">
        <ele>1618.5</ele>
        <time>2022-09-07T15:19:11Z</time>
      </trkpt>
      <trkpt lat="42.337308" lon="1.929559">
        <ele>1619.5</ele>
        <time>2022-09-07T15:19:14Z</time>
      </trkpt>
      <trkpt lat="42.33731" lon="1.929531">
        <ele>1619.5</ele>
        <time>2022-09-07T15:19:14Z</time>
      </trkpt>
      <trkpt lat="42.33728" lon="1.92951">
        <ele>1582.4</ele>
        <time>2022-09-07T15:19:15Z</time>
      </trkpt>
      <trkpt lat="42.33728" lon="1.92948">
        <ele>1582.4</ele>
        <time>2022-09-07T15:19:16Z</time>
      </trkpt>
      <trkpt lat="42.33728" lon="1.92944">
        <ele>1582.4</ele>
        <time>2022-09-07T15:19:17Z</time>
      </trkpt>
      <trkpt lat="42.3373" lon="1.9294">
        <ele>1581.4</ele>
        <time>2022-09-07T15:19:18Z</time>
      </trkpt>
      <trkpt lat="42.33732" lon="1.92935">
        <ele>1581.4</ele>
        <time>2022-09-07T15:19:19Z</time>
      </trkpt>
      <trkpt lat="42.33736" lon="1.92928">
        <ele>1580</ele>
        <time>2022-09-07T15:19:20Z</time>
      </trkpt>
      <trkpt lat="42.3374" lon="1.92921">
        <ele>1580</ele>
        <time>2022-09-07T15:19:21Z</time>
      </trkpt>
      <trkpt lat="42.33744" lon="1.92915">
        <ele>1580</ele>
        <time>2022-09-07T15:19:22Z</time>
      </trkpt>
      <trkpt lat="42.33749" lon="1.92911">
        <ele>1579.4</ele>
        <time>2022-09-07T15:19:23Z</time>
      </trkpt>
      <trkpt lat="42.33755" lon="1.92911">
        <ele>1579.2</ele>
        <time>2022-09-07T15:19:24Z</time>
      </trkpt>
      <trkpt lat="42.33761" lon="1.92913">
        <ele>1579.2</ele>
        <time>2022-09-07T15:19:25Z</time>
      </trkpt>
      <trkpt lat="42.33767" lon="1.92917">
        <ele>1579.2</ele>
        <time>2022-09-07T15:19:26Z</time>
      </trkpt>
      <trkpt lat="42.33773" lon="1.92921">
        <ele>1580</ele>
        <time>2022-09-07T15:19:27Z</time>
      </trkpt>
      <trkpt lat="42.33778" lon="1.92925">
        <ele>1580.4</ele>
        <time>2022-09-07T15:19:28Z</time>
      </trkpt>
      <trkpt lat="42.33784" lon="1.92928">
        <ele>1580.4</ele>
        <time>2022-09-07T15:19:29Z</time>
      </trkpt>
      <trkpt lat="42.3379" lon="1.92931">
        <ele>1580.4</ele>
        <time>2022-09-07T15:19:30Z</time>
      </trkpt>
      <trkpt lat="42.33796" lon="1.92932">
        <ele>1581.4</ele>
        <time>2022-09-07T15:19:31Z</time>
      </trkpt>
      <trkpt lat="42.33801" lon="1.92933">
        <ele>1581.4</ele>
        <time>2022-09-07T15:19:32Z</time>
      </trkpt>
      <trkpt lat="42.33807" lon="1.92935">
        <ele>1581.8</ele>
        <time>2022-09-07T15:19:33Z</time>
      </trkpt>
      <trkpt lat="42.33813" lon="1.92935">
        <ele>1581.8</ele>
        <time>2022-09-07T15:19:34Z</time>
      </trkpt>
      <trkpt lat="42.33819" lon="1.92935">
        <ele>1581.8</ele>
        <time>2022-09-07T15:19:35Z</time>
      </trkpt>
      <trkpt lat="42.33825" lon="1.92934">
        <ele>1582.8</ele>
        <time>2022-09-07T15:19:36Z</time>
      </trkpt>
      <trkpt lat="42.33831" lon="1.92934">
        <ele>1583</ele>
        <time>2022-09-07T15:19:37Z</time>
      </trkpt>
      <trkpt lat="42.33836" lon="1.92933">
        <ele>1583</ele>
        <time>2022-09-07T15:19:38Z</time>
      </trkpt>
      <trkpt lat="42.33842" lon="1.92932">
        <ele>1583</ele>
        <time>2022-09-07T15:19:39Z</time>
      </trkpt>
      <trkpt lat="42.33847" lon="1.9293">
        <ele>1583.8</ele>
        <time>2022-09-07T15:19:40Z</time>
      </trkpt>
      <trkpt lat="42.33853" lon="1.9293">
        <ele>1584.8</ele>
        <time>2022-09-07T15:19:41Z</time>
      </trkpt>
      <trkpt lat="42.33858" lon="1.92929">
        <ele>1584.8</ele>
        <time>2022-09-07T15:19:42Z</time>
      </trkpt>
      <trkpt lat="42.33864" lon="1.92928">
        <ele>1584.8</ele>
        <time>2022-09-07T15:19:43Z</time>
      </trkpt>
      <trkpt lat="42.33869" lon="1.92927">
        <ele>1585.8</ele>
        <time>2022-09-07T15:19:44Z</time>
      </trkpt>
      <trkpt lat="42.33875" lon="1.92926">
        <ele>1586.6</ele>
        <time>2022-09-07T15:19:45Z</time>
      </trkpt>
      <trkpt lat="42.3388" lon="1.92924">
        <ele>1586.6</ele>
        <time>2022-09-07T15:19:46Z</time>
      </trkpt>
      <trkpt lat="42.33885" lon="1.92922">
        <ele>1586.6</ele>
        <time>2022-09-07T15:19:47Z</time>
      </trkpt>
      <trkpt lat="42.33891" lon="1.92919">
        <ele>1587.6</ele>
        <time>2022-09-07T15:19:48Z</time>
      </trkpt>
      <trkpt lat="42.33896" lon="1.92916">
        <ele>1587.6</ele>
        <time>2022-09-07T15:19:49Z</time>
      </trkpt>
      <trkpt lat="42.33901" lon="1.92913">
        <ele>1588.6</ele>
        <time>2022-09-07T15:19:50Z</time>
      </trkpt>
      <trkpt lat="42.33907" lon="1.9291">
        <ele>1588.6</ele>
        <time>2022-09-07T15:19:51Z</time>
      </trkpt>
      <trkpt lat="42.33912" lon="1.92907">
        <ele>1588.6</ele>
        <time>2022-09-07T15:19:52Z</time>
      </trkpt>
      <trkpt lat="42.33918" lon="1.92905">
        <ele>1589.6</ele>
        <time>2022-09-07T15:19:53Z</time>
      </trkpt>
      <trkpt lat="42.33923" lon="1.92903">
        <ele>1590.2</ele>
        <time>2022-09-07T15:19:54Z</time>
      </trkpt>
      <trkpt lat="42.33929" lon="1.92901">
        <ele>1590.2</ele>
        <time>2022-09-07T15:19:55Z</time>
      </trkpt>
      <trkpt lat="42.33935" lon="1.929">
        <ele>1590.2</ele>
        <time>2022-09-07T15:19:56Z</time>
      </trkpt>
      <trkpt lat="42.33941" lon="1.92899">
        <ele>1591.2</ele>
        <time>2022-09-07T15:19:57Z</time>
      </trkpt>
      <trkpt lat="42.33947" lon="1.92898">
        <ele>1592.2</ele>
        <time>2022-09-07T15:19:58Z</time>
      </trkpt>
      <trkpt lat="42.33953" lon="1.92898">
        <ele>1592.2</ele>
        <time>2022-09-07T15:19:59Z</time>
      </trkpt>
      <trkpt lat="42.33958" lon="1.92898">
        <ele>1592.2</ele>
        <time>2022-09-07T15:20:00Z</time>
      </trkpt>
      <trkpt lat="42.33964" lon="1.92898">
        <ele>1593.2</ele>
        <time>2022-09-07T15:20:01Z</time>
      </trkpt>
      <trkpt lat="42.3397" lon="1.92898">
        <ele>1594.2</ele>
        <time>2022-09-07T15:20:02Z</time>
      </trkpt>
      <trkpt lat="42.33976" lon="1.92899">
        <ele>1594.2</ele>
        <time>2022-09-07T15:20:03Z</time>
      </trkpt>
      <trkpt lat="42.33981" lon="1.929">
        <ele>1594.2</ele>
        <time>2022-09-07T15:20:04Z</time>
      </trkpt>
      <trkpt lat="42.33987" lon="1.92901">
        <ele>1595.2</ele>
        <time>2022-09-07T15:20:05Z</time>
      </trkpt>
      <trkpt lat="42.33992" lon="1.92902">
        <ele>1596.4</ele>
        <time>2022-09-07T15:20:06Z</time>
      </trkpt>
      <trkpt lat="42.33997" lon="1.92902">
        <ele>1596.4</ele>
        <time>2022-09-07T15:20:07Z</time>
      </trkpt>
      <trkpt lat="42.34003" lon="1.92904">
        <ele>1596.4</ele>
        <time>2022-09-07T15:20:08Z</time>
      </trkpt>
      <trkpt lat="42.34008" lon="1.92905">
        <ele>1596.4</ele>
        <time>2022-09-07T15:20:09Z</time>
      </trkpt>
      <trkpt lat="42.34013" lon="1.92908">
        <ele>1597.4</ele>
        <time>2022-09-07T15:20:10Z</time>
      </trkpt>
      <trkpt lat="42.34018" lon="1.92911">
        <ele>1598.4</ele>
        <time>2022-09-07T15:20:11Z</time>
      </trkpt>
      <trkpt lat="42.34022" lon="1.92913">
        <ele>1598.4</ele>
        <time>2022-09-07T15:20:12Z</time>
      </trkpt>
      <trkpt lat="42.34026" lon="1.92916">
        <ele>1598.4</ele>
        <time>2022-09-07T15:20:13Z</time>
      </trkpt>
      <trkpt lat="42.3403" lon="1.92919">
        <ele>1599.4</ele>
        <time>2022-09-07T15:20:14Z</time>
      </trkpt>
      <trkpt lat="42.34033" lon="1.92923">
        <ele>1600.4</ele>
        <time>2022-09-07T15:20:15Z</time>
      </trkpt>
      <trkpt lat="42.34036" lon="1.92925">
        <ele>1600.4</ele>
        <time>2022-09-07T15:20:16Z</time>
      </trkpt>
      <trkpt lat="42.34039" lon="1.92927">
        <ele>1600.4</ele>
        <time>2022-09-07T15:20:17Z</time>
      </trkpt>
      <trkpt lat="42.34042" lon="1.92928">
        <ele>1600.8</ele>
        <time>2022-09-07T15:20:18Z</time>
      </trkpt>
      <trkpt lat="42.34046" lon="1.9293">
        <ele>1601.2</ele>
        <time>2022-09-07T15:20:19Z</time>
      </trkpt>
      <trkpt lat="42.34049" lon="1.92932">
        <ele>1601.2</ele>
        <time>2022-09-07T15:20:20Z</time>
      </trkpt>
      <trkpt lat="42.34052" lon="1.92934">
        <ele>1601.2</ele>
        <time>2022-09-07T15:20:21Z</time>
      </trkpt>
      <trkpt lat="42.34055" lon="1.92936">
        <ele>1601.8</ele>
        <time>2022-09-07T15:20:22Z</time>
      </trkpt>
      <trkpt lat="42.34059" lon="1.92937">
        <ele>1602.4</ele>
        <time>2022-09-07T15:20:23Z</time>
      </trkpt>
      <trkpt lat="42.34062" lon="1.92939">
        <ele>1602.4</ele>
        <time>2022-09-07T15:20:24Z</time>
      </trkpt>
      <trkpt lat="42.34066" lon="1.9294">
        <ele>1602.4</ele>
        <time>2022-09-07T15:20:25Z</time>
      </trkpt>
      <trkpt lat="42.34069" lon="1.92941">
        <ele>1603.2</ele>
        <time>2022-09-07T15:20:26Z</time>
      </trkpt>
      <trkpt lat="42.34073" lon="1.92942">
        <ele>1603.2</ele>
        <time>2022-09-07T15:20:27Z</time>
      </trkpt>
      <trkpt lat="42.34076" lon="1.92944">
        <ele>1603.4</ele>
        <time>2022-09-07T15:20:28Z</time>
      </trkpt>
      <trkpt lat="42.3408" lon="1.92946">
        <ele>1603.4</ele>
        <time>2022-09-07T15:20:29Z</time>
      </trkpt>
      <trkpt lat="42.34083" lon="1.92949">
        <ele>1603.4</ele>
        <time>2022-09-07T15:20:30Z</time>
      </trkpt>
      <trkpt lat="42.34086" lon="1.92952">
        <ele>1604.2</ele>
        <time>2022-09-07T15:20:31Z</time>
      </trkpt>
      <trkpt lat="42.34088" lon="1.92956">
        <ele>1604.2</ele>
        <time>2022-09-07T15:20:32Z</time>
      </trkpt>
      <trkpt lat="42.34091" lon="1.9296">
        <ele>1604.2</ele>
        <time>2022-09-07T15:20:33Z</time>
      </trkpt>
      <trkpt lat="42.34093" lon="1.92964">
        <ele>1604.2</ele>
        <time>2022-09-07T15:20:34Z</time>
      </trkpt>
      <trkpt lat="42.34095" lon="1.92967">
        <ele>1604.6</ele>
        <time>2022-09-07T15:20:35Z</time>
      </trkpt>
      <trkpt lat="42.34098" lon="1.92971">
        <ele>1604.8</ele>
        <time>2022-09-07T15:20:36Z</time>
      </trkpt>
      <trkpt lat="42.34101" lon="1.92975">
        <ele>1604.8</ele>
        <time>2022-09-07T15:20:37Z</time>
      </trkpt>
      <trkpt lat="42.34104" lon="1.92978">
        <ele>1604.8</ele>
        <time>2022-09-07T15:20:38Z</time>
      </trkpt>
      <trkpt lat="42.34108" lon="1.9298">
        <ele>1604.6</ele>
        <time>2022-09-07T15:20:39Z</time>
      </trkpt>
      <trkpt lat="42.34112" lon="1.92982">
        <ele>1604.4</ele>
        <time>2022-09-07T15:20:40Z</time>
      </trkpt>
      <trkpt lat="42.34116" lon="1.92983">
        <ele>1604.4</ele>
        <time>2022-09-07T15:20:41Z</time>
      </trkpt>
      <trkpt lat="42.34121" lon="1.92984">
        <ele>1604.4</ele>
        <time>2022-09-07T15:20:42Z</time>
      </trkpt>
      <trkpt lat="42.34125" lon="1.92984">
        <ele>1604.4</ele>
        <time>2022-09-07T15:20:43Z</time>
      </trkpt>
      <trkpt lat="42.34129" lon="1.92983">
        <ele>1604.6</ele>
        <time>2022-09-07T15:20:44Z</time>
      </trkpt>
      <trkpt lat="42.34133" lon="1.92981">
        <ele>1604.6</ele>
        <time>2022-09-07T15:20:45Z</time>
      </trkpt>
      <trkpt lat="42.34137" lon="1.92979">
        <ele>1604.6</ele>
        <time>2022-09-07T15:20:46Z</time>
      </trkpt>
      <trkpt lat="42.34141" lon="1.92978">
        <ele>1605</ele>
        <time>2022-09-07T15:20:47Z</time>
      </trkpt>
      <trkpt lat="42.34145" lon="1.92976">
        <ele>1604.8</ele>
        <time>2022-09-07T15:20:48Z</time>
      </trkpt>
      <trkpt lat="42.34149" lon="1.92975">
        <ele>1604.8</ele>
        <time>2022-09-07T15:20:49Z</time>
      </trkpt>
      <trkpt lat="42.34153" lon="1.92974">
        <ele>1604.8</ele>
        <time>2022-09-07T15:20:50Z</time>
      </trkpt>
      <trkpt lat="42.34158" lon="1.92975">
        <ele>1604.8</ele>
        <time>2022-09-07T15:20:51Z</time>
      </trkpt>
      <trkpt lat="42.34162" lon="1.92975">
        <ele>1605.6</ele>
        <time>2022-09-07T15:20:52Z</time>
      </trkpt>
      <trkpt lat="42.34167" lon="1.92977">
        <ele>1605.6</ele>
        <time>2022-09-07T15:20:53Z</time>
      </trkpt>
      <trkpt lat="42.34171" lon="1.92978">
        <ele>1605.6</ele>
        <time>2022-09-07T15:20:54Z</time>
      </trkpt>
      <trkpt lat="42.34175" lon="1.92981">
        <ele>1605.6</ele>
        <time>2022-09-07T15:20:55Z</time>
      </trkpt>
      <trkpt lat="42.34179" lon="1.92983">
        <ele>1605.6</ele>
        <time>2022-09-07T15:20:56Z</time>
      </trkpt>
      <trkpt lat="42.34182" lon="1.92987">
        <ele>1606.6</ele>
        <time>2022-09-07T15:20:57Z</time>
      </trkpt>
      <trkpt lat="42.34185" lon="1.9299">
        <ele>1606.6</ele>
        <time>2022-09-07T15:20:58Z</time>
      </trkpt>
      <trkpt lat="42.34188" lon="1.92994">
        <ele>1606.6</ele>
        <time>2022-09-07T15:20:59Z</time>
      </trkpt>
      <trkpt lat="42.34191" lon="1.92997">
        <ele>1607.4</ele>
        <time>2022-09-07T15:21:00Z</time>
      </trkpt>
      <trkpt lat="42.34193" lon="1.93">
        <ele>1607.6</ele>
        <time>2022-09-07T15:21:01Z</time>
      </trkpt>
      <trkpt lat="42.34196" lon="1.93002">
        <ele>1607.6</ele>
        <time>2022-09-07T15:21:02Z</time>
      </trkpt>
      <trkpt lat="42.34199" lon="1.93003">
        <ele>1607.6</ele>
        <time>2022-09-07T15:21:03Z</time>
      </trkpt>
      <trkpt lat="42.342012" lon="1.929998">
        <ele>1637.3</ele>
        <time>2022-09-07T15:21:05Z</time>
      </trkpt>
      <trkpt lat="42.342065" lon="1.930007">
        <ele>1637.5</ele>
        <time>2022-09-07T15:21:07Z</time>
      </trkpt>
      <trkpt lat="42.342124" lon="1.93">
        <ele>1638.3</ele>
        <time>2022-09-07T15:21:09Z</time>
      </trkpt>
      <trkpt lat="42.342502" lon="1.929932">
        <ele>1643.5</ele>
        <time>2022-09-07T15:21:24Z</time>
      </trkpt>
      <trkpt lat="42.342734" lon="1.92987">
        <ele>1643</ele>
        <time>2022-09-07T15:21:33Z</time>
      </trkpt>
      <trkpt lat="42.34295" lon="1.929791">
        <ele>1642.8</ele>
        <time>2022-09-07T15:21:41Z</time>
      </trkpt>
      <trkpt lat="42.34304" lon="1.929747">
        <ele>1643</ele>
        <time>2022-09-07T15:21:45Z</time>
      </trkpt>
      <trkpt lat="42.343084" lon="1.929708">
        <ele>1643.3</ele>
        <time>2022-09-07T15:21:47Z</time>
      </trkpt>
      <trkpt lat="42.34304" lon="1.929747">
        <ele>1643</ele>
        <time>2022-09-07T15:21:49Z</time>
      </trkpt>
      <trkpt lat="42.343197" lon="1.929725">
        <ele>1642</ele>
        <time>2022-09-07T15:21:52Z</time>
      </trkpt>
      <trkpt lat="42.343521" lon="1.929542">
        <ele>1640.3</ele>
        <time>2022-09-07T15:22:00Z</time>
      </trkpt>
      <trkpt lat="42.343584" lon="1.929485">
        <ele>1639.8</ele>
        <time>2022-09-07T15:22:01Z</time>
      </trkpt>
      <trkpt lat="42.343888" lon="1.929217">
        <ele>1637.8</ele>
        <time>2022-09-07T15:22:09Z</time>
      </trkpt>
      <trkpt lat="42.343954" lon="1.92916">
        <ele>1637.5</ele>
        <time>2022-09-07T15:22:11Z</time>
      </trkpt>
      <trkpt lat="42.343811" lon="1.929914">
        <ele>1628.3</ele>
        <time>2022-09-07T15:22:29Z</time>
      </trkpt>
      <trkpt lat="42.343765" lon="1.930261">
        <ele>1620.8</ele>
        <time>2022-09-07T15:22:37Z</time>
      </trkpt>
      <trkpt lat="42.343751" lon="1.930367">
        <ele>1618.5</ele>
        <time>2022-09-07T15:22:40Z</time>
      </trkpt>
      <trkpt lat="42.343903" lon="1.93061">
        <ele>1610.5</ele>
        <time>2022-09-07T15:22:44Z</time>
      </trkpt>
      <trkpt lat="42.343953" lon="1.93068">
        <ele>1608</ele>
        <time>2022-09-07T15:22:45Z</time>
      </trkpt>
      <trkpt lat="42.344318" lon="1.930567">
        <ele>1603.3</ele>
        <time>2022-09-07T15:22:52Z</time>
      </trkpt>
      <trkpt lat="42.34445" lon="1.930527">
        <ele>1601.8</ele>
        <time>2022-09-07T15:22:54Z</time>
      </trkpt>
      <trkpt lat="42.344674" lon="1.930339">
        <ele>1600</ele>
        <time>2022-09-07T15:22:58Z</time>
      </trkpt>
      <trkpt lat="42.344806" lon="1.930122">
        <ele>1600.8</ele>
        <time>2022-09-07T15:23:01Z</time>
      </trkpt>
      <trkpt lat="42.344925" lon="1.929857">
        <ele>1602</ele>
        <time>2022-09-07T15:23:05Z</time>
      </trkpt>
      <trkpt lat="42.345076" lon="1.929409">
        <ele>1603.5</ele>
        <time>2022-09-07T15:23:11Z</time>
      </trkpt>
      <trkpt lat="42.345217" lon="1.929261">
        <ele>1600.3</ele>
        <time>2022-09-07T15:23:13Z</time>
      </trkpt>
      <trkpt lat="42.345495" lon="1.928745">
        <ele>1597.8</ele>
        <time>2022-09-07T15:23:21Z</time>
      </trkpt>
      <trkpt lat="42.345718" lon="1.928231">
        <ele>1597.3</ele>
        <time>2022-09-07T15:23:28Z</time>
      </trkpt>
      <trkpt lat="42.345876" lon="1.927549">
        <ele>1596.8</ele>
        <time>2022-09-07T15:23:36Z</time>
      </trkpt>
      <trkpt lat="42.346081" lon="1.927214">
        <ele>1594.5</ele>
        <time>2022-09-07T15:23:41Z</time>
      </trkpt>
      <trkpt lat="42.34625" lon="1.926977">
        <ele>1591.8</ele>
        <time>2022-09-07T15:23:45Z</time>
      </trkpt>
      <trkpt lat="42.346377" lon="1.926687">
        <ele>1589.5</ele>
        <time>2022-09-07T15:23:49Z</time>
      </trkpt>
      <trkpt lat="42.346492" lon="1.926238">
        <ele>1586.8</ele>
        <time>2022-09-07T15:23:55Z</time>
      </trkpt>
      <trkpt lat="42.346507" lon="1.926256">
        <ele>1586.3</ele>
        <time>2022-09-07T15:23:55Z</time>
      </trkpt>
      <trkpt lat="42.346664" lon="1.926452">
        <ele>1581.5</ele>
        <time>2022-09-07T15:24:00Z</time>
      </trkpt>
      <trkpt lat="42.346728" lon="1.926825">
        <ele>1579</ele>
        <time>2022-09-07T15:24:08Z</time>
      </trkpt>
      <trkpt lat="42.346751" lon="1.927097">
        <ele>1578</ele>
        <time>2022-09-07T15:24:13Z</time>
      </trkpt>
      <trkpt lat="42.346728" lon="1.927228">
        <ele>1578.3</ele>
        <time>2022-09-07T15:24:15Z</time>
      </trkpt>
      <trkpt lat="42.346717" lon="1.927294">
        <ele>1578.8</ele>
        <time>2022-09-07T15:24:16Z</time>
      </trkpt>
      <trkpt lat="42.346638" lon="1.927635">
        <ele>1579</ele>
        <time>2022-09-07T15:24:23Z</time>
      </trkpt>
      <trkpt lat="42.346641" lon="1.928001">
        <ele>1575</ele>
        <time>2022-09-07T15:24:30Z</time>
      </trkpt>
      <trkpt lat="42.346756" lon="1.928276">
        <ele>1568.5</ele>
        <time>2022-09-07T15:24:36Z</time>
      </trkpt>
      <trkpt lat="42.346911" lon="1.9285">
        <ele>1559.3</ele>
        <time>2022-09-07T15:24:41Z</time>
      </trkpt>
      <trkpt lat="42.346915" lon="1.928506">
        <ele>1559.3</ele>
        <time>2022-09-07T15:24:41Z</time>
      </trkpt>
      <trkpt lat="42.347051" lon="1.928534">
        <ele>1554.3</ele>
        <time>2022-09-07T15:24:44Z</time>
      </trkpt>
      <trkpt lat="42.347281" lon="1.928223">
        <ele>1551.8</ele>
        <time>2022-09-07T15:24:51Z</time>
      </trkpt>
      <trkpt lat="42.347403" lon="1.928091">
        <ele>1549.5</ele>
        <time>2022-09-07T15:24:55Z</time>
      </trkpt>
      <trkpt lat="42.347569" lon="1.927913">
        <ele>1546.5</ele>
        <time>2022-09-07T15:25:00Z</time>
      </trkpt>
      <trkpt lat="42.347731" lon="1.927688">
        <ele>1543</ele>
        <time>2022-09-07T15:25:05Z</time>
      </trkpt>
      <trkpt lat="42.347859" lon="1.927618">
        <ele>1538.5</ele>
        <time>2022-09-07T15:25:08Z</time>
      </trkpt>
      <trkpt lat="42.34784" lon="1.92747">
        <ele>1499.2</ele>
        <time>2022-09-07T15:25:11Z</time>
      </trkpt>
      <trkpt lat="42.34785" lon="1.92742">
        <ele>1499.2</ele>
        <time>2022-09-07T15:25:12Z</time>
      </trkpt>
      <trkpt lat="42.34785" lon="1.92737">
        <ele>1499.4</ele>
        <time>2022-09-07T15:25:13Z</time>
      </trkpt>
      <trkpt lat="42.34786" lon="1.92732">
        <ele>1498.6</ele>
        <time>2022-09-07T15:25:14Z</time>
      </trkpt>
      <trkpt lat="42.34787" lon="1.92726">
        <ele>1498.6</ele>
        <time>2022-09-07T15:25:15Z</time>
      </trkpt>
      <trkpt lat="42.34789" lon="1.9272">
        <ele>1498.6</ele>
        <time>2022-09-07T15:25:16Z</time>
      </trkpt>
      <trkpt lat="42.34793" lon="1.92714">
        <ele>1497.6</ele>
        <time>2022-09-07T15:25:17Z</time>
      </trkpt>
      <trkpt lat="42.34796" lon="1.92708">
        <ele>1495.4</ele>
        <time>2022-09-07T15:25:18Z</time>
      </trkpt>
      <trkpt lat="42.34799" lon="1.927">
        <ele>1495.4</ele>
        <time>2022-09-07T15:25:19Z</time>
      </trkpt>
      <trkpt lat="42.34801" lon="1.92693">
        <ele>1495.4</ele>
        <time>2022-09-07T15:25:20Z</time>
      </trkpt>
      <trkpt lat="42.34802" lon="1.92687">
        <ele>1494.4</ele>
        <time>2022-09-07T15:25:21Z</time>
      </trkpt>
      <trkpt lat="42.34802" lon="1.9268">
        <ele>1490.4</ele>
        <time>2022-09-07T15:25:22Z</time>
      </trkpt>
      <trkpt lat="42.34803" lon="1.92673">
        <ele>1490.4</ele>
        <time>2022-09-07T15:25:23Z</time>
      </trkpt>
      <trkpt lat="42.34803" lon="1.92666">
        <ele>1490.4</ele>
        <time>2022-09-07T15:25:24Z</time>
      </trkpt>
      <trkpt lat="42.34804" lon="1.92659">
        <ele>1489.4</ele>
        <time>2022-09-07T15:25:25Z</time>
      </trkpt>
      <trkpt lat="42.34803" lon="1.92653">
        <ele>1487.6</ele>
        <time>2022-09-07T15:25:26Z</time>
      </trkpt>
      <trkpt lat="42.34803" lon="1.92649">
        <ele>1487.6</ele>
        <time>2022-09-07T15:25:27Z</time>
      </trkpt>
      <trkpt lat="42.34803" lon="1.92646">
        <ele>1487.6</ele>
        <time>2022-09-07T15:25:28Z</time>
      </trkpt>
      <trkpt lat="42.34803" lon="1.92646">
        <ele>1487.6</ele>
        <time>2022-09-07T15:25:29Z</time>
      </trkpt>
      <trkpt lat="42.34809" lon="1.92628">
        <ele>1486</ele>
        <time>2022-09-07T15:25:30Z</time>
      </trkpt>
      <trkpt lat="42.34809" lon="1.92627">
        <ele>1486</ele>
        <time>2022-09-07T15:28:40Z</time>
      </trkpt>
      <trkpt lat="42.3481" lon="1.92626">
        <ele>1485</ele>
        <time>2022-09-07T15:28:41Z</time>
      </trkpt>
      <trkpt lat="42.34811" lon="1.92626">
        <ele>1482.4</ele>
        <time>2022-09-07T15:28:42Z</time>
      </trkpt>
      <trkpt lat="42.34815" lon="1.92628">
        <ele>1477.8</ele>
        <time>2022-09-07T15:28:43Z</time>
      </trkpt>
      <trkpt lat="42.34818" lon="1.92629">
        <ele>1477.8</ele>
        <time>2022-09-07T15:28:47Z</time>
      </trkpt>
      <trkpt lat="42.34819" lon="1.92628">
        <ele>1477.8</ele>
        <time>2022-09-07T15:28:48Z</time>
      </trkpt>
      <trkpt lat="42.34821" lon="1.92628">
        <ele>1476.8</ele>
        <time>2022-09-07T15:28:49Z</time>
      </trkpt>
      <trkpt lat="42.34823" lon="1.92628">
        <ele>1469.8</ele>
        <time>2022-09-07T15:28:50Z</time>
      </trkpt>
      <trkpt lat="42.34825" lon="1.92629">
        <ele>1469.8</ele>
        <time>2022-09-07T15:28:51Z</time>
      </trkpt>
      <trkpt lat="42.34828" lon="1.92632">
        <ele>1469.8</ele>
        <time>2022-09-07T15:28:52Z</time>
      </trkpt>
      <trkpt lat="42.34832" lon="1.92634">
        <ele>1469.8</ele>
        <time>2022-09-07T15:28:53Z</time>
      </trkpt>
      <trkpt lat="42.34836" lon="1.92636">
        <ele>1468.8</ele>
        <time>2022-09-07T15:28:54Z</time>
      </trkpt>
      <trkpt lat="42.3484" lon="1.92637">
        <ele>1465.4</ele>
        <time>2022-09-07T15:28:55Z</time>
      </trkpt>
      <trkpt lat="42.34845" lon="1.92639">
        <ele>1465.4</ele>
        <time>2022-09-07T15:28:56Z</time>
      </trkpt>
      <trkpt lat="42.34849" lon="1.9264">
        <ele>1465.4</ele>
        <time>2022-09-07T15:28:57Z</time>
      </trkpt>
      <trkpt lat="42.34854" lon="1.92642">
        <ele>1464.4</ele>
        <time>2022-09-07T15:28:58Z</time>
      </trkpt>
      <trkpt lat="42.34859" lon="1.92644">
        <ele>1456.8</ele>
        <time>2022-09-07T15:28:59Z</time>
      </trkpt>
      <trkpt lat="42.34863" lon="1.92646">
        <ele>1456.8</ele>
        <time>2022-09-07T15:29:00Z</time>
      </trkpt>
      <trkpt lat="42.34866" lon="1.9265">
        <ele>1456.8</ele>
        <time>2022-09-07T15:29:01Z</time>
      </trkpt>
      <trkpt lat="42.3487" lon="1.92653">
        <ele>1455.8</ele>
        <time>2022-09-07T15:29:02Z</time>
      </trkpt>
      <trkpt lat="42.34873" lon="1.92656">
        <ele>1448.4</ele>
        <time>2022-09-07T15:29:03Z</time>
      </trkpt>
      <trkpt lat="42.34877" lon="1.92659">
        <ele>1448.4</ele>
        <time>2022-09-07T15:29:04Z</time>
      </trkpt>
      <trkpt lat="42.34881" lon="1.92661">
        <ele>1448.4</ele>
        <time>2022-09-07T15:29:05Z</time>
      </trkpt>
      <trkpt lat="42.34885" lon="1.92664">
        <ele>1447.4</ele>
        <time>2022-09-07T15:29:06Z</time>
      </trkpt>
      <trkpt lat="42.34889" lon="1.92666">
        <ele>1442.6</ele>
        <time>2022-09-07T15:29:07Z</time>
      </trkpt>
      <trkpt lat="42.34893" lon="1.9267">
        <ele>1442.6</ele>
        <time>2022-09-07T15:29:08Z</time>
      </trkpt>
      <trkpt lat="42.34895" lon="1.92672">
        <ele>1442.6</ele>
        <time>2022-09-07T15:29:09Z</time>
      </trkpt>
      <trkpt lat="42.34897" lon="1.92673">
        <ele>1442.6</ele>
        <time>2022-09-07T15:29:10Z</time>
      </trkpt>
      <trkpt lat="42.349" lon="1.92673">
        <ele>1442.6</ele>
        <time>2022-09-07T15:29:11Z</time>
      </trkpt>
      <trkpt lat="42.34901" lon="1.92672">
        <ele>1442.6</ele>
        <time>2022-09-07T15:29:12Z</time>
      </trkpt>
      <trkpt lat="42.34904" lon="1.92671">
        <ele>1442.6</ele>
        <time>2022-09-07T15:29:13Z</time>
      </trkpt>
      <trkpt lat="42.34906" lon="1.92672">
        <ele>1442.6</ele>
        <time>2022-09-07T15:29:14Z</time>
      </trkpt>
      <trkpt lat="42.34909" lon="1.92674">
        <ele>1442.6</ele>
        <time>2022-09-07T15:29:15Z</time>
      </trkpt>
      <trkpt lat="42.34913" lon="1.92677">
        <ele>1442</ele>
        <time>2022-09-07T15:29:16Z</time>
      </trkpt>
      <trkpt lat="42.34918" lon="1.9268">
        <ele>1442</ele>
        <time>2022-09-07T15:29:17Z</time>
      </trkpt>
      <trkpt lat="42.34923" lon="1.92682">
        <ele>1442</ele>
        <time>2022-09-07T15:29:18Z</time>
      </trkpt>
      <trkpt lat="42.349315" lon="1.926742">
        <ele>1482.8</ele>
        <time>2022-09-07T15:29:21Z</time>
      </trkpt>
      <trkpt lat="42.349357" lon="1.926774">
        <ele>1481.3</ele>
        <time>2022-09-07T15:29:23Z</time>
      </trkpt>
      <trkpt lat="42.349505" lon="1.92677">
        <ele>1478</ele>
        <time>2022-09-07T15:29:28Z</time>
      </trkpt>
      <trkpt lat="42.349548" lon="1.92677">
        <ele>1477.3</ele>
        <time>2022-09-07T15:29:30Z</time>
      </trkpt>
      <trkpt lat="42.349732" lon="1.926801">
        <ele>1472.5</ele>
        <time>2022-09-07T15:29:36Z</time>
      </trkpt>
      <trkpt lat="42.349957" lon="1.926734">
        <ele>1469.8</ele>
        <time>2022-09-07T15:29:44Z</time>
      </trkpt>
      <trkpt lat="42.350133" lon="1.926549">
        <ele>1466</ele>
        <time>2022-09-07T15:29:52Z</time>
      </trkpt>
      <trkpt lat="42.350155" lon="1.926481">
        <ele>1465.5</ele>
        <time>2022-09-07T15:29:54Z</time>
      </trkpt>
      <trkpt lat="42.350199" lon="1.926349">
        <ele>1465</ele>
        <time>2022-09-07T15:29:56Z</time>
      </trkpt>
      <trkpt lat="42.350179" lon="1.926188">
        <ele>1467.5</ele>
        <time>2022-09-07T15:29:59Z</time>
      </trkpt>
      <trkpt lat="42.35011" lon="1.925961">
        <ele>1473.5</ele>
        <time>2022-09-07T15:30:03Z</time>
      </trkpt>
      <trkpt lat="42.349872" lon="1.925599">
        <ele>1484.5</ele>
        <time>2022-09-07T15:30:11Z</time>
      </trkpt>
      <trkpt lat="42.349773" lon="1.925331">
        <ele>1488.3</ele>
        <time>2022-09-07T15:30:16Z</time>
      </trkpt>
      <trkpt lat="42.349655" lon="1.924725">
        <ele>1495.8</ele>
        <time>2022-09-07T15:30:27Z</time>
      </trkpt>
      <trkpt lat="42.349553" lon="1.924472">
        <ele>1501.3</ele>
        <time>2022-09-07T15:30:32Z</time>
      </trkpt>
      <trkpt lat="42.349477" lon="1.924283">
        <ele>1505.8</ele>
        <time>2022-09-07T15:30:35Z</time>
      </trkpt>
      <trkpt lat="42.349418" lon="1.923984">
        <ele>1510.3</ele>
        <time>2022-09-07T15:30:41Z</time>
      </trkpt>
      <trkpt lat="42.349356" lon="1.92376">
        <ele>1514.5</ele>
        <time>2022-09-07T15:30:45Z</time>
      </trkpt>
      <trkpt lat="42.349367" lon="1.923692">
        <ele>1514.5</ele>
        <time>2022-09-07T15:30:46Z</time>
      </trkpt>
      <trkpt lat="42.349375" lon="1.923649">
        <ele>1514.5</ele>
        <time>2022-09-07T15:30:46Z</time>
      </trkpt>
      <trkpt lat="42.349712" lon="1.92352">
        <ele>1504.5</ele>
        <time>2022-09-07T15:30:54Z</time>
      </trkpt>
      <trkpt lat="42.349784" lon="1.923462">
        <ele>1503</ele>
        <time>2022-09-07T15:30:56Z</time>
      </trkpt>
      <trkpt lat="42.349797" lon="1.923432">
        <ele>1503</ele>
        <time>2022-09-07T15:30:57Z</time>
      </trkpt>
      <trkpt lat="42.349847" lon="1.923319">
        <ele>1503.5</ele>
        <time>2022-09-07T15:30:59Z</time>
      </trkpt>
      <trkpt lat="42.349864" lon="1.923163">
        <ele>1506.5</ele>
        <time>2022-09-07T15:31:01Z</time>
      </trkpt>
      <trkpt lat="42.349821" lon="1.922966">
        <ele>1511.5</ele>
        <time>2022-09-07T15:31:05Z</time>
      </trkpt>
      <trkpt lat="42.349794" lon="1.922792">
        <ele>1515.8</ele>
        <time>2022-09-07T15:31:08Z</time>
      </trkpt>
      <trkpt lat="42.349837" lon="1.922694">
        <ele>1517</ele>
        <time>2022-09-07T15:31:10Z</time>
      </trkpt>
      <trkpt lat="42.349901" lon="1.922689">
        <ele>1516</ele>
        <time>2022-09-07T15:31:11Z</time>
      </trkpt>
      <trkpt lat="42.34994" lon="1.92265">
        <ele>1478.6</ele>
        <time>2022-09-07T15:31:12Z</time>
      </trkpt>
      <trkpt lat="42.34999" lon="1.92266">
        <ele>1479.6</ele>
        <time>2022-09-07T15:31:13Z</time>
      </trkpt>
      <trkpt lat="42.35004" lon="1.92268">
        <ele>1479.4</ele>
        <time>2022-09-07T15:31:14Z</time>
      </trkpt>
      <trkpt lat="42.35008" lon="1.92271">
        <ele>1479.4</ele>
        <time>2022-09-07T15:31:15Z</time>
      </trkpt>
      <trkpt lat="42.35013" lon="1.92274">
        <ele>1479.4</ele>
        <time>2022-09-07T15:31:16Z</time>
      </trkpt>
      <trkpt lat="42.35018" lon="1.92276">
        <ele>1479.4</ele>
        <time>2022-09-07T15:31:17Z</time>
      </trkpt>
      <trkpt lat="42.35022" lon="1.92279">
        <ele>1480.4</ele>
        <time>2022-09-07T15:31:18Z</time>
      </trkpt>
      <trkpt lat="42.35027" lon="1.92281">
        <ele>1482.8</ele>
        <time>2022-09-07T15:31:19Z</time>
      </trkpt>
      <trkpt lat="42.35031" lon="1.92283">
        <ele>1482.8</ele>
        <time>2022-09-07T15:31:20Z</time>
      </trkpt>
      <trkpt lat="42.35036" lon="1.92286">
        <ele>1482.8</ele>
        <time>2022-09-07T15:31:21Z</time>
      </trkpt>
      <trkpt lat="42.3504" lon="1.92288">
        <ele>1482.8</ele>
        <time>2022-09-07T15:31:22Z</time>
      </trkpt>
      <trkpt lat="42.35045" lon="1.92291">
        <ele>1485</ele>
        <time>2022-09-07T15:31:23Z</time>
      </trkpt>
      <trkpt lat="42.3505" lon="1.92293">
        <ele>1485</ele>
        <time>2022-09-07T15:31:24Z</time>
      </trkpt>
      <trkpt lat="42.35054" lon="1.92294">
        <ele>1485</ele>
        <time>2022-09-07T15:31:25Z</time>
      </trkpt>
      <trkpt lat="42.35059" lon="1.92296">
        <ele>1485</ele>
        <time>2022-09-07T15:31:26Z</time>
      </trkpt>
      <trkpt lat="42.35063" lon="1.92297">
        <ele>1486.2</ele>
        <time>2022-09-07T15:31:27Z</time>
      </trkpt>
      <trkpt lat="42.35068" lon="1.92298">
        <ele>1486.2</ele>
        <time>2022-09-07T15:31:28Z</time>
      </trkpt>
      <trkpt lat="42.35072" lon="1.92299">
        <ele>1486.2</ele>
        <time>2022-09-07T15:31:29Z</time>
      </trkpt>
      <trkpt lat="42.35077" lon="1.92299">
        <ele>1485.6</ele>
        <time>2022-09-07T15:31:30Z</time>
      </trkpt>
      <trkpt lat="42.35082" lon="1.923">
        <ele>1487.2</ele>
        <time>2022-09-07T15:31:31Z</time>
      </trkpt>
      <trkpt lat="42.35086" lon="1.923">
        <ele>1487.2</ele>
        <time>2022-09-07T15:31:32Z</time>
      </trkpt>
      <trkpt lat="42.35091" lon="1.923">
        <ele>1487.2</ele>
        <time>2022-09-07T15:31:33Z</time>
      </trkpt>
      <trkpt lat="42.35096" lon="1.92299">
        <ele>1488.2</ele>
        <time>2022-09-07T15:31:34Z</time>
      </trkpt>
      <trkpt lat="42.351" lon="1.92296">
        <ele>1488</ele>
        <time>2022-09-07T15:31:35Z</time>
      </trkpt>
      <trkpt lat="42.35104" lon="1.92293">
        <ele>1488</ele>
        <time>2022-09-07T15:31:36Z</time>
      </trkpt>
      <trkpt lat="42.351074" lon="1.922882">
        <ele>1509.3</ele>
        <time>2022-09-07T15:31:37Z</time>
      </trkpt>
      <trkpt lat="42.351278" lon="1.922615">
        <ele>1512.3</ele>
        <time>2022-09-07T15:31:45Z</time>
      </trkpt>
      <trkpt lat="42.351401" lon="1.92222">
        <ele>1519.5</ele>
        <time>2022-09-07T15:31:53Z</time>
      </trkpt>
      <trkpt lat="42.35141" lon="1.922196">
        <ele>1519.8</ele>
        <time>2022-09-07T15:31:53Z</time>
      </trkpt>
      <trkpt lat="42.351668" lon="1.921554">
        <ele>1529.8</ele>
        <time>2022-09-07T15:32:07Z</time>
      </trkpt>
      <trkpt lat="42.35206" lon="1.920969">
        <ele>1530.5</ele>
        <time>2022-09-07T15:32:23Z</time>
      </trkpt>
      <trkpt lat="42.352446" lon="1.920295">
        <ele>1533.8</ele>
        <time>2022-09-07T15:32:39Z</time>
      </trkpt>
      <trkpt lat="42.352619" lon="1.919885">
        <ele>1535.8</ele>
        <time>2022-09-07T15:32:48Z</time>
      </trkpt>
      <trkpt lat="42.352896" lon="1.919664">
        <ele>1528</ele>
        <time>2022-09-07T15:32:57Z</time>
      </trkpt>
      <trkpt lat="42.353147" lon="1.919341">
        <ele>1522.8</ele>
        <time>2022-09-07T15:33:06Z</time>
      </trkpt>
      <trkpt lat="42.353254" lon="1.919077">
        <ele>1518</ele>
        <time>2022-09-07T15:33:10Z</time>
      </trkpt>
      <trkpt lat="42.353429" lon="1.918649">
        <ele>1510.8</ele>
        <time>2022-09-07T15:33:16Z</time>
      </trkpt>
      <trkpt lat="42.353433" lon="1.918305">
        <ele>1505.5</ele>
        <time>2022-09-07T15:33:20Z</time>
      </trkpt>
      <trkpt lat="42.353444" lon="1.917496">
        <ele>1493.5</ele>
        <time>2022-09-07T15:33:30Z</time>
      </trkpt>
      <trkpt lat="42.353245" lon="1.916476">
        <ele>1480.5</ele>
        <time>2022-09-07T15:33:43Z</time>
      </trkpt>
      <trkpt lat="42.352973" lon="1.915779">
        <ele>1476</ele>
        <time>2022-09-07T15:33:52Z</time>
      </trkpt>
      <trkpt lat="42.352937" lon="1.915477">
        <ele>1477.3</ele>
        <time>2022-09-07T15:33:56Z</time>
      </trkpt>
      <trkpt lat="42.352783" lon="1.915312">
        <ele>1481.3</ele>
        <time>2022-09-07T15:33:59Z</time>
      </trkpt>
      <trkpt lat="42.352711" lon="1.915123">
        <ele>1482.3</ele>
        <time>2022-09-07T15:34:02Z</time>
      </trkpt>
      <trkpt lat="42.352793" lon="1.915113">
        <ele>1480.5</ele>
        <time>2022-09-07T15:34:03Z</time>
      </trkpt>
      <trkpt lat="42.353398" lon="1.915046">
        <ele>1469.3</ele>
        <time>2022-09-07T15:34:13Z</time>
      </trkpt>
      <trkpt lat="42.35426" lon="1.915522">
        <ele>1449.8</ele>
        <time>2022-09-07T15:34:28Z</time>
      </trkpt>
      <trkpt lat="42.354316" lon="1.915553">
        <ele>1448.8</ele>
        <time>2022-09-07T15:34:29Z</time>
      </trkpt>
      <trkpt lat="42.354757" lon="1.915912">
        <ele>1438.5</ele>
        <time>2022-09-07T15:34:37Z</time>
      </trkpt>
      <trkpt lat="42.354957" lon="1.91602">
        <ele>1435.3</ele>
        <time>2022-09-07T15:34:41Z</time>
      </trkpt>
      <trkpt lat="42.355095" lon="1.916025">
        <ele>1433</ele>
        <time>2022-09-07T15:34:43Z</time>
      </trkpt>
      <trkpt lat="42.355119" lon="1.916006">
        <ele>1433</ele>
        <time>2022-09-07T15:34:44Z</time>
      </trkpt>
      <trkpt lat="42.355454" lon="1.915753">
        <ele>1435.3</ele>
        <time>2022-09-07T15:34:59Z</time>
      </trkpt>
      <trkpt lat="42.355678" lon="1.915613">
        <ele>1434.8</ele>
        <time>2022-09-07T15:35:09Z</time>
      </trkpt>
      <trkpt lat="42.355788" lon="1.915545">
        <ele>1434.8</ele>
        <time>2022-09-07T15:35:14Z</time>
      </trkpt>
      <trkpt lat="42.356205" lon="1.915299">
        <ele>1430</ele>
        <time>2022-09-07T15:35:32Z</time>
      </trkpt>
      <trkpt lat="42.356297" lon="1.915206">
        <ele>1428.8</ele>
        <time>2022-09-07T15:35:36Z</time>
      </trkpt>
      <trkpt lat="42.35636" lon="1.91517">
        <ele>1405.8</ele>
        <time>2022-09-07T15:35:39Z</time>
      </trkpt>
      <trkpt lat="42.35641" lon="1.91509">
        <ele>1404.8</ele>
        <time>2022-09-07T15:35:40Z</time>
      </trkpt>
      <trkpt lat="42.35647" lon="1.91503">
        <ele>1400</ele>
        <time>2022-09-07T15:35:41Z</time>
      </trkpt>
      <trkpt lat="42.35651" lon="1.91497">
        <ele>1400</ele>
        <time>2022-09-07T15:35:42Z</time>
      </trkpt>
      <trkpt lat="42.35656" lon="1.91493">
        <ele>1400</ele>
        <time>2022-09-07T15:35:43Z</time>
      </trkpt>
      <trkpt lat="42.35658" lon="1.9149">
        <ele>1400.6</ele>
        <time>2022-09-07T15:35:44Z</time>
      </trkpt>
      <trkpt lat="42.35659" lon="1.91489">
        <ele>1400.6</ele>
        <time>2022-09-07T15:35:45Z</time>
      </trkpt>
      <trkpt lat="42.35659" lon="1.91488">
        <ele>1400.6</ele>
        <time>2022-09-07T15:35:46Z</time>
      </trkpt>
      <trkpt lat="42.35659" lon="1.91488">
        <ele>1400.6</ele>
        <time>2022-09-07T15:35:47Z</time>
      </trkpt>
      <trkpt lat="42.3566" lon="1.91486">
        <ele>1401</ele>
        <time>2022-09-07T15:35:48Z</time>
      </trkpt>
      <trkpt lat="42.35661" lon="1.91484">
        <ele>1401</ele>
        <time>2022-09-07T15:36:01Z</time>
      </trkpt>
      <trkpt lat="42.35661" lon="1.91481">
        <ele>1401</ele>
        <time>2022-09-07T15:36:02Z</time>
      </trkpt>
      <trkpt lat="42.35662" lon="1.91477">
        <ele>1401.2</ele>
        <time>2022-09-07T15:36:03Z</time>
      </trkpt>
      <trkpt lat="42.35664" lon="1.91473">
        <ele>1401.2</ele>
        <time>2022-09-07T15:36:04Z</time>
      </trkpt>
      <trkpt lat="42.35666" lon="1.91468">
        <ele>1401.2</ele>
        <time>2022-09-07T15:36:05Z</time>
      </trkpt>
      <trkpt lat="42.35668" lon="1.91462">
        <ele>1402.2</ele>
        <time>2022-09-07T15:36:06Z</time>
      </trkpt>
      <trkpt lat="42.35669" lon="1.91456">
        <ele>1400.4</ele>
        <time>2022-09-07T15:36:07Z</time>
      </trkpt>
      <trkpt lat="42.3567" lon="1.9145">
        <ele>1400.4</ele>
        <time>2022-09-07T15:36:08Z</time>
      </trkpt>
      <trkpt lat="42.3567" lon="1.91444">
        <ele>1400.4</ele>
        <time>2022-09-07T15:36:09Z</time>
      </trkpt>
      <trkpt lat="42.3567" lon="1.91437">
        <ele>1401.4</ele>
        <time>2022-09-07T15:36:10Z</time>
      </trkpt>
      <trkpt lat="42.35669" lon="1.91431">
        <ele>1403.8</ele>
        <time>2022-09-07T15:36:11Z</time>
      </trkpt>
      <trkpt lat="42.35667" lon="1.91425">
        <ele>1403.8</ele>
        <time>2022-09-07T15:36:12Z</time>
      </trkpt>
      <trkpt lat="42.35666" lon="1.9142">
        <ele>1403.8</ele>
        <time>2022-09-07T15:36:13Z</time>
      </trkpt>
      <trkpt lat="42.35664" lon="1.91414">
        <ele>1403.8</ele>
        <time>2022-09-07T15:36:14Z</time>
      </trkpt>
      <trkpt lat="42.35664" lon="1.91409">
        <ele>1406.6</ele>
        <time>2022-09-07T15:36:15Z</time>
      </trkpt>
      <trkpt lat="42.35664" lon="1.91403">
        <ele>1406.6</ele>
        <time>2022-09-07T15:36:16Z</time>
      </trkpt>
      <trkpt lat="42.35665" lon="1.91398">
        <ele>1406.6</ele>
        <time>2022-09-07T15:36:17Z</time>
      </trkpt>
      <trkpt lat="42.35665" lon="1.91392">
        <ele>1406.6</ele>
        <time>2022-09-07T15:36:18Z</time>
      </trkpt>
      <trkpt lat="42.35666" lon="1.91387">
        <ele>1406.8</ele>
        <time>2022-09-07T15:36:19Z</time>
      </trkpt>
      <trkpt lat="42.35666" lon="1.91383">
        <ele>1406.8</ele>
        <time>2022-09-07T15:36:20Z</time>
      </trkpt>
      <trkpt lat="42.35667" lon="1.91379">
        <ele>1406.8</ele>
        <time>2022-09-07T15:36:21Z</time>
      </trkpt>
      <trkpt lat="42.35669" lon="1.91376">
        <ele>1406.8</ele>
        <time>2022-09-07T15:36:22Z</time>
      </trkpt>
      <trkpt lat="42.35671" lon="1.91372">
        <ele>1406.8</ele>
        <time>2022-09-07T15:36:23Z</time>
      </trkpt>
      <trkpt lat="42.35675" lon="1.91368">
        <ele>1407.4</ele>
        <time>2022-09-07T15:36:24Z</time>
      </trkpt>
      <trkpt lat="42.35679" lon="1.91364">
        <ele>1407.4</ele>
        <time>2022-09-07T15:36:25Z</time>
      </trkpt>
      <trkpt lat="42.35684" lon="1.91361">
        <ele>1407.4</ele>
        <time>2022-09-07T15:36:26Z</time>
      </trkpt>
      <trkpt lat="42.35688" lon="1.91357">
        <ele>1406.8</ele>
        <time>2022-09-07T15:36:27Z</time>
      </trkpt>
      <trkpt lat="42.35693" lon="1.91353">
        <ele>1406.4</ele>
        <time>2022-09-07T15:36:28Z</time>
      </trkpt>
      <trkpt lat="42.35697" lon="1.91349">
        <ele>1406.4</ele>
        <time>2022-09-07T15:36:29Z</time>
      </trkpt>
      <trkpt lat="42.35702" lon="1.91344">
        <ele>1406.4</ele>
        <time>2022-09-07T15:36:30Z</time>
      </trkpt>
      <trkpt lat="42.35707" lon="1.91339">
        <ele>1406.4</ele>
        <time>2022-09-07T15:36:31Z</time>
      </trkpt>
      <trkpt lat="42.35712" lon="1.91333">
        <ele>1403</ele>
        <time>2022-09-07T15:36:32Z</time>
      </trkpt>
      <trkpt lat="42.35717" lon="1.91325">
        <ele>1403</ele>
        <time>2022-09-07T15:36:33Z</time>
      </trkpt>
      <trkpt lat="42.35724" lon="1.91316">
        <ele>1403</ele>
        <time>2022-09-07T15:36:34Z</time>
      </trkpt>
      <trkpt lat="42.35731" lon="1.9131">
        <ele>1404</ele>
        <time>2022-09-07T15:36:35Z</time>
      </trkpt>
      <trkpt lat="42.35737" lon="1.91306">
        <ele>1405</ele>
        <time>2022-09-07T15:36:36Z</time>
      </trkpt>
      <trkpt lat="42.35742" lon="1.91304">
        <ele>1405</ele>
        <time>2022-09-07T15:36:37Z</time>
      </trkpt>
      <trkpt lat="42.35747" lon="1.913">
        <ele>1405</ele>
        <time>2022-09-07T15:36:38Z</time>
      </trkpt>
      <trkpt lat="42.35752" lon="1.91297">
        <ele>1404</ele>
        <time>2022-09-07T15:36:39Z</time>
      </trkpt>
      <trkpt lat="42.35757" lon="1.91293">
        <ele>1404</ele>
        <time>2022-09-07T15:36:40Z</time>
      </trkpt>
      <trkpt lat="42.35762" lon="1.91288">
        <ele>1403</ele>
        <time>2022-09-07T15:36:41Z</time>
      </trkpt>
      <trkpt lat="42.35767" lon="1.91283">
        <ele>1403</ele>
        <time>2022-09-07T15:36:42Z</time>
      </trkpt>
      <trkpt lat="42.35772" lon="1.91278">
        <ele>1403</ele>
        <time>2022-09-07T15:36:43Z</time>
      </trkpt>
      <trkpt lat="42.35778" lon="1.91272">
        <ele>1402</ele>
        <time>2022-09-07T15:36:44Z</time>
      </trkpt>
      <trkpt lat="42.35784" lon="1.91265">
        <ele>1399.2</ele>
        <time>2022-09-07T15:36:45Z</time>
      </trkpt>
      <trkpt lat="42.35791" lon="1.91259">
        <ele>1399.2</ele>
        <time>2022-09-07T15:36:46Z</time>
      </trkpt>
      <trkpt lat="42.35798" lon="1.91254">
        <ele>1399.2</ele>
        <time>2022-09-07T15:36:47Z</time>
      </trkpt>
      <trkpt lat="42.35804" lon="1.91251">
        <ele>1400.2</ele>
        <time>2022-09-07T15:36:48Z</time>
      </trkpt>
      <trkpt lat="42.3581" lon="1.91251">
        <ele>1403.2</ele>
        <time>2022-09-07T15:36:49Z</time>
      </trkpt>
      <trkpt lat="42.35814" lon="1.91251">
        <ele>1403.2</ele>
        <time>2022-09-07T15:36:50Z</time>
      </trkpt>
      <trkpt lat="42.35818" lon="1.91252">
        <ele>1403.2</ele>
        <time>2022-09-07T15:36:51Z</time>
      </trkpt>
      <trkpt lat="42.35821" lon="1.91252">
        <ele>1404.2</ele>
        <time>2022-09-07T15:36:52Z</time>
      </trkpt>
      <trkpt lat="42.35825" lon="1.91253">
        <ele>1405.8</ele>
        <time>2022-09-07T15:36:53Z</time>
      </trkpt>
      <trkpt lat="42.35828" lon="1.91252">
        <ele>1405.8</ele>
        <time>2022-09-07T15:36:54Z</time>
      </trkpt>
      <trkpt lat="42.35831" lon="1.91251">
        <ele>1405.8</ele>
        <time>2022-09-07T15:36:55Z</time>
      </trkpt>
      <trkpt lat="42.35835" lon="1.91248">
        <ele>1405.8</ele>
        <time>2022-09-07T15:36:56Z</time>
      </trkpt>
      <trkpt lat="42.35839" lon="1.91245">
        <ele>1405.8</ele>
        <time>2022-09-07T15:36:57Z</time>
      </trkpt>
      <trkpt lat="42.35843" lon="1.9124">
        <ele>1406.4</ele>
        <time>2022-09-07T15:36:58Z</time>
      </trkpt>
      <trkpt lat="42.35847" lon="1.91234">
        <ele>1406.4</ele>
        <time>2022-09-07T15:36:59Z</time>
      </trkpt>
      <trkpt lat="42.35853" lon="1.912134">
        <ele>1427</ele>
        <time>2022-09-07T15:37:02Z</time>
      </trkpt>
      <trkpt lat="42.358636" lon="1.911871">
        <ele>1427.8</ele>
        <time>2022-09-07T15:37:06Z</time>
      </trkpt>
      <trkpt lat="42.358717" lon="1.911517">
        <ele>1430.3</ele>
        <time>2022-09-07T15:37:11Z</time>
      </trkpt>
      <trkpt lat="42.358922" lon="1.910755">
        <ele>1433.5</ele>
        <time>2022-09-07T15:37:22Z</time>
      </trkpt>
      <trkpt lat="42.358995" lon="1.910557">
        <ele>1433.3</ele>
        <time>2022-09-07T15:37:25Z</time>
      </trkpt>
      <trkpt lat="42.35902" lon="1.910452">
        <ele>1433.5</ele>
        <time>2022-09-07T15:37:27Z</time>
      </trkpt>
      <trkpt lat="42.359102" lon="1.910116">
        <ele>1434.8</ele>
        <time>2022-09-07T15:37:32Z</time>
      </trkpt>
      <trkpt lat="42.359152" lon="1.909777">
        <ele>1435.3</ele>
        <time>2022-09-07T15:37:36Z</time>
      </trkpt>
      <trkpt lat="42.35918" lon="1.909592">
        <ele>1435.8</ele>
        <time>2022-09-07T15:37:39Z</time>
      </trkpt>
      <trkpt lat="42.359193" lon="1.909203">
        <ele>1437.8</ele>
        <time>2022-09-07T15:37:44Z</time>
      </trkpt>
      <trkpt lat="42.359159" lon="1.908909">
        <ele>1438.8</ele>
        <time>2022-09-07T15:37:49Z</time>
      </trkpt>
      <trkpt lat="42.359146" lon="1.908796">
        <ele>1439.3</ele>
        <time>2022-09-07T15:37:50Z</time>
      </trkpt>
      <trkpt lat="42.359081" lon="1.908571">
        <ele>1441.3</ele>
        <time>2022-09-07T15:37:54Z</time>
      </trkpt>
      <trkpt lat="42.359025" lon="1.908376">
        <ele>1443</ele>
        <time>2022-09-07T15:37:56Z</time>
      </trkpt>
      <trkpt lat="42.358899" lon="1.907823">
        <ele>1446.3</ele>
        <time>2022-09-07T15:38:04Z</time>
      </trkpt>
      <trkpt lat="42.358861" lon="1.90754">
        <ele>1447</ele>
        <time>2022-09-07T15:38:08Z</time>
      </trkpt>
      <trkpt lat="42.358894" lon="1.907413">
        <ele>1445.8</ele>
        <time>2022-09-07T15:38:10Z</time>
      </trkpt>
      <trkpt lat="42.358926" lon="1.907187">
        <ele>1445</ele>
        <time>2022-09-07T15:38:13Z</time>
      </trkpt>
      <trkpt lat="42.358874" lon="1.906614">
        <ele>1446.8</ele>
        <time>2022-09-07T15:38:21Z</time>
      </trkpt>
      <trkpt lat="42.358774" lon="1.906098">
        <ele>1443</ele>
        <time>2022-09-07T15:38:29Z</time>
      </trkpt>
      <trkpt lat="42.358683" lon="1.905582">
        <ele>1438.5</ele>
        <time>2022-09-07T15:38:36Z</time>
      </trkpt>
      <trkpt lat="42.358638" lon="1.905277">
        <ele>1435.3</ele>
        <time>2022-09-07T15:38:40Z</time>
      </trkpt>
      <trkpt lat="42.358635" lon="1.905269">
        <ele>1435</ele>
        <time>2022-09-07T15:38:40Z</time>
      </trkpt>
      <trkpt lat="42.358578" lon="1.905081">
        <ele>1433.8</ele>
        <time>2022-09-07T15:38:42Z</time>
      </trkpt>
      <trkpt lat="42.358484" lon="1.905021">
        <ele>1435</ele>
        <time>2022-09-07T15:38:44Z</time>
      </trkpt>
      <trkpt lat="42.358217" lon="1.904915">
        <ele>1439</ele>
        <time>2022-09-07T15:38:47Z</time>
      </trkpt>
      <trkpt lat="42.358156" lon="1.904834">
        <ele>1439</ele>
        <time>2022-09-07T15:38:48Z</time>
      </trkpt>
      <trkpt lat="42.358147" lon="1.904773">
        <ele>1437.8</ele>
        <time>2022-09-07T15:38:49Z</time>
      </trkpt>
      <trkpt lat="42.358129" lon="1.904641">
        <ele>1435.5</ele>
        <time>2022-09-07T15:38:50Z</time>
      </trkpt>
      <trkpt lat="42.358078" lon="1.90443">
        <ele>1432.3</ele>
        <time>2022-09-07T15:38:52Z</time>
      </trkpt>
      <trkpt lat="42.357993" lon="1.904231">
        <ele>1430.5</ele>
        <time>2022-09-07T15:38:55Z</time>
      </trkpt>
      <trkpt lat="42.357913" lon="1.904065">
        <ele>1431</ele>
        <time>2022-09-07T15:38:56Z</time>
      </trkpt>
      <trkpt lat="42.357835" lon="1.903989">
        <ele>1433</ele>
        <time>2022-09-07T15:38:58Z</time>
      </trkpt>
      <trkpt lat="42.357714" lon="1.903923">
        <ele>1436.8</ele>
        <time>2022-09-07T15:38:59Z</time>
      </trkpt>
      <trkpt lat="42.357623" lon="1.903905">
        <ele>1439.5</ele>
        <time>2022-09-07T15:39:01Z</time>
      </trkpt>
      <trkpt lat="42.357603" lon="1.903838">
        <ele>1440</ele>
        <time>2022-09-07T15:39:01Z</time>
      </trkpt>
      <trkpt lat="42.3576" lon="1.90374">
        <ele>1403.4</ele>
        <time>2022-09-07T15:39:02Z</time>
      </trkpt>
      <trkpt lat="42.35764" lon="1.90369">
        <ele>1403.8</ele>
        <time>2022-09-07T15:39:03Z</time>
      </trkpt>
      <trkpt lat="42.35769" lon="1.90364">
        <ele>1403.8</ele>
        <time>2022-09-07T15:39:04Z</time>
      </trkpt>
      <trkpt lat="42.35774" lon="1.90359">
        <ele>1403.8</ele>
        <time>2022-09-07T15:39:05Z</time>
      </trkpt>
      <trkpt lat="42.35781" lon="1.90355">
        <ele>1402.8</ele>
        <time>2022-09-07T15:39:06Z</time>
      </trkpt>
      <trkpt lat="42.35788" lon="1.90349">
        <ele>1402.8</ele>
        <time>2022-09-07T15:39:07Z</time>
      </trkpt>
      <trkpt lat="42.35795" lon="1.90342">
        <ele>1397.8</ele>
        <time>2022-09-07T15:39:08Z</time>
      </trkpt>
      <trkpt lat="42.35802" lon="1.90333">
        <ele>1397.8</ele>
        <time>2022-09-07T15:39:09Z</time>
      </trkpt>
      <trkpt lat="42.35808" lon="1.90322">
        <ele>1397.8</ele>
        <time>2022-09-07T15:39:10Z</time>
      </trkpt>
      <trkpt lat="42.35813" lon="1.9031">
        <ele>1396.8</ele>
        <time>2022-09-07T15:39:11Z</time>
      </trkpt>
      <trkpt lat="42.35818" lon="1.90297">
        <ele>1391.2</ele>
        <time>2022-09-07T15:39:12Z</time>
      </trkpt>
      <trkpt lat="42.35824" lon="1.90285">
        <ele>1391.2</ele>
        <time>2022-09-07T15:39:13Z</time>
      </trkpt>
      <trkpt lat="42.35831" lon="1.90273">
        <ele>1391.2</ele>
        <time>2022-09-07T15:39:14Z</time>
      </trkpt>
      <trkpt lat="42.35837" lon="1.9026">
        <ele>1391.2</ele>
        <time>2022-09-07T15:39:15Z</time>
      </trkpt>
      <trkpt lat="42.35844" lon="1.90247">
        <ele>1389</ele>
        <time>2022-09-07T15:39:16Z</time>
      </trkpt>
      <trkpt lat="42.35852" lon="1.90235">
        <ele>1389</ele>
        <time>2022-09-07T15:39:17Z</time>
      </trkpt>
      <trkpt lat="42.35859" lon="1.90222">
        <ele>1389</ele>
        <time>2022-09-07T15:39:18Z</time>
      </trkpt>
      <trkpt lat="42.358647" lon="1.902087">
        <ele>1408</ele>
        <time>2022-09-07T15:39:19Z</time>
      </trkpt>
      <trkpt lat="42.358669" lon="1.901872">
        <ele>1408.8</ele>
        <time>2022-09-07T15:39:21Z</time>
      </trkpt>
      <trkpt lat="42.358671" lon="1.901573">
        <ele>1410.8</ele>
        <time>2022-09-07T15:39:23Z</time>
      </trkpt>
      <trkpt lat="42.358706" lon="1.901214">
        <ele>1411.3</ele>
        <time>2022-09-07T15:39:25Z</time>
      </trkpt>
      <trkpt lat="42.358716" lon="1.901185">
        <ele>1410.8</ele>
        <time>2022-09-07T15:39:26Z</time>
      </trkpt>
      <trkpt lat="42.35876" lon="1.901073">
        <ele>1409.3</ele>
        <time>2022-09-07T15:39:26Z</time>
      </trkpt>
      <trkpt lat="42.358974" lon="1.900715">
        <ele>1399.3</ele>
        <time>2022-09-07T15:39:30Z</time>
      </trkpt>
      <trkpt lat="42.359007" lon="1.900476">
        <ele>1397.5</ele>
        <time>2022-09-07T15:39:31Z</time>
      </trkpt>
      <trkpt lat="42.359127" lon="1.900184">
        <ele>1391.8</ele>
        <time>2022-09-07T15:39:34Z</time>
      </trkpt>
      <trkpt lat="42.359096" lon="1.899774">
        <ele>1394</ele>
        <time>2022-09-07T15:39:37Z</time>
      </trkpt>
      <trkpt lat="42.359198" lon="1.899469">
        <ele>1391.3</ele>
        <time>2022-09-07T15:39:39Z</time>
      </trkpt>
      <trkpt lat="42.359239" lon="1.899437">
        <ele>1390.5</ele>
        <time>2022-09-07T15:39:40Z</time>
      </trkpt>
      <trkpt lat="42.359478" lon="1.899257">
        <ele>1387</ele>
        <time>2022-09-07T15:39:44Z</time>
      </trkpt>
      <trkpt lat="42.359775" lon="1.898805">
        <ele>1384.3</ele>
        <time>2022-09-07T15:39:51Z</time>
      </trkpt>
      <trkpt lat="42.359857" lon="1.89872">
        <ele>1383.8</ele>
        <time>2022-09-07T15:39:52Z</time>
      </trkpt>
      <trkpt lat="42.359997" lon="1.898579">
        <ele>1383.3</ele>
        <time>2022-09-07T15:39:55Z</time>
      </trkpt>
      <trkpt lat="42.360232" lon="1.898278">
        <ele>1383.3</ele>
        <time>2022-09-07T15:40:00Z</time>
      </trkpt>
      <trkpt lat="42.360244" lon="1.898228">
        <ele>1383.5</ele>
        <time>2022-09-07T15:40:01Z</time>
      </trkpt>
      <trkpt lat="42.36028" lon="1.89817">
        <ele>1368.4</ele>
        <time>2022-09-07T15:40:02Z</time>
      </trkpt>
      <trkpt lat="42.36027" lon="1.89809">
        <ele>1365.6</ele>
        <time>2022-09-07T15:40:03Z</time>
      </trkpt>
      <trkpt lat="42.36025" lon="1.89801">
        <ele>1365.6</ele>
        <time>2022-09-07T15:40:04Z</time>
      </trkpt>
      <trkpt lat="42.36021" lon="1.89794">
        <ele>1365.6</ele>
        <time>2022-09-07T15:40:05Z</time>
      </trkpt>
      <trkpt lat="42.36016" lon="1.89788">
        <ele>1366.6</ele>
        <time>2022-09-07T15:40:06Z</time>
      </trkpt>
      <trkpt lat="42.36012" lon="1.89781">
        <ele>1366.8</ele>
        <time>2022-09-07T15:40:07Z</time>
      </trkpt>
      <trkpt lat="42.36008" lon="1.89774">
        <ele>1366.8</ele>
        <time>2022-09-07T15:40:08Z</time>
      </trkpt>
      <trkpt lat="42.36005" lon="1.89767">
        <ele>1366.8</ele>
        <time>2022-09-07T15:40:09Z</time>
      </trkpt>
      <trkpt lat="42.36003" lon="1.89759">
        <ele>1365.8</ele>
        <time>2022-09-07T15:40:10Z</time>
      </trkpt>
      <trkpt lat="42.36001" lon="1.8975">
        <ele>1364.4</ele>
        <time>2022-09-07T15:40:11Z</time>
      </trkpt>
      <trkpt lat="42.35999" lon="1.89741">
        <ele>1364.4</ele>
        <time>2022-09-07T15:40:12Z</time>
      </trkpt>
      <trkpt lat="42.35998" lon="1.89733">
        <ele>1364.4</ele>
        <time>2022-09-07T15:40:13Z</time>
      </trkpt>
      <trkpt lat="42.36" lon="1.89725">
        <ele>1364.8</ele>
        <time>2022-09-07T15:40:14Z</time>
      </trkpt>
      <trkpt lat="42.36004" lon="1.89719">
        <ele>1367.8</ele>
        <time>2022-09-07T15:40:15Z</time>
      </trkpt>
      <trkpt lat="42.3601" lon="1.89717">
        <ele>1367.8</ele>
        <time>2022-09-07T15:40:16Z</time>
      </trkpt>
      <trkpt lat="42.36017" lon="1.89717">
        <ele>1367.8</ele>
        <time>2022-09-07T15:40:17Z</time>
      </trkpt>
      <trkpt lat="42.36024" lon="1.89718">
        <ele>1367.8</ele>
        <time>2022-09-07T15:40:18Z</time>
      </trkpt>
      <trkpt lat="42.3603" lon="1.8972">
        <ele>1366.8</ele>
        <time>2022-09-07T15:40:19Z</time>
      </trkpt>
      <trkpt lat="42.36036" lon="1.89723">
        <ele>1367.8</ele>
        <time>2022-09-07T15:40:20Z</time>
      </trkpt>
      <trkpt lat="42.36042" lon="1.89725">
        <ele>1367.8</ele>
        <time>2022-09-07T15:40:21Z</time>
      </trkpt>
      <trkpt lat="42.36047" lon="1.89727">
        <ele>1367.8</ele>
        <time>2022-09-07T15:40:22Z</time>
      </trkpt>
      <trkpt lat="42.36052" lon="1.8973">
        <ele>1367.8</ele>
        <time>2022-09-07T15:40:23Z</time>
      </trkpt>
      <trkpt lat="42.36057" lon="1.89734">
        <ele>1368.6</ele>
        <time>2022-09-07T15:40:24Z</time>
      </trkpt>
      <trkpt lat="42.36062" lon="1.89739">
        <ele>1368.6</ele>
        <time>2022-09-07T15:40:25Z</time>
      </trkpt>
      <trkpt lat="42.36066" lon="1.89743">
        <ele>1368.6</ele>
        <time>2022-09-07T15:40:26Z</time>
      </trkpt>
      <trkpt lat="42.3607" lon="1.89748">
        <ele>1368.6</ele>
        <time>2022-09-07T15:40:27Z</time>
      </trkpt>
      <trkpt lat="42.36074" lon="1.89753">
        <ele>1370.2</ele>
        <time>2022-09-07T15:40:28Z</time>
      </trkpt>
      <trkpt lat="42.36076" lon="1.89757">
        <ele>1370.2</ele>
        <time>2022-09-07T15:40:29Z</time>
      </trkpt>
      <trkpt lat="42.36079" lon="1.89761">
        <ele>1370.2</ele>
        <time>2022-09-07T15:40:30Z</time>
      </trkpt>
      <trkpt lat="42.36082" lon="1.89764">
        <ele>1369.4</ele>
        <time>2022-09-07T15:40:31Z</time>
      </trkpt>
      <trkpt lat="42.36085" lon="1.89767">
        <ele>1370.2</ele>
        <time>2022-09-07T15:40:32Z</time>
      </trkpt>
      <trkpt lat="42.36089" lon="1.89769">
        <ele>1370.2</ele>
        <time>2022-09-07T15:40:33Z</time>
      </trkpt>
      <trkpt lat="42.36092" lon="1.89771">
        <ele>1370.2</ele>
        <time>2022-09-07T15:40:34Z</time>
      </trkpt>
      <trkpt lat="42.36096" lon="1.89773">
        <ele>1370.2</ele>
        <time>2022-09-07T15:40:35Z</time>
      </trkpt>
      <trkpt lat="42.36099" lon="1.89774">
        <ele>1370.2</ele>
        <time>2022-09-07T15:40:36Z</time>
      </trkpt>
      <trkpt lat="42.36102" lon="1.89776">
        <ele>1369.8</ele>
        <time>2022-09-07T15:40:37Z</time>
      </trkpt>
      <trkpt lat="42.36104" lon="1.89777">
        <ele>1369.8</ele>
        <time>2022-09-07T15:40:38Z</time>
      </trkpt>
      <trkpt lat="42.36106" lon="1.89778">
        <ele>1369.8</ele>
        <time>2022-09-07T15:40:39Z</time>
      </trkpt>
      <trkpt lat="42.36108" lon="1.89779">
        <ele>1369.8</ele>
        <time>2022-09-07T15:40:40Z</time>
      </trkpt>
      <trkpt lat="42.3611" lon="1.89779">
        <ele>1369.8</ele>
        <time>2022-09-07T15:40:41Z</time>
      </trkpt>
      <trkpt lat="42.36112" lon="1.8978">
        <ele>1369.8</ele>
        <time>2022-09-07T15:40:42Z</time>
      </trkpt>
      <trkpt lat="42.36114" lon="1.89779">
        <ele>1369.8</ele>
        <time>2022-09-07T15:40:43Z</time>
      </trkpt>
      <trkpt lat="42.36115" lon="1.89779">
        <ele>1369.8</ele>
        <time>2022-09-07T15:40:44Z</time>
      </trkpt>
      <trkpt lat="42.36117" lon="1.89779">
        <ele>1369.4</ele>
        <time>2022-09-07T15:40:45Z</time>
      </trkpt>
      <trkpt lat="42.361169" lon="1.89775">
        <ele>1382.3</ele>
        <time>2022-09-07T15:40:45Z</time>
      </trkpt>
      <trkpt lat="42.361313" lon="1.897679">
        <ele>1381.8</ele>
        <time>2022-09-07T15:40:49Z</time>
      </trkpt>
      <trkpt lat="42.361437" lon="1.897551">
        <ele>1382.3</ele>
        <time>2022-09-07T15:40:54Z</time>
      </trkpt>
      <trkpt lat="42.36174" lon="1.8972">
        <ele>1384</ele>
        <time>2022-09-07T15:41:04Z</time>
      </trkpt>
      <trkpt lat="42.361834" lon="1.897141">
        <ele>1382.5</ele>
        <time>2022-09-07T15:41:07Z</time>
      </trkpt>
      <trkpt lat="42.362211" lon="1.896907">
        <ele>1376.8</ele>
        <time>2022-09-07T15:41:17Z</time>
      </trkpt>
      <trkpt lat="42.362414" lon="1.896766">
        <ele>1373.8</ele>
        <time>2022-09-07T15:41:23Z</time>
      </trkpt>
      <trkpt lat="42.362653" lon="1.896602">
        <ele>1370.5</ele>
        <time>2022-09-07T15:41:30Z</time>
      </trkpt>
      <trkpt lat="42.36266" lon="1.896568">
        <ele>1370</ele>
        <time>2022-09-07T15:41:31Z</time>
      </trkpt>
      <trkpt lat="42.36272" lon="1.89659">
        <ele>1358.2</ele>
        <time>2022-09-07T15:41:32Z</time>
      </trkpt>
      <trkpt lat="42.36274" lon="1.89661">
        <ele>1358.2</ele>
        <time>2022-09-07T15:41:33Z</time>
      </trkpt>
      <trkpt lat="42.36275" lon="1.89664">
        <ele>1358.2</ele>
        <time>2022-09-07T15:41:34Z</time>
      </trkpt>
      <trkpt lat="42.36275" lon="1.89666">
        <ele>1358.2</ele>
        <time>2022-09-07T15:41:35Z</time>
      </trkpt>
      <trkpt lat="42.36274" lon="1.89666">
        <ele>1358.2</ele>
        <time>2022-09-07T15:41:36Z</time>
      </trkpt>
      <trkpt lat="42.36274" lon="1.89666">
        <ele>1358.2</ele>
        <time>2022-09-07T15:41:37Z</time>
      </trkpt>
      <trkpt lat="42.36274" lon="1.89666">
        <ele>1358</ele>
        <time>2022-09-07T15:41:38Z</time>
      </trkpt>
      <trkpt lat="42.36275" lon="1.89673">
        <ele>1358.6</ele>
        <time>2022-09-07T15:41:39Z</time>
      </trkpt>
      <trkpt lat="42.36275" lon="1.89676">
        <ele>1357.6</ele>
        <time>2022-09-07T15:42:15Z</time>
      </trkpt>
      <trkpt lat="42.36276" lon="1.89678">
        <ele>1357</ele>
        <time>2022-09-07T15:42:16Z</time>
      </trkpt>
      <trkpt lat="42.36277" lon="1.8968">
        <ele>1357</ele>
        <time>2022-09-07T15:42:17Z</time>
      </trkpt>
      <trkpt lat="42.36279" lon="1.89683">
        <ele>1357</ele>
        <time>2022-09-07T15:42:18Z</time>
      </trkpt>
      <trkpt lat="42.36281" lon="1.89685">
        <ele>1357</ele>
        <time>2022-09-07T15:42:19Z</time>
      </trkpt>
      <trkpt lat="42.36283" lon="1.89688">
        <ele>1357</ele>
        <time>2022-09-07T15:42:20Z</time>
      </trkpt>
      <trkpt lat="42.36285" lon="1.8969">
        <ele>1355.8</ele>
        <time>2022-09-07T15:42:21Z</time>
      </trkpt>
      <trkpt lat="42.36286" lon="1.89691">
        <ele>1355.8</ele>
        <time>2022-09-07T15:42:22Z</time>
      </trkpt>
      <trkpt lat="42.36287307641725" lon="1.896935531775519">
        <ele>1355.8</ele>
        <time>2022-09-07T15:42:23Z</time>
      </trkpt>
      <trkpt lat="42.36287" lon="1.89693">
        <ele>1355.8</ele>
        <time>2022-09-07T15:42:23Z</time>
      </trkpt>
      <trkpt lat="42.36288" lon="1.89693">
        <ele>1355.8</ele>
        <time>2022-09-07T15:42:24Z</time>
      </trkpt>
      <trkpt lat="42.36288" lon="1.89693">
        <ele>1355.8</ele>
        <time>2022-09-07T15:42:25Z</time>
      </trkpt>
      <trkpt lat="42.36289" lon="1.89695">
        <ele>1355.2</ele>
        <time>2022-09-07T15:42:26Z</time>
      </trkpt>
      <trkpt lat="42.3629" lon="1.89696">
        <ele>1355.2</ele>
        <time>2022-09-07T15:42:34Z</time>
      </trkpt>
      <trkpt lat="42.3629" lon="1.89696">
        <ele>1355.2</ele>
        <time>2022-09-07T15:42:35Z</time>
      </trkpt>
      <trkpt lat="42.36299" lon="1.89707">
        <ele>1352.2</ele>
        <time>2022-09-07T15:42:36Z</time>
      </trkpt>
      <trkpt lat="42.36304" lon="1.89709">
        <ele>1352.2</ele>
        <time>2022-09-07T15:42:56Z</time>
      </trkpt>
      <trkpt lat="42.36311" lon="1.8971">
        <ele>1351.2</ele>
        <time>2022-09-07T15:42:57Z</time>
      </trkpt>
      <trkpt lat="42.36319" lon="1.89709">
        <ele>1348</ele>
        <time>2022-09-07T15:42:58Z</time>
      </trkpt>
      <trkpt lat="42.36327" lon="1.89708">
        <ele>1348</ele>
        <time>2022-09-07T15:42:59Z</time>
      </trkpt>
      <trkpt lat="42.36335" lon="1.89705">
        <ele>1348</ele>
        <time>2022-09-07T15:43:00Z</time>
      </trkpt>
      <trkpt lat="42.36344" lon="1.897">
        <ele>1347</ele>
        <time>2022-09-07T15:43:01Z</time>
      </trkpt>
      <trkpt lat="42.36353" lon="1.89694">
        <ele>1347</ele>
        <time>2022-09-07T15:43:02Z</time>
      </trkpt>
      <trkpt lat="42.36362" lon="1.89688">
        <ele>1339.2</ele>
        <time>2022-09-07T15:43:03Z</time>
      </trkpt>
      <trkpt lat="42.36371" lon="1.89683">
        <ele>1339.2</ele>
        <time>2022-09-07T15:43:04Z</time>
      </trkpt>
      <trkpt lat="42.36379" lon="1.89677">
        <ele>1339.2</ele>
        <time>2022-09-07T15:43:05Z</time>
      </trkpt>
      <trkpt lat="42.36386" lon="1.89669">
        <ele>1339.2</ele>
        <time>2022-09-07T15:43:06Z</time>
      </trkpt>
      <trkpt lat="42.36393" lon="1.89661">
        <ele>1336</ele>
        <time>2022-09-07T15:43:07Z</time>
      </trkpt>
      <trkpt lat="42.36399" lon="1.89655">
        <ele>1336</ele>
        <time>2022-09-07T15:43:08Z</time>
      </trkpt>
      <trkpt lat="42.36406" lon="1.89651">
        <ele>1336</ele>
        <time>2022-09-07T15:43:09Z</time>
      </trkpt>
      <trkpt lat="42.36412" lon="1.89649">
        <ele>1336</ele>
        <time>2022-09-07T15:43:10Z</time>
      </trkpt>
      <trkpt lat="42.36418" lon="1.89651">
        <ele>1327.8</ele>
        <time>2022-09-07T15:43:11Z</time>
      </trkpt>
      <trkpt lat="42.36423" lon="1.89656">
        <ele>1327.8</ele>
        <time>2022-09-07T15:43:12Z</time>
      </trkpt>
      <trkpt lat="42.36427" lon="1.89663">
        <ele>1327.8</ele>
        <time>2022-09-07T15:43:13Z</time>
      </trkpt>
      <trkpt lat="42.36432" lon="1.89673">
        <ele>1326.8</ele>
        <time>2022-09-07T15:43:14Z</time>
      </trkpt>
      <trkpt lat="42.36438" lon="1.89681">
        <ele>1322.4</ele>
        <time>2022-09-07T15:43:15Z</time>
      </trkpt>
      <trkpt lat="42.36445" lon="1.89687">
        <ele>1322.4</ele>
        <time>2022-09-07T15:43:16Z</time>
      </trkpt>
      <trkpt lat="42.36454" lon="1.8969">
        <ele>1322.4</ele>
        <time>2022-09-07T15:43:17Z</time>
      </trkpt>
      <trkpt lat="42.36465" lon="1.89692">
        <ele>1322.4</ele>
        <time>2022-09-07T15:43:18Z</time>
      </trkpt>
      <trkpt lat="42.36475" lon="1.89693">
        <ele>1321.4</ele>
        <time>2022-09-07T15:43:19Z</time>
      </trkpt>
      <trkpt lat="42.36486" lon="1.89693">
        <ele>1316.2</ele>
        <time>2022-09-07T15:43:20Z</time>
      </trkpt>
      <trkpt lat="42.36495" lon="1.89694">
        <ele>1316.2</ele>
        <time>2022-09-07T15:43:21Z</time>
      </trkpt>
      <trkpt lat="42.36504" lon="1.89695">
        <ele>1316.2</ele>
        <time>2022-09-07T15:43:22Z</time>
      </trkpt>
      <trkpt lat="42.36512" lon="1.89696">
        <ele>1315.2</ele>
        <time>2022-09-07T15:43:23Z</time>
      </trkpt>
      <trkpt lat="42.36519" lon="1.89698">
        <ele>1303.8</ele>
        <time>2022-09-07T15:43:24Z</time>
      </trkpt>
      <trkpt lat="42.36526" lon="1.89701">
        <ele>1303.8</ele>
        <time>2022-09-07T15:43:25Z</time>
      </trkpt>
      <trkpt lat="42.36532" lon="1.89704">
        <ele>1303.8</ele>
        <time>2022-09-07T15:43:26Z</time>
      </trkpt>
      <trkpt lat="42.36538" lon="1.89705">
        <ele>1302.8</ele>
        <time>2022-09-07T15:43:27Z</time>
      </trkpt>
      <trkpt lat="42.36544" lon="1.89706">
        <ele>1298</ele>
        <time>2022-09-07T15:43:28Z</time>
      </trkpt>
      <trkpt lat="42.36549" lon="1.89707">
        <ele>1298</ele>
        <time>2022-09-07T15:43:29Z</time>
      </trkpt>
      <trkpt lat="42.36554" lon="1.89709">
        <ele>1298</ele>
        <time>2022-09-07T15:43:30Z</time>
      </trkpt>
      <trkpt lat="42.36559" lon="1.89712">
        <ele>1297</ele>
        <time>2022-09-07T15:43:31Z</time>
      </trkpt>
      <trkpt lat="42.36566" lon="1.89717">
        <ele>1290.4</ele>
        <time>2022-09-07T15:43:32Z</time>
      </trkpt>
      <trkpt lat="42.36573" lon="1.89721">
        <ele>1290.4</ele>
        <time>2022-09-07T15:43:33Z</time>
      </trkpt>
      <trkpt lat="42.36579" lon="1.89724">
        <ele>1290.4</ele>
        <time>2022-09-07T15:43:34Z</time>
      </trkpt>
      <trkpt lat="42.36586" lon="1.89727">
        <ele>1289.4</ele>
        <time>2022-09-07T15:43:35Z</time>
      </trkpt>
      <trkpt lat="42.36591" lon="1.89731">
        <ele>1287.2</ele>
        <time>2022-09-07T15:43:36Z</time>
      </trkpt>
      <trkpt lat="42.36594" lon="1.89737">
        <ele>1287.2</ele>
        <time>2022-09-07T15:43:37Z</time>
      </trkpt>
      <trkpt lat="42.36597" lon="1.89746">
        <ele>1287.2</ele>
        <time>2022-09-07T15:43:38Z</time>
      </trkpt>
      <trkpt lat="42.36599" lon="1.89754">
        <ele>1286.2</ele>
        <time>2022-09-07T15:43:39Z</time>
      </trkpt>
      <trkpt lat="42.36602" lon="1.8976">
        <ele>1277</ele>
        <time>2022-09-07T15:43:40Z</time>
      </trkpt>
      <trkpt lat="42.36607" lon="1.89764">
        <ele>1277</ele>
        <time>2022-09-07T15:43:41Z</time>
      </trkpt>
      <trkpt lat="42.36612" lon="1.89764">
        <ele>1277</ele>
        <time>2022-09-07T15:43:42Z</time>
      </trkpt>
      <trkpt lat="42.366155" lon="1.897523">
        <ele>1290.5</ele>
        <time>2022-09-07T15:43:44Z</time>
      </trkpt>
      <trkpt lat="42.366155" lon="1.897523">
        <ele>1290.5</ele>
        <time>2022-09-07T15:43:44Z</time>
      </trkpt>
      <trkpt lat="42.366305" lon="1.897486">
        <ele>1287.8</ele>
        <time>2022-09-07T15:43:47Z</time>
      </trkpt>
      <trkpt lat="42.366809" lon="1.897207">
        <ele>1280.3</ele>
        <time>2022-09-07T15:43:56Z</time>
      </trkpt>
      <trkpt lat="42.366969" lon="1.897148">
        <ele>1277.3</ele>
        <time>2022-09-07T15:43:59Z</time>
      </trkpt>
      <trkpt lat="42.367136" lon="1.897135">
        <ele>1273.3</ele>
        <time>2022-09-07T15:44:02Z</time>
      </trkpt>
      <trkpt lat="42.367244" lon="1.897048">
        <ele>1271.3</ele>
        <time>2022-09-07T15:44:04Z</time>
      </trkpt>
      <trkpt lat="42.36729" lon="1.897">
        <ele>1272.8</ele>
        <time>2022-09-07T15:44:05Z</time>
      </trkpt>
      <trkpt lat="42.36734" lon="1.89692">
        <ele>1271.4</ele>
        <time>2022-09-07T15:44:06Z</time>
      </trkpt>
      <trkpt lat="42.36739" lon="1.89683">
        <ele>1271.4</ele>
        <time>2022-09-07T15:44:07Z</time>
      </trkpt>
      <trkpt lat="42.36742" lon="1.89673">
        <ele>1271.4</ele>
        <time>2022-09-07T15:44:08Z</time>
      </trkpt>
      <trkpt lat="42.36744" lon="1.89662">
        <ele>1270.4</ele>
        <time>2022-09-07T15:44:09Z</time>
      </trkpt>
      <trkpt lat="42.36744" lon="1.8965">
        <ele>1264.6</ele>
        <time>2022-09-07T15:44:10Z</time>
      </trkpt>
      <trkpt lat="42.36744" lon="1.89638">
        <ele>1264.6</ele>
        <time>2022-09-07T15:44:11Z</time>
      </trkpt>
      <trkpt lat="42.36742" lon="1.89625">
        <ele>1264.6</ele>
        <time>2022-09-07T15:44:12Z</time>
      </trkpt>
      <trkpt lat="42.36741" lon="1.89612">
        <ele>1264.6</ele>
        <time>2022-09-07T15:44:13Z</time>
      </trkpt>
      <trkpt lat="42.36739" lon="1.89599">
        <ele>1264.6</ele>
        <time>2022-09-07T15:44:14Z</time>
      </trkpt>
      <trkpt lat="42.36737" lon="1.89586">
        <ele>1262.8</ele>
        <time>2022-09-07T15:44:15Z</time>
      </trkpt>
      <trkpt lat="42.36735" lon="1.89574">
        <ele>1262.8</ele>
        <time>2022-09-07T15:44:16Z</time>
      </trkpt>
      <trkpt lat="42.36733" lon="1.89564">
        <ele>1262.8</ele>
        <time>2022-09-07T15:44:17Z</time>
      </trkpt>
      <trkpt lat="42.36729" lon="1.89559">
        <ele>1261.8</ele>
        <time>2022-09-07T15:44:18Z</time>
      </trkpt>
      <trkpt lat="42.36724" lon="1.89561">
        <ele>1259.6</ele>
        <time>2022-09-07T15:44:19Z</time>
      </trkpt>
      <trkpt lat="42.36718" lon="1.89564">
        <ele>1259.6</ele>
        <time>2022-09-07T15:44:20Z</time>
      </trkpt>
      <trkpt lat="42.36711" lon="1.89568">
        <ele>1259.6</ele>
        <time>2022-09-07T15:44:21Z</time>
      </trkpt>
      <trkpt lat="42.36705" lon="1.89571">
        <ele>1259.6</ele>
        <time>2022-09-07T15:44:22Z</time>
      </trkpt>
      <trkpt lat="42.36698" lon="1.89572">
        <ele>1257.2</ele>
        <time>2022-09-07T15:44:23Z</time>
      </trkpt>
      <trkpt lat="42.3669" lon="1.89571">
        <ele>1257.2</ele>
        <time>2022-09-07T15:44:24Z</time>
      </trkpt>
      <trkpt lat="42.36682" lon="1.89569">
        <ele>1257.2</ele>
        <time>2022-09-07T15:44:25Z</time>
      </trkpt>
      <trkpt lat="42.36674" lon="1.89565">
        <ele>1256.2</ele>
        <time>2022-09-07T15:44:26Z</time>
      </trkpt>
      <trkpt lat="42.36665" lon="1.8956">
        <ele>1253</ele>
        <time>2022-09-07T15:44:27Z</time>
      </trkpt>
      <trkpt lat="42.36656" lon="1.89556">
        <ele>1253</ele>
        <time>2022-09-07T15:44:28Z</time>
      </trkpt>
      <trkpt lat="42.36647" lon="1.8955">
        <ele>1253</ele>
        <time>2022-09-07T15:44:29Z</time>
      </trkpt>
      <trkpt lat="42.36639" lon="1.89544">
        <ele>1252</ele>
        <time>2022-09-07T15:44:30Z</time>
      </trkpt>
      <trkpt lat="42.366321" lon="1.895358">
        <ele>1264</ele>
        <time>2022-09-07T15:44:31Z</time>
      </trkpt>
      <trkpt lat="42.36628" lon="1.895315">
        <ele>1264</ele>
        <time>2022-09-07T15:44:32Z</time>
      </trkpt>
      <trkpt lat="42.366193" lon="1.89517">
        <ele>1263</ele>
        <time>2022-09-07T15:44:34Z</time>
      </trkpt>
      <trkpt lat="42.365946" lon="1.894761">
        <ele>1260.5</ele>
        <time>2022-09-07T15:44:39Z</time>
      </trkpt>
      <trkpt lat="42.365827" lon="1.894505">
        <ele>1260.8</ele>
        <time>2022-09-07T15:44:42Z</time>
      </trkpt>
      <trkpt lat="42.365867" lon="1.89445">
        <ele>1259.3</ele>
        <time>2022-09-07T15:44:43Z</time>
      </trkpt>
      <trkpt lat="42.365807" lon="1.894445">
        <ele>1260.5</ele>
        <time>2022-09-07T15:44:43Z</time>
      </trkpt>
      <trkpt lat="42.36585" lon="1.89442">
        <ele>1238.8</ele>
        <time>2022-09-07T15:44:44Z</time>
      </trkpt>
      <trkpt lat="42.36593" lon="1.89445">
        <ele>1236.8</ele>
        <time>2022-09-07T15:44:45Z</time>
      </trkpt>
      <trkpt lat="42.366" lon="1.89449">
        <ele>1236.8</ele>
        <time>2022-09-07T15:44:46Z</time>
      </trkpt>
      <trkpt lat="42.36606" lon="1.89454">
        <ele>1236.8</ele>
        <time>2022-09-07T15:44:47Z</time>
      </trkpt>
      <trkpt lat="42.36612" lon="1.89459">
        <ele>1235.8</ele>
        <time>2022-09-07T15:44:48Z</time>
      </trkpt>
      <trkpt lat="42.36619" lon="1.89461">
        <ele>1231</ele>
        <time>2022-09-07T15:44:49Z</time>
      </trkpt>
      <trkpt lat="42.36627" lon="1.89462">
        <ele>1231</ele>
        <time>2022-09-07T15:44:50Z</time>
      </trkpt>
      <trkpt lat="42.36635" lon="1.89461">
        <ele>1231</ele>
        <time>2022-09-07T15:44:51Z</time>
      </trkpt>
      <trkpt lat="42.36643" lon="1.89459">
        <ele>1230</ele>
        <time>2022-09-07T15:44:52Z</time>
      </trkpt>
      <trkpt lat="42.36651" lon="1.89457">
        <ele>1221.6</ele>
        <time>2022-09-07T15:44:53Z</time>
      </trkpt>
      <trkpt lat="42.36657" lon="1.89456">
        <ele>1221.6</ele>
        <time>2022-09-07T15:44:54Z</time>
      </trkpt>
      <trkpt lat="42.36662" lon="1.89456">
        <ele>1221.6</ele>
        <time>2022-09-07T15:44:55Z</time>
      </trkpt>
      <trkpt lat="42.36668" lon="1.89456">
        <ele>1220.8</ele>
        <time>2022-09-07T15:44:56Z</time>
      </trkpt>
      <trkpt lat="42.36675" lon="1.89454">
        <ele>1220.6</ele>
        <time>2022-09-07T15:44:57Z</time>
      </trkpt>
      <trkpt lat="42.3668" lon="1.8945">
        <ele>1220.6</ele>
        <time>2022-09-07T15:44:58Z</time>
      </trkpt>
      <trkpt lat="42.36686" lon="1.89446">
        <ele>1220.6</ele>
        <time>2022-09-07T15:44:59Z</time>
      </trkpt>
      <trkpt lat="42.36692" lon="1.89441">
        <ele>1220.6</ele>
        <time>2022-09-07T15:45:00Z</time>
      </trkpt>
      <trkpt lat="42.36697" lon="1.89435">
        <ele>1221.4</ele>
        <time>2022-09-07T15:45:01Z</time>
      </trkpt>
      <trkpt lat="42.36702" lon="1.8943">
        <ele>1221.4</ele>
        <time>2022-09-07T15:45:02Z</time>
      </trkpt>
      <trkpt lat="42.36706" lon="1.89423">
        <ele>1221.4</ele>
        <time>2022-09-07T15:45:03Z</time>
      </trkpt>
      <trkpt lat="42.36711" lon="1.89418">
        <ele>1221.4</ele>
        <time>2022-09-07T15:45:04Z</time>
      </trkpt>
      <trkpt lat="42.36716" lon="1.89413">
        <ele>1221.4</ele>
        <time>2022-09-07T15:45:05Z</time>
      </trkpt>
      <trkpt lat="42.3672" lon="1.89408">
        <ele>1223</ele>
        <time>2022-09-07T15:45:06Z</time>
      </trkpt>
      <trkpt lat="42.36726" lon="1.89405">
        <ele>1223</ele>
        <time>2022-09-07T15:45:07Z</time>
      </trkpt>
      <trkpt lat="42.36731" lon="1.89402">
        <ele>1223</ele>
        <time>2022-09-07T15:45:08Z</time>
      </trkpt>
      <trkpt lat="42.36737" lon="1.89398">
        <ele>1223</ele>
        <time>2022-09-07T15:45:09Z</time>
      </trkpt>
      <trkpt lat="42.36743" lon="1.89396">
        <ele>1220.6</ele>
        <time>2022-09-07T15:45:10Z</time>
      </trkpt>
      <trkpt lat="42.36749" lon="1.89394">
        <ele>1220.6</ele>
        <time>2022-09-07T15:45:11Z</time>
      </trkpt>
      <trkpt lat="42.36756" lon="1.89392">
        <ele>1220.6</ele>
        <time>2022-09-07T15:45:12Z</time>
      </trkpt>
      <trkpt lat="42.36763" lon="1.8939">
        <ele>1220.6</ele>
        <time>2022-09-07T15:45:13Z</time>
      </trkpt>
      <trkpt lat="42.36771" lon="1.89388">
        <ele>1217.8</ele>
        <time>2022-09-07T15:45:14Z</time>
      </trkpt>
      <trkpt lat="42.36778" lon="1.89386">
        <ele>1217.8</ele>
        <time>2022-09-07T15:45:15Z</time>
      </trkpt>
      <trkpt lat="42.36786" lon="1.89386">
        <ele>1217.8</ele>
        <time>2022-09-07T15:45:16Z</time>
      </trkpt>
      <trkpt lat="42.36794" lon="1.89387">
        <ele>1218.8</ele>
        <time>2022-09-07T15:45:17Z</time>
      </trkpt>
      <trkpt lat="42.36802" lon="1.89387">
        <ele>1218.4</ele>
        <time>2022-09-07T15:45:18Z</time>
      </trkpt>
      <trkpt lat="42.36809" lon="1.89386">
        <ele>1218.4</ele>
        <time>2022-09-07T15:45:19Z</time>
      </trkpt>
      <trkpt lat="42.36816" lon="1.89384">
        <ele>1218.4</ele>
        <time>2022-09-07T15:45:20Z</time>
      </trkpt>
      <trkpt lat="42.36822" lon="1.89381">
        <ele>1218.4</ele>
        <time>2022-09-07T15:45:21Z</time>
      </trkpt>
      <trkpt lat="42.36827" lon="1.89378">
        <ele>1219.2</ele>
        <time>2022-09-07T15:45:22Z</time>
      </trkpt>
      <trkpt lat="42.36828" lon="1.89377">
        <ele>1219.2</ele>
        <time>2022-09-07T15:45:23Z</time>
      </trkpt>
      <trkpt lat="42.36827" lon="1.89377">
        <ele>1219.2</ele>
        <time>2022-09-07T15:45:24Z</time>
      </trkpt>
      <trkpt lat="42.36827" lon="1.89378">
        <ele>1219.2</ele>
        <time>2022-09-07T15:45:25Z</time>
      </trkpt>
      <trkpt lat="42.36827" lon="1.89378">
        <ele>1219.2</ele>
        <time>2022-09-07T15:45:26Z</time>
      </trkpt>
      <trkpt lat="42.36826" lon="1.89374">
        <ele>1219.4</ele>
        <time>2022-09-07T15:45:27Z</time>
      </trkpt>
      <trkpt lat="42.36828" lon="1.89372">
        <ele>1219.4</ele>
        <time>2022-09-07T15:47:01Z</time>
      </trkpt>
      <trkpt lat="42.36829" lon="1.89369">
        <ele>1219.4</ele>
        <time>2022-09-07T15:47:02Z</time>
      </trkpt>
      <trkpt lat="42.36832" lon="1.89364">
        <ele>1219.4</ele>
        <time>2022-09-07T15:47:03Z</time>
      </trkpt>
      <trkpt lat="42.36834" lon="1.89359">
        <ele>1219.4</ele>
        <time>2022-09-07T15:47:04Z</time>
      </trkpt>
      <trkpt lat="42.36836" lon="1.89353">
        <ele>1218.8</ele>
        <time>2022-09-07T15:47:05Z</time>
      </trkpt>
      <trkpt lat="42.36839" lon="1.89348">
        <ele>1218.8</ele>
        <time>2022-09-07T15:47:06Z</time>
      </trkpt>
      <trkpt lat="42.36842" lon="1.89344">
        <ele>1218.8</ele>
        <time>2022-09-07T15:47:07Z</time>
      </trkpt>
      <trkpt lat="42.36846" lon="1.89342">
        <ele>1219.8</ele>
        <time>2022-09-07T15:47:08Z</time>
      </trkpt>
      <trkpt lat="42.3685" lon="1.89343">
        <ele>1221</ele>
        <time>2022-09-07T15:47:09Z</time>
      </trkpt>
      <trkpt lat="42.36854" lon="1.89343">
        <ele>1221</ele>
        <time>2022-09-07T15:47:10Z</time>
      </trkpt>
      <trkpt lat="42.36857" lon="1.89344">
        <ele>1221</ele>
        <time>2022-09-07T15:47:11Z</time>
      </trkpt>
      <trkpt lat="42.36861" lon="1.89344">
        <ele>1222</ele>
        <time>2022-09-07T15:47:12Z</time>
      </trkpt>
      <trkpt lat="42.36864" lon="1.89345">
        <ele>1221.8</ele>
        <time>2022-09-07T15:47:13Z</time>
      </trkpt>
      <trkpt lat="42.36867" lon="1.89346">
        <ele>1221.8</ele>
        <time>2022-09-07T15:47:14Z</time>
      </trkpt>
      <trkpt lat="42.36869" lon="1.89347">
        <ele>1221.8</ele>
        <time>2022-09-07T15:47:15Z</time>
      </trkpt>
      <trkpt lat="42.36869" lon="1.89348">
        <ele>1221.8</ele>
        <time>2022-09-07T15:47:16Z</time>
      </trkpt>
      <trkpt lat="42.36869" lon="1.89348">
        <ele>1221.8</ele>
        <time>2022-09-07T15:47:17Z</time>
      </trkpt>
      <trkpt lat="42.36873" lon="1.89349">
        <ele>1221.8</ele>
        <time>2022-09-07T15:47:18Z</time>
      </trkpt>
      <trkpt lat="42.36877" lon="1.8935">
        <ele>1222.2</ele>
        <time>2022-09-07T15:47:30Z</time>
      </trkpt>
      <trkpt lat="42.36881" lon="1.8935">
        <ele>1222.2</ele>
        <time>2022-09-07T15:47:31Z</time>
      </trkpt>
      <trkpt lat="42.36885" lon="1.89351">
        <ele>1222.2</ele>
        <time>2022-09-07T15:47:32Z</time>
      </trkpt>
      <trkpt lat="42.3689" lon="1.89351">
        <ele>1222.2</ele>
        <time>2022-09-07T15:47:33Z</time>
      </trkpt>
      <trkpt lat="42.36894" lon="1.8935">
        <ele>1223.2</ele>
        <time>2022-09-07T15:47:34Z</time>
      </trkpt>
      <trkpt lat="42.36899" lon="1.8935">
        <ele>1223.6</ele>
        <time>2022-09-07T15:47:35Z</time>
      </trkpt>
      <trkpt lat="42.36903" lon="1.89349">
        <ele>1223.6</ele>
        <time>2022-09-07T15:47:36Z</time>
      </trkpt>
      <trkpt lat="42.36908" lon="1.89349">
        <ele>1223.6</ele>
        <time>2022-09-07T15:47:37Z</time>
      </trkpt>
      <trkpt lat="42.36913" lon="1.8935">
        <ele>1223.6</ele>
        <time>2022-09-07T15:47:38Z</time>
      </trkpt>
      <trkpt lat="42.36917" lon="1.89351">
        <ele>1224.2</ele>
        <time>2022-09-07T15:47:39Z</time>
      </trkpt>
      <trkpt lat="42.36922" lon="1.89352">
        <ele>1224.2</ele>
        <time>2022-09-07T15:47:40Z</time>
      </trkpt>
      <trkpt lat="42.36926" lon="1.89354">
        <ele>1224.2</ele>
        <time>2022-09-07T15:47:41Z</time>
      </trkpt>
      <trkpt lat="42.36931" lon="1.89358">
        <ele>1223.2</ele>
        <time>2022-09-07T15:47:42Z</time>
      </trkpt>
      <trkpt lat="42.36935" lon="1.89363">
        <ele>1223.6</ele>
        <time>2022-09-07T15:47:43Z</time>
      </trkpt>
      <trkpt lat="42.36938" lon="1.89369">
        <ele>1223.6</ele>
        <time>2022-09-07T15:47:44Z</time>
      </trkpt>
      <trkpt lat="42.36941" lon="1.89374">
        <ele>1223.6</ele>
        <time>2022-09-07T15:47:45Z</time>
      </trkpt>
      <trkpt lat="42.36944" lon="1.89381">
        <ele>1224.6</ele>
        <time>2022-09-07T15:47:46Z</time>
      </trkpt>
      <trkpt lat="42.36947" lon="1.89388">
        <ele>1223.8</ele>
        <time>2022-09-07T15:47:47Z</time>
      </trkpt>
      <trkpt lat="42.36948" lon="1.89395">
        <ele>1223.8</ele>
        <time>2022-09-07T15:47:48Z</time>
      </trkpt>
      <trkpt lat="42.3695" lon="1.89402">
        <ele>1223.8</ele>
        <time>2022-09-07T15:47:49Z</time>
      </trkpt>
      <trkpt lat="42.36952" lon="1.89408">
        <ele>1223.8</ele>
        <time>2022-09-07T15:47:50Z</time>
      </trkpt>
      <trkpt lat="42.36954" lon="1.89413">
        <ele>1224.8</ele>
        <time>2022-09-07T15:47:51Z</time>
      </trkpt>
      <trkpt lat="42.36955" lon="1.89418">
        <ele>1226.8</ele>
        <time>2022-09-07T15:47:52Z</time>
      </trkpt>
      <trkpt lat="42.36957" lon="1.89422">
        <ele>1226.8</ele>
        <time>2022-09-07T15:47:53Z</time>
      </trkpt>
      <trkpt lat="42.36959" lon="1.89425">
        <ele>1226.8</ele>
        <time>2022-09-07T15:47:54Z</time>
      </trkpt>
      <trkpt lat="42.3696" lon="1.89428">
        <ele>1227</ele>
        <time>2022-09-07T15:47:55Z</time>
      </trkpt>
      <trkpt lat="42.36961" lon="1.89432">
        <ele>1226.4</ele>
        <time>2022-09-07T15:47:56Z</time>
      </trkpt>
      <trkpt lat="42.36962" lon="1.89435">
        <ele>1226.4</ele>
        <time>2022-09-07T15:47:57Z</time>
      </trkpt>
      <trkpt lat="42.36963" lon="1.8944">
        <ele>1226.4</ele>
        <time>2022-09-07T15:47:58Z</time>
      </trkpt>
      <trkpt lat="42.36963" lon="1.89445">
        <ele>1226.4</ele>
        <time>2022-09-07T15:47:59Z</time>
      </trkpt>
      <trkpt lat="42.36962" lon="1.89452">
        <ele>1226</ele>
        <time>2022-09-07T15:48:00Z</time>
      </trkpt>
      <trkpt lat="42.36962" lon="1.89459">
        <ele>1226</ele>
        <time>2022-09-07T15:48:01Z</time>
      </trkpt>
      <trkpt lat="42.36962" lon="1.89466">
        <ele>1226</ele>
        <time>2022-09-07T15:48:02Z</time>
      </trkpt>
      <trkpt lat="42.36963" lon="1.89474">
        <ele>1225</ele>
        <time>2022-09-07T15:48:03Z</time>
      </trkpt>
      <trkpt lat="42.36965" lon="1.89479">
        <ele>1223.2</ele>
        <time>2022-09-07T15:48:04Z</time>
      </trkpt>
      <trkpt lat="42.36969" lon="1.89482">
        <ele>1223.2</ele>
        <time>2022-09-07T15:48:05Z</time>
      </trkpt>
      <trkpt lat="42.36973" lon="1.89482">
        <ele>1223.2</ele>
        <time>2022-09-07T15:48:06Z</time>
      </trkpt>
      <trkpt lat="42.36977" lon="1.89479">
        <ele>1223.2</ele>
        <time>2022-09-07T15:48:07Z</time>
      </trkpt>
      <trkpt lat="42.36981" lon="1.89477">
        <ele>1222.4</ele>
        <time>2022-09-07T15:48:08Z</time>
      </trkpt>
      <trkpt lat="42.36986" lon="1.89474">
        <ele>1222.4</ele>
        <time>2022-09-07T15:48:09Z</time>
      </trkpt>
      <trkpt lat="42.36991" lon="1.89471">
        <ele>1222.4</ele>
        <time>2022-09-07T15:48:10Z</time>
      </trkpt>
      <trkpt lat="42.36996" lon="1.89466">
        <ele>1222.4</ele>
        <time>2022-09-07T15:48:11Z</time>
      </trkpt>
      <trkpt lat="42.37001" lon="1.89462">
        <ele>1221</ele>
        <time>2022-09-07T15:48:12Z</time>
      </trkpt>
      <trkpt lat="42.37005" lon="1.89458">
        <ele>1221</ele>
        <time>2022-09-07T15:48:13Z</time>
      </trkpt>
      <trkpt lat="42.3701" lon="1.89452">
        <ele>1221</ele>
        <time>2022-09-07T15:48:14Z</time>
      </trkpt>
      <trkpt lat="42.37014" lon="1.89446">
        <ele>1221</ele>
        <time>2022-09-07T15:48:15Z</time>
      </trkpt>
      <trkpt lat="42.37019" lon="1.89438">
        <ele>1218.4</ele>
        <time>2022-09-07T15:48:16Z</time>
      </trkpt>
      <trkpt lat="42.37022" lon="1.89428">
        <ele>1218.4</ele>
        <time>2022-09-07T15:48:17Z</time>
      </trkpt>
      <trkpt lat="42.37026" lon="1.89419">
        <ele>1218.4</ele>
        <time>2022-09-07T15:48:18Z</time>
      </trkpt>
      <trkpt lat="42.37031" lon="1.8941">
        <ele>1219</ele>
        <time>2022-09-07T15:48:19Z</time>
      </trkpt>
      <trkpt lat="42.37035" lon="1.894">
        <ele>1219</ele>
        <time>2022-09-07T15:48:20Z</time>
      </trkpt>
      <trkpt lat="42.3704" lon="1.89392">
        <ele>1219</ele>
        <time>2022-09-07T15:48:21Z</time>
      </trkpt>
      <trkpt lat="42.37045" lon="1.89384">
        <ele>1219</ele>
        <time>2022-09-07T15:48:22Z</time>
      </trkpt>
      <trkpt lat="42.37049" lon="1.89376">
        <ele>1219</ele>
        <time>2022-09-07T15:48:23Z</time>
      </trkpt>
      <trkpt lat="42.37054" lon="1.89368">
        <ele>1219.2</ele>
        <time>2022-09-07T15:48:24Z</time>
      </trkpt>
      <trkpt lat="42.37059" lon="1.89361">
        <ele>1219.2</ele>
        <time>2022-09-07T15:48:25Z</time>
      </trkpt>
      <trkpt lat="42.37063" lon="1.89355">
        <ele>1219.2</ele>
        <time>2022-09-07T15:48:26Z</time>
      </trkpt>
      <trkpt lat="42.37067" lon="1.89348">
        <ele>1219.2</ele>
        <time>2022-09-07T15:48:27Z</time>
      </trkpt>
      <trkpt lat="42.3707" lon="1.89342">
        <ele>1219.2</ele>
        <time>2022-09-07T15:48:28Z</time>
      </trkpt>
      <trkpt lat="42.37072" lon="1.89335">
        <ele>1220.4</ele>
        <time>2022-09-07T15:48:29Z</time>
      </trkpt>
      <trkpt lat="42.37072" lon="1.89329">
        <ele>1220.4</ele>
        <time>2022-09-07T15:48:30Z</time>
      </trkpt>
      <trkpt lat="42.3707" lon="1.89325">
        <ele>1220.4</ele>
        <time>2022-09-07T15:48:31Z</time>
      </trkpt>
      <trkpt lat="42.37068" lon="1.89319">
        <ele>1220.4</ele>
        <time>2022-09-07T15:48:32Z</time>
      </trkpt>
      <trkpt lat="42.37066" lon="1.89312">
        <ele>1217.6</ele>
        <time>2022-09-07T15:48:33Z</time>
      </trkpt>
      <trkpt lat="42.37066" lon="1.89302">
        <ele>1217.6</ele>
        <time>2022-09-07T15:48:34Z</time>
      </trkpt>
      <trkpt lat="42.37067" lon="1.89292">
        <ele>1217.6</ele>
        <time>2022-09-07T15:48:35Z</time>
      </trkpt>
      <trkpt lat="42.37068" lon="1.89282">
        <ele>1217.6</ele>
        <time>2022-09-07T15:48:36Z</time>
      </trkpt>
      <trkpt lat="42.3707" lon="1.89272">
        <ele>1216</ele>
        <time>2022-09-07T15:48:37Z</time>
      </trkpt>
      <trkpt lat="42.37072" lon="1.89263">
        <ele>1216</ele>
        <time>2022-09-07T15:48:38Z</time>
      </trkpt>
      <trkpt lat="42.37075" lon="1.89255">
        <ele>1216</ele>
        <time>2022-09-07T15:48:39Z</time>
      </trkpt>
      <trkpt lat="42.37079" lon="1.89247">
        <ele>1216.6</ele>
        <time>2022-09-07T15:48:40Z</time>
      </trkpt>
      <trkpt lat="42.37083" lon="1.8924">
        <ele>1217</ele>
        <time>2022-09-07T15:48:41Z</time>
      </trkpt>
      <trkpt lat="42.37087" lon="1.89233">
        <ele>1217</ele>
        <time>2022-09-07T15:48:42Z</time>
      </trkpt>
      <trkpt lat="42.37091" lon="1.89226">
        <ele>1217</ele>
        <time>2022-09-07T15:48:43Z</time>
      </trkpt>
      <trkpt lat="42.37095" lon="1.8922">
        <ele>1217</ele>
        <time>2022-09-07T15:48:44Z</time>
      </trkpt>
      <trkpt lat="42.37099" lon="1.89215">
        <ele>1217.6</ele>
        <time>2022-09-07T15:48:45Z</time>
      </trkpt>
      <trkpt lat="42.37104" lon="1.89211">
        <ele>1217.2</ele>
        <time>2022-09-07T15:48:46Z</time>
      </trkpt>
      <trkpt lat="42.37109" lon="1.89208">
        <ele>1217.2</ele>
        <time>2022-09-07T15:48:47Z</time>
      </trkpt>
      <trkpt lat="42.37114" lon="1.89206">
        <ele>1217.2</ele>
        <time>2022-09-07T15:48:48Z</time>
      </trkpt>
      <trkpt lat="42.37119" lon="1.89202">
        <ele>1217.6</ele>
        <time>2022-09-07T15:48:49Z</time>
      </trkpt>
      <trkpt lat="42.37123" lon="1.89196">
        <ele>1217.8</ele>
        <time>2022-09-07T15:48:50Z</time>
      </trkpt>
      <trkpt lat="42.37128" lon="1.8919">
        <ele>1217.8</ele>
        <time>2022-09-07T15:48:51Z</time>
      </trkpt>
      <trkpt lat="42.37133" lon="1.89186">
        <ele>1217.8</ele>
        <time>2022-09-07T15:48:52Z</time>
      </trkpt>
      <trkpt lat="42.3714" lon="1.89183">
        <ele>1217.8</ele>
        <time>2022-09-07T15:48:53Z</time>
      </trkpt>
      <trkpt lat="42.37147" lon="1.89182">
        <ele>1214.4</ele>
        <time>2022-09-07T15:48:54Z</time>
      </trkpt>
      <trkpt lat="42.37154" lon="1.89185">
        <ele>1214.4</ele>
        <time>2022-09-07T15:48:55Z</time>
      </trkpt>
      <trkpt lat="42.37162" lon="1.89187">
        <ele>1214.4</ele>
        <time>2022-09-07T15:48:56Z</time>
      </trkpt>
      <trkpt lat="42.37171" lon="1.89187">
        <ele>1215.4</ele>
        <time>2022-09-07T15:48:57Z</time>
      </trkpt>
      <trkpt lat="42.37179" lon="1.89185">
        <ele>1214.4</ele>
        <time>2022-09-07T15:48:58Z</time>
      </trkpt>
      <trkpt lat="42.37187" lon="1.89181">
        <ele>1214.4</ele>
        <time>2022-09-07T15:48:59Z</time>
      </trkpt>
      <trkpt lat="42.37195" lon="1.89177">
        <ele>1214.4</ele>
        <time>2022-09-07T15:49:00Z</time>
      </trkpt>
      <trkpt lat="42.37203" lon="1.89171">
        <ele>1214.4</ele>
        <time>2022-09-07T15:49:01Z</time>
      </trkpt>
      <trkpt lat="42.37212" lon="1.89166">
        <ele>1213.4</ele>
        <time>2022-09-07T15:49:02Z</time>
      </trkpt>
      <trkpt lat="42.3722" lon="1.89161">
        <ele>1210.8</ele>
        <time>2022-09-07T15:49:03Z</time>
      </trkpt>
      <trkpt lat="42.37228" lon="1.89155">
        <ele>1210.8</ele>
        <time>2022-09-07T15:49:04Z</time>
      </trkpt>
      <trkpt lat="42.37235" lon="1.89147">
        <ele>1210.8</ele>
        <time>2022-09-07T15:49:05Z</time>
      </trkpt>
      <trkpt lat="42.37239" lon="1.8914">
        <ele>1211.8</ele>
        <time>2022-09-07T15:49:06Z</time>
      </trkpt>
      <trkpt lat="42.37242" lon="1.89134">
        <ele>1212.2</ele>
        <time>2022-09-07T15:49:07Z</time>
      </trkpt>
      <trkpt lat="42.37243" lon="1.89128">
        <ele>1212.2</ele>
        <time>2022-09-07T15:49:08Z</time>
      </trkpt>
      <trkpt lat="42.37245" lon="1.89122">
        <ele>1212.2</ele>
        <time>2022-09-07T15:49:09Z</time>
      </trkpt>
      <trkpt lat="42.37246" lon="1.89115">
        <ele>1211.2</ele>
        <time>2022-09-07T15:49:10Z</time>
      </trkpt>
      <trkpt lat="42.37246" lon="1.89107">
        <ele>1209.4</ele>
        <time>2022-09-07T15:49:11Z</time>
      </trkpt>
      <trkpt lat="42.37244" lon="1.891">
        <ele>1209.4</ele>
        <time>2022-09-07T15:49:12Z</time>
      </trkpt>
      <trkpt lat="42.37241" lon="1.89092">
        <ele>1209.4</ele>
        <time>2022-09-07T15:49:13Z</time>
      </trkpt>
      <trkpt lat="42.37238" lon="1.89084">
        <ele>1208.4</ele>
        <time>2022-09-07T15:49:14Z</time>
      </trkpt>
      <trkpt lat="42.37235" lon="1.89076">
        <ele>1206.2</ele>
        <time>2022-09-07T15:49:15Z</time>
      </trkpt>
      <trkpt lat="42.3723" lon="1.89067">
        <ele>1206.2</ele>
        <time>2022-09-07T15:49:16Z</time>
      </trkpt>
      <trkpt lat="42.37224" lon="1.89059">
        <ele>1206.2</ele>
        <time>2022-09-07T15:49:17Z</time>
      </trkpt>
      <trkpt lat="42.37217" lon="1.89052">
        <ele>1206.2</ele>
        <time>2022-09-07T15:49:18Z</time>
      </trkpt>
      <trkpt lat="42.3721" lon="1.89043">
        <ele>1205.2</ele>
        <time>2022-09-07T15:49:19Z</time>
      </trkpt>
      <trkpt lat="42.37204" lon="1.89034">
        <ele>1200.4</ele>
        <time>2022-09-07T15:49:20Z</time>
      </trkpt>
      <trkpt lat="42.37201" lon="1.89022">
        <ele>1200.4</ele>
        <time>2022-09-07T15:49:21Z</time>
      </trkpt>
      <trkpt lat="42.37201" lon="1.89008">
        <ele>1200.4</ele>
        <time>2022-09-07T15:49:22Z</time>
      </trkpt>
      <trkpt lat="42.37205" lon="1.88996">
        <ele>1199.4</ele>
        <time>2022-09-07T15:49:23Z</time>
      </trkpt>
      <trkpt lat="42.37212" lon="1.88984">
        <ele>1195.4</ele>
        <time>2022-09-07T15:49:24Z</time>
      </trkpt>
      <trkpt lat="42.3722" lon="1.88973">
        <ele>1195.4</ele>
        <time>2022-09-07T15:49:25Z</time>
      </trkpt>
      <trkpt lat="42.37227" lon="1.88964">
        <ele>1195.4</ele>
        <time>2022-09-07T15:49:26Z</time>
      </trkpt>
      <trkpt lat="42.37234" lon="1.88955">
        <ele>1194.4</ele>
        <time>2022-09-07T15:49:27Z</time>
      </trkpt>
      <trkpt lat="42.37238" lon="1.88946">
        <ele>1191</ele>
        <time>2022-09-07T15:49:28Z</time>
      </trkpt>
      <trkpt lat="42.37239" lon="1.88936">
        <ele>1191</ele>
        <time>2022-09-07T15:49:29Z</time>
      </trkpt>
      <trkpt lat="42.37237" lon="1.88924">
        <ele>1191</ele>
        <time>2022-09-07T15:49:30Z</time>
      </trkpt>
      <trkpt lat="42.37233" lon="1.88912">
        <ele>1190</ele>
        <time>2022-09-07T15:49:31Z</time>
      </trkpt>
      <trkpt lat="42.37228" lon="1.88899">
        <ele>1184.6</ele>
        <time>2022-09-07T15:49:32Z</time>
      </trkpt>
      <trkpt lat="42.37223" lon="1.88886">
        <ele>1184.6</ele>
        <time>2022-09-07T15:49:33Z</time>
      </trkpt>
      <trkpt lat="42.37219" lon="1.88873">
        <ele>1184.6</ele>
        <time>2022-09-07T15:49:34Z</time>
      </trkpt>
      <trkpt lat="42.37215" lon="1.88859">
        <ele>1183.6</ele>
        <time>2022-09-07T15:49:35Z</time>
      </trkpt>
      <trkpt lat="42.37211" lon="1.88845">
        <ele>1182</ele>
        <time>2022-09-07T15:49:36Z</time>
      </trkpt>
      <trkpt lat="42.37207" lon="1.88831">
        <ele>1182</ele>
        <time>2022-09-07T15:49:37Z</time>
      </trkpt>
      <trkpt lat="42.37205" lon="1.8882">
        <ele>1182</ele>
        <time>2022-09-07T15:49:38Z</time>
      </trkpt>
      <trkpt lat="42.37203" lon="1.88811">
        <ele>1182</ele>
        <time>2022-09-07T15:49:39Z</time>
      </trkpt>
      <trkpt lat="42.37203" lon="1.88805">
        <ele>1182</ele>
        <time>2022-09-07T15:49:40Z</time>
      </trkpt>
      <trkpt lat="42.37203" lon="1.888">
        <ele>1182.2</ele>
        <time>2022-09-07T15:49:41Z</time>
      </trkpt>
      <trkpt lat="42.37204" lon="1.88796">
        <ele>1182.2</ele>
        <time>2022-09-07T15:49:42Z</time>
      </trkpt>
      <trkpt lat="42.37206" lon="1.88793">
        <ele>1182.2</ele>
        <time>2022-09-07T15:49:43Z</time>
      </trkpt>
      <trkpt lat="42.37211" lon="1.88793">
        <ele>1181.2</ele>
        <time>2022-09-07T15:49:44Z</time>
      </trkpt>
      <trkpt lat="42.37218" lon="1.88798">
        <ele>1179</ele>
        <time>2022-09-07T15:49:45Z</time>
      </trkpt>
      <trkpt lat="42.37226" lon="1.88806">
        <ele>1179</ele>
        <time>2022-09-07T15:49:46Z</time>
      </trkpt>
      <trkpt lat="42.37233" lon="1.88813">
        <ele>1179</ele>
        <time>2022-09-07T15:49:47Z</time>
      </trkpt>
      <trkpt lat="42.3724" lon="1.88819">
        <ele>1178</ele>
        <time>2022-09-07T15:49:48Z</time>
      </trkpt>
      <trkpt lat="42.37248" lon="1.88822">
        <ele>1173</ele>
        <time>2022-09-07T15:49:49Z</time>
      </trkpt>
      <trkpt lat="42.37256" lon="1.88822">
        <ele>1173</ele>
        <time>2022-09-07T15:49:50Z</time>
      </trkpt>
      <trkpt lat="42.37264" lon="1.88819">
        <ele>1173</ele>
        <time>2022-09-07T15:49:51Z</time>
      </trkpt>
      <trkpt lat="42.37273" lon="1.88814">
        <ele>1172</ele>
        <time>2022-09-07T15:49:52Z</time>
      </trkpt>
      <trkpt lat="42.37281" lon="1.88809">
        <ele>1166</ele>
        <time>2022-09-07T15:49:53Z</time>
      </trkpt>
      <trkpt lat="42.37288" lon="1.88805">
        <ele>1166</ele>
        <time>2022-09-07T15:49:54Z</time>
      </trkpt>
      <trkpt lat="42.37294" lon="1.88801">
        <ele>1166</ele>
        <time>2022-09-07T15:49:55Z</time>
      </trkpt>
      <trkpt lat="42.37299" lon="1.88797">
        <ele>1165</ele>
        <time>2022-09-07T15:49:56Z</time>
      </trkpt>
      <trkpt lat="42.37303" lon="1.88797">
        <ele>1162.6</ele>
        <time>2022-09-07T15:49:57Z</time>
      </trkpt>
      <trkpt lat="42.37308" lon="1.88801">
        <ele>1162.6</ele>
        <time>2022-09-07T15:49:58Z</time>
      </trkpt>
      <trkpt lat="42.37312" lon="1.88808">
        <ele>1162.6</ele>
        <time>2022-09-07T15:49:59Z</time>
      </trkpt>
      <trkpt lat="42.37315" lon="1.88815">
        <ele>1162.6</ele>
        <time>2022-09-07T15:50:00Z</time>
      </trkpt>
      <trkpt lat="42.37318" lon="1.88823">
        <ele>1161.6</ele>
        <time>2022-09-07T15:50:01Z</time>
      </trkpt>
      <trkpt lat="42.37322" lon="1.88831">
        <ele>1159.6</ele>
        <time>2022-09-07T15:50:02Z</time>
      </trkpt>
      <trkpt lat="42.37325" lon="1.8884">
        <ele>1159.6</ele>
        <time>2022-09-07T15:50:03Z</time>
      </trkpt>
      <trkpt lat="42.37328" lon="1.88849">
        <ele>1159.6</ele>
        <time>2022-09-07T15:50:04Z</time>
      </trkpt>
      <trkpt lat="42.37332" lon="1.88859">
        <ele>1158.6</ele>
        <time>2022-09-07T15:50:05Z</time>
      </trkpt>
      <trkpt lat="42.37336" lon="1.88868">
        <ele>1157.4</ele>
        <time>2022-09-07T15:50:06Z</time>
      </trkpt>
      <trkpt lat="42.37341" lon="1.88877">
        <ele>1157.4</ele>
        <time>2022-09-07T15:50:07Z</time>
      </trkpt>
      <trkpt lat="42.37347" lon="1.88885">
        <ele>1157.4</ele>
        <time>2022-09-07T15:50:08Z</time>
      </trkpt>
      <trkpt lat="42.37353" lon="1.88893">
        <ele>1157.4</ele>
        <time>2022-09-07T15:50:09Z</time>
      </trkpt>
      <trkpt lat="42.37359" lon="1.889">
        <ele>1157.2</ele>
        <time>2022-09-07T15:50:10Z</time>
      </trkpt>
      <trkpt lat="42.37365" lon="1.88909">
        <ele>1157.2</ele>
        <time>2022-09-07T15:50:11Z</time>
      </trkpt>
      <trkpt lat="42.37371" lon="1.88917">
        <ele>1157.2</ele>
        <time>2022-09-07T15:50:12Z</time>
      </trkpt>
      <trkpt lat="42.37376" lon="1.88926">
        <ele>1156.2</ele>
        <time>2022-09-07T15:50:13Z</time>
      </trkpt>
      <trkpt lat="42.37381" lon="1.88934">
        <ele>1155</ele>
        <time>2022-09-07T15:50:14Z</time>
      </trkpt>
      <trkpt lat="42.37386" lon="1.88943">
        <ele>1155</ele>
        <time>2022-09-07T15:50:15Z</time>
      </trkpt>
      <trkpt lat="42.37392" lon="1.8895">
        <ele>1155</ele>
        <time>2022-09-07T15:50:16Z</time>
      </trkpt>
      <trkpt lat="42.37397" lon="1.88958">
        <ele>1155</ele>
        <time>2022-09-07T15:50:17Z</time>
      </trkpt>
      <trkpt lat="42.37401" lon="1.88966">
        <ele>1154</ele>
        <time>2022-09-07T15:50:18Z</time>
      </trkpt>
      <trkpt lat="42.37403" lon="1.88976">
        <ele>1152.4</ele>
        <time>2022-09-07T15:50:19Z</time>
      </trkpt>
      <trkpt lat="42.37405" lon="1.88987">
        <ele>1152.4</ele>
        <time>2022-09-07T15:50:20Z</time>
      </trkpt>
      <trkpt lat="42.37408" lon="1.88998">
        <ele>1152.4</ele>
        <time>2022-09-07T15:50:21Z</time>
      </trkpt>
      <trkpt lat="42.3741" lon="1.89009">
        <ele>1152.4</ele>
        <time>2022-09-07T15:50:22Z</time>
      </trkpt>
      <trkpt lat="42.37411" lon="1.8902">
        <ele>1149.4</ele>
        <time>2022-09-07T15:50:23Z</time>
      </trkpt>
      <trkpt lat="42.37413" lon="1.89031">
        <ele>1149.4</ele>
        <time>2022-09-07T15:50:24Z</time>
      </trkpt>
      <trkpt lat="42.37415" lon="1.89043">
        <ele>1149.4</ele>
        <time>2022-09-07T15:50:25Z</time>
      </trkpt>
      <trkpt lat="42.37418" lon="1.89053">
        <ele>1148.4</ele>
        <time>2022-09-07T15:50:26Z</time>
      </trkpt>
      <trkpt lat="42.37423" lon="1.89062">
        <ele>1146.6</ele>
        <time>2022-09-07T15:50:27Z</time>
      </trkpt>
      <trkpt lat="42.37431" lon="1.89069">
        <ele>1146.6</ele>
        <time>2022-09-07T15:50:28Z</time>
      </trkpt>
      <trkpt lat="42.37441" lon="1.89073">
        <ele>1146.6</ele>
        <time>2022-09-07T15:50:29Z</time>
      </trkpt>
      <trkpt lat="42.3745" lon="1.89077">
        <ele>1146.6</ele>
        <time>2022-09-07T15:50:30Z</time>
      </trkpt>
      <trkpt lat="42.37459" lon="1.8908">
        <ele>1145.6</ele>
        <time>2022-09-07T15:50:31Z</time>
      </trkpt>
      <trkpt lat="42.37468" lon="1.89083">
        <ele>1143.8</ele>
        <time>2022-09-07T15:50:32Z</time>
      </trkpt>
      <trkpt lat="42.37477" lon="1.89086">
        <ele>1143.8</ele>
        <time>2022-09-07T15:50:33Z</time>
      </trkpt>
      <trkpt lat="42.37486" lon="1.89088">
        <ele>1143.8</ele>
        <time>2022-09-07T15:50:34Z</time>
      </trkpt>
      <trkpt lat="42.37495" lon="1.8909">
        <ele>1142.8</ele>
        <time>2022-09-07T15:50:35Z</time>
      </trkpt>
      <trkpt lat="42.37504" lon="1.89091">
        <ele>1141.2</ele>
        <time>2022-09-07T15:50:36Z</time>
      </trkpt>
      <trkpt lat="42.37512" lon="1.89092">
        <ele>1141.2</ele>
        <time>2022-09-07T15:50:37Z</time>
      </trkpt>
      <trkpt lat="42.37519" lon="1.89093">
        <ele>1141.2</ele>
        <time>2022-09-07T15:50:38Z</time>
      </trkpt>
      <trkpt lat="42.37526" lon="1.89093">
        <ele>1140.4</ele>
        <time>2022-09-07T15:50:39Z</time>
      </trkpt>
      <trkpt lat="42.37531" lon="1.89092">
        <ele>1141.6</ele>
        <time>2022-09-07T15:50:40Z</time>
      </trkpt>
      <trkpt lat="42.37536" lon="1.89087">
        <ele>1141.6</ele>
        <time>2022-09-07T15:50:41Z</time>
      </trkpt>
      <trkpt lat="42.37541" lon="1.89081">
        <ele>1141.6</ele>
        <time>2022-09-07T15:50:42Z</time>
      </trkpt>
      <trkpt lat="42.37546" lon="1.89075">
        <ele>1140.6</ele>
        <time>2022-09-07T15:50:43Z</time>
      </trkpt>
      <trkpt lat="42.3755" lon="1.89071">
        <ele>1140.6</ele>
        <time>2022-09-07T15:50:44Z</time>
      </trkpt>
      <trkpt lat="42.37555" lon="1.89067">
        <ele>1140.6</ele>
        <time>2022-09-07T15:50:45Z</time>
      </trkpt>
      <trkpt lat="42.37559" lon="1.89064">
        <ele>1140.6</ele>
        <time>2022-09-07T15:50:46Z</time>
      </trkpt>
      <trkpt lat="42.37563" lon="1.89061">
        <ele>1140.6</ele>
        <time>2022-09-07T15:50:47Z</time>
      </trkpt>
      <trkpt lat="42.37567" lon="1.89058">
        <ele>1139.6</ele>
        <time>2022-09-07T15:50:48Z</time>
      </trkpt>
      <trkpt lat="42.37573" lon="1.89056">
        <ele>1139.4</ele>
        <time>2022-09-07T15:50:49Z</time>
      </trkpt>
      <trkpt lat="42.37577" lon="1.89053">
        <ele>1139.4</ele>
        <time>2022-09-07T15:50:50Z</time>
      </trkpt>
      <trkpt lat="42.37582" lon="1.8905">
        <ele>1139.4</ele>
        <time>2022-09-07T15:50:51Z</time>
      </trkpt>
      <trkpt lat="42.37588" lon="1.89046">
        <ele>1138.6</ele>
        <time>2022-09-07T15:50:52Z</time>
      </trkpt>
      <trkpt lat="42.37594" lon="1.89041">
        <ele>1138.4</ele>
        <time>2022-09-07T15:50:53Z</time>
      </trkpt>
      <trkpt lat="42.376" lon="1.89036">
        <ele>1138.4</ele>
        <time>2022-09-07T15:50:54Z</time>
      </trkpt>
      <trkpt lat="42.37605" lon="1.89031">
        <ele>1138.4</ele>
        <time>2022-09-07T15:50:55Z</time>
      </trkpt>
      <trkpt lat="42.37610854195256" lon="1.890254850024516">
        <ele>1138.4</ele>
        <time>2022-09-07T15:50:55Z</time>
      </trkpt>
      <trkpt lat="42.37611" lon="1.89025">
        <ele>1138.4</ele>
        <time>2022-09-07T15:50:56Z</time>
      </trkpt>
      <trkpt lat="42.37617" lon="1.8902">
        <ele>1136.8</ele>
        <time>2022-09-07T15:50:57Z</time>
      </trkpt>
      <trkpt lat="42.37623" lon="1.89016">
        <ele>1136.8</ele>
        <time>2022-09-07T15:50:58Z</time>
      </trkpt>
      <trkpt lat="42.37629" lon="1.89012">
        <ele>1136.8</ele>
        <time>2022-09-07T15:50:59Z</time>
      </trkpt>
      <trkpt lat="42.37633" lon="1.89008">
        <ele>1135.8</ele>
        <time>2022-09-07T15:51:00Z</time>
      </trkpt>
      <trkpt lat="42.37635" lon="1.89003">
        <ele>1136.2</ele>
        <time>2022-09-07T15:51:01Z</time>
      </trkpt>
      <trkpt lat="42.37636" lon="1.88996">
        <ele>1136.2</ele>
        <time>2022-09-07T15:51:02Z</time>
      </trkpt>
      <trkpt lat="42.37636" lon="1.88988">
        <ele>1136.2</ele>
        <time>2022-09-07T15:51:03Z</time>
      </trkpt>
      <trkpt lat="42.37633" lon="1.8898">
        <ele>1136.2</ele>
        <time>2022-09-07T15:51:04Z</time>
      </trkpt>
      <trkpt lat="42.3763" lon="1.88973">
        <ele>1136.6</ele>
        <time>2022-09-07T15:51:05Z</time>
      </trkpt>
      <trkpt lat="42.37626" lon="1.88965">
        <ele>1136.6</ele>
        <time>2022-09-07T15:51:06Z</time>
      </trkpt>
      <trkpt lat="42.37624" lon="1.88958">
        <ele>1136.6</ele>
        <time>2022-09-07T15:51:07Z</time>
      </trkpt>
      <trkpt lat="42.37622" lon="1.8895">
        <ele>1136.6</ele>
        <time>2022-09-07T15:51:08Z</time>
      </trkpt>
      <trkpt lat="42.3762" lon="1.88942">
        <ele>1137.4</ele>
        <time>2022-09-07T15:51:09Z</time>
      </trkpt>
      <trkpt lat="42.37618" lon="1.88935">
        <ele>1137.2</ele>
        <time>2022-09-07T15:51:10Z</time>
      </trkpt>
      <trkpt lat="42.37616" lon="1.88927">
        <ele>1137.2</ele>
        <time>2022-09-07T15:51:11Z</time>
      </trkpt>
      <trkpt lat="42.37614" lon="1.88919">
        <ele>1137.2</ele>
        <time>2022-09-07T15:51:12Z</time>
      </trkpt>
      <trkpt lat="42.37613" lon="1.88912">
        <ele>1137.8</ele>
        <time>2022-09-07T15:51:13Z</time>
      </trkpt>
      <trkpt lat="42.37611" lon="1.88904">
        <ele>1137.6</ele>
        <time>2022-09-07T15:51:14Z</time>
      </trkpt>
      <trkpt lat="42.3761" lon="1.88896">
        <ele>1137.6</ele>
        <time>2022-09-07T15:51:15Z</time>
      </trkpt>
      <trkpt lat="42.37609" lon="1.88888">
        <ele>1137.6</ele>
        <time>2022-09-07T15:51:16Z</time>
      </trkpt>
      <trkpt lat="42.37607" lon="1.8888">
        <ele>1138</ele>
        <time>2022-09-07T15:51:17Z</time>
      </trkpt>
      <trkpt lat="42.37605" lon="1.88873">
        <ele>1138.2</ele>
        <time>2022-09-07T15:51:18Z</time>
      </trkpt>
      <trkpt lat="42.37604" lon="1.88865">
        <ele>1138.2</ele>
        <time>2022-09-07T15:51:19Z</time>
      </trkpt>
      <trkpt lat="42.37602" lon="1.88857">
        <ele>1138.2</ele>
        <time>2022-09-07T15:51:20Z</time>
      </trkpt>
      <trkpt lat="42.37601" lon="1.88849">
        <ele>1138.4</ele>
        <time>2022-09-07T15:51:21Z</time>
      </trkpt>
      <trkpt lat="42.376" lon="1.88841">
        <ele>1138.8</ele>
        <time>2022-09-07T15:51:22Z</time>
      </trkpt>
      <trkpt lat="42.37599" lon="1.88834">
        <ele>1138.8</ele>
        <time>2022-09-07T15:51:23Z</time>
      </trkpt>
      <trkpt lat="42.37598" lon="1.88827">
        <ele>1138.8</ele>
        <time>2022-09-07T15:51:24Z</time>
      </trkpt>
      <trkpt lat="42.37596" lon="1.88821">
        <ele>1139</ele>
        <time>2022-09-07T15:51:25Z</time>
      </trkpt>
      <trkpt lat="42.37595" lon="1.88815">
        <ele>1139.2</ele>
        <time>2022-09-07T15:51:26Z</time>
      </trkpt>
      <trkpt lat="42.37596" lon="1.88809">
        <ele>1139.2</ele>
        <time>2022-09-07T15:51:27Z</time>
      </trkpt>
      <trkpt lat="42.37597" lon="1.88802">
        <ele>1139.2</ele>
        <time>2022-09-07T15:51:28Z</time>
      </trkpt>
      <trkpt lat="42.37601" lon="1.88798">
        <ele>1139.2</ele>
        <time>2022-09-07T15:51:29Z</time>
      </trkpt>
      <trkpt lat="42.37605" lon="1.88795">
        <ele>1139.2</ele>
        <time>2022-09-07T15:51:30Z</time>
      </trkpt>
      <trkpt lat="42.37612" lon="1.88794">
        <ele>1138</ele>
        <time>2022-09-07T15:51:31Z</time>
      </trkpt>
      <trkpt lat="42.37618" lon="1.88794">
        <ele>1138</ele>
        <time>2022-09-07T15:51:32Z</time>
      </trkpt>
      <trkpt lat="42.37625" lon="1.88795">
        <ele>1138</ele>
        <time>2022-09-07T15:51:33Z</time>
      </trkpt>
      <trkpt lat="42.37631" lon="1.88795">
        <ele>1138</ele>
        <time>2022-09-07T15:51:34Z</time>
      </trkpt>
      <trkpt lat="42.37638" lon="1.88795">
        <ele>1137.2</ele>
        <time>2022-09-07T15:51:35Z</time>
      </trkpt>
      <trkpt lat="42.37645" lon="1.88795">
        <ele>1137.2</ele>
        <time>2022-09-07T15:51:36Z</time>
      </trkpt>
      <trkpt lat="42.37652" lon="1.88795">
        <ele>1137.2</ele>
        <time>2022-09-07T15:51:37Z</time>
      </trkpt>
      <trkpt lat="42.37659" lon="1.88795">
        <ele>1137.2</ele>
        <time>2022-09-07T15:51:38Z</time>
      </trkpt>
      <trkpt lat="42.37665" lon="1.88795">
        <ele>1136.4</ele>
        <time>2022-09-07T15:51:39Z</time>
      </trkpt>
      <trkpt lat="42.37672" lon="1.88796">
        <ele>1136.4</ele>
        <time>2022-09-07T15:51:40Z</time>
      </trkpt>
      <trkpt lat="42.37679" lon="1.88797">
        <ele>1136.4</ele>
        <time>2022-09-07T15:51:41Z</time>
      </trkpt>
      <trkpt lat="42.37685" lon="1.88797">
        <ele>1137.4</ele>
        <time>2022-09-07T15:51:42Z</time>
      </trkpt>
      <trkpt lat="42.37691" lon="1.88796">
        <ele>1138.2</ele>
        <time>2022-09-07T15:51:43Z</time>
      </trkpt>
      <trkpt lat="42.37697" lon="1.88796">
        <ele>1138.2</ele>
        <time>2022-09-07T15:51:44Z</time>
      </trkpt>
      <trkpt lat="42.37703" lon="1.88796">
        <ele>1138.2</ele>
        <time>2022-09-07T15:51:45Z</time>
      </trkpt>
      <trkpt lat="42.37709" lon="1.88795">
        <ele>1138.2</ele>
        <time>2022-09-07T15:51:46Z</time>
      </trkpt>
      <trkpt lat="42.37715" lon="1.88795">
        <ele>1138.8</ele>
        <time>2022-09-07T15:51:47Z</time>
      </trkpt>
      <trkpt lat="42.37721" lon="1.88795">
        <ele>1138.8</ele>
        <time>2022-09-07T15:51:48Z</time>
      </trkpt>
      <trkpt lat="42.37727" lon="1.88794">
        <ele>1138.8</ele>
        <time>2022-09-07T15:51:49Z</time>
      </trkpt>
      <trkpt lat="42.37734" lon="1.88793">
        <ele>1138.8</ele>
        <time>2022-09-07T15:51:50Z</time>
      </trkpt>
      <trkpt lat="42.3774" lon="1.88791">
        <ele>1138.8</ele>
        <time>2022-09-07T15:51:51Z</time>
      </trkpt>
      <trkpt lat="42.37748" lon="1.8879">
        <ele>1137.4</ele>
        <time>2022-09-07T15:51:52Z</time>
      </trkpt>
      <trkpt lat="42.37755" lon="1.88789">
        <ele>1137.4</ele>
        <time>2022-09-07T15:51:53Z</time>
      </trkpt>
      <trkpt lat="42.37763" lon="1.88787">
        <ele>1137.4</ele>
        <time>2022-09-07T15:51:54Z</time>
      </trkpt>
      <trkpt lat="42.37771" lon="1.88787">
        <ele>1136.4</ele>
        <time>2022-09-07T15:51:55Z</time>
      </trkpt>
      <trkpt lat="42.3778" lon="1.88786">
        <ele>1133.4</ele>
        <time>2022-09-07T15:51:56Z</time>
      </trkpt>
      <trkpt lat="42.37789" lon="1.88786">
        <ele>1133.4</ele>
        <time>2022-09-07T15:51:57Z</time>
      </trkpt>
      <trkpt lat="42.37798" lon="1.88787">
        <ele>1133.4</ele>
        <time>2022-09-07T15:51:58Z</time>
      </trkpt>
      <trkpt lat="42.37808" lon="1.88788">
        <ele>1132.4</ele>
        <time>2022-09-07T15:51:59Z</time>
      </trkpt>
      <trkpt lat="42.37818" lon="1.8879">
        <ele>1128.6</ele>
        <time>2022-09-07T15:52:00Z</time>
      </trkpt>
      <trkpt lat="42.37828" lon="1.88793">
        <ele>1128.6</ele>
        <time>2022-09-07T15:52:01Z</time>
      </trkpt>
      <trkpt lat="42.37837" lon="1.88799">
        <ele>1128.6</ele>
        <time>2022-09-07T15:52:02Z</time>
      </trkpt>
      <trkpt lat="42.37847" lon="1.88805">
        <ele>1128.6</ele>
        <time>2022-09-07T15:52:03Z</time>
      </trkpt>
      <trkpt lat="42.37856" lon="1.88812">
        <ele>1126.4</ele>
        <time>2022-09-07T15:52:04Z</time>
      </trkpt>
      <trkpt lat="42.37866" lon="1.88816">
        <ele>1126.4</ele>
        <time>2022-09-07T15:52:05Z</time>
      </trkpt>
      <trkpt lat="42.37876" lon="1.88819">
        <ele>1126.4</ele>
        <time>2022-09-07T15:52:06Z</time>
      </trkpt>
      <trkpt lat="42.37886" lon="1.88818">
        <ele>1126.4</ele>
        <time>2022-09-07T15:52:07Z</time>
      </trkpt>
      <trkpt lat="42.37896" lon="1.88815">
        <ele>1126</ele>
        <time>2022-09-07T15:52:08Z</time>
      </trkpt>
      <trkpt lat="42.37907" lon="1.8881">
        <ele>1126</ele>
        <time>2022-09-07T15:52:09Z</time>
      </trkpt>
      <trkpt lat="42.37917" lon="1.88806">
        <ele>1126</ele>
        <time>2022-09-07T15:52:10Z</time>
      </trkpt>
      <trkpt lat="42.37927" lon="1.88804">
        <ele>1126</ele>
        <time>2022-09-07T15:52:11Z</time>
      </trkpt>
      <trkpt lat="42.379354" lon="1.888058">
        <ele>1128.3</ele>
        <time>2022-09-07T15:52:12Z</time>
      </trkpt>
      <trkpt lat="42.379471" lon="1.888077">
        <ele>1128</ele>
        <time>2022-09-07T15:52:14Z</time>
      </trkpt>
      <trkpt lat="42.379978" lon="1.888216">
        <ele>1126</ele>
        <time>2022-09-07T15:52:21Z</time>
      </trkpt>
      <trkpt lat="42.380453" lon="1.88845">
        <ele>1123.3</ele>
        <time>2022-09-07T15:52:29Z</time>
      </trkpt>
      <trkpt lat="42.381284" lon="1.88877">
        <ele>1121.8</ele>
        <time>2022-09-07T15:52:41Z</time>
      </trkpt>
      <trkpt lat="42.381364" lon="1.8888">
        <ele>1121.8</ele>
        <time>2022-09-07T15:52:43Z</time>
      </trkpt>
      <trkpt lat="42.381411" lon="1.888819">
        <ele>1121.8</ele>
        <time>2022-09-07T15:52:43Z</time>
      </trkpt>
      <trkpt lat="42.381448" lon="1.888762">
        <ele>1121.5</ele>
        <time>2022-09-07T15:52:44Z</time>
      </trkpt>
      <trkpt lat="42.381458" lon="1.888747">
        <ele>1121.5</ele>
        <time>2022-09-07T15:52:44Z</time>
      </trkpt>
      <trkpt lat="42.381518" lon="1.888699">
        <ele>1121.5</ele>
        <time>2022-09-07T15:52:45Z</time>
      </trkpt>
      <trkpt lat="42.381946" lon="1.888599">
        <ele>1121</ele>
        <time>2022-09-07T15:52:52Z</time>
      </trkpt>
      <trkpt lat="42.38221207755753" lon="1.888508498668671">
        <ele>1122.6</ele>
        <time>2022-09-07T15:52:56Z</time>
      </trkpt>
      <trkpt lat="42.382475" lon="1.888408">
        <ele>1120</ele>
        <time>2022-09-07T15:53:02Z</time>
      </trkpt>
      <trkpt lat="42.383" lon="1.888179">
        <ele>1118.8</ele>
        <time>2022-09-07T15:53:14Z</time>
      </trkpt>
      <trkpt lat="42.383113" lon="1.888105">
        <ele>1118.3</ele>
        <time>2022-09-07T15:53:17Z</time>
      </trkpt>
      <trkpt lat="42.383794" lon="1.887665">
        <ele>1116.3</ele>
        <time>2022-09-07T15:53:34Z</time>
      </trkpt>
      <trkpt lat="42.383977" lon="1.887548">
        <ele>1115.8</ele>
        <time>2022-09-07T15:53:38Z</time>
      </trkpt>
      <trkpt lat="42.384317" lon="1.887352">
        <ele>1114.3</ele>
        <time>2022-09-07T15:53:46Z</time>
      </trkpt>
      <trkpt lat="42.385204" lon="1.886842">
        <ele>1110.5</ele>
        <time>2022-09-07T15:54:08Z</time>
      </trkpt>
      <trkpt lat="42.385293" lon="1.886781">
        <ele>1110.3</ele>
        <time>2022-09-07T15:54:10Z</time>
      </trkpt>
      <trkpt lat="42.385446" lon="1.886636">
        <ele>1109.8</ele>
        <time>2022-09-07T15:54:14Z</time>
      </trkpt>
      <trkpt lat="42.385725" lon="1.88645">
        <ele>1109</ele>
        <time>2022-09-07T15:54:21Z</time>
      </trkpt>
      <trkpt lat="42.385876" lon="1.886367">
        <ele>1108.8</ele>
        <time>2022-09-07T15:54:25Z</time>
      </trkpt>
      <trkpt lat="42.385928" lon="1.886351">
        <ele>1108.8</ele>
        <time>2022-09-07T15:54:26Z</time>
      </trkpt>
      <trkpt lat="42.386147" lon="1.886285">
        <ele>1108.8</ele>
        <time>2022-09-07T15:54:31Z</time>
      </trkpt>
      <trkpt lat="42.386305" lon="1.886195">
        <ele>1108.8</ele>
        <time>2022-09-07T15:54:35Z</time>
      </trkpt>
      <trkpt lat="42.386265" lon="1.886032">
        <ele>1109</ele>
        <time>2022-09-07T15:54:38Z</time>
      </trkpt>
      <trkpt lat="42.386519" lon="1.885868">
        <ele>1109.5</ele>
        <time>2022-09-07T15:54:44Z</time>
      </trkpt>
      <trkpt lat="42.387152" lon="1.885492">
        <ele>1107.8</ele>
        <time>2022-09-07T15:54:59Z</time>
      </trkpt>
      <trkpt lat="42.388297" lon="1.885005">
        <ele>1104</ele>
        <time>2022-09-07T15:55:26Z</time>
      </trkpt>
      <trkpt lat="42.389079" lon="1.884702">
        <ele>1102</ele>
        <time>2022-09-07T15:55:44Z</time>
      </trkpt>
      <trkpt lat="42.389164" lon="1.884711">
        <ele>1102</ele>
        <time>2022-09-07T15:55:46Z</time>
      </trkpt>
      <trkpt lat="42.389438" lon="1.88487">
        <ele>1100.3</ele>
        <time>2022-09-07T15:55:53Z</time>
      </trkpt>
      <trkpt lat="42.389644" lon="1.884949">
        <ele>1099</ele>
        <time>2022-09-07T15:55:57Z</time>
      </trkpt>
      <trkpt lat="42.390147" lon="1.884725">
        <ele>1097</ele>
        <time>2022-09-07T15:56:09Z</time>
      </trkpt>
      <trkpt lat="42.39065" lon="1.884476">
        <ele>1096.3</ele>
        <time>2022-09-07T15:56:21Z</time>
      </trkpt>
      <trkpt lat="42.391716" lon="1.883807">
        <ele>1094.5</ele>
        <time>2022-09-07T15:56:47Z</time>
      </trkpt>
      <trkpt lat="42.391781" lon="1.883767">
        <ele>1094.5</ele>
        <time>2022-09-07T15:56:49Z</time>
      </trkpt>
      <trkpt lat="42.391836" lon="1.883781">
        <ele>1094.3</ele>
        <time>2022-09-07T15:56:50Z</time>
      </trkpt>
      <trkpt lat="42.391836" lon="1.883839">
        <ele>1094.3</ele>
        <time>2022-09-07T15:56:51Z</time>
      </trkpt>
      <trkpt lat="42.391853" lon="1.883884">
        <ele>1094.3</ele>
        <time>2022-09-07T15:56:52Z</time>
      </trkpt>
      <trkpt lat="42.391899" lon="1.883899">
        <ele>1094</ele>
        <time>2022-09-07T15:56:53Z</time>
      </trkpt>
      <trkpt lat="42.392159" lon="1.883736">
        <ele>1092.8</ele>
        <time>2022-09-07T15:56:59Z</time>
      </trkpt>
      <trkpt lat="42.392872" lon="1.883257">
        <ele>1090.8</ele>
        <time>2022-09-07T15:57:17Z</time>
      </trkpt>
      <trkpt lat="42.393384" lon="1.88302">
        <ele>1088.8</ele>
        <time>2022-09-07T15:57:29Z</time>
      </trkpt>
      <trkpt lat="42.393687" lon="1.882862">
        <ele>1087.8</ele>
        <time>2022-09-07T15:57:36Z</time>
      </trkpt>
      <trkpt lat="42.39392" lon="1.882654">
        <ele>1087.3</ele>
        <time>2022-09-07T15:57:43Z</time>
      </trkpt>
      <trkpt lat="42.394049" lon="1.882556">
        <ele>1087</ele>
        <time>2022-09-07T15:57:46Z</time>
      </trkpt>
      <trkpt lat="42.394225" lon="1.88247">
        <ele>1086.8</ele>
        <time>2022-09-07T15:57:50Z</time>
      </trkpt>
      <trkpt lat="42.394433" lon="1.882397">
        <ele>1086.5</ele>
        <time>2022-09-07T15:57:55Z</time>
      </trkpt>
      <trkpt lat="42.395156" lon="1.882387">
        <ele>1085.8</ele>
        <time>2022-09-07T15:58:11Z</time>
      </trkpt>
      <trkpt lat="42.395369" lon="1.882273">
        <ele>1085.5</ele>
        <time>2022-09-07T15:58:16Z</time>
      </trkpt>
      <trkpt lat="42.395372" lon="1.882272">
        <ele>1085.5</ele>
        <time>2022-09-07T15:58:16Z</time>
      </trkpt>
      <trkpt lat="42.395498" lon="1.882222">
        <ele>1085.5</ele>
        <time>2022-09-07T15:58:19Z</time>
      </trkpt>
      <trkpt lat="42.395726" lon="1.88226">
        <ele>1085.5</ele>
        <time>2022-09-07T15:58:24Z</time>
      </trkpt>
      <trkpt lat="42.396042" lon="1.882272">
        <ele>1085.3</ele>
        <time>2022-09-07T15:58:31Z</time>
      </trkpt>
      <trkpt lat="42.396196" lon="1.882289">
        <ele>1085</ele>
        <time>2022-09-07T15:58:35Z</time>
      </trkpt>
      <trkpt lat="42.396592" lon="1.882351">
        <ele>1084.5</ele>
        <time>2022-09-07T15:58:44Z</time>
      </trkpt>
      <trkpt lat="42.396686" lon="1.882321">
        <ele>1084.5</ele>
        <time>2022-09-07T15:58:46Z</time>
      </trkpt>
      <trkpt lat="42.396781" lon="1.882871">
        <ele>1084.5</ele>
        <time>2022-09-07T15:58:55Z</time>
      </trkpt>
      <trkpt lat="42.396857" lon="1.883015">
        <ele>1084</ele>
        <time>2022-09-07T15:58:58Z</time>
      </trkpt>
      <trkpt lat="42.396902" lon="1.883101">
        <ele>1084</ele>
        <time>2022-09-07T15:59:00Z</time>
      </trkpt>
      <trkpt lat="42.397029" lon="1.883222">
        <ele>1083.3</ele>
        <time>2022-09-07T15:59:03Z</time>
      </trkpt>
      <trkpt lat="42.39708" lon="1.88327">
        <ele>1083</ele>
        <time>2022-09-07T15:59:05Z</time>
      </trkpt>
      <trkpt lat="42.397066" lon="1.883379">
        <ele>1083</ele>
        <time>2022-09-07T15:59:06Z</time>
      </trkpt>
      <trkpt lat="42.397489" lon="1.883235">
        <ele>1081.3</ele>
        <time>2022-09-07T15:59:16Z</time>
      </trkpt>
      <trkpt lat="42.398132" lon="1.882893">
        <ele>1080.5</ele>
        <time>2022-09-07T15:59:32Z</time>
      </trkpt>
      <trkpt lat="42.398252" lon="1.882831">
        <ele>1080</ele>
        <time>2022-09-07T15:59:34Z</time>
      </trkpt>
      <trkpt lat="42.398923" lon="1.882489">
        <ele>1078.8</ele>
        <time>2022-09-07T15:59:50Z</time>
      </trkpt>
      <trkpt lat="42.399257" lon="1.882284">
        <ele>1078</ele>
        <time>2022-09-07T15:59:59Z</time>
      </trkpt>
      <trkpt lat="42.399539" lon="1.882142">
        <ele>1078</ele>
        <time>2022-09-07T16:00:05Z</time>
      </trkpt>
      <trkpt lat="42.399696" lon="1.881866">
        <ele>1077.8</ele>
        <time>2022-09-07T16:00:11Z</time>
      </trkpt>
      <trkpt lat="42.399806" lon="1.881718">
        <ele>1077.3</ele>
        <time>2022-09-07T16:00:14Z</time>
      </trkpt>
      <trkpt lat="42.399839" lon="1.881688">
        <ele>1077</ele>
        <time>2022-09-07T16:00:15Z</time>
      </trkpt>
      <trkpt lat="42.400093" lon="1.881463">
        <ele>1076.8</ele>
        <time>2022-09-07T16:00:22Z</time>
      </trkpt>
      <trkpt lat="42.400243" lon="1.881355">
        <ele>1076.3</ele>
        <time>2022-09-07T16:00:26Z</time>
      </trkpt>
      <trkpt lat="42.400412" lon="1.881236">
        <ele>1076</ele>
        <time>2022-09-07T16:00:30Z</time>
      </trkpt>
      <trkpt lat="42.40067" lon="1.881133">
        <ele>1074.8</ele>
        <time>2022-09-07T16:00:36Z</time>
      </trkpt>
      <trkpt lat="42.400679" lon="1.88113">
        <ele>1074.8</ele>
        <time>2022-09-07T16:00:36Z</time>
      </trkpt>
      <trkpt lat="42.400937" lon="1.880856">
        <ele>1074</ele>
        <time>2022-09-07T16:00:44Z</time>
      </trkpt>
      <trkpt lat="42.40094" lon="1.880854">
        <ele>1074</ele>
        <time>2022-09-07T16:00:44Z</time>
      </trkpt>
      <trkpt lat="42.401081" lon="1.880599">
        <ele>1074</ele>
        <time>2022-09-07T16:00:49Z</time>
      </trkpt>
      <trkpt lat="42.401212" lon="1.880345">
        <ele>1074</ele>
        <time>2022-09-07T16:00:54Z</time>
      </trkpt>
      <trkpt lat="42.401358" lon="1.880203">
        <ele>1074</ele>
        <time>2022-09-07T16:00:58Z</time>
      </trkpt>
      <trkpt lat="42.401445" lon="1.879996">
        <ele>1074</ele>
        <time>2022-09-07T16:01:02Z</time>
      </trkpt>
      <trkpt lat="42.401463" lon="1.879955">
        <ele>1074</ele>
        <time>2022-09-07T16:01:03Z</time>
      </trkpt>
      <trkpt lat="42.401442" lon="1.879467">
        <ele>1074</ele>
        <time>2022-09-07T16:01:11Z</time>
      </trkpt>
      <trkpt lat="42.401487" lon="1.879332">
        <ele>1074</ele>
        <time>2022-09-07T16:01:13Z</time>
      </trkpt>
      <trkpt lat="42.401521" lon="1.879231">
        <ele>1074</ele>
        <time>2022-09-07T16:01:15Z</time>
      </trkpt>
      <trkpt lat="42.401578" lon="1.878893">
        <ele>1073.5</ele>
        <time>2022-09-07T16:01:21Z</time>
      </trkpt>
      <trkpt lat="42.401567" lon="1.878688">
        <ele>1073.3</ele>
        <time>2022-09-07T16:01:24Z</time>
      </trkpt>
      <trkpt lat="42.401547" lon="1.878469">
        <ele>1073</ele>
        <time>2022-09-07T16:01:28Z</time>
      </trkpt>
      <trkpt lat="42.401615" lon="1.878398">
        <ele>1073</ele>
        <time>2022-09-07T16:01:30Z</time>
      </trkpt>
      <trkpt lat="42.40163" lon="1.878334">
        <ele>1073</ele>
        <time>2022-09-07T16:01:31Z</time>
      </trkpt>
      <trkpt lat="42.401588" lon="1.878044">
        <ele>1072.8</ele>
        <time>2022-09-07T16:01:36Z</time>
      </trkpt>
      <trkpt lat="42.401458" lon="1.877626">
        <ele>1072.8</ele>
        <time>2022-09-07T16:01:43Z</time>
      </trkpt>
      <trkpt lat="42.40151" lon="1.877343">
        <ele>1072.5</ele>
        <time>2022-09-07T16:01:48Z</time>
      </trkpt>
      <trkpt lat="42.401552" lon="1.877152">
        <ele>1072.3</ele>
        <time>2022-09-07T16:01:51Z</time>
      </trkpt>
      <trkpt lat="42.401818" lon="1.876685">
        <ele>1071.5</ele>
        <time>2022-09-07T16:02:01Z</time>
      </trkpt>
      <trkpt lat="42.401933" lon="1.876614">
        <ele>1071.3</ele>
        <time>2022-09-07T16:02:04Z</time>
      </trkpt>
      <trkpt lat="42.401986" lon="1.876437">
        <ele>1071.3</ele>
        <time>2022-09-07T16:02:07Z</time>
      </trkpt>
      <trkpt lat="42.402007" lon="1.876232">
        <ele>1071.3</ele>
        <time>2022-09-07T16:02:10Z</time>
      </trkpt>
      <trkpt lat="42.40186" lon="1.875255">
        <ele>1071</ele>
        <time>2022-09-07T16:02:27Z</time>
      </trkpt>
      <trkpt lat="42.401693" lon="1.874774">
        <ele>1070</ele>
        <time>2022-09-07T16:02:35Z</time>
      </trkpt>
      <trkpt lat="42.401583" lon="1.874526">
        <ele>1069</ele>
        <time>2022-09-07T16:02:40Z</time>
      </trkpt>
      <trkpt lat="42.40152" lon="1.874009">
        <ele>1067.8</ele>
        <time>2022-09-07T16:02:49Z</time>
      </trkpt>
      <trkpt lat="42.40139" lon="1.873471">
        <ele>1067.8</ele>
        <time>2022-09-07T16:02:58Z</time>
      </trkpt>
      <trkpt lat="42.401348" lon="1.873167">
        <ele>1068</ele>
        <time>2022-09-07T16:03:03Z</time>
      </trkpt>
      <trkpt lat="42.401311" lon="1.872806">
        <ele>1068.3</ele>
        <time>2022-09-07T16:03:09Z</time>
      </trkpt>
      <trkpt lat="42.401322" lon="1.872615">
        <ele>1068</ele>
        <time>2022-09-07T16:03:12Z</time>
      </trkpt>
      <trkpt lat="42.401228" lon="1.871964">
        <ele>1068.8</ele>
        <time>2022-09-07T16:03:23Z</time>
      </trkpt>
      <trkpt lat="42.401223" lon="1.871879">
        <ele>1068.8</ele>
        <time>2022-09-07T16:03:24Z</time>
      </trkpt>
      <trkpt lat="42.40127" lon="1.871673">
        <ele>1068.8</ele>
        <time>2022-09-07T16:03:28Z</time>
      </trkpt>
      <trkpt lat="42.40129" lon="1.871617">
        <ele>1068.8</ele>
        <time>2022-09-07T16:03:29Z</time>
      </trkpt>
      <trkpt lat="42.40127" lon="1.871525">
        <ele>1068.5</ele>
        <time>2022-09-07T16:03:31Z</time>
      </trkpt>
      <trkpt lat="42.401275" lon="1.871419">
        <ele>1068.5</ele>
        <time>2022-09-07T16:03:32Z</time>
      </trkpt>
      <trkpt lat="42.401249" lon="1.871334">
        <ele>1068.3</ele>
        <time>2022-09-07T16:03:34Z</time>
      </trkpt>
      <trkpt lat="42.401355" lon="1.871005">
        <ele>1067.8</ele>
        <time>2022-09-07T16:03:40Z</time>
      </trkpt>
      <trkpt lat="42.401447" lon="1.870725">
        <ele>1067.5</ele>
        <time>2022-09-07T16:03:45Z</time>
      </trkpt>
      <trkpt lat="42.401515" lon="1.870406">
        <ele>1067.3</ele>
        <time>2022-09-07T16:03:50Z</time>
      </trkpt>
      <trkpt lat="42.40152" lon="1.870116">
        <ele>1067.3</ele>
        <time>2022-09-07T16:03:55Z</time>
      </trkpt>
      <trkpt lat="42.401505" lon="1.869701">
        <ele>1066.5</ele>
        <time>2022-09-07T16:04:02Z</time>
      </trkpt>
      <trkpt lat="42.4015" lon="1.869536">
        <ele>1066.3</ele>
        <time>2022-09-07T16:04:05Z</time>
      </trkpt>
      <trkpt lat="42.401426" lon="1.869111">
        <ele>1065.8</ele>
        <time>2022-09-07T16:04:12Z</time>
      </trkpt>
      <trkpt lat="42.400932" lon="1.868091">
        <ele>1066.8</ele>
        <time>2022-09-07T16:04:32Z</time>
      </trkpt>
      <trkpt lat="42.400919" lon="1.868063">
        <ele>1067</ele>
        <time>2022-09-07T16:04:32Z</time>
      </trkpt>
      <trkpt lat="42.400705" lon="1.867703">
        <ele>1066.8</ele>
        <time>2022-09-07T16:04:40Z</time>
      </trkpt>
      <trkpt lat="42.400538" lon="1.867377">
        <ele>1066.5</ele>
        <time>2022-09-07T16:04:46Z</time>
      </trkpt>
      <trkpt lat="42.400278" lon="1.866929">
        <ele>1065.5</ele>
        <time>2022-09-07T16:04:56Z</time>
      </trkpt>
      <trkpt lat="42.400156" lon="1.866719">
        <ele>1065.3</ele>
        <time>2022-09-07T16:05:00Z</time>
      </trkpt>
      <trkpt lat="42.399989" lon="1.866259">
        <ele>1064.5</ele>
        <time>2022-09-07T16:05:09Z</time>
      </trkpt>
      <trkpt lat="42.399934" lon="1.866144">
        <ele>1064.3</ele>
        <time>2022-09-07T16:05:11Z</time>
      </trkpt>
      <trkpt lat="42.399884" lon="1.866039">
        <ele>1064.3</ele>
        <time>2022-09-07T16:05:13Z</time>
      </trkpt>
      <trkpt lat="42.399801" lon="1.865961">
        <ele>1064.5</ele>
        <time>2022-09-07T16:05:15Z</time>
      </trkpt>
      <trkpt lat="42.399722" lon="1.865997">
        <ele>1064.5</ele>
        <time>2022-09-07T16:05:17Z</time>
      </trkpt>
      <trkpt lat="42.399644" lon="1.865982">
        <ele>1064.8</ele>
        <time>2022-09-07T16:05:19Z</time>
      </trkpt>
      <trkpt lat="42.399623" lon="1.865926">
        <ele>1064.8</ele>
        <time>2022-09-07T16:05:20Z</time>
      </trkpt>
      <trkpt lat="42.399606" lon="1.865932">
        <ele>1064.8</ele>
        <time>2022-09-07T16:05:20Z</time>
      </trkpt>
      <trkpt lat="42.399463" lon="1.865847">
        <ele>1065.3</ele>
        <time>2022-09-07T16:05:24Z</time>
      </trkpt>
      <trkpt lat="42.399388" lon="1.865788">
        <ele>1065.5</ele>
        <time>2022-09-07T16:05:26Z</time>
      </trkpt>
      <trkpt lat="42.399328" lon="1.865696">
        <ele>1066</ele>
        <time>2022-09-07T16:05:28Z</time>
      </trkpt>
      <trkpt lat="42.399205" lon="1.865476">
        <ele>1067</ele>
        <time>2022-09-07T16:05:32Z</time>
      </trkpt>
      <trkpt lat="42.399179" lon="1.865408">
        <ele>1067.3</ele>
        <time>2022-09-07T16:05:33Z</time>
      </trkpt>
      <trkpt lat="42.399166" lon="1.865374">
        <ele>1067.5</ele>
        <time>2022-09-07T16:05:34Z</time>
      </trkpt>
      <trkpt lat="42.39913" lon="1.865251">
        <ele>1068</ele>
        <time>2022-09-07T16:05:36Z</time>
      </trkpt>
      <trkpt lat="42.39911" lon="1.865128">
        <ele>1068.3</ele>
        <time>2022-09-07T16:05:38Z</time>
      </trkpt>
      <trkpt lat="42.399098" lon="1.86501">
        <ele>1068.8</ele>
        <time>2022-09-07T16:05:40Z</time>
      </trkpt>
      <trkpt lat="42.399071" lon="1.864634">
        <ele>1068.5</ele>
        <time>2022-09-07T16:05:47Z</time>
      </trkpt>
      <trkpt lat="42.399047" lon="1.864489">
        <ele>1068.5</ele>
        <time>2022-09-07T16:05:49Z</time>
      </trkpt>
      <trkpt lat="42.399015" lon="1.864361">
        <ele>1068.3</ele>
        <time>2022-09-07T16:05:51Z</time>
      </trkpt>
      <trkpt lat="42.398968" lon="1.864248">
        <ele>1068.5</ele>
        <time>2022-09-07T16:05:53Z</time>
      </trkpt>
      <trkpt lat="42.39893" lon="1.864168">
        <ele>1068.3</ele>
        <time>2022-09-07T16:05:55Z</time>
      </trkpt>
      <trkpt lat="42.398865" lon="1.864033">
        <ele>1068.3</ele>
        <time>2022-09-07T16:05:58Z</time>
      </trkpt>
      <trkpt lat="42.398793" lon="1.863937">
        <ele>1068.3</ele>
        <time>2022-09-07T16:06:00Z</time>
      </trkpt>
      <trkpt lat="42.398738" lon="1.863824">
        <ele>1068.3</ele>
        <time>2022-09-07T16:06:02Z</time>
      </trkpt>
      <trkpt lat="42.398667" lon="1.863746">
        <ele>1068.5</ele>
        <time>2022-09-07T16:06:04Z</time>
      </trkpt>
      <trkpt lat="42.39852" lon="1.863178">
        <ele>1068.8</ele>
        <time>2022-09-07T16:06:14Z</time>
      </trkpt>
      <trkpt lat="42.398623" lon="1.862899">
        <ele>1068.3</ele>
        <time>2022-09-07T16:06:19Z</time>
      </trkpt>
      <trkpt lat="42.398616" lon="1.8627">
        <ele>1068.3</ele>
        <time>2022-09-07T16:06:22Z</time>
      </trkpt>
      <trkpt lat="42.398612" lon="1.86225">
        <ele>1067.8</ele>
        <time>2022-09-07T16:06:30Z</time>
      </trkpt>
      <trkpt lat="42.39868" lon="1.862102">
        <ele>1067.3</ele>
        <time>2022-09-07T16:06:33Z</time>
      </trkpt>
      <trkpt lat="42.398761" lon="1.861927">
        <ele>1066.8</ele>
        <time>2022-09-07T16:06:36Z</time>
      </trkpt>
      <trkpt lat="42.398666" lon="1.861686">
        <ele>1066.8</ele>
        <time>2022-09-07T16:06:41Z</time>
      </trkpt>
      <trkpt lat="42.398635" lon="1.861643">
        <ele>1066.8</ele>
        <time>2022-09-07T16:06:42Z</time>
      </trkpt>
      <trkpt lat="42.398301" lon="1.86158">
        <ele>1067.5</ele>
        <time>2022-09-07T16:06:49Z</time>
      </trkpt>
      <trkpt lat="42.398175" lon="1.861431">
        <ele>1067</ele>
        <time>2022-09-07T16:06:53Z</time>
      </trkpt>
      <trkpt lat="42.398034" lon="1.861127">
        <ele>1066</ele>
        <time>2022-09-07T16:06:59Z</time>
      </trkpt>
      <trkpt lat="42.397919" lon="1.860759">
        <ele>1065</ele>
        <time>2022-09-07T16:07:05Z</time>
      </trkpt>
      <trkpt lat="42.397856" lon="1.860483">
        <ele>1063.5</ele>
        <time>2022-09-07T16:07:10Z</time>
      </trkpt>
      <trkpt lat="42.397893" lon="1.860299">
        <ele>1062.5</ele>
        <time>2022-09-07T16:07:13Z</time>
      </trkpt>
      <trkpt lat="42.397871" lon="1.860279">
        <ele>1062.3</ele>
        <time>2022-09-07T16:07:14Z</time>
      </trkpt>
      <trkpt lat="42.397626" lon="1.860051">
        <ele>1061.3</ele>
        <time>2022-09-07T16:07:20Z</time>
      </trkpt>
      <trkpt lat="42.397397" lon="1.859884">
        <ele>1061</ele>
        <time>2022-09-07T16:07:26Z</time>
      </trkpt>
      <trkpt lat="42.397069" lon="1.859644">
        <ele>1060.8</ele>
        <time>2022-09-07T16:07:34Z</time>
      </trkpt>
      <trkpt lat="42.397028" lon="1.859636">
        <ele>1060.8</ele>
        <time>2022-09-07T16:07:35Z</time>
      </trkpt>
      <trkpt lat="42.396799" lon="1.859597">
        <ele>1060.8</ele>
        <time>2022-09-07T16:07:41Z</time>
      </trkpt>
      <trkpt lat="42.396764" lon="1.859591">
        <ele>1060.8</ele>
        <time>2022-09-07T16:07:41Z</time>
      </trkpt>
      <trkpt lat="42.396679" lon="1.859565">
        <ele>1060.8</ele>
        <time>2022-09-07T16:07:43Z</time>
      </trkpt>
      <trkpt lat="42.396575" lon="1.859534">
        <ele>1060.8</ele>
        <time>2022-09-07T16:07:46Z</time>
      </trkpt>
      <trkpt lat="42.396524" lon="1.859483">
        <ele>1060.3</ele>
        <time>2022-09-07T16:07:47Z</time>
      </trkpt>
      <trkpt lat="42.39644" lon="1.8594">
        <ele>1060</ele>
        <time>2022-09-07T16:07:49Z</time>
      </trkpt>
      <trkpt lat="42.396191" lon="1.859426">
        <ele>1060</ele>
        <time>2022-09-07T16:07:55Z</time>
      </trkpt>
      <trkpt lat="42.396173" lon="1.859428">
        <ele>1060.3</ele>
        <time>2022-09-07T16:07:55Z</time>
      </trkpt>
      <trkpt lat="42.396051" lon="1.859365">
        <ele>1060.3</ele>
        <time>2022-09-07T16:07:58Z</time>
      </trkpt>
      <trkpt lat="42.395995" lon="1.859336">
        <ele>1060.3</ele>
        <time>2022-09-07T16:08:00Z</time>
      </trkpt>
      <trkpt lat="42.395734" lon="1.859187">
        <ele>1059.8</ele>
        <time>2022-09-07T16:08:06Z</time>
      </trkpt>
      <trkpt lat="42.395482" lon="1.85898">
        <ele>1059</ele>
        <time>2022-09-07T16:08:12Z</time>
      </trkpt>
      <trkpt lat="42.395175" lon="1.858727">
        <ele>1058.3</ele>
        <time>2022-09-07T16:08:20Z</time>
      </trkpt>
      <trkpt lat="42.395096" lon="1.858661">
        <ele>1058.3</ele>
        <time>2022-09-07T16:08:23Z</time>
      </trkpt>
      <trkpt lat="42.394728" lon="1.858392">
        <ele>1057.3</ele>
        <time>2022-09-07T16:08:32Z</time>
      </trkpt>
      <trkpt lat="42.394388" lon="1.858108">
        <ele>1056.8</ele>
        <time>2022-09-07T16:08:41Z</time>
      </trkpt>
      <trkpt lat="42.394189" lon="1.857941">
        <ele>1056.5</ele>
        <time>2022-09-07T16:08:46Z</time>
      </trkpt>
      <trkpt lat="42.393904" lon="1.857319">
        <ele>1056.5</ele>
        <time>2022-09-07T16:08:58Z</time>
      </trkpt>
      <trkpt lat="42.393801" lon="1.856976">
        <ele>1055.5</ele>
        <time>2022-09-07T16:09:04Z</time>
      </trkpt>
      <trkpt lat="42.393793" lon="1.856718">
        <ele>1055</ele>
        <time>2022-09-07T16:09:08Z</time>
      </trkpt>
      <trkpt lat="42.39369" lon="1.856482">
        <ele>1055</ele>
        <time>2022-09-07T16:09:13Z</time>
      </trkpt>
      <trkpt lat="42.39369" lon="1.856482">
        <ele>1055</ele>
        <time>2022-09-07T16:09:13Z</time>
      </trkpt>
      <trkpt lat="42.393532" lon="1.856">
        <ele>1055</ele>
        <time>2022-09-07T16:09:22Z</time>
      </trkpt>
      <trkpt lat="42.393278" lon="1.855356">
        <ele>1055.5</ele>
        <time>2022-09-07T16:09:34Z</time>
      </trkpt>
      <trkpt lat="42.393246" lon="1.855318">
        <ele>1055.5</ele>
        <time>2022-09-07T16:09:35Z</time>
      </trkpt>
      <trkpt lat="42.392985" lon="1.855012">
        <ele>1056.3</ele>
        <time>2022-09-07T16:09:42Z</time>
      </trkpt>
      <trkpt lat="42.392746" lon="1.854747">
        <ele>1056.3</ele>
        <time>2022-09-07T16:09:49Z</time>
      </trkpt>
      <trkpt lat="42.392589" lon="1.854573">
        <ele>1056.3</ele>
        <time>2022-09-07T16:09:54Z</time>
      </trkpt>
      <trkpt lat="42.392298" lon="1.854234">
        <ele>1055.3</ele>
        <time>2022-09-07T16:10:02Z</time>
      </trkpt>
      <trkpt lat="42.392201" lon="1.854122">
        <ele>1055</ele>
        <time>2022-09-07T16:10:05Z</time>
      </trkpt>
      <trkpt lat="42.391797" lon="1.853746">
        <ele>1054</ele>
        <time>2022-09-07T16:10:16Z</time>
      </trkpt>
      <trkpt lat="42.391668" lon="1.85358">
        <ele>1054</ele>
        <time>2022-09-07T16:10:20Z</time>
      </trkpt>
      <trkpt lat="42.39148" lon="1.853339">
        <ele>1054</ele>
        <time>2022-09-07T16:10:26Z</time>
      </trkpt>
      <trkpt lat="42.391305" lon="1.85292">
        <ele>1054.3</ele>
        <time>2022-09-07T16:10:34Z</time>
      </trkpt>
      <trkpt lat="42.39106" lon="1.852502">
        <ele>1054.3</ele>
        <time>2022-09-07T16:10:42Z</time>
      </trkpt>
      <trkpt lat="42.390877" lon="1.85188">
        <ele>1053.3</ele>
        <time>2022-09-07T16:10:53Z</time>
      </trkpt>
      <trkpt lat="42.390695" lon="1.851118">
        <ele>1052.5</ele>
        <time>2022-09-07T16:11:07Z</time>
      </trkpt>
      <trkpt lat="42.390513" lon="1.850657">
        <ele>1052.3</ele>
        <time>2022-09-07T16:11:15Z</time>
      </trkpt>
      <trkpt lat="42.390489" lon="1.850604">
        <ele>1052</ele>
        <time>2022-09-07T16:11:16Z</time>
      </trkpt>
      <trkpt lat="42.390145" lon="1.84985">
        <ele>1051.3</ele>
        <time>2022-09-07T16:11:31Z</time>
      </trkpt>
      <trkpt lat="42.390117" lon="1.849788">
        <ele>1051.3</ele>
        <time>2022-09-07T16:11:32Z</time>
      </trkpt>
      <trkpt lat="42.389966" lon="1.849476">
        <ele>1050.8</ele>
        <time>2022-09-07T16:11:38Z</time>
      </trkpt>
      <trkpt lat="42.389643" lon="1.849105">
        <ele>1050.3</ele>
        <time>2022-09-07T16:11:48Z</time>
      </trkpt>
      <trkpt lat="42.389726" lon="1.849023">
        <ele>1050.5</ele>
        <time>2022-09-07T16:11:50Z</time>
      </trkpt>
      <trkpt lat="42.390126" lon="1.848575">
        <ele>1052.3</ele>
        <time>2022-09-07T16:12:01Z</time>
      </trkpt>
      <trkpt lat="42.39014" lon="1.848543">
        <ele>1052.3</ele>
        <time>2022-09-07T16:12:02Z</time>
      </trkpt>
      <trkpt lat="42.390262" lon="1.848698">
        <ele>1052.3</ele>
        <time>2022-09-07T16:12:06Z</time>
      </trkpt>
      <trkpt lat="42.390751" lon="1.849219">
        <ele>1053.5</ele>
        <time>2022-09-07T16:12:20Z</time>
      </trkpt>
      <trkpt lat="42.390862" lon="1.849465">
        <ele>1053.8</ele>
        <time>2022-09-07T16:12:24Z</time>
      </trkpt>
      <trkpt lat="42.390965" lon="1.84989">
        <ele>1053.8</ele>
        <time>2022-09-07T16:12:32Z</time>
      </trkpt>
      <trkpt lat="42.391052" lon="1.850405">
        <ele>1053.5</ele>
        <time>2022-09-07T16:12:40Z</time>
      </trkpt>
      <trkpt lat="42.391147" lon="1.850689">
        <ele>1053.3</ele>
        <time>2022-09-07T16:12:46Z</time>
      </trkpt>
      <trkpt lat="42.391353" lon="1.851032">
        <ele>1053.8</ele>
        <time>2022-09-07T16:12:53Z</time>
      </trkpt>
      <trkpt lat="42.391464" lon="1.851354">
        <ele>1054</ele>
        <time>2022-09-07T16:12:59Z</time>
      </trkpt>
      <trkpt lat="42.391551" lon="1.851654">
        <ele>1054.5</ele>
        <time>2022-09-07T16:13:04Z</time>
      </trkpt>
      <trkpt lat="42.391773" lon="1.852255">
        <ele>1055.3</ele>
        <time>2022-09-07T16:13:15Z</time>
      </trkpt>
      <trkpt lat="42.391947" lon="1.852684">
        <ele>1055.3</ele>
        <time>2022-09-07T16:13:23Z</time>
      </trkpt>
      <trkpt lat="42.391963" lon="1.852877">
        <ele>1055</ele>
        <time>2022-09-07T16:13:26Z</time>
      </trkpt>
      <trkpt lat="42.392161" lon="1.85292">
        <ele>1055.3</ele>
        <time>2022-09-07T16:13:31Z</time>
      </trkpt>
      <trkpt lat="42.39242" lon="1.853052">
        <ele>1055.3</ele>
        <time>2022-09-07T16:13:37Z</time>
      </trkpt>
      <trkpt lat="42.392541" lon="1.853113">
        <ele>1055.5</ele>
        <time>2022-09-07T16:13:40Z</time>
      </trkpt>
      <trkpt lat="42.392765" lon="1.853426">
        <ele>1056.3</ele>
        <time>2022-09-07T16:13:47Z</time>
      </trkpt>
      <trkpt lat="42.392976" lon="1.853678">
        <ele>1056.8</ele>
        <time>2022-09-07T16:13:53Z</time>
      </trkpt>
      <trkpt lat="42.393029" lon="1.853785">
        <ele>1056.8</ele>
        <time>2022-09-07T16:13:55Z</time>
      </trkpt>
      <trkpt lat="42.393054" lon="1.853835">
        <ele>1057</ele>
        <time>2022-09-07T16:13:56Z</time>
      </trkpt>
      <trkpt lat="42.393189" lon="1.85418">
        <ele>1056.8</ele>
        <time>2022-09-07T16:14:03Z</time>
      </trkpt>
      <trkpt lat="42.393289" lon="1.854331">
        <ele>1056.8</ele>
        <time>2022-09-07T16:14:06Z</time>
      </trkpt>
      <trkpt lat="42.393663" lon="1.854788">
        <ele>1057.8</ele>
        <time>2022-09-07T16:14:17Z</time>
      </trkpt>
      <trkpt lat="42.393971" lon="1.855352">
        <ele>1057.5</ele>
        <time>2022-09-07T16:14:29Z</time>
      </trkpt>
      <trkpt lat="42.394104" lon="1.855755">
        <ele>1056.3</ele>
        <time>2022-09-07T16:14:36Z</time>
      </trkpt>
      <trkpt lat="42.394264" lon="1.856051">
        <ele>1056.3</ele>
        <time>2022-09-07T16:14:42Z</time>
      </trkpt>
      <trkpt lat="42.394397" lon="1.856254">
        <ele>1057</ele>
        <time>2022-09-07T16:14:47Z</time>
      </trkpt>
      <trkpt lat="42.394454" lon="1.856426">
        <ele>1057.3</ele>
        <time>2022-09-07T16:14:50Z</time>
      </trkpt>
      <trkpt lat="42.394616" lon="1.856603">
        <ele>1058.3</ele>
        <time>2022-09-07T16:14:54Z</time>
      </trkpt>
      <trkpt lat="42.394725" lon="1.856699">
        <ele>1058.8</ele>
        <time>2022-09-07T16:14:57Z</time>
      </trkpt>
      <trkpt lat="42.394734" lon="1.85671">
        <ele>1058.8</ele>
        <time>2022-09-07T16:14:58Z</time>
      </trkpt>
      <trkpt lat="42.395006" lon="1.857016">
        <ele>1060</ele>
        <time>2022-09-07T16:15:05Z</time>
      </trkpt>
      <trkpt lat="42.39506" lon="1.857117">
        <ele>1059.8</ele>
        <time>2022-09-07T16:15:08Z</time>
      </trkpt>
      <trkpt lat="42.39511" lon="1.857265">
        <ele>1059.5</ele>
        <time>2022-09-07T16:15:10Z</time>
      </trkpt>
      <trkpt lat="42.395229" lon="1.857713">
        <ele>1058.5</ele>
        <time>2022-09-07T16:15:18Z</time>
      </trkpt>
      <trkpt lat="42.395288" lon="1.857845">
        <ele>1058.5</ele>
        <time>2022-09-07T16:15:21Z</time>
      </trkpt>
      <trkpt lat="42.39535" lon="1.857912">
        <ele>1058.5</ele>
        <time>2022-09-07T16:15:22Z</time>
      </trkpt>
      <trkpt lat="42.396117" lon="1.858384">
        <ele>1058.5</ele>
        <time>2022-09-07T16:15:41Z</time>
      </trkpt>
      <trkpt lat="42.396368" lon="1.858592">
        <ele>1059.3</ele>
        <time>2022-09-07T16:15:48Z</time>
      </trkpt>
      <trkpt lat="42.396445" lon="1.858643">
        <ele>1059.3</ele>
        <time>2022-09-07T16:15:50Z</time>
      </trkpt>
      <trkpt lat="42.396643" lon="1.858775">
        <ele>1059.3</ele>
        <time>2022-09-07T16:15:55Z</time>
      </trkpt>
      <trkpt lat="42.397046" lon="1.859091">
        <ele>1059.5</ele>
        <time>2022-09-07T16:16:05Z</time>
      </trkpt>
      <trkpt lat="42.397254" lon="1.859232">
        <ele>1059.8</ele>
        <time>2022-09-07T16:16:10Z</time>
      </trkpt>
      <trkpt lat="42.39746" lon="1.859309">
        <ele>1060</ele>
        <time>2022-09-07T16:16:15Z</time>
      </trkpt>
      <trkpt lat="42.397842" lon="1.859385">
        <ele>1060.3</ele>
        <time>2022-09-07T16:16:23Z</time>
      </trkpt>
      <trkpt lat="42.398069" lon="1.85943">
        <ele>1060.8</ele>
        <time>2022-09-07T16:16:29Z</time>
      </trkpt>
      <trkpt lat="42.39822" lon="1.859425">
        <ele>1060.8</ele>
        <time>2022-09-07T16:16:32Z</time>
      </trkpt>
      <trkpt lat="42.398495" lon="1.85928">
        <ele>1061</ele>
        <time>2022-09-07T16:16:39Z</time>
      </trkpt>
      <trkpt lat="42.398739" lon="1.859283">
        <ele>1061.3</ele>
        <time>2022-09-07T16:16:44Z</time>
      </trkpt>
      <trkpt lat="42.398831" lon="1.859217">
        <ele>1061.5</ele>
        <time>2022-09-07T16:16:46Z</time>
      </trkpt>
      <trkpt lat="42.399143" lon="1.858899">
        <ele>1062.3</ele>
        <time>2022-09-07T16:16:55Z</time>
      </trkpt>
      <trkpt lat="42.39929" lon="1.858706">
        <ele>1062.8</ele>
        <time>2022-09-07T16:17:00Z</time>
      </trkpt>
      <trkpt lat="42.399378" lon="1.858545">
        <ele>1063.3</ele>
        <time>2022-09-07T16:17:03Z</time>
      </trkpt>
      <trkpt lat="42.399447" lon="1.85846">
        <ele>1063.5</ele>
        <time>2022-09-07T16:17:05Z</time>
      </trkpt>
      <trkpt lat="42.399484" lon="1.858416">
        <ele>1063.8</ele>
        <time>2022-09-07T16:17:06Z</time>
      </trkpt>
      <trkpt lat="42.399678" lon="1.858246">
        <ele>1065</ele>
        <time>2022-09-07T16:17:11Z</time>
      </trkpt>
      <trkpt lat="42.399833" lon="1.858139">
        <ele>1066</ele>
        <time>2022-09-07T16:17:15Z</time>
      </trkpt>
      <trkpt lat="42.399983" lon="1.857966">
        <ele>1067.5</ele>
        <time>2022-09-07T16:17:19Z</time>
      </trkpt>
      <trkpt lat="42.400079" lon="1.857806">
        <ele>1068.5</ele>
        <time>2022-09-07T16:17:23Z</time>
      </trkpt>
      <trkpt lat="42.400479" lon="1.858568">
        <ele>1066.3</ele>
        <time>2022-09-07T16:17:38Z</time>
      </trkpt>
      <trkpt lat="42.400663" lon="1.858837">
        <ele>1066.8</ele>
        <time>2022-09-07T16:17:44Z</time>
      </trkpt>
      <trkpt lat="42.401198" lon="1.859547">
        <ele>1066.8</ele>
        <time>2022-09-07T16:18:01Z</time>
      </trkpt>
      <trkpt lat="42.401463" lon="1.85981">
        <ele>1066.3</ele>
        <time>2022-09-07T16:18:08Z</time>
      </trkpt>
      <trkpt lat="42.401966" lon="1.86021">
        <ele>1066.5</ele>
        <time>2022-09-07T16:18:21Z</time>
      </trkpt>
      <trkpt lat="42.402135" lon="1.860395">
        <ele>1067</ele>
        <time>2022-09-07T16:18:26Z</time>
      </trkpt>
      <trkpt lat="42.402462" lon="1.860883">
        <ele>1067.8</ele>
        <time>2022-09-07T16:18:37Z</time>
      </trkpt>
      <trkpt lat="42.402569" lon="1.861064">
        <ele>1067.8</ele>
        <time>2022-09-07T16:18:41Z</time>
      </trkpt>
      <trkpt lat="42.402703" lon="1.861288">
        <ele>1067.8</ele>
        <time>2022-09-07T16:18:45Z</time>
      </trkpt>
      <trkpt lat="42.402806" lon="1.861441">
        <ele>1068</ele>
        <time>2022-09-07T16:18:49Z</time>
      </trkpt>
      <trkpt lat="42.402819" lon="1.861462">
        <ele>1068</ele>
        <time>2022-09-07T16:18:49Z</time>
      </trkpt>
      <trkpt lat="42.402806" lon="1.861441">
        <ele>1068</ele>
        <time>2022-09-07T16:18:50Z</time>
      </trkpt>
      <trkpt lat="42.403105" lon="1.861097">
        <ele>1068.8</ele>
        <time>2022-09-07T16:18:59Z</time>
      </trkpt>
      <trkpt lat="42.404757" lon="1.85938">
        <ele>1072.3</ele>
        <time>2022-09-07T16:19:45Z</time>
      </trkpt>
      <trkpt lat="42.404852" lon="1.859251">
        <ele>1073</ele>
        <time>2022-09-07T16:19:48Z</time>
      </trkpt>
      <trkpt lat="42.404896" lon="1.859128">
        <ele>1073.5</ele>
        <time>2022-09-07T16:19:50Z</time>
      </trkpt>
      <trkpt lat="42.404951" lon="1.858999">
        <ele>1074.8</ele>
        <time>2022-09-07T16:19:53Z</time>
      </trkpt>
      <trkpt lat="42.405359" lon="1.858634">
        <ele>1079.8</ele>
        <time>2022-09-07T16:20:04Z</time>
      </trkpt>
      <trkpt lat="42.406013" lon="1.858001">
        <ele>1088</ele>
        <time>2022-09-07T16:20:21Z</time>
      </trkpt>
      <trkpt lat="42.406052" lon="1.857899">
        <ele>1089</ele>
        <time>2022-09-07T16:20:23Z</time>
      </trkpt>
      <trkpt lat="42.406048" lon="1.857781">
        <ele>1089.5</ele>
        <time>2022-09-07T16:20:25Z</time>
      </trkpt>
      <trkpt lat="42.405965" lon="1.857578">
        <ele>1090.3</ele>
        <time>2022-09-07T16:20:29Z</time>
      </trkpt>
      <trkpt lat="42.405965" lon="1.857454">
        <ele>1091</ele>
        <time>2022-09-07T16:20:31Z</time>
      </trkpt>
      <trkpt lat="42.406139" lon="1.85703">
        <ele>1093.8</ele>
        <time>2022-09-07T16:20:39Z</time>
      </trkpt>
      <trkpt lat="42.406246" lon="1.85658">
        <ele>1095.8</ele>
        <time>2022-09-07T16:20:47Z</time>
      </trkpt>
      <trkpt lat="42.406345" lon="1.855941">
        <ele>1095.8</ele>
        <time>2022-09-07T16:20:58Z</time>
      </trkpt>
      <trkpt lat="42.406452" lon="1.855727">
        <ele>1096.5</ele>
        <time>2022-09-07T16:21:02Z</time>
      </trkpt>
      <trkpt lat="42.406658" lon="1.855501">
        <ele>1098.3</ele>
        <time>2022-09-07T16:21:08Z</time>
      </trkpt>
      <trkpt lat="42.407205" lon="1.855008">
        <ele>1102</ele>
        <time>2022-09-07T16:21:22Z</time>
      </trkpt>
      <trkpt lat="42.407288" lon="1.85489">
        <ele>1102.5</ele>
        <time>2022-09-07T16:21:25Z</time>
      </trkpt>
      <trkpt lat="42.407308" lon="1.854863">
        <ele>1102.8</ele>
        <time>2022-09-07T16:21:26Z</time>
      </trkpt>
      <trkpt lat="42.40745" lon="1.8546">
        <ele>1103.5</ele>
        <time>2022-09-07T16:21:31Z</time>
      </trkpt>
      <trkpt lat="42.407609" lon="1.854176">
        <ele>1104.5</ele>
        <time>2022-09-07T16:21:39Z</time>
      </trkpt>
      <trkpt lat="42.407918" lon="1.8532">
        <ele>1108.3</ele>
        <time>2022-09-07T16:21:56Z</time>
      </trkpt>
      <trkpt lat="42.407969" lon="1.852959">
        <ele>1108.5</ele>
        <time>2022-09-07T16:22:01Z</time>
      </trkpt>
      <trkpt lat="42.408342" lon="1.851988">
        <ele>1111.3</ele>
        <time>2022-09-07T16:22:19Z</time>
      </trkpt>
      <trkpt lat="42.40833" lon="1.851714">
        <ele>1111</ele>
        <time>2022-09-07T16:22:23Z</time>
      </trkpt>
      <trkpt lat="42.408464" lon="1.851425">
        <ele>1111.3</ele>
        <time>2022-09-07T16:22:29Z</time>
      </trkpt>
      <trkpt lat="42.408741" lon="1.850919">
        <ele>1113.5</ele>
        <time>2022-09-07T16:22:39Z</time>
      </trkpt>
      <trkpt lat="42.408895" lon="1.850638">
        <ele>1114.8</ele>
        <time>2022-09-07T16:22:45Z</time>
      </trkpt>
      <trkpt lat="42.409009" lon="1.850521">
        <ele>1116</ele>
        <time>2022-09-07T16:22:48Z</time>
      </trkpt>
      <trkpt lat="42.40908" lon="1.850135">
        <ele>1115.3</ele>
        <time>2022-09-07T16:22:55Z</time>
      </trkpt>
      <trkpt lat="42.409245" lon="1.849521">
        <ele>1114.3</ele>
        <time>2022-09-07T16:23:05Z</time>
      </trkpt>
      <trkpt lat="42.409259" lon="1.849392">
        <ele>1113.8</ele>
        <time>2022-09-07T16:23:07Z</time>
      </trkpt>
      <trkpt lat="42.409259" lon="1.849274">
        <ele>1113</ele>
        <time>2022-09-07T16:23:09Z</time>
      </trkpt>
      <trkpt lat="42.409324" lon="1.849242">
        <ele>1114</ele>
        <time>2022-09-07T16:23:11Z</time>
      </trkpt>
      <trkpt lat="42.409441" lon="1.849293">
        <ele>1116.3</ele>
        <time>2022-09-07T16:23:14Z</time>
      </trkpt>
      <trkpt lat="42.409482" lon="1.849293">
        <ele>1117</ele>
        <time>2022-09-07T16:23:15Z</time>
      </trkpt>
      <trkpt lat="42.409512" lon="1.849264">
        <ele>1117.3</ele>
        <time>2022-09-07T16:23:15Z</time>
      </trkpt>
      <trkpt lat="42.409625" lon="1.848987">
        <ele>1118.8</ele>
        <time>2022-09-07T16:23:21Z</time>
      </trkpt>
      <trkpt lat="42.409671" lon="1.848832">
        <ele>1119.3</ele>
        <time>2022-09-07T16:23:23Z</time>
      </trkpt>
      <trkpt lat="42.409744" lon="1.848727">
        <ele>1120.3</ele>
        <time>2022-09-07T16:23:26Z</time>
      </trkpt>
      <trkpt lat="42.409831" lon="1.848651">
        <ele>1121.5</ele>
        <time>2022-09-07T16:23:28Z</time>
      </trkpt>
      <trkpt lat="42.409886" lon="1.848605">
        <ele>1122.5</ele>
        <time>2022-09-07T16:23:29Z</time>
      </trkpt>
      <trkpt lat="42.409722" lon="1.849485">
        <ele>1121</ele>
        <time>2022-09-07T16:23:44Z</time>
      </trkpt>
      <trkpt lat="42.409691" lon="1.849761">
        <ele>1120.8</ele>
        <time>2022-09-07T16:23:49Z</time>
      </trkpt>
      <trkpt lat="42.409702" lon="1.849877">
        <ele>1121</ele>
        <time>2022-09-07T16:23:51Z</time>
      </trkpt>
      <trkpt lat="42.410179" lon="1.849757">
        <ele>1126</ele>
        <time>2022-09-07T16:24:02Z</time>
      </trkpt>
      <trkpt lat="42.410183" lon="1.849735">
        <ele>1126</ele>
        <time>2022-09-07T16:24:02Z</time>
      </trkpt>
      <trkpt lat="42.410179" lon="1.849757">
        <ele>1126</ele>
        <time>2022-09-07T16:24:02Z</time>
      </trkpt>
      <trkpt lat="42.411167" lon="1.849509">
        <ele>1137.3</ele>
        <time>2022-09-07T16:24:25Z</time>
      </trkpt>
      <trkpt lat="42.411309" lon="1.849501">
        <ele>1139</ele>
        <time>2022-09-07T16:24:28Z</time>
      </trkpt>
      <trkpt lat="42.411321" lon="1.849501">
        <ele>1139.3</ele>
        <time>2022-09-07T16:24:28Z</time>
      </trkpt>
      <trkpt lat="42.411935" lon="1.849284">
        <ele>1149.8</ele>
        <time>2022-09-07T16:24:42Z</time>
      </trkpt>
      <trkpt lat="42.411861" lon="1.848723">
        <ele>1150.3</ele>
        <time>2022-09-07T16:24:52Z</time>
      </trkpt>
      <trkpt lat="42.411861" lon="1.848549">
        <ele>1151</ele>
        <time>2022-09-07T16:24:55Z</time>
      </trkpt>
      <trkpt lat="42.411887" lon="1.848423">
        <ele>1152</ele>
        <time>2022-09-07T16:24:57Z</time>
      </trkpt>
      <trkpt lat="42.411965" lon="1.848243">
        <ele>1153.5</ele>
        <time>2022-09-07T16:25:00Z</time>
      </trkpt>
      <trkpt lat="42.412027" lon="1.848039">
        <ele>1154</ele>
        <time>2022-09-07T16:25:04Z</time>
      </trkpt>
      <trkpt lat="42.412124" lon="1.847607">
        <ele>1154.8</ele>
        <time>2022-09-07T16:25:11Z</time>
      </trkpt>
      <trkpt lat="42.412267" lon="1.847227">
        <ele>1154.8</ele>
        <time>2022-09-07T16:25:18Z</time>
      </trkpt>
      <trkpt lat="42.412472" lon="1.847099">
        <ele>1158</ele>
        <time>2022-09-07T16:25:23Z</time>
      </trkpt>
      <trkpt lat="42.412497" lon="1.847084">
        <ele>1158.3</ele>
        <time>2022-09-07T16:25:24Z</time>
      </trkpt>
      <trkpt lat="42.412574" lon="1.847071">
        <ele>1160</ele>
        <time>2022-09-07T16:25:26Z</time>
      </trkpt>
      <trkpt lat="42.412585" lon="1.847092">
        <ele>1160.5</ele>
        <time>2022-09-07T16:25:26Z</time>
      </trkpt>
      <trkpt lat="42.412739" lon="1.847059">
        <ele>1163.5</ele>
        <time>2022-09-07T16:25:30Z</time>
      </trkpt>
      <trkpt lat="42.412858" lon="1.847125">
        <ele>1166.8</ele>
        <time>2022-09-07T16:25:32Z</time>
      </trkpt>
      <trkpt lat="42.412924" lon="1.847143">
        <ele>1168.5</ele>
        <time>2022-09-07T16:25:34Z</time>
      </trkpt>
      <trkpt lat="42.41296" lon="1.847207">
        <ele>1169.8</ele>
        <time>2022-09-07T16:25:35Z</time>
      </trkpt>
      <trkpt lat="42.412999" lon="1.847199">
        <ele>1170.5</ele>
        <time>2022-09-07T16:25:36Z</time>
      </trkpt>
      <trkpt lat="42.413075" lon="1.847184">
        <ele>1172</ele>
        <time>2022-09-07T16:25:38Z</time>
      </trkpt>
      <trkpt lat="42.413201" lon="1.847175">
        <ele>1174.8</ele>
        <time>2022-09-07T16:25:41Z</time>
      </trkpt>
      <trkpt lat="42.413311" lon="1.847235">
        <ele>1177.5</ele>
        <time>2022-09-07T16:25:43Z</time>
      </trkpt>
      <trkpt lat="42.413377" lon="1.847533">
        <ele>1179.8</ele>
        <time>2022-09-07T16:25:48Z</time>
      </trkpt>
      <trkpt lat="42.413373" lon="1.847784">
        <ele>1179</ele>
        <time>2022-09-07T16:25:53Z</time>
      </trkpt>
      <trkpt lat="42.413372" lon="1.847944">
        <ele>1178.8</ele>
        <time>2022-09-07T16:25:55Z</time>
      </trkpt>
      <trkpt lat="42.413469" lon="1.848784">
        <ele>1179.5</ele>
        <time>2022-09-07T16:26:09Z</time>
      </trkpt>
      <trkpt lat="42.413524" lon="1.849105">
        <ele>1180</ele>
        <time>2022-09-07T16:26:15Z</time>
      </trkpt>
      <trkpt lat="42.413594" lon="1.8493">
        <ele>1180.3</ele>
        <time>2022-09-07T16:26:18Z</time>
      </trkpt>
      <trkpt lat="42.413593" lon="1.84942">
        <ele>1179.8</ele>
        <time>2022-09-07T16:26:20Z</time>
      </trkpt>
      <trkpt lat="42.413617" lon="1.849565">
        <ele>1179.3</ele>
        <time>2022-09-07T16:26:23Z</time>
      </trkpt>
      <trkpt lat="42.413803" lon="1.850276">
        <ele>1177.3</ele>
        <time>2022-09-07T16:26:35Z</time>
      </trkpt>
      <trkpt lat="42.413995" lon="1.850651">
        <ele>1176.8</ele>
        <time>2022-09-07T16:26:43Z</time>
      </trkpt>
      <trkpt lat="42.414294" lon="1.851105">
        <ele>1176.8</ele>
        <time>2022-09-07T16:26:53Z</time>
      </trkpt>
      <trkpt lat="42.414354" lon="1.851196">
        <ele>1176.8</ele>
        <time>2022-09-07T16:26:55Z</time>
      </trkpt>
      <trkpt lat="42.414477" lon="1.851317">
        <ele>1176.8</ele>
        <time>2022-09-07T16:26:58Z</time>
      </trkpt>
      <trkpt lat="42.414674" lon="1.851402">
        <ele>1177.5</ele>
        <time>2022-09-07T16:27:03Z</time>
      </trkpt>
      <trkpt lat="42.414868" lon="1.851499">
        <ele>1178</ele>
        <time>2022-09-07T16:27:07Z</time>
      </trkpt>
      <trkpt lat="42.414947" lon="1.851612">
        <ele>1177.3</ele>
        <time>2022-09-07T16:27:10Z</time>
      </trkpt>
      <trkpt lat="42.414972" lon="1.851711">
        <ele>1176.3</ele>
        <time>2022-09-07T16:27:11Z</time>
      </trkpt>
      <trkpt lat="42.414968" lon="1.85181">
        <ele>1175.3</ele>
        <time>2022-09-07T16:27:13Z</time>
      </trkpt>
      <trkpt lat="42.415083" lon="1.851806">
        <ele>1176</ele>
        <time>2022-09-07T16:27:16Z</time>
      </trkpt>
      <trkpt lat="42.415221" lon="1.851674">
        <ele>1178.3</ele>
        <time>2022-09-07T16:27:19Z</time>
      </trkpt>
      <trkpt lat="42.415307" lon="1.851602">
        <ele>1179</ele>
        <time>2022-09-07T16:27:22Z</time>
      </trkpt>
      <trkpt lat="42.415329" lon="1.851585">
        <ele>1179.5</ele>
        <time>2022-09-07T16:27:22Z</time>
      </trkpt>
      <trkpt lat="42.415473" lon="1.851508">
        <ele>1181</ele>
        <time>2022-09-07T16:27:26Z</time>
      </trkpt>
      <trkpt lat="42.415577" lon="1.851533">
        <ele>1181.3</ele>
        <time>2022-09-07T16:27:28Z</time>
      </trkpt>
      <trkpt lat="42.415729" lon="1.851539">
        <ele>1182</ele>
        <time>2022-09-07T16:27:31Z</time>
      </trkpt>
      <trkpt lat="42.41589" lon="1.851492">
        <ele>1182.8</ele>
        <time>2022-09-07T16:27:35Z</time>
      </trkpt>
      <trkpt lat="42.416061" lon="1.851404">
        <ele>1183</ele>
        <time>2022-09-07T16:27:39Z</time>
      </trkpt>
      <trkpt lat="42.416217" lon="1.851228">
        <ele>1183.8</ele>
        <time>2022-09-07T16:27:44Z</time>
      </trkpt>
      <trkpt lat="42.416536" lon="1.85093">
        <ele>1185.3</ele>
        <time>2022-09-07T16:27:52Z</time>
      </trkpt>
      <trkpt lat="42.416654" lon="1.850886">
        <ele>1185.5</ele>
        <time>2022-09-07T16:27:55Z</time>
      </trkpt>
      <trkpt lat="42.416719" lon="1.850905">
        <ele>1186.3</ele>
        <time>2022-09-07T16:27:57Z</time>
      </trkpt>
      <trkpt lat="42.416748" lon="1.85107">
        <ele>1185.3</ele>
        <time>2022-09-07T16:27:59Z</time>
      </trkpt>
      <trkpt lat="42.416853" lon="1.851643">
        <ele>1182.3</ele>
        <time>2022-09-07T16:28:09Z</time>
      </trkpt>
      <trkpt lat="42.416908" lon="1.851762">
        <ele>1182</ele>
        <time>2022-09-07T16:28:11Z</time>
      </trkpt>
      <trkpt lat="42.41701" lon="1.851822">
        <ele>1182.3</ele>
        <time>2022-09-07T16:28:14Z</time>
      </trkpt>
      <trkpt lat="42.417311" lon="1.851872">
        <ele>1184.3</ele>
        <time>2022-09-07T16:28:21Z</time>
      </trkpt>
      <trkpt lat="42.417591" lon="1.851853">
        <ele>1186.8</ele>
        <time>2022-09-07T16:28:27Z</time>
      </trkpt>
      <trkpt lat="42.417827" lon="1.851872">
        <ele>1189.8</ele>
        <time>2022-09-07T16:28:32Z</time>
      </trkpt>
      <trkpt lat="42.417957" lon="1.851913">
        <ele>1191.5</ele>
        <time>2022-09-07T16:28:35Z</time>
      </trkpt>
      <trkpt lat="42.417973" lon="1.852012">
        <ele>1191.5</ele>
        <time>2022-09-07T16:28:37Z</time>
      </trkpt>
      <trkpt lat="42.417862" lon="1.852111">
        <ele>1190.3</ele>
        <time>2022-09-07T16:28:40Z</time>
      </trkpt>
      <trkpt lat="42.41767" lon="1.852326">
        <ele>1187.5</ele>
        <time>2022-09-07T16:28:45Z</time>
      </trkpt>
      <trkpt lat="42.417666" lon="1.852332">
        <ele>1187.5</ele>
        <time>2022-09-07T16:28:45Z</time>
      </trkpt>
      <trkpt lat="42.417453" lon="1.852654">
        <ele>1184.8</ele>
        <time>2022-09-07T16:28:53Z</time>
      </trkpt>
      <trkpt lat="42.417355" lon="1.852736">
        <ele>1183.8</ele>
        <time>2022-09-07T16:28:55Z</time>
      </trkpt>
      <trkpt lat="42.41725" lon="1.852849">
        <ele>1182.5</ele>
        <time>2022-09-07T16:28:58Z</time>
      </trkpt>
      <trkpt lat="42.417176" lon="1.853015">
        <ele>1181.5</ele>
        <time>2022-09-07T16:29:01Z</time>
      </trkpt>
      <trkpt lat="42.417166" lon="1.853144">
        <ele>1181.5</ele>
        <time>2022-09-07T16:29:03Z</time>
      </trkpt>
      <trkpt lat="42.417199" lon="1.853392">
        <ele>1181.8</ele>
        <time>2022-09-07T16:29:08Z</time>
      </trkpt>
      <trkpt lat="42.417236" lon="1.853579">
        <ele>1181.3</ele>
        <time>2022-09-07T16:29:11Z</time>
      </trkpt>
      <trkpt lat="42.417339" lon="1.853835">
        <ele>1181</ele>
        <time>2022-09-07T16:29:16Z</time>
      </trkpt>
      <trkpt lat="42.417481" lon="1.854017">
        <ele>1181</ele>
        <time>2022-09-07T16:29:20Z</time>
      </trkpt>
      <trkpt lat="42.417679" lon="1.854124">
        <ele>1183.3</ele>
        <time>2022-09-07T16:29:25Z</time>
      </trkpt>
      <trkpt lat="42.417914" lon="1.854237">
        <ele>1186.3</ele>
        <time>2022-09-07T16:29:30Z</time>
      </trkpt>
      <trkpt lat="42.418028" lon="1.854314">
        <ele>1187.3</ele>
        <time>2022-09-07T16:29:33Z</time>
      </trkpt>
      <trkpt lat="42.418162" lon="1.854598">
        <ele>1186.8</ele>
        <time>2022-09-07T16:29:39Z</time>
      </trkpt>
      <trkpt lat="42.418319" lon="1.855184">
        <ele>1184</ele>
        <time>2022-09-07T16:29:49Z</time>
      </trkpt>
      <trkpt lat="42.418328" lon="1.855208">
        <ele>1183.8</ele>
        <time>2022-09-07T16:29:49Z</time>
      </trkpt>
      <trkpt lat="42.418522" lon="1.855724">
        <ele>1183.8</ele>
        <time>2022-09-07T16:29:59Z</time>
      </trkpt>
      <trkpt lat="42.418681" lon="1.856176">
        <ele>1183.5</ele>
        <time>2022-09-07T16:30:07Z</time>
      </trkpt>
      <trkpt lat="42.418859" lon="1.856788">
        <ele>1181</ele>
        <time>2022-09-07T16:30:18Z</time>
      </trkpt>
      <trkpt lat="42.418937" lon="1.857266">
        <ele>1177.5</ele>
        <time>2022-09-07T16:30:26Z</time>
      </trkpt>
      <trkpt lat="42.418963" lon="1.857312">
        <ele>1177.3</ele>
        <time>2022-09-07T16:30:27Z</time>
      </trkpt>
      <trkpt lat="42.419094" lon="1.85754">
        <ele>1177.3</ele>
        <time>2022-09-07T16:30:32Z</time>
      </trkpt>
      <trkpt lat="42.419163" lon="1.85768">
        <ele>1176.8</ele>
        <time>2022-09-07T16:30:34Z</time>
      </trkpt>
      <trkpt lat="42.419369" lon="1.857843">
        <ele>1178</ele>
        <time>2022-09-07T16:30:40Z</time>
      </trkpt>
      <trkpt lat="42.419603" lon="1.858077">
        <ele>1178.3</ele>
        <time>2022-09-07T16:30:46Z</time>
      </trkpt>
      <trkpt lat="42.41984" lon="1.858328">
        <ele>1178.8</ele>
        <time>2022-09-07T16:30:53Z</time>
      </trkpt>
      <trkpt lat="42.420563" lon="1.85909">
        <ele>1180.8</ele>
        <time>2022-09-07T16:31:13Z</time>
      </trkpt>
      <trkpt lat="42.420663" lon="1.859249">
        <ele>1179.8</ele>
        <time>2022-09-07T16:31:17Z</time>
      </trkpt>
      <trkpt lat="42.420729" lon="1.859277">
        <ele>1180.3</ele>
        <time>2022-09-07T16:31:18Z</time>
      </trkpt>
      <trkpt lat="42.420865" lon="1.859298">
        <ele>1182</ele>
        <time>2022-09-07T16:31:21Z</time>
      </trkpt>
      <trkpt lat="42.421129" lon="1.859301">
        <ele>1185.3</ele>
        <time>2022-09-07T16:31:27Z</time>
      </trkpt>
      <trkpt lat="42.421586" lon="1.859481">
        <ele>1189.5</ele>
        <time>2022-09-07T16:31:38Z</time>
      </trkpt>
      <trkpt lat="42.421778" lon="1.859609">
        <ele>1192</ele>
        <time>2022-09-07T16:31:43Z</time>
      </trkpt>
      <trkpt lat="42.421799" lon="1.859651">
        <ele>1192</ele>
        <time>2022-09-07T16:31:43Z</time>
      </trkpt>
      <trkpt lat="42.421804" lon="1.859752">
        <ele>1191.5</ele>
        <time>2022-09-07T16:31:45Z</time>
      </trkpt>
      <trkpt lat="42.421791" lon="1.859797">
        <ele>1190.8</ele>
        <time>2022-09-07T16:31:46Z</time>
      </trkpt>
      <trkpt lat="42.42175" lon="1.859856">
        <ele>1189.5</ele>
        <time>2022-09-07T16:31:47Z</time>
      </trkpt>
      <trkpt lat="42.421722" lon="1.859898">
        <ele>1188.8</ele>
        <time>2022-09-07T16:31:48Z</time>
      </trkpt>
      <trkpt lat="42.42162" lon="1.860019">
        <ele>1186</ele>
        <time>2022-09-07T16:31:51Z</time>
      </trkpt>
      <trkpt lat="42.421541" lon="1.860208">
        <ele>1185.5</ele>
        <time>2022-09-07T16:31:55Z</time>
      </trkpt>
      <trkpt lat="42.421365" lon="1.860492">
        <ele>1183</ele>
        <time>2022-09-07T16:32:01Z</time>
      </trkpt>
      <trkpt lat="42.421325" lon="1.860745">
        <ele>1183.3</ele>
        <time>2022-09-07T16:32:05Z</time>
      </trkpt>
      <trkpt lat="42.421353" lon="1.861134">
        <ele>1186</ele>
        <time>2022-09-07T16:32:12Z</time>
      </trkpt>
      <trkpt lat="42.421396" lon="1.861425">
        <ele>1188.5</ele>
        <time>2022-09-07T16:32:16Z</time>
      </trkpt>
      <trkpt lat="42.421399" lon="1.861753">
        <ele>1189.8</ele>
        <time>2022-09-07T16:32:22Z</time>
      </trkpt>
      <trkpt lat="42.421447" lon="1.862034">
        <ele>1190.8</ele>
        <time>2022-09-07T16:32:27Z</time>
      </trkpt>
      <trkpt lat="42.421483" lon="1.862207">
        <ele>1191.5</ele>
        <time>2022-09-07T16:32:29Z</time>
      </trkpt>
      <trkpt lat="42.421536" lon="1.862274">
        <ele>1192.5</ele>
        <time>2022-09-07T16:32:31Z</time>
      </trkpt>
      <trkpt lat="42.421695" lon="1.862294">
        <ele>1195.8</ele>
        <time>2022-09-07T16:32:35Z</time>
      </trkpt>
      <trkpt lat="42.421767" lon="1.862342">
        <ele>1197</ele>
        <time>2022-09-07T16:32:36Z</time>
      </trkpt>
      <trkpt lat="42.421813" lon="1.862398">
        <ele>1197.8</ele>
        <time>2022-09-07T16:32:38Z</time>
      </trkpt>
      <trkpt lat="42.421834" lon="1.862515">
        <ele>1197.8</ele>
        <time>2022-09-07T16:32:40Z</time>
      </trkpt>
      <trkpt lat="42.42184" lon="1.862689">
        <ele>1196.8</ele>
        <time>2022-09-07T16:32:43Z</time>
      </trkpt>
      <trkpt lat="42.421928" lon="1.862975">
        <ele>1196</ele>
        <time>2022-09-07T16:32:48Z</time>
      </trkpt>
      <trkpt lat="42.421939" lon="1.863008">
        <ele>1196</ele>
        <time>2022-09-07T16:32:48Z</time>
      </trkpt>
      <trkpt lat="42.422104" lon="1.862963">
        <ele>1198.5</ele>
        <time>2022-09-07T16:32:52Z</time>
      </trkpt>
      <trkpt lat="42.42216" lon="1.86298">
        <ele>1199</ele>
        <time>2022-09-07T16:32:53Z</time>
      </trkpt>
      <trkpt lat="42.422203" lon="1.862994">
        <ele>1199.5</ele>
        <time>2022-09-07T16:32:54Z</time>
      </trkpt>
      <trkpt lat="42.422324" lon="1.863083">
        <ele>1200</ele>
        <time>2022-09-07T16:32:57Z</time>
      </trkpt>
      <trkpt lat="42.422374" lon="1.863077">
        <ele>1200.5</ele>
        <time>2022-09-07T16:32:59Z</time>
      </trkpt>
      <trkpt lat="42.422413" lon="1.863073">
        <ele>1201.3</ele>
        <time>2022-09-07T16:32:59Z</time>
      </trkpt>
      <trkpt lat="42.422538" lon="1.863155">
        <ele>1202.3</ele>
        <time>2022-09-07T16:33:03Z</time>
      </trkpt>
      <trkpt lat="42.422631" lon="1.863255">
        <ele>1203.3</ele>
        <time>2022-09-07T16:33:05Z</time>
      </trkpt>
      <trkpt lat="42.422739" lon="1.863235">
        <ele>1206</ele>
        <time>2022-09-07T16:33:08Z</time>
      </trkpt>
      <trkpt lat="42.422749" lon="1.863215">
        <ele>1206.5</ele>
        <time>2022-09-07T16:33:08Z</time>
      </trkpt>
      <trkpt lat="42.42277" lon="1.863277">
        <ele>1206.3</ele>
        <time>2022-09-07T16:33:09Z</time>
      </trkpt>
      <trkpt lat="42.42276" lon="1.863369">
        <ele>1205.3</ele>
        <time>2022-09-07T16:33:11Z</time>
      </trkpt>
      <trkpt lat="42.422689" lon="1.86348">
        <ele>1203</ele>
        <time>2022-09-07T16:33:13Z</time>
      </trkpt>
      <trkpt lat="42.422645" lon="1.863587">
        <ele>1201.3</ele>
        <time>2022-09-07T16:33:15Z</time>
      </trkpt>
      <trkpt lat="42.422612" lon="1.863649">
        <ele>1200</ele>
        <time>2022-09-07T16:33:16Z</time>
      </trkpt>
      <trkpt lat="42.422548" lon="1.863774">
        <ele>1197.8</ele>
        <time>2022-09-07T16:33:19Z</time>
      </trkpt>
      <trkpt lat="42.422471" lon="1.863839">
        <ele>1195.5</ele>
        <time>2022-09-07T16:33:21Z</time>
      </trkpt>
      <trkpt lat="42.422391" lon="1.864043">
        <ele>1193.3</ele>
        <time>2022-09-07T16:33:25Z</time>
      </trkpt>
      <trkpt lat="42.422377" lon="1.864106">
        <ele>1192.8</ele>
        <time>2022-09-07T16:33:26Z</time>
      </trkpt>
      <trkpt lat="42.422343" lon="1.864268">
        <ele>1191.5</ele>
        <time>2022-09-07T16:33:29Z</time>
      </trkpt>
      <trkpt lat="42.422356" lon="1.864612">
        <ele>1190.3</ele>
        <time>2022-09-07T16:33:34Z</time>
      </trkpt>
      <trkpt lat="42.422385" lon="1.864715">
        <ele>1190.3</ele>
        <time>2022-09-07T16:33:36Z</time>
      </trkpt>
      <trkpt lat="42.422393" lon="1.864741">
        <ele>1190.3</ele>
        <time>2022-09-07T16:33:36Z</time>
      </trkpt>
      <trkpt lat="42.422435" lon="1.864848">
        <ele>1190.5</ele>
        <time>2022-09-07T16:33:38Z</time>
      </trkpt>
      <trkpt lat="42.422392" lon="1.865008">
        <ele>1189.3</ele>
        <time>2022-09-07T16:33:41Z</time>
      </trkpt>
      <trkpt lat="42.422341" lon="1.865073">
        <ele>1189.3</ele>
        <time>2022-09-07T16:33:43Z</time>
      </trkpt>
      <trkpt lat="42.422263" lon="1.865075">
        <ele>1188</ele>
        <time>2022-09-07T16:33:45Z</time>
      </trkpt>
      <trkpt lat="42.422113" lon="1.865161">
        <ele>1186.5</ele>
        <time>2022-09-07T16:33:48Z</time>
      </trkpt>
      <trkpt lat="42.422033" lon="1.865292">
        <ele>1186.5</ele>
        <time>2022-09-07T16:33:51Z</time>
      </trkpt>
      <trkpt lat="42.421979" lon="1.865383">
        <ele>1186.8</ele>
        <time>2022-09-07T16:33:53Z</time>
      </trkpt>
      <trkpt lat="42.421818" lon="1.865522">
        <ele>1185</ele>
        <time>2022-09-07T16:33:57Z</time>
      </trkpt>
      <trkpt lat="42.42168" lon="1.865604">
        <ele>1183.3</ele>
        <time>2022-09-07T16:34:01Z</time>
      </trkpt>
      <trkpt lat="42.421396" lon="1.865858">
        <ele>1180.3</ele>
        <time>2022-09-07T16:34:08Z</time>
      </trkpt>
      <trkpt lat="42.421315" lon="1.865932">
        <ele>1179.5</ele>
        <time>2022-09-07T16:34:10Z</time>
      </trkpt>
      <trkpt lat="42.421258" lon="1.866077">
        <ele>1179.8</ele>
        <time>2022-09-07T16:34:13Z</time>
      </trkpt>
      <trkpt lat="42.421167" lon="1.866472">
        <ele>1181.5</ele>
        <time>2022-09-07T16:34:20Z</time>
      </trkpt>
      <trkpt lat="42.421115" lon="1.866701">
        <ele>1182.8</ele>
        <time>2022-09-07T16:34:24Z</time>
      </trkpt>
      <trkpt lat="42.4211" lon="1.866728">
        <ele>1182.8</ele>
        <time>2022-09-07T16:34:24Z</time>
      </trkpt>
      <trkpt lat="42.42107" lon="1.86684">
        <ele>1183</ele>
        <time>2022-09-07T16:34:26Z</time>
      </trkpt>
      <trkpt lat="42.421059" lon="1.866944">
        <ele>1183.3</ele>
        <time>2022-09-07T16:34:28Z</time>
      </trkpt>
      <trkpt lat="42.420961" lon="1.86733">
        <ele>1183.8</ele>
        <time>2022-09-07T16:34:35Z</time>
      </trkpt>
      <trkpt lat="42.420918" lon="1.867473">
        <ele>1183.5</ele>
        <time>2022-09-07T16:34:37Z</time>
      </trkpt>
      <trkpt lat="42.420876" lon="1.867726">
        <ele>1183.5</ele>
        <time>2022-09-07T16:34:41Z</time>
      </trkpt>
      <trkpt lat="42.420843" lon="1.867927">
        <ele>1183.8</ele>
        <time>2022-09-07T16:34:45Z</time>
      </trkpt>
      <trkpt lat="42.420899" lon="1.868591">
        <ele>1187.3</ele>
        <time>2022-09-07T16:34:56Z</time>
      </trkpt>
      <trkpt lat="42.420922" lon="1.86874">
        <ele>1188</ele>
        <time>2022-09-07T16:34:58Z</time>
      </trkpt>
      <trkpt lat="42.420992" lon="1.869193">
        <ele>1191.3</ele>
        <time>2022-09-07T16:35:06Z</time>
      </trkpt>
      <trkpt lat="42.420985" lon="1.869323">
        <ele>1191.3</ele>
        <time>2022-09-07T16:35:08Z</time>
      </trkpt>
      <trkpt lat="42.420926" lon="1.869479">
        <ele>1190</ele>
        <time>2022-09-07T16:35:11Z</time>
      </trkpt>
      <trkpt lat="42.420861" lon="1.869585">
        <ele>1188.5</ele>
        <time>2022-09-07T16:35:13Z</time>
      </trkpt>
      <trkpt lat="42.420799" lon="1.869689">
        <ele>1187.3</ele>
        <time>2022-09-07T16:35:15Z</time>
      </trkpt>
      <trkpt lat="42.420721" lon="1.869901">
        <ele>1186</ele>
        <time>2022-09-07T16:35:19Z</time>
      </trkpt>
      <trkpt lat="42.420666" lon="1.870096">
        <ele>1185.3</ele>
        <time>2022-09-07T16:35:23Z</time>
      </trkpt>
      <trkpt lat="42.420614" lon="1.870286">
        <ele>1184.8</ele>
        <time>2022-09-07T16:35:26Z</time>
      </trkpt>
      <trkpt lat="42.420525" lon="1.870543">
        <ele>1184</ele>
        <time>2022-09-07T16:35:31Z</time>
      </trkpt>
      <trkpt lat="42.420482" lon="1.870798">
        <ele>1184.3</ele>
        <time>2022-09-07T16:35:35Z</time>
      </trkpt>
      <trkpt lat="42.420482" lon="1.871311">
        <ele>1185.8</ele>
        <time>2022-09-07T16:35:44Z</time>
      </trkpt>
      <trkpt lat="42.420535" lon="1.87187">
        <ele>1187.3</ele>
        <time>2022-09-07T16:35:53Z</time>
      </trkpt>
      <trkpt lat="42.420548" lon="1.872185">
        <ele>1186.8</ele>
        <time>2022-09-07T16:35:58Z</time>
      </trkpt>
      <trkpt lat="42.420588" lon="1.872386">
        <ele>1186.8</ele>
        <time>2022-09-07T16:36:01Z</time>
      </trkpt>
      <trkpt lat="42.420653" lon="1.872517">
        <ele>1187.3</ele>
        <time>2022-09-07T16:36:04Z</time>
      </trkpt>
      <trkpt lat="42.421188" lon="1.873395">
        <ele>1189.8</ele>
        <time>2022-09-07T16:36:23Z</time>
      </trkpt>
      <trkpt lat="42.421235" lon="1.873441">
        <ele>1190.8</ele>
        <time>2022-09-07T16:36:24Z</time>
      </trkpt>
      <trkpt lat="42.42129" lon="1.873494">
        <ele>1191.8</ele>
        <time>2022-09-07T16:36:26Z</time>
      </trkpt>
      <trkpt lat="42.421372" lon="1.8736">
        <ele>1193</ele>
        <time>2022-09-07T16:36:28Z</time>
      </trkpt>
      <trkpt lat="42.421404" lon="1.873685">
        <ele>1193.5</ele>
        <time>2022-09-07T16:36:30Z</time>
      </trkpt>
      <trkpt lat="42.421412" lon="1.873754">
        <ele>1193.8</ele>
        <time>2022-09-07T16:36:31Z</time>
      </trkpt>
      <trkpt lat="42.42133" lon="1.873923">
        <ele>1192.5</ele>
        <time>2022-09-07T16:36:34Z</time>
      </trkpt>
      <trkpt lat="42.420958" lon="1.874238">
        <ele>1187.3</ele>
        <time>2022-09-07T16:36:44Z</time>
      </trkpt>
      <trkpt lat="42.420825" lon="1.874432">
        <ele>1186.3</ele>
        <time>2022-09-07T16:36:48Z</time>
      </trkpt>
      <trkpt lat="42.420758" lon="1.8745">
        <ele>1185.5</ele>
        <time>2022-09-07T16:36:50Z</time>
      </trkpt>
      <trkpt lat="42.420607" lon="1.874688">
        <ele>1184.3</ele>
        <time>2022-09-07T16:36:55Z</time>
      </trkpt>
      <trkpt lat="42.420554" lon="1.874817">
        <ele>1184</ele>
        <time>2022-09-07T16:36:57Z</time>
      </trkpt>
      <trkpt lat="42.4205" lon="1.874953">
        <ele>1184</ele>
        <time>2022-09-07T16:37:00Z</time>
      </trkpt>
      <trkpt lat="42.420467" lon="1.875076">
        <ele>1183.8</ele>
        <time>2022-09-07T16:37:02Z</time>
      </trkpt>
      <trkpt lat="42.420468" lon="1.875124">
        <ele>1183.8</ele>
        <time>2022-09-07T16:37:03Z</time>
      </trkpt>
      <trkpt lat="42.420492" lon="1.875167">
        <ele>1184.3</ele>
        <time>2022-09-07T16:37:04Z</time>
      </trkpt>
      <trkpt lat="42.42051" lon="1.875272">
        <ele>1184.5</ele>
        <time>2022-09-07T16:37:05Z</time>
      </trkpt>
      <trkpt lat="42.420529" lon="1.875384">
        <ele>1185</ele>
        <time>2022-09-07T16:37:07Z</time>
      </trkpt>
      <trkpt lat="42.420555" lon="1.875492">
        <ele>1185.5</ele>
        <time>2022-09-07T16:37:09Z</time>
      </trkpt>
      <trkpt lat="42.420624" lon="1.875713">
        <ele>1186.5</ele>
        <time>2022-09-07T16:37:13Z</time>
      </trkpt>
      <trkpt lat="42.420785" lon="1.876031">
        <ele>1187.8</ele>
        <time>2022-09-07T16:37:19Z</time>
      </trkpt>
      <trkpt lat="42.420908" lon="1.8762">
        <ele>1188.3</ele>
        <time>2022-09-07T16:37:23Z</time>
      </trkpt>
      <trkpt lat="42.421028" lon="1.876306">
        <ele>1188.8</ele>
        <time>2022-09-07T16:37:26Z</time>
      </trkpt>
      <trkpt lat="42.42125" lon="1.876301">
        <ele>1191.3</ele>
        <time>2022-09-07T16:37:31Z</time>
      </trkpt>
      <trkpt lat="42.421472" lon="1.876297">
        <ele>1194</ele>
        <time>2022-09-07T16:37:36Z</time>
      </trkpt>
      <trkpt lat="42.421788" lon="1.876582">
        <ele>1196</ele>
        <time>2022-09-07T16:37:45Z</time>
      </trkpt>
      <trkpt lat="42.42174" lon="1.877004">
        <ele>1193</ele>
        <time>2022-09-07T16:37:52Z</time>
      </trkpt>
      <trkpt lat="42.421756" lon="1.877455">
        <ele>1191.3</ele>
        <time>2022-09-07T16:37:59Z</time>
      </trkpt>
      <trkpt lat="42.421804" lon="1.877862">
        <ele>1190.5</ele>
        <time>2022-09-07T16:38:06Z</time>
      </trkpt>
      <trkpt lat="42.421901" lon="1.877941">
        <ele>1191</ele>
        <time>2022-09-07T16:38:09Z</time>
      </trkpt>
      <trkpt lat="42.422003" lon="1.877984">
        <ele>1191.8</ele>
        <time>2022-09-07T16:38:11Z</time>
      </trkpt>
      <trkpt lat="42.422049" lon="1.878047">
        <ele>1191.8</ele>
        <time>2022-09-07T16:38:12Z</time>
      </trkpt>
      <trkpt lat="42.422073" lon="1.878135">
        <ele>1191.3</ele>
        <time>2022-09-07T16:38:14Z</time>
      </trkpt>
      <trkpt lat="42.422102" lon="1.87828">
        <ele>1190.3</ele>
        <time>2022-09-07T16:38:16Z</time>
      </trkpt>
      <trkpt lat="42.422105" lon="1.878294">
        <ele>1190.3</ele>
        <time>2022-09-07T16:38:17Z</time>
      </trkpt>
      <trkpt lat="42.422244" lon="1.878466">
        <ele>1189</ele>
        <time>2022-09-07T16:38:21Z</time>
      </trkpt>
      <trkpt lat="42.422498" lon="1.878611">
        <ele>1188.3</ele>
        <time>2022-09-07T16:38:27Z</time>
      </trkpt>
      <trkpt lat="42.422771" lon="1.878695">
        <ele>1186.3</ele>
        <time>2022-09-07T16:38:33Z</time>
      </trkpt>
      <trkpt lat="42.422877" lon="1.878728">
        <ele>1185.5</ele>
        <time>2022-09-07T16:38:36Z</time>
      </trkpt>
      <trkpt lat="42.4231" lon="1.878679">
        <ele>1185.8</ele>
        <time>2022-09-07T16:38:41Z</time>
      </trkpt>
      <trkpt lat="42.423383" lon="1.878592">
        <ele>1186.5</ele>
        <time>2022-09-07T16:38:47Z</time>
      </trkpt>
      <trkpt lat="42.423695" lon="1.878519">
        <ele>1186.3</ele>
        <time>2022-09-07T16:38:54Z</time>
      </trkpt>
      <trkpt lat="42.424155" lon="1.878477">
        <ele>1184.8</ele>
        <time>2022-09-07T16:39:04Z</time>
      </trkpt>
      <trkpt lat="42.424872" lon="1.878221">
        <ele>1187</ele>
        <time>2022-09-07T16:39:21Z</time>
      </trkpt>
      <trkpt lat="42.424918" lon="1.878212">
        <ele>1186.8</ele>
        <time>2022-09-07T16:39:22Z</time>
      </trkpt>
      <trkpt lat="42.425226" lon="1.878159">
        <ele>1186.5</ele>
        <time>2022-09-07T16:39:29Z</time>
      </trkpt>
      <trkpt lat="42.425397" lon="1.878054">
        <ele>1188</ele>
        <time>2022-09-07T16:39:33Z</time>
      </trkpt>
      <trkpt lat="42.425546" lon="1.877995">
        <ele>1188.8</ele>
        <time>2022-09-07T16:39:37Z</time>
      </trkpt>
      <trkpt lat="42.425767" lon="1.878035">
        <ele>1187</ele>
        <time>2022-09-07T16:39:42Z</time>
      </trkpt>
      <trkpt lat="42.426712" lon="1.877943">
        <ele>1190.8</ele>
        <time>2022-09-07T16:40:03Z</time>
      </trkpt>
      <trkpt lat="42.426946" lon="1.877929">
        <ele>1192.5</ele>
        <time>2022-09-07T16:40:08Z</time>
      </trkpt>
      <trkpt lat="42.427048" lon="1.877875">
        <ele>1193.3</ele>
        <time>2022-09-07T16:40:10Z</time>
      </trkpt>
      <trkpt lat="42.427218" lon="1.877786">
        <ele>1194.5</ele>
        <time>2022-09-07T16:40:14Z</time>
      </trkpt>
      <trkpt lat="42.427669" lon="1.877312">
        <ele>1197.8</ele>
        <time>2022-09-07T16:40:27Z</time>
      </trkpt>
      <trkpt lat="42.427919" lon="1.876735">
        <ele>1200.3</ele>
        <time>2022-09-07T16:40:38Z</time>
      </trkpt>
      <trkpt lat="42.428173" lon="1.876494">
        <ele>1200.3</ele>
        <time>2022-09-07T16:40:45Z</time>
      </trkpt>
      <trkpt lat="42.428405" lon="1.876261">
        <ele>1202</ele>
        <time>2022-09-07T16:40:51Z</time>
      </trkpt>
      <trkpt lat="42.428601" lon="1.876187">
        <ele>1204.3</ele>
        <time>2022-09-07T16:40:56Z</time>
      </trkpt>
      <trkpt lat="42.428714" lon="1.876088">
        <ele>1205.5</ele>
        <time>2022-09-07T16:40:59Z</time>
      </trkpt>
      <trkpt lat="42.42875" lon="1.876142">
        <ele>1205.5</ele>
        <time>2022-09-07T16:41:00Z</time>
      </trkpt>
      <trkpt lat="42.428528" lon="1.876596">
        <ele>1200.8</ele>
        <time>2022-09-07T16:41:09Z</time>
      </trkpt>
      <trkpt lat="42.428363" lon="1.87688">
        <ele>1199</ele>
        <time>2022-09-07T16:41:15Z</time>
      </trkpt>
      <trkpt lat="42.428176" lon="1.87729">
        <ele>1200.5</ele>
        <time>2022-09-07T16:41:23Z</time>
      </trkpt>
      <trkpt lat="42.428029" lon="1.877637">
        <ele>1201.3</ele>
        <time>2022-09-07T16:41:30Z</time>
      </trkpt>
      <trkpt lat="42.427935" lon="1.877876">
        <ele>1202</ele>
        <time>2022-09-07T16:41:34Z</time>
      </trkpt>
      <trkpt lat="42.427807" lon="1.878059">
        <ele>1201.5</ele>
        <time>2022-09-07T16:41:38Z</time>
      </trkpt>
      <trkpt lat="42.427595" lon="1.87828">
        <ele>1198.5</ele>
        <time>2022-09-07T16:41:44Z</time>
      </trkpt>
      <trkpt lat="42.427531" lon="1.878354">
        <ele>1198.5</ele>
        <time>2022-09-07T16:41:46Z</time>
      </trkpt>
      <trkpt lat="42.427365" lon="1.87855">
        <ele>1198.5</ele>
        <time>2022-09-07T16:41:51Z</time>
      </trkpt>
      <trkpt lat="42.427025" lon="1.878877">
        <ele>1197.8</ele>
        <time>2022-09-07T16:42:00Z</time>
      </trkpt>
      <trkpt lat="42.426744" lon="1.879026">
        <ele>1194.5</ele>
        <time>2022-09-07T16:42:07Z</time>
      </trkpt>
      <trkpt lat="42.42646" lon="1.879207">
        <ele>1192.3</ele>
        <time>2022-09-07T16:42:14Z</time>
      </trkpt>
      <trkpt lat="42.42632" lon="1.879252">
        <ele>1190.8</ele>
        <time>2022-09-07T16:42:17Z</time>
      </trkpt>
      <trkpt lat="42.426245" lon="1.879284">
        <ele>1190</ele>
        <time>2022-09-07T16:42:19Z</time>
      </trkpt>
      <trkpt lat="42.426048" lon="1.879421">
        <ele>1189</ele>
        <time>2022-09-07T16:42:24Z</time>
      </trkpt>
      <trkpt lat="42.425957" lon="1.87956">
        <ele>1189.5</ele>
        <time>2022-09-07T16:42:27Z</time>
      </trkpt>
      <trkpt lat="42.425776" lon="1.879746">
        <ele>1189</ele>
        <time>2022-09-07T16:42:32Z</time>
      </trkpt>
      <trkpt lat="42.425502" lon="1.880095">
        <ele>1188.3</ele>
        <time>2022-09-07T16:42:40Z</time>
      </trkpt>
      <trkpt lat="42.425153" lon="1.880542">
        <ele>1187.5</ele>
        <time>2022-09-07T16:42:51Z</time>
      </trkpt>
      <trkpt lat="42.424964" lon="1.880822">
        <ele>1188</ele>
        <time>2022-09-07T16:42:57Z</time>
      </trkpt>
      <trkpt lat="42.424788" lon="1.881211">
        <ele>1186.5</ele>
        <time>2022-09-07T16:43:05Z</time>
      </trkpt>
      <trkpt lat="42.424732" lon="1.881758">
        <ele>1187.8</ele>
        <time>2022-09-07T16:43:14Z</time>
      </trkpt>
      <trkpt lat="42.42476" lon="1.88209">
        <ele>1189</ele>
        <time>2022-09-07T16:43:19Z</time>
      </trkpt>
      <trkpt lat="42.424771" lon="1.882451">
        <ele>1189.8</ele>
        <time>2022-09-07T16:43:25Z</time>
      </trkpt>
      <trkpt lat="42.424765" lon="1.882631">
        <ele>1189.3</ele>
        <time>2022-09-07T16:43:28Z</time>
      </trkpt>
      <trkpt lat="42.424826" lon="1.882906">
        <ele>1189.5</ele>
        <time>2022-09-07T16:43:33Z</time>
      </trkpt>
      <trkpt lat="42.424873" lon="1.88302">
        <ele>1190</ele>
        <time>2022-09-07T16:43:35Z</time>
      </trkpt>
      <trkpt lat="42.424922" lon="1.883232">
        <ele>1190</ele>
        <time>2022-09-07T16:43:39Z</time>
      </trkpt>
      <trkpt lat="42.424946" lon="1.883331">
        <ele>1190</ele>
        <time>2022-09-07T16:43:41Z</time>
      </trkpt>
      <trkpt lat="42.424975" lon="1.883461">
        <ele>1190</ele>
        <time>2022-09-07T16:43:43Z</time>
      </trkpt>
      <trkpt lat="42.424988" lon="1.883586">
        <ele>1189.8</ele>
        <time>2022-09-07T16:43:45Z</time>
      </trkpt>
      <trkpt lat="42.425176" lon="1.883815">
        <ele>1190.8</ele>
        <time>2022-09-07T16:43:50Z</time>
      </trkpt>
      <trkpt lat="42.425233" lon="1.883883">
        <ele>1191.3</ele>
        <time>2022-09-07T16:43:52Z</time>
      </trkpt>
      <trkpt lat="42.425812" lon="1.883987">
        <ele>1195.8</ele>
        <time>2022-09-07T16:44:05Z</time>
      </trkpt>
      <trkpt lat="42.426704" lon="1.884098">
        <ele>1198.8</ele>
        <time>2022-09-07T16:44:25Z</time>
      </trkpt>
      <trkpt lat="42.427162" lon="1.883989">
        <ele>1197</ele>
        <time>2022-09-07T16:44:35Z</time>
      </trkpt>
      <trkpt lat="42.427196" lon="1.883961">
        <ele>1197</ele>
        <time>2022-09-07T16:44:36Z</time>
      </trkpt>
      <trkpt lat="42.427258" lon="1.883912">
        <ele>1197.5</ele>
        <time>2022-09-07T16:44:38Z</time>
      </trkpt>
      <trkpt lat="42.427552" lon="1.883674">
        <ele>1199.3</ele>
        <time>2022-09-07T16:44:46Z</time>
      </trkpt>
      <trkpt lat="42.427675" lon="1.883592">
        <ele>1199</ele>
        <time>2022-09-07T16:44:49Z</time>
      </trkpt>
      <trkpt lat="42.427952" lon="1.883408">
        <ele>1199</ele>
        <time>2022-09-07T16:44:56Z</time>
      </trkpt>
      <trkpt lat="42.428188" lon="1.882829">
        <ele>1201</ele>
        <time>2022-09-07T16:45:06Z</time>
      </trkpt>
      <trkpt lat="42.428334" lon="1.882647">
        <ele>1199.8</ele>
        <time>2022-09-07T16:45:11Z</time>
      </trkpt>
      <trkpt lat="42.428586" lon="1.882478">
        <ele>1200.8</ele>
        <time>2022-09-07T16:45:17Z</time>
      </trkpt>
      <trkpt lat="42.428555" lon="1.88264">
        <ele>1200</ele>
        <time>2022-09-07T16:45:20Z</time>
      </trkpt>
      <trkpt lat="42.428579" lon="1.882682">
        <ele>1200</ele>
        <time>2022-09-07T16:45:21Z</time>
      </trkpt>
      <trkpt lat="42.428555" lon="1.88264">
        <ele>1200</ele>
        <time>2022-09-07T16:45:22Z</time>
      </trkpt>
      <trkpt lat="42.42855" lon="1.882832">
        <ele>1199.5</ele>
        <time>2022-09-07T16:45:25Z</time>
      </trkpt>
      <trkpt lat="42.428488" lon="1.882988">
        <ele>1198.5</ele>
        <time>2022-09-07T16:45:28Z</time>
      </trkpt>
      <trkpt lat="42.428295" lon="1.883615">
        <ele>1195.8</ele>
        <time>2022-09-07T16:45:39Z</time>
      </trkpt>
      <trkpt lat="42.42809" lon="1.884364">
        <ele>1196</ele>
        <time>2022-09-07T16:45:52Z</time>
      </trkpt>
      <trkpt lat="42.427847" lon="1.884956">
        <ele>1193</ele>
        <time>2022-09-07T16:46:03Z</time>
      </trkpt>
      <trkpt lat="42.42782" lon="1.885024">
        <ele>1192.8</ele>
        <time>2022-09-07T16:46:04Z</time>
      </trkpt>
      <trkpt lat="42.427638" lon="1.885312">
        <ele>1190.5</ele>
        <time>2022-09-07T16:46:11Z</time>
      </trkpt>
      <trkpt lat="42.427495" lon="1.885621">
        <ele>1189</ele>
        <time>2022-09-07T16:46:17Z</time>
      </trkpt>
      <trkpt lat="42.427253" lon="1.886285">
        <ele>1188.8</ele>
        <time>2022-09-07T16:46:29Z</time>
      </trkpt>
      <trkpt lat="42.427275" lon="1.886298">
        <ele>1189.3</ele>
        <time>2022-09-07T16:46:29Z</time>
      </trkpt>
      <trkpt lat="42.427186" lon="1.886573">
        <ele>1190.3</ele>
        <time>2022-09-07T16:46:34Z</time>
      </trkpt>
      <trkpt lat="42.427139" lon="1.88688">
        <ele>1191.3</ele>
        <time>2022-09-07T16:46:39Z</time>
      </trkpt>
      <trkpt lat="42.427142" lon="1.887242">
        <ele>1192</ele>
        <time>2022-09-07T16:46:45Z</time>
      </trkpt>
      <trkpt lat="42.427146" lon="1.887569">
        <ele>1193</ele>
        <time>2022-09-07T16:46:51Z</time>
      </trkpt>
      <trkpt lat="42.427138" lon="1.887873">
        <ele>1193.8</ele>
        <time>2022-09-07T16:46:56Z</time>
      </trkpt>
      <trkpt lat="42.427064" lon="1.888164">
        <ele>1193.8</ele>
        <time>2022-09-07T16:47:01Z</time>
      </trkpt>
      <trkpt lat="42.427125" lon="1.888785">
        <ele>1193.3</ele>
        <time>2022-09-07T16:47:11Z</time>
      </trkpt>
      <trkpt lat="42.427474" lon="1.889104">
        <ele>1194.8</ele>
        <time>2022-09-07T16:47:21Z</time>
      </trkpt>
      <trkpt lat="42.427724" lon="1.889157">
        <ele>1195</ele>
        <time>2022-09-07T16:47:26Z</time>
      </trkpt>
      <trkpt lat="42.427879" lon="1.889191">
        <ele>1195.5</ele>
        <time>2022-09-07T16:47:30Z</time>
      </trkpt>
      <trkpt lat="42.428238" lon="1.889293">
        <ele>1195.8</ele>
        <time>2022-09-07T16:47:38Z</time>
      </trkpt>
      <trkpt lat="42.428594" lon="1.889259">
        <ele>1196.8</ele>
        <time>2022-09-07T16:47:46Z</time>
      </trkpt>
      <trkpt lat="42.428812" lon="1.889147">
        <ele>1197.3</ele>
        <time>2022-09-07T16:47:51Z</time>
      </trkpt>
      <trkpt lat="42.428896" lon="1.889105">
        <ele>1197.8</ele>
        <time>2022-09-07T16:47:53Z</time>
      </trkpt>
      <trkpt lat="42.429169" lon="1.889119">
        <ele>1198</ele>
        <time>2022-09-07T16:47:59Z</time>
      </trkpt>
      <trkpt lat="42.429712" lon="1.889324">
        <ele>1201.3</ele>
        <time>2022-09-07T16:48:12Z</time>
      </trkpt>
      <trkpt lat="42.430547" lon="1.890046">
        <ele>1206.5</ele>
        <time>2022-09-07T16:48:34Z</time>
      </trkpt>
      <trkpt lat="42.430892" lon="1.890323">
        <ele>1208.5</ele>
        <time>2022-09-07T16:48:43Z</time>
      </trkpt>
      <trkpt lat="42.431199" lon="1.890571">
        <ele>1210.5</ele>
        <time>2022-09-07T16:48:51Z</time>
      </trkpt>
      <trkpt lat="42.431898" lon="1.890887">
        <ele>1213</ele>
        <time>2022-09-07T16:49:07Z</time>
      </trkpt>
      <trkpt lat="42.431806" lon="1.891044">
        <ele>1211.3</ele>
        <time>2022-09-07T16:49:10Z</time>
      </trkpt>
      <trkpt lat="42.431624" lon="1.89138">
        <ele>1208</ele>
        <time>2022-09-07T16:49:17Z</time>
      </trkpt>
      <trkpt lat="42.43159" lon="1.891514">
        <ele>1207</ele>
        <time>2022-09-07T16:49:20Z</time>
      </trkpt>
      <trkpt lat="42.431586" lon="1.891602">
        <ele>1206.5</ele>
        <time>2022-09-07T16:49:21Z</time>
      </trkpt>
      <trkpt lat="42.431556" lon="1.891717">
        <ele>1205.5</ele>
        <time>2022-09-07T16:49:23Z</time>
      </trkpt>
      <trkpt lat="42.431396" lon="1.892021">
        <ele>1203</ele>
        <time>2022-09-07T16:49:29Z</time>
      </trkpt>
      <trkpt lat="42.431203" lon="1.892284">
        <ele>1200.8</ele>
        <time>2022-09-07T16:49:35Z</time>
      </trkpt>
      <trkpt lat="42.431165" lon="1.892346">
        <ele>1200</ele>
        <time>2022-09-07T16:49:37Z</time>
      </trkpt>
      <trkpt lat="42.431147" lon="1.892377">
        <ele>1200</ele>
        <time>2022-09-07T16:49:37Z</time>
      </trkpt>
      <trkpt lat="42.431142" lon="1.89246">
        <ele>1199.8</ele>
        <time>2022-09-07T16:49:39Z</time>
      </trkpt>
      <trkpt lat="42.43118" lon="1.892526">
        <ele>1200</ele>
        <time>2022-09-07T16:49:40Z</time>
      </trkpt>
      <trkpt lat="42.431243" lon="1.892577">
        <ele>1200.8</ele>
        <time>2022-09-07T16:49:42Z</time>
      </trkpt>
      <trkpt lat="42.431448" lon="1.89265">
        <ele>1202.5</ele>
        <time>2022-09-07T16:49:46Z</time>
      </trkpt>
      <trkpt lat="42.431748" lon="1.892711">
        <ele>1205</ele>
        <time>2022-09-07T16:49:53Z</time>
      </trkpt>
      <trkpt lat="42.43189" lon="1.892721">
        <ele>1206</ele>
        <time>2022-09-07T16:49:56Z</time>
      </trkpt>
      <trkpt lat="42.432054" lon="1.892609">
        <ele>1206.3</ele>
        <time>2022-09-07T16:50:00Z</time>
      </trkpt>
      <trkpt lat="42.432236" lon="1.892499">
        <ele>1206.3</ele>
        <time>2022-09-07T16:50:05Z</time>
      </trkpt>
      <trkpt lat="42.432318" lon="1.892487">
        <ele>1206.8</ele>
        <time>2022-09-07T16:50:07Z</time>
      </trkpt>
      <trkpt lat="42.432565" lon="1.892453">
        <ele>1208.8</ele>
        <time>2022-09-07T16:50:12Z</time>
      </trkpt>
      <trkpt lat="42.433034" lon="1.892409">
        <ele>1213.5</ele>
        <time>2022-09-07T16:50:23Z</time>
      </trkpt>
      <trkpt lat="42.43327" lon="1.892348">
        <ele>1216</ele>
        <time>2022-09-07T16:50:28Z</time>
      </trkpt>
      <trkpt lat="42.4334" lon="1.892409">
        <ele>1217</ele>
        <time>2022-09-07T16:50:31Z</time>
      </trkpt>
      <trkpt lat="42.433551" lon="1.892567">
        <ele>1218.8</ele>
        <time>2022-09-07T16:50:35Z</time>
      </trkpt>
      <trkpt lat="42.433619" lon="1.89276">
        <ele>1221.3</ele>
        <time>2022-09-07T16:50:39Z</time>
      </trkpt>
      <trkpt lat="42.433664" lon="1.893047">
        <ele>1224.5</ele>
        <time>2022-09-07T16:50:44Z</time>
      </trkpt>
      <trkpt lat="42.433696" lon="1.893176">
        <ele>1225.8</ele>
        <time>2022-09-07T16:50:46Z</time>
      </trkpt>
      <trkpt lat="42.433703" lon="1.893201">
        <ele>1226.3</ele>
        <time>2022-09-07T16:50:46Z</time>
      </trkpt>
      <trkpt lat="42.434065" lon="1.893012">
        <ele>1227.3</ele>
        <time>2022-09-07T16:50:55Z</time>
      </trkpt>
      <trkpt lat="42.434961" lon="1.892751">
        <ele>1232.3</ele>
        <time>2022-09-07T16:51:15Z</time>
      </trkpt>
      <trkpt lat="42.435375" lon="1.892547">
        <ele>1234</ele>
        <time>2022-09-07T16:51:25Z</time>
      </trkpt>
      <trkpt lat="42.435671" lon="1.892478">
        <ele>1235.8</ele>
        <time>2022-09-07T16:51:32Z</time>
      </trkpt>
      <trkpt lat="42.435945" lon="1.892296">
        <ele>1238</ele>
        <time>2022-09-07T16:51:39Z</time>
      </trkpt>
      <trkpt lat="42.436106" lon="1.89224">
        <ele>1239</ele>
        <time>2022-09-07T16:51:42Z</time>
      </trkpt>
      <trkpt lat="42.43622" lon="1.892251">
        <ele>1239.8</ele>
        <time>2022-09-07T16:51:45Z</time>
      </trkpt>
      <trkpt lat="42.436281" lon="1.892364">
        <ele>1240.3</ele>
        <time>2022-09-07T16:51:47Z</time>
      </trkpt>
      <trkpt lat="42.436368" lon="1.892985">
        <ele>1242.3</ele>
        <time>2022-09-07T16:51:58Z</time>
      </trkpt>
      <trkpt lat="42.436444" lon="1.893095">
        <ele>1242.8</ele>
        <time>2022-09-07T16:52:00Z</time>
      </trkpt>
      <trkpt lat="42.436579" lon="1.893123">
        <ele>1243.3</ele>
        <time>2022-09-07T16:52:03Z</time>
      </trkpt>
      <trkpt lat="42.436729" lon="1.89314">
        <ele>1243.8</ele>
        <time>2022-09-07T16:52:07Z</time>
      </trkpt>
      <trkpt lat="42.436892" lon="1.893299">
        <ele>1244.5</ele>
        <time>2022-09-07T16:52:11Z</time>
      </trkpt>
      <trkpt lat="42.43697" lon="1.89343">
        <ele>1245.8</ele>
        <time>2022-09-07T16:52:14Z</time>
      </trkpt>
      <trkpt lat="42.437052" lon="1.893495">
        <ele>1246.5</ele>
        <time>2022-09-07T16:52:16Z</time>
      </trkpt>
      <trkpt lat="42.437202" lon="1.893523">
        <ele>1247.3</ele>
        <time>2022-09-07T16:52:19Z</time>
      </trkpt>
      <trkpt lat="42.437296" lon="1.893585">
        <ele>1248.3</ele>
        <time>2022-09-07T16:52:22Z</time>
      </trkpt>
      <trkpt lat="42.437326" lon="1.893764">
        <ele>1249.8</ele>
        <time>2022-09-07T16:52:25Z</time>
      </trkpt>
      <trkpt lat="42.437268" lon="1.894091">
        <ele>1252.3</ele>
        <time>2022-09-07T16:52:30Z</time>
      </trkpt>
      <trkpt lat="42.43725" lon="1.894526">
        <ele>1257.3</ele>
        <time>2022-09-07T16:52:37Z</time>
      </trkpt>
      <trkpt lat="42.437268" lon="1.894722">
        <ele>1259.8</ele>
        <time>2022-09-07T16:52:41Z</time>
      </trkpt>
      <trkpt lat="42.437222" lon="1.894922">
        <ele>1262.3</ele>
        <time>2022-09-07T16:52:44Z</time>
      </trkpt>
      <trkpt lat="42.437156" lon="1.894991">
        <ele>1263</ele>
        <time>2022-09-07T16:52:46Z</time>
      </trkpt>
      <trkpt lat="42.437026" lon="1.895053">
        <ele>1263.5</ele>
        <time>2022-09-07T16:52:49Z</time>
      </trkpt>
      <trkpt lat="42.436352" lon="1.895218">
        <ele>1264.8</ele>
        <time>2022-09-07T16:53:04Z</time>
      </trkpt>
      <trkpt lat="42.436326" lon="1.895226">
        <ele>1264.8</ele>
        <time>2022-09-07T16:53:05Z</time>
      </trkpt>
      <trkpt lat="42.435762" lon="1.895405">
        <ele>1268.3</ele>
        <time>2022-09-07T16:53:18Z</time>
      </trkpt>
      <trkpt lat="42.435047" lon="1.89567">
        <ele>1273.3</ele>
        <time>2022-09-07T16:53:34Z</time>
      </trkpt>
      <trkpt lat="42.434165" lon="1.896073">
        <ele>1272</ele>
        <time>2022-09-07T16:53:55Z</time>
      </trkpt>
      <trkpt lat="42.433747" lon="1.896377">
        <ele>1271.8</ele>
        <time>2022-09-07T16:54:06Z</time>
      </trkpt>
      <trkpt lat="42.433641" lon="1.896466">
        <ele>1271.8</ele>
        <time>2022-09-07T16:54:08Z</time>
      </trkpt>
      <trkpt lat="42.433592" lon="1.896625">
        <ele>1273.3</ele>
        <time>2022-09-07T16:54:11Z</time>
      </trkpt>
      <trkpt lat="42.433555" lon="1.896579">
        <ele>1272.3</ele>
        <time>2022-09-07T16:54:12Z</time>
      </trkpt>
      <trkpt lat="42.433592" lon="1.896625">
        <ele>1273.3</ele>
        <time>2022-09-07T16:54:13Z</time>
      </trkpt>
      <trkpt lat="42.433598" lon="1.896767">
        <ele>1274.5</ele>
        <time>2022-09-07T16:54:16Z</time>
      </trkpt>
      <trkpt lat="42.4336" lon="1.896825">
        <ele>1274.8</ele>
        <time>2022-09-07T16:54:17Z</time>
      </trkpt>
      <trkpt lat="42.433699" lon="1.897124">
        <ele>1277.8</ele>
        <time>2022-09-07T16:54:22Z</time>
      </trkpt>
      <trkpt lat="42.43377" lon="1.898045">
        <ele>1278.3</ele>
        <time>2022-09-07T16:54:37Z</time>
      </trkpt>
      <trkpt lat="42.433841" lon="1.898383">
        <ele>1277</ele>
        <time>2022-09-07T16:54:43Z</time>
      </trkpt>
      <trkpt lat="42.433936" lon="1.898569">
        <ele>1276</ele>
        <time>2022-09-07T16:54:47Z</time>
      </trkpt>
      <trkpt lat="42.434317" lon="1.8991">
        <ele>1274.3</ele>
        <time>2022-09-07T16:54:59Z</time>
      </trkpt>
      <trkpt lat="42.43441" lon="1.899208">
        <ele>1274</ele>
        <time>2022-09-07T16:55:02Z</time>
      </trkpt>
      <trkpt lat="42.434582" lon="1.89941">
        <ele>1273.8</ele>
        <time>2022-09-07T16:55:07Z</time>
      </trkpt>
      <trkpt lat="42.434968" lon="1.899665">
        <ele>1273.8</ele>
        <time>2022-09-07T16:55:16Z</time>
      </trkpt>
      <trkpt lat="42.435566" lon="1.89993">
        <ele>1271.5</ele>
        <time>2022-09-07T16:55:30Z</time>
      </trkpt>
      <trkpt lat="42.435716" lon="1.90004">
        <ele>1269.8</ele>
        <time>2022-09-07T16:55:34Z</time>
      </trkpt>
      <trkpt lat="42.435882" lon="1.900123">
        <ele>1267.5</ele>
        <time>2022-09-07T16:55:38Z</time>
      </trkpt>
      <trkpt lat="42.436373" lon="1.900327">
        <ele>1259.3</ele>
        <time>2022-09-07T16:55:50Z</time>
      </trkpt>
      <trkpt lat="42.43673154534073" lon="1.900421180089717">
        <ele>1254.88</ele>
        <time>2022-09-07T16:56:11Z</time>
      </trkpt>
      <trkpt lat="42.43714356936336" lon="1.900345292652453">
        <ele>1250.459</ele>
        <time>2022-09-07T16:56:33Z</time>
      </trkpt>
      <trkpt lat="42.4379122812482" lon="1.899890712984084">
        <ele>1241.619</ele>
        <time>2022-09-07T16:57:17Z</time>
      </trkpt>
      <trkpt lat="42.43821158692661" lon="1.89973937291316">
        <ele>1241.175</ele>
        <time>2022-09-07T16:57:18Z</time>
      </trkpt>
      <trkpt lat="42.43890398275213" lon="1.89939006512327">
        <ele>1240.288</ele>
        <time>2022-09-07T16:57:21Z</time>
      </trkpt>
      <trkpt lat="42.43994184917775" lon="1.899406420349562">
        <ele>1239.4</ele>
        <time>2022-09-07T16:57:23Z</time>
      </trkpt>
      <trkpt lat="42.44054280415456" lon="1.899439323119958">
        <ele>1235.85</ele>
        <time>2022-09-07T16:57:32Z</time>
      </trkpt>
      <trkpt lat="42.44124910166107" lon="1.899562122227578">
        <ele>1232.3</ele>
        <time>2022-09-07T16:57:42Z</time>
      </trkpt>
      <trkpt lat="42.44155701502233" lon="1.899791121773003">
        <ele>1228.8</ele>
        <time>2022-09-07T16:57:49Z</time>
      </trkpt>
      <trkpt lat="42.44181074861722" lon="1.899986658712699">
        <ele>1225.3</ele>
        <time>2022-09-07T16:57:56Z</time>
      </trkpt>
      <trkpt lat="42.44209942607376" lon="1.900040140959475">
        <ele>1224.65</ele>
        <time>2022-09-07T16:58:00Z</time>
      </trkpt>
      <trkpt lat="42.44236355447649" lon="1.900134149945244">
        <ele>1224</ele>
        <time>2022-09-07T16:58:03Z</time>
      </trkpt>
      <trkpt lat="42.44264711621115" lon="1.900237005673274">
        <ele>1221.8</ele>
        <time>2022-09-07T16:58:14Z</time>
      </trkpt>
      <trkpt lat="42.442832" lon="1.900342">
        <ele>1220</ele>
        <time>2022-09-07T16:58:20Z</time>
      </trkpt>
      <trkpt lat="42.442832" lon="1.900342">
        <ele>1220</ele>
        <time>2022-09-07T16:58:24Z</time>
      </trkpt>
      <trkpt lat="42.44297770287953" lon="1.900277189253827">
        <ele>1220.65</ele>
        <time>2022-09-07T16:58:28Z</time>
      </trkpt>
      <trkpt lat="42.443114" lon="1.900135">
        <ele>1221.3</ele>
        <time>2022-09-07T16:58:31Z</time>
      </trkpt>
      <trkpt lat="42.443281" lon="1.900139">
        <ele>1220.8</ele>
        <time>2022-09-07T16:58:35Z</time>
      </trkpt>
      <trkpt lat="42.443411" lon="1.900153">
        <ele>1220.8</ele>
        <time>2022-09-07T16:58:38Z</time>
      </trkpt>
      <trkpt lat="42.44344300000001" lon="1.900145">
        <ele>1219.2</ele>
        <time>2022-09-07T16:58:38Z</time>
      </trkpt>
      <trkpt lat="42.44345542264781" lon="1.900167259464264">
        <ele>1219</ele>
        <time>2022-09-07T16:58:39Z</time>
      </trkpt>
      <trkpt lat="42.44346784529314" lon="1.900189518928528">
        <ele>1218.8</ele>
        <time>2022-09-07T16:58:39Z</time>
      </trkpt>
      <trkpt lat="42.44349755099582" lon="1.90020963549614">
        <ele>1218.8</ele>
        <time>2022-09-07T16:58:40Z</time>
      </trkpt>
      <trkpt lat="42.44352725668443" lon="1.900229752063751">
        <ele>1218.8</ele>
        <time>2022-09-07T16:58:41Z</time>
      </trkpt>
      <trkpt lat="42.44355696235895" lon="1.900243163108826">
        <ele>1218.8</ele>
        <time>2022-09-07T16:58:42Z</time>
      </trkpt>
      <trkpt lat="42.44358666801939" lon="1.9002565741539">
        <ele>1218.8</ele>
        <time>2022-09-07T16:58:42Z</time>
      </trkpt>
      <trkpt lat="42.44361835404165" lon="1.900284737348557">
        <ele>1218.8</ele>
        <time>2022-09-07T16:58:43Z</time>
      </trkpt>
      <trkpt lat="42.4436500400479" lon="1.900312900543213">
        <ele>1218.7</ele>
        <time>2022-09-07T16:58:44Z</time>
      </trkpt>
      <trkpt lat="42.44368667697265" lon="1.900342404842377">
        <ele>1218.7</ele>
        <time>2022-09-07T16:58:45Z</time>
      </trkpt>
      <trkpt lat="42.44372331387596" lon="1.900371909141541">
        <ele>1218.8</ele>
        <time>2022-09-07T16:58:46Z</time>
      </trkpt>
      <trkpt lat="42.44375400964333" lon="1.900394707918168">
        <ele>1218.9</ele>
        <time>2022-09-07T16:58:47Z</time>
      </trkpt>
      <trkpt lat="42.44378470539566" lon="1.900417506694794">
        <ele>1219.1</ele>
        <time>2022-09-07T16:58:47Z</time>
      </trkpt>
      <trkpt lat="42.4438124305784" lon="1.900444328784943">
        <ele>1219.2</ele>
        <time>2022-09-07T16:58:48Z</time>
      </trkpt>
      <trkpt lat="42.44384015574886" lon="1.900471150875092">
        <ele>1219.3</ele>
        <time>2022-09-07T16:58:49Z</time>
      </trkpt>
      <trkpt lat="42.44386193980274" lon="1.900503337383271">
        <ele>1219.4</ele>
        <time>2022-09-07T16:58:50Z</time>
      </trkpt>
      <trkpt lat="42.44388372384905" lon="1.900535523891449">
        <ele>1219.3</ele>
        <time>2022-09-07T16:58:50Z</time>
      </trkpt>
      <trkpt lat="42.44391441953785" lon="1.900595873594284">
        <ele>1219.3</ele>
        <time>2022-09-07T16:58:52Z</time>
      </trkpt>
      <trkpt lat="42.44394511521158" lon="1.900656223297119">
        <ele>1219.3</ele>
        <time>2022-09-07T16:58:53Z</time>
      </trkpt>
      <trkpt lat="42.44396392868159" lon="1.900695115327835">
        <ele>1219.3</ele>
        <time>2022-09-07T16:58:54Z</time>
      </trkpt>
      <trkpt lat="42.443982" lon="1.90073">
        <ele>1219.8</ele>
        <time>2022-09-07T16:58:54Z</time>
      </trkpt>
      <trkpt lat="42.444001" lon="1.900739">
        <ele>1220</ele>
        <time>2022-09-07T16:58:55Z</time>
      </trkpt>
      <trkpt lat="42.444143" lon="1.90106">
        <ele>1219</ele>
        <time>2022-09-07T16:59:01Z</time>
      </trkpt>
      <trkpt lat="42.444324" lon="1.901465">
        <ele>1218</ele>
        <time>2022-09-07T16:59:09Z</time>
      </trkpt>
      <trkpt lat="42.444339" lon="1.901516">
        <ele>1217.8</ele>
        <time>2022-09-07T16:59:10Z</time>
      </trkpt>
      <trkpt lat="42.444427" lon="1.90182">
        <ele>1217.8</ele>
        <time>2022-09-07T16:59:15Z</time>
      </trkpt>
      <trkpt lat="42.444457" lon="1.901982">
        <ele>1217.8</ele>
        <time>2022-09-07T16:59:18Z</time>
      </trkpt>
      <trkpt lat="42.444471" lon="1.902086">
        <ele>1217.5</ele>
        <time>2022-09-07T16:59:19Z</time>
      </trkpt>
      <trkpt lat="42.444492" lon="1.902234">
        <ele>1217.5</ele>
        <time>2022-09-07T16:59:22Z</time>
      </trkpt>
      <trkpt lat="42.444497" lon="1.902272">
        <ele>1217.5</ele>
        <time>2022-09-07T16:59:22Z</time>
      </trkpt>
      <trkpt lat="42.444429" lon="1.902408">
        <ele>1216.5</ele>
        <time>2022-09-07T16:59:25Z</time>
      </trkpt>
      <trkpt lat="42.444411" lon="1.902479">
        <ele>1216</ele>
        <time>2022-09-07T16:59:26Z</time>
      </trkpt>
      <trkpt lat="42.444362" lon="1.902689">
        <ele>1215.3</ele>
        <time>2022-09-07T16:59:30Z</time>
      </trkpt>
      <trkpt lat="42.444406" lon="1.903014">
        <ele>1215</ele>
        <time>2022-09-07T16:59:35Z</time>
      </trkpt>
      <trkpt lat="42.444414" lon="1.903042">
        <ele>1214.8</ele>
        <time>2022-09-07T16:59:36Z</time>
      </trkpt>
      <trkpt lat="42.444523" lon="1.903396">
        <ele>1214.8</ele>
        <time>2022-09-07T16:59:42Z</time>
      </trkpt>
      <trkpt lat="42.444574" lon="1.903489">
        <ele>1214.3</ele>
        <time>2022-09-07T16:59:44Z</time>
      </trkpt>
      <trkpt lat="42.444607" lon="1.903548">
        <ele>1214.3</ele>
        <time>2022-09-07T16:59:45Z</time>
      </trkpt>
      <trkpt lat="42.444487" lon="1.904088">
        <ele>1210.5</ele>
        <time>2022-09-07T16:59:55Z</time>
      </trkpt>
      <trkpt lat="42.444474" lon="1.904147">
        <ele>1210.3</ele>
        <time>2022-09-07T16:59:56Z</time>
      </trkpt>
      <trkpt lat="42.444429" lon="1.904236">
        <ele>1209.5</ele>
        <time>2022-09-07T16:59:57Z</time>
      </trkpt>
      <trkpt lat="42.444424" lon="1.904245">
        <ele>1209.3</ele>
        <time>2022-09-07T16:59:58Z</time>
      </trkpt>
      <trkpt lat="42.444429" lon="1.904236">
        <ele>1209.5</ele>
        <time>2022-09-07T16:59:58Z</time>
      </trkpt>
      <trkpt lat="42.444459" lon="1.904295">
        <ele>1209.3</ele>
        <time>2022-09-07T16:59:59Z</time>
      </trkpt>
      <trkpt lat="42.444501" lon="1.90465">
        <ele>1207.5</ele>
        <time>2022-09-07T17:00:05Z</time>
      </trkpt>
      <trkpt lat="42.444545" lon="1.905012">
        <ele>1205.8</ele>
        <time>2022-09-07T17:00:11Z</time>
      </trkpt>
      <trkpt lat="42.444592" lon="1.905134">
        <ele>1205.5</ele>
        <time>2022-09-07T17:00:13Z</time>
      </trkpt>
      <trkpt lat="42.444606" lon="1.905245">
        <ele>1205.3</ele>
        <time>2022-09-07T17:00:15Z</time>
      </trkpt>
      <trkpt lat="42.444608" lon="1.905276">
        <ele>1205</ele>
        <time>2022-09-07T17:00:16Z</time>
      </trkpt>
      <trkpt lat="42.444645" lon="1.905819">
        <ele>1204.3</ele>
        <time>2022-09-07T17:00:25Z</time>
      </trkpt>
      <trkpt lat="42.444651" lon="1.905876">
        <ele>1204</ele>
        <time>2022-09-07T17:00:25Z</time>
      </trkpt>
      <trkpt lat="42.444712" lon="1.906452">
        <ele>1203.3</ele>
        <time>2022-09-07T17:00:35Z</time>
      </trkpt>
      <trkpt lat="42.444742" lon="1.906736">
        <ele>1203</ele>
        <time>2022-09-07T17:00:40Z</time>
      </trkpt>
      <trkpt lat="42.444796" lon="1.907217">
        <ele>1202</ele>
        <time>2022-09-07T17:00:48Z</time>
      </trkpt>
      <trkpt lat="42.444887" lon="1.908011">
        <ele>1201</ele>
        <time>2022-09-07T17:01:01Z</time>
      </trkpt>
      <trkpt lat="42.444921" lon="1.90808">
        <ele>1200.8</ele>
        <time>2022-09-07T17:01:02Z</time>
      </trkpt>
      <trkpt lat="42.444936" lon="1.908081">
        <ele>1200.8</ele>
        <time>2022-09-07T17:01:03Z</time>
      </trkpt>
      <trkpt lat="42.444989" lon="1.908086">
        <ele>1201</ele>
        <time>2022-09-07T17:01:04Z</time>
      </trkpt>
      <trkpt lat="42.445064" lon="1.908106">
        <ele>1200.5</ele>
        <time>2022-09-07T17:01:06Z</time>
      </trkpt>
      <trkpt lat="42.44515" lon="1.908109">
        <ele>1199.8</ele>
        <time>2022-09-07T17:01:07Z</time>
      </trkpt>
      <trkpt lat="42.445248" lon="1.908063">
        <ele>1199</ele>
        <time>2022-09-07T17:01:10Z</time>
      </trkpt>
      <trkpt lat="42.445282" lon="1.908048">
        <ele>1199</ele>
        <time>2022-09-07T17:01:11Z</time>
      </trkpt>
      <trkpt lat="42.445367" lon="1.907961">
        <ele>1199</ele>
        <time>2022-09-07T17:01:13Z</time>
      </trkpt>
      <trkpt lat="42.445395" lon="1.907947">
        <ele>1198.8</ele>
        <time>2022-09-07T17:01:14Z</time>
      </trkpt>
      <trkpt lat="42.445455" lon="1.90792">
        <ele>1198.5</ele>
        <time>2022-09-07T17:01:15Z</time>
      </trkpt>
      <trkpt lat="42.445564" lon="1.907907">
        <ele>1197.8</ele>
        <time>2022-09-07T17:01:17Z</time>
      </trkpt>
      <trkpt lat="42.44560000000001" lon="1.907904">
        <ele>1199.5</ele>
        <time>2022-09-07T17:01:18Z</time>
      </trkpt>
      <trkpt lat="42.4456052902562" lon="1.90795607910347">
        <ele>1198.8</ele>
        <time>2022-09-07T17:01:19Z</time>
      </trkpt>
      <trkpt lat="42.44561058051194" lon="1.90800815820694">
        <ele>1198.1</ele>
        <time>2022-09-07T17:01:20Z</time>
      </trkpt>
      <trkpt lat="42.44564721629018" lon="1.908067166805268">
        <ele>1196.9</ele>
        <time>2022-09-07T17:01:21Z</time>
      </trkpt>
      <trkpt lat="42.445683852047" lon="1.908126175403595">
        <ele>1195.6</ele>
        <time>2022-09-07T17:01:23Z</time>
      </trkpt>
      <trkpt lat="42.44571355669898" lon="1.908161044120789">
        <ele>1194.7</ele>
        <time>2022-09-07T17:01:23Z</time>
      </trkpt>
      <trkpt lat="42.44574326133683" lon="1.908195912837982">
        <ele>1193.8</ele>
        <time>2022-09-07T17:01:24Z</time>
      </trkpt>
      <trkpt lat="42.44577494626837" lon="1.908229440450669">
        <ele>1192.8</ele>
        <time>2022-09-07T17:01:25Z</time>
      </trkpt>
      <trkpt lat="42.44580663118388" lon="1.908262968063355">
        <ele>1191.8</ele>
        <time>2022-09-07T17:01:26Z</time>
      </trkpt>
      <trkpt lat="42.44581554256352" lon="1.908289790153504">
        <ele>1191.3</ele>
        <time>2022-09-07T17:01:27Z</time>
      </trkpt>
      <trkpt lat="42.44582445394187" lon="1.908316612243653">
        <ele>1190.8</ele>
        <time>2022-09-07T17:01:27Z</time>
      </trkpt>
      <trkpt lat="42.44579078872815" lon="1.90837025642395">
        <ele>1190.5</ele>
        <time>2022-09-07T17:01:28Z</time>
      </trkpt>
      <trkpt lat="42.44575712349636" lon="1.908423900604248">
        <ele>1190.3</ele>
        <time>2022-09-07T17:01:29Z</time>
      </trkpt>
      <trkpt lat="42.44574524164554" lon="1.908470839262009">
        <ele>1189.8</ele>
        <time>2022-09-07T17:01:30Z</time>
      </trkpt>
      <trkpt lat="42.44573335979244" lon="1.90851777791977">
        <ele>1189.3</ele>
        <time>2022-09-07T17:01:31Z</time>
      </trkpt>
      <trkpt lat="42.44575415303387" lon="1.908551305532456">
        <ele>1188.5</ele>
        <time>2022-09-07T17:01:32Z</time>
      </trkpt>
      <trkpt lat="42.44577494626839" lon="1.908584833145142">
        <ele>1187.7</ele>
        <time>2022-09-07T17:01:32Z</time>
      </trkpt>
      <trkpt lat="42.44582247363566" lon="1.908580809831619">
        <ele>1187.1</ele>
        <time>2022-09-07T17:01:33Z</time>
      </trkpt>
      <trkpt lat="42.44587000096685" lon="1.908576786518097">
        <ele>1186.5</ele>
        <time>2022-09-07T17:01:35Z</time>
      </trkpt>
      <trkpt lat="42.4459155479588" lon="1.908579468727112">
        <ele>1185.8</ele>
        <time>2022-09-07T17:01:36Z</time>
      </trkpt>
      <trkpt lat="42.44596109491756" lon="1.908582150936127">
        <ele>1185.2</ele>
        <time>2022-09-07T17:01:37Z</time>
      </trkpt>
      <trkpt lat="42.44600466154281" lon="1.908580809831619">
        <ele>1184.6</ele>
        <time>2022-09-07T17:01:38Z</time>
      </trkpt>
      <trkpt lat="42.44604822813776" lon="1.908579468727112">
        <ele>1184.3</ele>
        <time>2022-09-07T17:01:39Z</time>
      </trkpt>
      <trkpt lat="42.44609773559525" lon="1.908590197563172">
        <ele>1184</ele>
        <time>2022-09-07T17:01:40Z</time>
      </trkpt>
      <trkpt lat="42.44614724301363" lon="1.908600926399231">
        <ele>1183.7</ele>
        <time>2022-09-07T17:01:41Z</time>
      </trkpt>
      <trkpt lat="42.44622348436139" lon="1.908612996339798">
        <ele>1183.3</ele>
        <time>2022-09-07T17:01:42Z</time>
      </trkpt>
      <trkpt lat="42.44629972561638" lon="1.908625066280365">
        <ele>1183.4</ele>
        <time>2022-09-07T17:01:44Z</time>
      </trkpt>
      <trkpt lat="42.44636012446677" lon="1.908617019653321">
        <ele>1183.5</ele>
        <time>2022-09-07T17:01:46Z</time>
      </trkpt>
      <trkpt lat="42.44642052325892" lon="1.908608973026276">
        <ele>1183.6</ele>
        <time>2022-09-07T17:01:47Z</time>
      </trkpt>
      <trkpt lat="42.44645220784795" lon="1.908611655235291">
        <ele>1183.7</ele>
        <time>2022-09-07T17:01:48Z</time>
      </trkpt>
      <trkpt lat="42.44648389242091" lon="1.908614337444306">
        <ele>1183.7</ele>
        <time>2022-09-07T17:01:48Z</time>
      </trkpt>
      <trkpt lat="42.44652547839863" lon="1.90862238407135">
        <ele>1183.9</ele>
        <time>2022-09-07T17:01:49Z</time>
      </trkpt>
      <trkpt lat="42.44656706434872" lon="1.908630430698395">
        <ele>1184</ele>
        <time>2022-09-07T17:01:50Z</time>
      </trkpt>
      <trkpt lat="42.44662647280098" lon="1.908630430698395">
        <ele>1184.2</ele>
        <time>2022-09-07T17:01:51Z</time>
      </trkpt>
      <trkpt lat="42.4466858811969" lon="1.908630430698395">
        <ele>1184.3</ele>
        <time>2022-09-07T17:01:53Z</time>
      </trkpt>
      <trkpt lat="42.44672251634631" lon="1.90862238407135">
        <ele>1184.4</ele>
        <time>2022-09-07T17:01:54Z</time>
      </trkpt>
      <trkpt lat="42.44675915147429" lon="1.908614337444306">
        <ele>1184.5</ele>
        <time>2022-09-07T17:01:54Z</time>
      </trkpt>
      <trkpt lat="42.44675222050578" lon="1.908637136220932">
        <ele>1184.5</ele>
        <time>2022-09-07T17:01:55Z</time>
      </trkpt>
      <trkpt lat="42.44674528953649" lon="1.908659934997559">
        <ele>1184.5</ele>
        <time>2022-09-07T17:01:55Z</time>
      </trkpt>
      <trkpt lat="42.4467433092594" lon="1.908692121505738">
        <ele>1184.7</ele>
        <time>2022-09-07T17:01:56Z</time>
      </trkpt>
      <trkpt lat="42.44674132898225" lon="1.908724308013916">
        <ele>1184.8</ele>
        <time>2022-09-07T17:01:56Z</time>
      </trkpt>
      <trkpt lat="42.44676212188911" lon="1.908728331327439">
        <ele>1184.8</ele>
        <time>2022-09-07T17:01:57Z</time>
      </trkpt>
      <trkpt lat="42.44678291478905" lon="1.908732354640961">
        <ele>1184.9</ele>
        <time>2022-09-07T17:01:57Z</time>
      </trkpt>
      <trkpt lat="42.44678786547849" lon="1.90874844789505">
        <ele>1184.9</ele>
        <time>2022-09-07T17:01:58Z</time>
      </trkpt>
      <trkpt lat="42.44679281616757" lon="1.90876454114914">
        <ele>1184.9</ele>
        <time>2022-09-07T17:01:58Z</time>
      </trkpt>
      <trkpt lat="42.44679281616757" lon="1.908776611089707">
        <ele>1185</ele>
        <time>2022-09-07T17:01:58Z</time>
      </trkpt>
      <trkpt lat="42.44679281616757" lon="1.908788681030274">
        <ele>1185</ele>
        <time>2022-09-07T17:01:58Z</time>
      </trkpt>
      <trkpt lat="42.44679182602981" lon="1.9088114798069">
        <ele>1185.1</ele>
        <time>2022-09-07T17:01:59Z</time>
      </trkpt>
      <trkpt lat="42.446790835892" lon="1.908834278583527">
        <ele>1185.2</ele>
        <time>2022-09-07T17:01:59Z</time>
      </trkpt>
      <trkpt lat="42.44678885561636" lon="1.908851712942124">
        <ele>1185.2</ele>
        <time>2022-09-07T17:01:59Z</time>
      </trkpt>
      <trkpt lat="42.44678687534065" lon="1.90886914730072">
        <ele>1185.3</ele>
        <time>2022-09-07T17:02:00Z</time>
      </trkpt>
      <trkpt lat="42.44678588520279" lon="1.908886581659317">
        <ele>1185.3</ele>
        <time>2022-09-07T17:02:00Z</time>
      </trkpt>
      <trkpt lat="42.44678489506492" lon="1.908904016017914">
        <ele>1185.4</ele>
        <time>2022-09-07T17:02:00Z</time>
      </trkpt>
      <trkpt lat="42.44678489506492" lon="1.908926814794541">
        <ele>1185.4</ele>
        <time>2022-09-07T17:02:01Z</time>
      </trkpt>
      <trkpt lat="42.44678489506492" lon="1.908949613571167">
        <ele>1185.5</ele>
        <time>2022-09-07T17:02:01Z</time>
      </trkpt>
      <trkpt lat="42.44677598382319" lon="1.908956319093704">
        <ele>1185.5</ele>
        <time>2022-09-07T17:02:01Z</time>
      </trkpt>
      <trkpt lat="42.4467670725802" lon="1.908963024616242">
        <ele>1185.5</ele>
        <time>2022-09-07T17:02:01Z</time>
      </trkpt>
      <trkpt lat="42.44675618105929" lon="1.908960342407227">
        <ele>1185.5</ele>
        <time>2022-09-07T17:02:02Z</time>
      </trkpt>
      <trkpt lat="42.44674528953649" lon="1.908957660198212">
        <ele>1185.5</ele>
        <time>2022-09-07T17:02:02Z</time>
      </trkpt>
      <trkpt lat="42.44673538815046" lon="1.90895363688469">
        <ele>1185.5</ele>
        <time>2022-09-07T17:02:02Z</time>
      </trkpt>
      <trkpt lat="42.44672548676286" lon="1.908949613571167">
        <ele>1185.4</ele>
        <time>2022-09-07T17:02:02Z</time>
      </trkpt>
      <trkpt lat="42.44671954592958" lon="1.908949613571167">
        <ele>1185.4</ele>
        <time>2022-09-07T17:02:02Z</time>
      </trkpt>
      <trkpt lat="42.4467136050957" lon="1.908949613571167">
        <ele>1185.4</ele>
        <time>2022-09-07T17:02:03Z</time>
      </trkpt>
      <trkpt lat="42.44670766426128" lon="1.908963024616242">
        <ele>1185.4</ele>
        <time>2022-09-07T17:02:03Z</time>
      </trkpt>
      <trkpt lat="42.44670172342629" lon="1.908976435661317">
        <ele>1185.5</ele>
        <time>2022-09-07T17:02:03Z</time>
      </trkpt>
      <trkpt lat="42.44672548676289" lon="1.908988505601884">
        <ele>1185.6</ele>
        <time>2022-09-07T17:02:04Z</time>
      </trkpt>
      <trkpt lat="42.44674925009045" lon="1.90900057554245">
        <ele>1185.6</ele>
        <time>2022-09-07T17:02:04Z</time>
      </trkpt>
      <trkpt lat="42.44677202327091" lon="1.909003257751465">
        <ele>1185.7</ele>
        <time>2022-09-07T17:02:05Z</time>
      </trkpt>
      <trkpt lat="42.44679479644308" lon="1.90900593996048">
        <ele>1185.7</ele>
        <time>2022-09-07T17:02:05Z</time>
      </trkpt>
      <trkpt lat="42.44681558933218" lon="1.90901130437851">
        <ele>1185.8</ele>
        <time>2022-09-07T17:02:06Z</time>
      </trkpt>
      <trkpt lat="42.44683638221439" lon="1.90901666879654">
        <ele>1185.8</ele>
        <time>2022-09-07T17:02:06Z</time>
      </trkpt>
      <trkpt lat="42.44685222440574" lon="1.90901666879654">
        <ele>1185.9</ele>
        <time>2022-09-07T17:02:07Z</time>
      </trkpt>
      <trkpt lat="42.44686806659307" lon="1.90901666879654">
        <ele>1185.9</ele>
        <time>2022-09-07T17:02:07Z</time>
      </trkpt>
      <trkpt lat="42.44688786932161" lon="1.909020692110062">
        <ele>1186</ele>
        <time>2022-09-07T17:02:07Z</time>
      </trkpt>
      <trkpt lat="42.44690767204386" lon="1.909024715423584">
        <ele>1186</ele>
        <time>2022-09-07T17:02:08Z</time>
      </trkpt>
      <trkpt lat="42.44692846489551" lon="1.909028738737107">
        <ele>1186.1</ele>
        <time>2022-09-07T17:02:08Z</time>
      </trkpt>
      <trkpt lat="42.44694925774024" lon="1.909032762050629">
        <ele>1186.1</ele>
        <time>2022-09-07T17:02:09Z</time>
      </trkpt>
      <trkpt lat="42.44697104071304" lon="1.909046173095703">
        <ele>1186.3</ele>
        <time>2022-09-07T17:02:09Z</time>
      </trkpt>
      <trkpt lat="42.44699282367826" lon="1.909059584140778">
        <ele>1186.5</ele>
        <time>2022-09-07T17:02:10Z</time>
      </trkpt>
      <trkpt lat="42.44701361650165" lon="1.90907433629036">
        <ele>1186.7</ele>
        <time>2022-09-07T17:02:10Z</time>
      </trkpt>
      <trkpt lat="42.44703440931816" lon="1.909089088439942">
        <ele>1186.9</ele>
        <time>2022-09-07T17:02:11Z</time>
      </trkpt>
      <trkpt lat="42.44705124159312" lon="1.909115910530091">
        <ele>1187.1</ele>
        <time>2022-09-07T17:02:11Z</time>
      </trkpt>
      <trkpt lat="42.44706807386354" lon="1.909142732620239">
        <ele>1187.4</ele>
        <time>2022-09-07T17:02:12Z</time>
      </trkpt>
      <trkpt lat="42.44707401466377" lon="1.909158825874329">
        <ele>1187.5</ele>
        <time>2022-09-07T17:02:12Z</time>
      </trkpt>
      <trkpt lat="42.44707995546344" lon="1.909174919128418">
        <ele>1187.7</ele>
        <time>2022-09-07T17:02:13Z</time>
      </trkpt>
      <trkpt lat="42.44708886666191" lon="1.909216493368149">
        <ele>1187.9</ele>
        <time>2022-09-07T17:02:13Z</time>
      </trkpt>
      <trkpt lat="42.44709777785913" lon="1.90925806760788">
        <ele>1188.2</ele>
        <time>2022-09-07T17:02:14Z</time>
      </trkpt>
      <trkpt lat="42.44712253117805" lon="1.909294277429581">
        <ele>1188.7</ele>
        <time>2022-09-07T17:02:15Z</time>
      </trkpt>
      <trkpt lat="42.44714728448718" lon="1.909330487251282">
        <ele>1189.2</ele>
        <time>2022-09-07T17:02:16Z</time>
      </trkpt>
      <trkpt lat="42.44715421541197" lon="1.909357309341431">
        <ele>1189.5</ele>
        <time>2022-09-07T17:02:16Z</time>
      </trkpt>
      <trkpt lat="42.447161146336" lon="1.90938413143158">
        <ele>1189.7</ele>
        <time>2022-09-07T17:02:17Z</time>
      </trkpt>
      <trkpt lat="42.44717104765475" lon="1.909401565790177">
        <ele>1190</ele>
        <time>2022-09-07T17:02:17Z</time>
      </trkpt>
      <trkpt lat="42.4471809489719" lon="1.909419000148773">
        <ele>1190.2</ele>
        <time>2022-09-07T17:02:17Z</time>
      </trkpt>
      <trkpt lat="42.44719877133883" lon="1.909459233283997">
        <ele>1190.8</ele>
        <time>2022-09-07T17:02:18Z</time>
      </trkpt>
      <trkpt lat="42.44721659370069" lon="1.90949946641922">
        <ele>1191.3</ele>
        <time>2022-09-07T17:02:19Z</time>
      </trkpt>
      <trkpt lat="42.44723639631906" lon="1.909531652927399">
        <ele>1191.5</ele>
        <time>2022-09-07T17:02:19Z</time>
      </trkpt>
      <trkpt lat="42.44725619893114" lon="1.909563839435578">
        <ele>1191.8</ele>
        <time>2022-09-07T17:02:20Z</time>
      </trkpt>
      <trkpt lat="42.44728293244754" lon="1.909596025943756">
        <ele>1192.1</ele>
        <time>2022-09-07T17:02:21Z</time>
      </trkpt>
      <trkpt lat="42.44730966595253" lon="1.909628212451935">
        <ele>1192.4</ele>
        <time>2022-09-07T17:02:22Z</time>
      </trkpt>
      <trkpt lat="42.44733837970443" lon="1.909657716751099">
        <ele>1192.8</ele>
        <time>2022-09-07T17:02:23Z</time>
      </trkpt>
      <trkpt lat="42.44736709344317" lon="1.909687221050263">
        <ele>1193.1</ele>
        <time>2022-09-07T17:02:23Z</time>
      </trkpt>
      <trkpt lat="42.44738590588558" lon="1.909704655408859">
        <ele>1193.2</ele>
        <time>2022-09-07T17:02:24Z</time>
      </trkpt>
      <trkpt lat="42.44740471832232" lon="1.909722089767456">
        <ele>1193.4</ele>
        <time>2022-09-07T17:02:24Z</time>
      </trkpt>
      <trkpt lat="42.44744036292379" lon="1.90975695848465">
        <ele>1193.8</ele>
        <time>2022-09-07T17:02:25Z</time>
      </trkpt>
      <trkpt lat="42.44747600750499" lon="1.909791827201843">
        <ele>1194.2</ele>
        <time>2022-09-07T17:02:26Z</time>
      </trkpt>
      <trkpt lat="42.44751561257142" lon="1.909815967082978">
        <ele>1194.5</ele>
        <time>2022-09-07T17:02:27Z</time>
      </trkpt>
      <trkpt lat="42.44755521761282" lon="1.909840106964112">
        <ele>1194.9</ele>
        <time>2022-09-07T17:02:28Z</time>
      </trkpt>
      <trkpt lat="42.44759581275427" lon="1.909868270158768">
        <ele>1195.2</ele>
        <time>2022-09-07T17:02:29Z</time>
      </trkpt>
      <trkpt lat="42.4476364078694" lon="1.909896433353424">
        <ele>1195.5</ele>
        <time>2022-09-07T17:02:30Z</time>
      </trkpt>
      <trkpt lat="42.44765720047914" lon="1.909919232130051">
        <ele>1195.7</ele>
        <time>2022-09-07T17:02:31Z</time>
      </trkpt>
      <trkpt lat="42.44767799308202" lon="1.909942030906677">
        <ele>1195.9</ele>
        <time>2022-09-07T17:02:31Z</time>
      </trkpt>
      <trkpt lat="42.44769284493699" lon="1.909959465265274">
        <ele>1196.1</ele>
        <time>2022-09-07T17:02:32Z</time>
      </trkpt>
      <trkpt lat="42.44770769678841" lon="1.909976899623871">
        <ele>1196.3</ele>
        <time>2022-09-07T17:02:32Z</time>
      </trkpt>
      <trkpt lat="42.4477255190055" lon="1.909999698400498">
        <ele>1196.5</ele>
        <time>2022-09-07T17:02:33Z</time>
      </trkpt>
      <trkpt lat="42.4477433412175" lon="1.910022497177124">
        <ele>1196.8</ele>
        <time>2022-09-07T17:02:33Z</time>
      </trkpt>
      <trkpt lat="42.44775324244422" lon="1.910060048103333">
        <ele>1197</ele>
        <time>2022-09-07T17:02:34Z</time>
      </trkpt>
      <trkpt lat="42.44776314366933" lon="1.910097599029541">
        <ele>1197.3</ele>
        <time>2022-09-07T17:02:35Z</time>
      </trkpt>
      <trkpt lat="42.44776908440367" lon="1.910125762224198">
        <ele>1197.5</ele>
        <time>2022-09-07T17:02:35Z</time>
      </trkpt>
      <trkpt lat="42.44777502513744" lon="1.910153925418854">
        <ele>1197.7</ele>
        <time>2022-09-07T17:02:36Z</time>
      </trkpt>
      <trkpt lat="42.44776017330197" lon="1.910187453031541">
        <ele>1197.8</ele>
        <time>2022-09-07T17:02:36Z</time>
      </trkpt>
      <trkpt lat="42.44774532146295" lon="1.910220980644226">
        <ele>1197.8</ele>
        <time>2022-09-07T17:02:37Z</time>
      </trkpt>
      <trkpt lat="42.44774136097197" lon="1.910238415002823">
        <ele>1197.9</ele>
        <time>2022-09-07T17:02:37Z</time>
      </trkpt>
      <trkpt lat="42.44773740048073" lon="1.91025584936142">
        <ele>1197.9</ele>
        <time>2022-09-07T17:02:38Z</time>
      </trkpt>
      <trkpt lat="42.44770175604828" lon="1.910293400287628">
        <ele>1197.9</ele>
        <time>2022-09-07T17:02:39Z</time>
      </trkpt>
      <trkpt lat="42.44766611159552" lon="1.910330951213837">
        <ele>1197.7</ele>
        <time>2022-09-07T17:02:40Z</time>
      </trkpt>
      <trkpt lat="42.44765423010676" lon="1.910357773303986">
        <ele>1197.7</ele>
        <time>2022-09-07T17:02:40Z</time>
      </trkpt>
      <trkpt lat="42.44764234861576" lon="1.910384595394135">
        <ele>1197.7</ele>
        <time>2022-09-07T17:02:41Z</time>
      </trkpt>
      <trkpt lat="42.44762056587638" lon="1.910438239574433">
        <ele>1197.8</ele>
        <time>2022-09-07T17:02:42Z</time>
      </trkpt>
      <trkpt lat="42.44759878312943" lon="1.91049188375473">
        <ele>1197.8</ele>
        <time>2022-09-07T17:02:43Z</time>
      </trkpt>
      <trkpt lat="42.44758195100161" lon="1.910548210144044">
        <ele>1198</ele>
        <time>2022-09-07T17:02:44Z</time>
      </trkpt>
      <trkpt lat="42.447558" lon="1.910585">
        <ele>1198.3</ele>
        <time>2022-09-07T17:02:44Z</time>
      </trkpt>
      <trkpt lat="42.447515" lon="1.910677">
        <ele>1198</ele>
        <time>2022-09-07T17:02:46Z</time>
      </trkpt>
      <trkpt lat="42.44746" lon="1.910795">
        <ele>1198</ele>
        <time>2022-09-07T17:02:49Z</time>
      </trkpt>
      <trkpt lat="42.447447" lon="1.910825">
        <ele>1198</ele>
        <time>2022-09-07T17:02:49Z</time>
      </trkpt>
      <trkpt lat="42.447424" lon="1.910942">
        <ele>1198</ele>
        <time>2022-09-07T17:02:51Z</time>
      </trkpt>
      <trkpt lat="42.447408" lon="1.911029">
        <ele>1198.3</ele>
        <time>2022-09-07T17:02:53Z</time>
      </trkpt>
      <trkpt lat="42.447433" lon="1.911142">
        <ele>1198.8</ele>
        <time>2022-09-07T17:02:55Z</time>
      </trkpt>
      <trkpt lat="42.447451" lon="1.911218">
        <ele>1199.3</ele>
        <time>2022-09-07T17:02:56Z</time>
      </trkpt>
      <trkpt lat="42.447474" lon="1.911291">
        <ele>1199.5</ele>
        <time>2022-09-07T17:02:57Z</time>
      </trkpt>
      <trkpt lat="42.447493" lon="1.911348">
        <ele>1200</ele>
        <time>2022-09-07T17:02:58Z</time>
      </trkpt>
      <trkpt lat="42.4476" lon="1.911219">
        <ele>1200.5</ele>
        <time>2022-09-07T17:03:01Z</time>
      </trkpt>
      <trkpt lat="42.447616" lon="1.911199">
        <ele>1200.5</ele>
        <time>2022-09-07T17:03:02Z</time>
      </trkpt>
      <trkpt lat="42.447774" lon="1.911009">
        <ele>1201.3</ele>
        <time>2022-09-07T17:03:07Z</time>
      </trkpt>
      <trkpt lat="42.447794" lon="1.910986">
        <ele>1201.5</ele>
        <time>2022-09-07T17:03:07Z</time>
      </trkpt>
      <trkpt lat="42.448763" lon="1.910094">
        <ele>1202</ele>
        <time>2022-09-07T17:03:33Z</time>
      </trkpt>
      <trkpt lat="42.44933" lon="1.909529">
        <ele>1202</ele>
        <time>2022-09-07T17:03:49Z</time>
      </trkpt>
      <trkpt lat="42.449489" lon="1.90937">
        <ele>1203</ele>
        <time>2022-09-07T17:03:53Z</time>
      </trkpt>
      <trkpt lat="42.449825" lon="1.909035">
        <ele>1205.5</ele>
        <time>2022-09-07T17:04:03Z</time>
      </trkpt>
      <trkpt lat="42.450165" lon="1.908805">
        <ele>1206.3</ele>
        <time>2022-09-07T17:04:11Z</time>
      </trkpt>
      <trkpt lat="42.450565" lon="1.908612">
        <ele>1206.5</ele>
        <time>2022-09-07T17:04:21Z</time>
      </trkpt>
      <trkpt lat="42.450573" lon="1.908608">
        <ele>1206.5</ele>
        <time>2022-09-07T17:04:21Z</time>
      </trkpt>
      <trkpt lat="42.45083" lon="1.908485">
        <ele>1206.5</ele>
        <time>2022-09-07T17:04:27Z</time>
      </trkpt>
      <trkpt lat="42.451218" lon="1.90822">
        <ele>1206.5</ele>
        <time>2022-09-07T17:04:36Z</time>
      </trkpt>
      <trkpt lat="42.451893" lon="1.907299">
        <ele>1207.5</ele>
        <time>2022-09-07T17:04:58Z</time>
      </trkpt>
      <trkpt lat="42.45197" lon="1.907182">
        <ele>1208.3</ele>
        <time>2022-09-07T17:05:00Z</time>
      </trkpt>
      <trkpt lat="42.452002" lon="1.907137">
        <ele>1208.5</ele>
        <time>2022-09-07T17:05:01Z</time>
      </trkpt>
      <trkpt lat="42.452027" lon="1.907103">
        <ele>1208.8</ele>
        <time>2022-09-07T17:05:02Z</time>
      </trkpt>
      <trkpt lat="42.452071" lon="1.907108">
        <ele>1209</ele>
        <time>2022-09-07T17:05:03Z</time>
      </trkpt>
      <trkpt lat="42.452819" lon="1.907186">
        <ele>1213</ele>
        <time>2022-09-07T17:05:20Z</time>
      </trkpt>
      <trkpt lat="42.452893" lon="1.907205">
        <ele>1213.5</ele>
        <time>2022-09-07T17:05:22Z</time>
      </trkpt>
      <trkpt lat="42.45294" lon="1.907234">
        <ele>1213.5</ele>
        <time>2022-09-07T17:05:23Z</time>
      </trkpt>
      <trkpt lat="42.452962" lon="1.907247">
        <ele>1213.8</ele>
        <time>2022-09-07T17:05:23Z</time>
      </trkpt>
      <trkpt lat="42.45337" lon="1.907758">
        <ele>1217</ele>
        <time>2022-09-07T17:05:36Z</time>
      </trkpt>
      <trkpt lat="42.453441" lon="1.907854">
        <ele>1217.5</ele>
        <time>2022-09-07T17:05:38Z</time>
      </trkpt>
      <trkpt lat="42.453721" lon="1.908233">
        <ele>1220.3</ele>
        <time>2022-09-07T17:05:47Z</time>
      </trkpt>
      <trkpt lat="42.454061" lon="1.908523">
        <ele>1221.3</ele>
        <time>2022-09-07T17:05:56Z</time>
      </trkpt>
      <trkpt lat="42.454331" lon="1.908739">
        <ele>1222</ele>
        <time>2022-09-07T17:06:03Z</time>
      </trkpt>
      <trkpt lat="42.454576" lon="1.908935">
        <ele>1222.8</ele>
        <time>2022-09-07T17:06:09Z</time>
      </trkpt>
      <trkpt lat="42.455096" lon="1.909437">
        <ele>1225</ele>
        <time>2022-09-07T17:06:23Z</time>
      </trkpt>
      <trkpt lat="42.455353" lon="1.909646">
        <ele>1226.5</ele>
        <time>2022-09-07T17:06:30Z</time>
      </trkpt>
      <trkpt lat="42.455449" lon="1.909725">
        <ele>1227.3</ele>
        <time>2022-09-07T17:06:32Z</time>
      </trkpt>
      <trkpt lat="42.455403" lon="1.909923">
        <ele>1226.8</ele>
        <time>2022-09-07T17:06:36Z</time>
      </trkpt>
      <trkpt lat="42.455224" lon="1.910157">
        <ele>1226</ele>
        <time>2022-09-07T17:06:41Z</time>
      </trkpt>
      <trkpt lat="42.455182" lon="1.910224">
        <ele>1225.8</ele>
        <time>2022-09-07T17:06:43Z</time>
      </trkpt>
      <trkpt lat="42.454994" lon="1.910529">
        <ele>1225.5</ele>
        <time>2022-09-07T17:06:49Z</time>
      </trkpt>
      <trkpt lat="42.4549" lon="1.910741">
        <ele>1225.3</ele>
        <time>2022-09-07T17:06:53Z</time>
      </trkpt>
      <trkpt lat="42.454878" lon="1.910895">
        <ele>1225.3</ele>
        <time>2022-09-07T17:06:56Z</time>
      </trkpt>
      <trkpt lat="42.454885" lon="1.911078">
        <ele>1225.5</ele>
        <time>2022-09-07T17:06:59Z</time>
      </trkpt>
      <trkpt lat="42.454531" lon="1.911491">
        <ele>1224.3</ele>
        <time>2022-09-07T17:07:09Z</time>
      </trkpt>
      <trkpt lat="42.454297" lon="1.911673">
        <ele>1223.5</ele>
        <time>2022-09-07T17:07:15Z</time>
      </trkpt>
      <trkpt lat="42.454042" lon="1.911827">
        <ele>1222</ele>
        <time>2022-09-07T17:07:22Z</time>
      </trkpt>
      <trkpt lat="42.453574" lon="1.911986">
        <ele>1219.8</ele>
        <time>2022-09-07T17:07:32Z</time>
      </trkpt>
      <trkpt lat="42.452938" lon="1.912202">
        <ele>1216.8</ele>
        <time>2022-09-07T17:07:47Z</time>
      </trkpt>
      <trkpt lat="42.452899" lon="1.912216">
        <ele>1216.8</ele>
        <time>2022-09-07T17:07:48Z</time>
      </trkpt>
      <trkpt lat="42.452909" lon="1.91231">
        <ele>1216.8</ele>
        <time>2022-09-07T17:07:49Z</time>
      </trkpt>
      <trkpt lat="42.452931" lon="1.912423">
        <ele>1217</ele>
        <time>2022-09-07T17:07:51Z</time>
      </trkpt>
      <trkpt lat="42.452945" lon="1.912487">
        <ele>1217</ele>
        <time>2022-09-07T17:07:52Z</time>
      </trkpt>
      <trkpt lat="42.452924" lon="1.912545">
        <ele>1216.8</ele>
        <time>2022-09-07T17:07:54Z</time>
      </trkpt>
      <trkpt lat="42.452887" lon="1.912558">
        <ele>1216.5</ele>
        <time>2022-09-07T17:07:54Z</time>
      </trkpt>
      <trkpt lat="42.451662" lon="1.913005">
        <ele>1212.5</ele>
        <time>2022-09-07T17:08:23Z</time>
      </trkpt>
      <trkpt lat="42.45075" lon="1.913338">
        <ele>1209.8</ele>
        <time>2022-09-07T17:08:44Z</time>
      </trkpt>
      <trkpt lat="42.450055" lon="1.913592">
        <ele>1207.5</ele>
        <time>2022-09-07T17:09:00Z</time>
      </trkpt>
      <trkpt lat="42.449235" lon="1.913891">
        <ele>1205</ele>
        <time>2022-09-07T17:09:19Z</time>
      </trkpt>
      <trkpt lat="42.449146" lon="1.913924">
        <ele>1204.8</ele>
        <time>2022-09-07T17:09:21Z</time>
      </trkpt>
      <trkpt lat="42.449066" lon="1.913961">
        <ele>1204.5</ele>
        <time>2022-09-07T17:09:23Z</time>
      </trkpt>
      <trkpt lat="42.448932" lon="1.914081">
        <ele>1203.8</ele>
        <time>2022-09-07T17:09:26Z</time>
      </trkpt>
      <trkpt lat="42.448843" lon="1.914106">
        <ele>1203.5</ele>
        <time>2022-09-07T17:09:28Z</time>
      </trkpt>
      <trkpt lat="42.448658" lon="1.914084">
        <ele>1202.5</ele>
        <time>2022-09-07T17:09:32Z</time>
      </trkpt>
      <trkpt lat="42.448541" lon="1.914126">
        <ele>1201.8</ele>
        <time>2022-09-07T17:09:35Z</time>
      </trkpt>
      <trkpt lat="42.448495" lon="1.914143">
        <ele>1201.8</ele>
        <time>2022-09-07T17:09:36Z</time>
      </trkpt>
      <trkpt lat="42.448202" lon="1.914301">
        <ele>1199.8</ele>
        <time>2022-09-07T17:09:43Z</time>
      </trkpt>
      <trkpt lat="42.448174" lon="1.914317">
        <ele>1199.8</ele>
        <time>2022-09-07T17:09:44Z</time>
      </trkpt>
      <trkpt lat="42.447705" lon="1.914482">
        <ele>1197.8</ele>
        <time>2022-09-07T17:09:55Z</time>
      </trkpt>
      <trkpt lat="42.447399" lon="1.91461">
        <ele>1196.8</ele>
        <time>2022-09-07T17:10:02Z</time>
      </trkpt>
      <trkpt lat="42.44681" lon="1.914836">
        <ele>1196.3</ele>
        <time>2022-09-07T17:10:15Z</time>
      </trkpt>
      <trkpt lat="42.446627" lon="1.914907">
        <ele>1196.3</ele>
        <time>2022-09-07T17:10:20Z</time>
      </trkpt>
      <trkpt lat="42.446454" lon="1.914981">
        <ele>1196</ele>
        <time>2022-09-07T17:10:24Z</time>
      </trkpt>
      <trkpt lat="42.446324" lon="1.914987">
        <ele>1196</ele>
        <time>2022-09-07T17:10:27Z</time>
      </trkpt>
      <trkpt lat="42.445936" lon="1.915186">
        <ele>1195</ele>
        <time>2022-09-07T17:10:36Z</time>
      </trkpt>
      <trkpt lat="42.445766" lon="1.9152">
        <ele>1194.5</ele>
        <time>2022-09-07T17:10:40Z</time>
      </trkpt>
      <trkpt lat="42.445687" lon="1.915207">
        <ele>1194.5</ele>
        <time>2022-09-07T17:10:41Z</time>
      </trkpt>
      <trkpt lat="42.445184" lon="1.915389">
        <ele>1193.3</ele>
        <time>2022-09-07T17:10:53Z</time>
      </trkpt>
      <trkpt lat="42.444753" lon="1.915535">
        <ele>1191.5</ele>
        <time>2022-09-07T17:11:03Z</time>
      </trkpt>
      <trkpt lat="42.444043" lon="1.915776">
        <ele>1188.8</ele>
        <time>2022-09-07T17:11:19Z</time>
      </trkpt>
      <trkpt lat="42.443883" lon="1.915867">
        <ele>1188</ele>
        <time>2022-09-07T17:11:23Z</time>
      </trkpt>
      <trkpt lat="42.44376" lon="1.915938">
        <ele>1187.5</ele>
        <time>2022-09-07T17:11:26Z</time>
      </trkpt>
      <trkpt lat="42.44354" lon="1.915999">
        <ele>1187</ele>
        <time>2022-09-07T17:11:31Z</time>
      </trkpt>
      <trkpt lat="42.44299" lon="1.916205">
        <ele>1185.5</ele>
        <time>2022-09-07T17:11:44Z</time>
      </trkpt>
      <trkpt lat="42.442953" lon="1.91622">
        <ele>1185.5</ele>
        <time>2022-09-07T17:11:45Z</time>
      </trkpt>
      <trkpt lat="42.443281" lon="1.916907">
        <ele>1184.3</ele>
        <time>2022-09-07T17:11:58Z</time>
      </trkpt>
      <trkpt lat="42.443285" lon="1.916915">
        <ele>1184.3</ele>
        <time>2022-09-07T17:11:58Z</time>
      </trkpt>
      <trkpt lat="42.443492" lon="1.917308">
        <ele>1183.5</ele>
        <time>2022-09-07T17:12:06Z</time>
      </trkpt>
      <trkpt lat="42.443557" lon="1.917407">
        <ele>1183.3</ele>
        <time>2022-09-07T17:12:08Z</time>
      </trkpt>
      <trkpt lat="42.443603" lon="1.917478">
        <ele>1183.3</ele>
        <time>2022-09-07T17:12:10Z</time>
      </trkpt>
      <trkpt lat="42.443734" lon="1.917517">
        <ele>1183.3</ele>
        <time>2022-09-07T17:12:13Z</time>
      </trkpt>
      <trkpt lat="42.444049" lon="1.917512">
        <ele>1183.8</ele>
        <time>2022-09-07T17:12:20Z</time>
      </trkpt>
      <trkpt lat="42.444141" lon="1.917585">
        <ele>1183.8</ele>
        <time>2022-09-07T17:12:22Z</time>
      </trkpt>
      <trkpt lat="42.444188" lon="1.917679">
        <ele>1183.8</ele>
        <time>2022-09-07T17:12:24Z</time>
      </trkpt>
      <trkpt lat="42.444262" lon="1.917826">
        <ele>1184</ele>
        <time>2022-09-07T17:12:27Z</time>
      </trkpt>
      <trkpt lat="42.444398" lon="1.918228">
        <ele>1184</ele>
        <time>2022-09-07T17:12:34Z</time>
      </trkpt>
      <trkpt lat="42.444403" lon="1.918296">
        <ele>1184</ele>
        <time>2022-09-07T17:12:35Z</time>
      </trkpt>
      <trkpt lat="42.444407" lon="1.918355">
        <ele>1184</ele>
        <time>2022-09-07T17:12:36Z</time>
      </trkpt>
      <trkpt lat="42.444312" lon="1.918469">
        <ele>1183.3</ele>
        <time>2022-09-07T17:12:39Z</time>
      </trkpt>
      <trkpt lat="42.444186" lon="1.918583">
        <ele>1182.3</ele>
        <time>2022-09-07T17:12:43Z</time>
      </trkpt>
      <trkpt lat="42.444181" lon="1.918588">
        <ele>1182.3</ele>
        <time>2022-09-07T17:12:43Z</time>
      </trkpt>
      <trkpt lat="42.444133" lon="1.918729">
        <ele>1181.8</ele>
        <time>2022-09-07T17:12:45Z</time>
      </trkpt>
      <trkpt lat="42.444161" lon="1.91888">
        <ele>1181.5</ele>
        <time>2022-09-07T17:12:48Z</time>
      </trkpt>
      <trkpt lat="42.444217" lon="1.918981">
        <ele>1181.5</ele>
        <time>2022-09-07T17:12:50Z</time>
      </trkpt>
      <trkpt lat="42.444451" lon="1.919318">
        <ele>1181.8</ele>
        <time>2022-09-07T17:12:58Z</time>
      </trkpt>
      <trkpt lat="42.444597" lon="1.919526">
        <ele>1182.3</ele>
        <time>2022-09-07T17:13:02Z</time>
      </trkpt>
      <trkpt lat="42.444985" lon="1.920125">
        <ele>1184.3</ele>
        <time>2022-09-07T17:13:15Z</time>
      </trkpt>
      <trkpt lat="42.445004" lon="1.920194">
        <ele>1184.3</ele>
        <time>2022-09-07T17:13:17Z</time>
      </trkpt>
      <trkpt lat="42.444982" lon="1.920249">
        <ele>1184.5</ele>
        <time>2022-09-07T17:13:18Z</time>
      </trkpt>
      <trkpt lat="42.444937" lon="1.920303">
        <ele>1184.5</ele>
        <time>2022-09-07T17:13:19Z</time>
      </trkpt>
      <trkpt lat="42.444742" lon="1.920541">
        <ele>1184.5</ele>
        <time>2022-09-07T17:13:25Z</time>
      </trkpt>
      <trkpt lat="42.444489" lon="1.920888">
        <ele>1184.5</ele>
        <time>2022-09-07T17:13:33Z</time>
      </trkpt>
      <trkpt lat="42.444475" lon="1.920926">
        <ele>1184.3</ele>
        <time>2022-09-07T17:13:34Z</time>
      </trkpt>
      <trkpt lat="42.444448" lon="1.921002">
        <ele>1184</ele>
        <time>2022-09-07T17:13:35Z</time>
      </trkpt>
      <trkpt lat="42.444302" lon="1.921087">
        <ele>1183.5</ele>
        <time>2022-09-07T17:13:38Z</time>
      </trkpt>
      <trkpt lat="42.444051" lon="1.921307">
        <ele>1181.5</ele>
        <time>2022-09-07T17:13:45Z</time>
      </trkpt>
      <trkpt lat="42.443938" lon="1.921411">
        <ele>1180.5</ele>
        <time>2022-09-07T17:13:48Z</time>
      </trkpt>
      <trkpt lat="42.443544" lon="1.921778">
        <ele>1177.5</ele>
        <time>2022-09-07T17:13:59Z</time>
      </trkpt>
      <trkpt lat="42.443364" lon="1.921967">
        <ele>1177.5</ele>
        <time>2022-09-07T17:14:04Z</time>
      </trkpt>
      <trkpt lat="42.443213" lon="1.922198">
        <ele>1178.5</ele>
        <time>2022-09-07T17:14:09Z</time>
      </trkpt>
      <trkpt lat="42.44309" lon="1.922474">
        <ele>1180</ele>
        <time>2022-09-07T17:14:14Z</time>
      </trkpt>
      <trkpt lat="42.443083" lon="1.922491">
        <ele>1180.3</ele>
        <time>2022-09-07T17:14:15Z</time>
      </trkpt>
      <trkpt lat="42.443064" lon="1.922615">
        <ele>1181.3</ele>
        <time>2022-09-07T17:14:17Z</time>
      </trkpt>
      <trkpt lat="42.443079" lon="1.92273">
        <ele>1182</ele>
        <time>2022-09-07T17:14:19Z</time>
      </trkpt>
      <trkpt lat="42.443097" lon="1.922793">
        <ele>1182.5</ele>
        <time>2022-09-07T17:14:20Z</time>
      </trkpt>
      <trkpt lat="42.443114" lon="1.922851">
        <ele>1183</ele>
        <time>2022-09-07T17:14:21Z</time>
      </trkpt>
      <trkpt lat="42.443132" lon="1.922981">
        <ele>1184</ele>
        <time>2022-09-07T17:14:23Z</time>
      </trkpt>
      <trkpt lat="42.443118" lon="1.923186">
        <ele>1185.8</ele>
        <time>2022-09-07T17:14:26Z</time>
      </trkpt>
      <trkpt lat="42.443082" lon="1.923297">
        <ele>1186.8</ele>
        <time>2022-09-07T17:14:28Z</time>
      </trkpt>
      <trkpt lat="42.443241" lon="1.923585">
        <ele>1191</ele>
        <time>2022-09-07T17:14:34Z</time>
      </trkpt>
      <trkpt lat="42.443349" lon="1.923782">
        <ele>1194.3</ele>
        <time>2022-09-07T17:14:38Z</time>
      </trkpt>
      <trkpt lat="42.44364" lon="1.924421">
        <ele>1197.8</ele>
        <time>2022-09-07T17:14:51Z</time>
      </trkpt>
      <trkpt lat="42.443884" lon="1.924955">
        <ele>1201</ele>
        <time>2022-09-07T17:15:01Z</time>
      </trkpt>
      <trkpt lat="42.443976" lon="1.925237">
        <ele>1200.5</ele>
        <time>2022-09-07T17:15:06Z</time>
      </trkpt>
      <trkpt lat="42.444106" lon="1.925632">
        <ele>1200</ele>
        <time>2022-09-07T17:15:13Z</time>
      </trkpt>
      <trkpt lat="42.444182" lon="1.926005">
        <ele>1200</ele>
        <time>2022-09-07T17:15:19Z</time>
      </trkpt>
      <trkpt lat="42.444229" lon="1.926228">
        <ele>1200.3</ele>
        <time>2022-09-07T17:15:23Z</time>
      </trkpt>
      <trkpt lat="42.444299" lon="1.92682">
        <ele>1201.5</ele>
        <time>2022-09-07T17:15:33Z</time>
      </trkpt>
      <trkpt lat="42.444355" lon="1.927286">
        <ele>1202.5</ele>
        <time>2022-09-07T17:15:41Z</time>
      </trkpt>
      <trkpt lat="42.444368" lon="1.92745">
        <ele>1203.5</ele>
        <time>2022-09-07T17:15:44Z</time>
      </trkpt>
      <trkpt lat="42.444422" lon="1.92812">
        <ele>1208.5</ele>
        <time>2022-09-07T17:15:55Z</time>
      </trkpt>
      <trkpt lat="42.444438" lon="1.928409">
        <ele>1210</ele>
        <time>2022-09-07T17:15:59Z</time>
      </trkpt>
      <trkpt lat="42.444455" lon="1.928693">
        <ele>1211.8</ele>
        <time>2022-09-07T17:16:04Z</time>
      </trkpt>
      <trkpt lat="42.444476" lon="1.928854">
        <ele>1212.3</ele>
        <time>2022-09-07T17:16:07Z</time>
      </trkpt>
      <trkpt lat="42.444526" lon="1.929236">
        <ele>1213.5</ele>
        <time>2022-09-07T17:16:13Z</time>
      </trkpt>
      <trkpt lat="42.444534" lon="1.929342">
        <ele>1213.5</ele>
        <time>2022-09-07T17:16:15Z</time>
      </trkpt>
      <trkpt lat="42.444544" lon="1.929451">
        <ele>1213.8</ele>
        <time>2022-09-07T17:16:17Z</time>
      </trkpt>
      <trkpt lat="42.444504" lon="1.929565">
        <ele>1214.5</ele>
        <time>2022-09-07T17:16:19Z</time>
      </trkpt>
      <trkpt lat="42.444507" lon="1.929635">
        <ele>1214.5</ele>
        <time>2022-09-07T17:16:20Z</time>
      </trkpt>
      <trkpt lat="42.444515" lon="1.929822">
        <ele>1214.8</ele>
        <time>2022-09-07T17:16:23Z</time>
      </trkpt>
      <trkpt lat="42.444521" lon="1.929944">
        <ele>1215</ele>
        <time>2022-09-07T17:16:25Z</time>
      </trkpt>
      <trkpt lat="42.444528" lon="1.930097">
        <ele>1216.2</ele>
        <time>2022-09-07T17:16:28Z</time>
      </trkpt>
      <trkpt lat="42.44452624051763" lon="1.930152230559349">
        <ele>1216.4</ele>
        <time>2022-09-07T17:16:29Z</time>
      </trkpt>
      <trkpt lat="42.44452448103522" lon="1.930207461118698">
        <ele>1216.5</ele>
        <time>2022-09-07T17:16:29Z</time>
      </trkpt>
      <trkpt lat="42.4445314122502" lon="1.930263116955757">
        <ele>1216.6</ele>
        <time>2022-09-07T17:16:30Z</time>
      </trkpt>
      <trkpt lat="42.44453834346444" lon="1.930318772792816">
        <ele>1216.7</ele>
        <time>2022-09-07T17:16:31Z</time>
      </trkpt>
      <trkpt lat="42.44453636311759" lon="1.930360347032547">
        <ele>1216.7</ele>
        <time>2022-09-07T17:16:32Z</time>
      </trkpt>
      <trkpt lat="42.44453438277069" lon="1.930401921272278">
        <ele>1216.8</ele>
        <time>2022-09-07T17:16:33Z</time>
      </trkpt>
      <trkpt lat="42.44453933363783" lon="1.930448859930039">
        <ele>1216.8</ele>
        <time>2022-09-07T17:16:33Z</time>
      </trkpt>
      <trkpt lat="42.44454428450457" lon="1.930495798587799">
        <ele>1216.8</ele>
        <time>2022-09-07T17:16:34Z</time>
      </trkpt>
      <trkpt lat="42.44454576976455" lon="1.930527985095978">
        <ele>1216.9</ele>
        <time>2022-09-07T17:16:35Z</time>
      </trkpt>
      <trkpt lat="42.44454725502445" lon="1.930560171604157">
        <ele>1217</ele>
        <time>2022-09-07T17:16:35Z</time>
      </trkpt>
      <trkpt lat="42.44454923537095" lon="1.930599734187126">
        <ele>1217</ele>
        <time>2022-09-07T17:16:36Z</time>
      </trkpt>
      <trkpt lat="42.44455121571737" lon="1.930639296770096">
        <ele>1217</ele>
        <time>2022-09-07T17:16:37Z</time>
      </trkpt>
      <trkpt lat="42.44454675993781" lon="1.930673494935036">
        <ele>1217.1</ele>
        <time>2022-09-07T17:16:37Z</time>
      </trkpt>
      <trkpt lat="42.44454230415792" lon="1.930707693099976">
        <ele>1217.2</ele>
        <time>2022-09-07T17:16:38Z</time>
      </trkpt>
      <trkpt lat="42.44453834346444" lon="1.930734515190125">
        <ele>1217.3</ele>
        <time>2022-09-07T17:16:38Z</time>
      </trkpt>
      <trkpt lat="42.44453438277069" lon="1.930761337280274">
        <ele>1217.4</ele>
        <time>2022-09-07T17:16:39Z</time>
      </trkpt>
      <trkpt lat="42.44452497612203" lon="1.930784806609154">
        <ele>1217.5</ele>
        <time>2022-09-07T17:16:39Z</time>
      </trkpt>
      <trkpt lat="42.44451556947197" lon="1.930808275938034">
        <ele>1217.5</ele>
        <time>2022-09-07T17:16:39Z</time>
      </trkpt>
      <trkpt lat="42.44450517264657" lon="1.930835768580437">
        <ele>1217.7</ele>
        <time>2022-09-07T17:16:40Z</time>
      </trkpt>
      <trkpt lat="42.44449477581944" lon="1.93086326122284">
        <ele>1217.8</ele>
        <time>2022-09-07T17:16:41Z</time>
      </trkpt>
      <trkpt lat="42.44448388390347" lon="1.930896788835526">
        <ele>1217.8</ele>
        <time>2022-09-07T17:16:41Z</time>
      </trkpt>
      <trkpt lat="42.4444729919856" lon="1.930930316448212">
        <ele>1217.9</ele>
        <time>2022-09-07T17:16:42Z</time>
      </trkpt>
      <trkpt lat="42.44445120814417" lon="1.930962502956391">
        <ele>1218.1</ele>
        <time>2022-09-07T17:16:42Z</time>
      </trkpt>
      <trkpt lat="42.44442942429517" lon="1.930994689464569">
        <ele>1218.2</ele>
        <time>2022-09-07T17:16:43Z</time>
      </trkpt>
      <trkpt lat="42.4444150667542" lon="1.931015476584435">
        <ele>1218.3</ele>
        <time>2022-09-07T17:16:44Z</time>
      </trkpt>
      <trkpt lat="42.44440070920993" lon="1.9310362637043">
        <ele>1218.4</ele>
        <time>2022-09-07T17:16:44Z</time>
      </trkpt>
      <trkpt lat="42.44438288604695" lon="1.931063756346703">
        <ele>1218.4</ele>
        <time>2022-09-07T17:16:45Z</time>
      </trkpt>
      <trkpt lat="42.44436506287887" lon="1.931091248989105">
        <ele>1218.5</ele>
        <time>2022-09-07T17:16:45Z</time>
      </trkpt>
      <trkpt lat="42.44434922005858" lon="1.931122094392777">
        <ele>1218.5</ele>
        <time>2022-09-07T17:16:46Z</time>
      </trkpt>
      <trkpt lat="42.44433337723426" lon="1.931152939796448">
        <ele>1218.5</ele>
        <time>2022-09-07T17:16:47Z</time>
      </trkpt>
      <trkpt lat="42.44431852458283" lon="1.931184455752373">
        <ele>1218.5</ele>
        <time>2022-09-07T17:16:47Z</time>
      </trkpt>
      <trkpt lat="42.44430367192788" lon="1.931215971708298">
        <ele>1218.5</ele>
        <time>2022-09-07T17:16:48Z</time>
      </trkpt>
      <trkpt lat="42.44428683891466" lon="1.931260898709297">
        <ele>1218.4</ele>
        <time>2022-09-07T17:16:49Z</time>
      </trkpt>
      <trkpt lat="42.44427000589695" lon="1.931305825710297">
        <ele>1218.4</ele>
        <time>2022-09-07T17:16:49Z</time>
      </trkpt>
      <trkpt lat="42.44425812376406" lon="1.931345388293267">
        <ele>1218.4</ele>
        <time>2022-09-07T17:16:50Z</time>
      </trkpt>
      <trkpt lat="42.44424624162893" lon="1.931384950876236">
        <ele>1218.4</ele>
        <time>2022-09-07T17:16:51Z</time>
      </trkpt>
      <trkpt lat="42.44424178582769" lon="1.9314144551754">
        <ele>1218.4</ele>
        <time>2022-09-07T17:16:51Z</time>
      </trkpt>
      <trkpt lat="42.4442373300261" lon="1.931443959474564">
        <ele>1218.5</ele>
        <time>2022-09-07T17:16:52Z</time>
      </trkpt>
      <trkpt lat="42.44422693315454" lon="1.931498274207115">
        <ele>1218.5</ele>
        <time>2022-09-07T17:16:53Z</time>
      </trkpt>
      <trkpt lat="42.44421653628125" lon="1.931552588939667">
        <ele>1218.5</ele>
        <time>2022-09-07T17:16:54Z</time>
      </trkpt>
      <trkpt lat="42.44422855525911" lon="1.931594833731652">
        <ele>1218.5</ele>
        <time>2022-09-07T17:16:54Z</time>
      </trkpt>
      <trkpt lat="42.44424057423465" lon="1.931637078523636">
        <ele>1218.6</ele>
        <time>2022-09-07T17:16:55Z</time>
      </trkpt>
      <trkpt lat="42.44425033917793" lon="1.931663900613785">
        <ele>1218.7</ele>
        <time>2022-09-07T17:16:56Z</time>
      </trkpt>
      <trkpt lat="42.44426010411969" lon="1.931690722703934">
        <ele>1218.8</ele>
        <time>2022-09-07T17:16:56Z</time>
      </trkpt>
      <trkpt lat="42.44426455991965" lon="1.93170614540577">
        <ele>1218.9</ele>
        <time>2022-09-07T17:16:56Z</time>
      </trkpt>
      <trkpt lat="42.44426901571929" lon="1.931721568107605">
        <ele>1218.9</ele>
        <time>2022-09-07T17:16:57Z</time>
      </trkpt>
      <trkpt lat="42.44427396660739" lon="1.931736990809441">
        <ele>1219</ele>
        <time>2022-09-07T17:16:57Z</time>
      </trkpt>
      <trkpt lat="42.44427891749512" lon="1.931752413511277">
        <ele>1219</ele>
        <time>2022-09-07T17:16:57Z</time>
      </trkpt>
      <trkpt lat="42.44430169157361" lon="1.931791976094247">
        <ele>1219.2</ele>
        <time>2022-09-07T17:16:58Z</time>
      </trkpt>
      <trkpt lat="42.44432446564382" lon="1.931831538677216">
        <ele>1219.4</ele>
        <time>2022-09-07T17:16:59Z</time>
      </trkpt>
      <trkpt lat="42.44433981338211" lon="1.93185031414032">
        <ele>1219.4</ele>
        <time>2022-09-07T17:16:59Z</time>
      </trkpt>
      <trkpt lat="42.44435516111665" lon="1.931869089603424">
        <ele>1219.5</ele>
        <time>2022-09-07T17:17:00Z</time>
      </trkpt>
      <trkpt lat="42.44437644990349" lon="1.93188987672329">
        <ele>1219.6</ele>
        <time>2022-09-07T17:17:00Z</time>
      </trkpt>
      <trkpt lat="42.4443977386831" lon="1.931910663843155">
        <ele>1219.8</ele>
        <time>2022-09-07T17:17:01Z</time>
      </trkpt>
      <trkpt lat="42.44442298815652" lon="1.931940168142319">
        <ele>1219.8</ele>
        <time>2022-09-07T17:17:02Z</time>
      </trkpt>
      <trkpt lat="42.44444823761976" lon="1.931969672441483">
        <ele>1220</ele>
        <time>2022-09-07T17:17:02Z</time>
      </trkpt>
      <trkpt lat="42.44446952637497" lon="1.931993141770363">
        <ele>1220.1</ele>
        <time>2022-09-07T17:17:03Z</time>
      </trkpt>
      <trkpt lat="42.44449081512293" lon="1.932016611099243">
        <ele>1220.1</ele>
        <time>2022-09-07T17:17:04Z</time>
      </trkpt>
      <trkpt lat="42.44451259895062" lon="1.932044103741646">
        <ele>1220.2</ele>
        <time>2022-09-07T17:17:04Z</time>
      </trkpt>
      <trkpt lat="42.44453438277069" lon="1.932071596384049">
        <ele>1220.3</ele>
        <time>2022-09-07T17:17:05Z</time>
      </trkpt>
      <trkpt lat="42.44456507814067" lon="1.93210244178772">
        <ele>1220.3</ele>
        <time>2022-09-07T17:17:06Z</time>
      </trkpt>
      <trkpt lat="42.44459577349561" lon="1.932133287191391">
        <ele>1220.4</ele>
        <time>2022-09-07T17:17:07Z</time>
      </trkpt>
      <trkpt lat="42.44461112116745" lon="1.932148709893227">
        <ele>1220.4</ele>
        <time>2022-09-07T17:17:07Z</time>
      </trkpt>
      <trkpt lat="42.44462646883552" lon="1.932164132595062">
        <ele>1220.5</ele>
        <time>2022-09-07T17:17:08Z</time>
      </trkpt>
      <trkpt lat="42.44464181649982" lon="1.932186931371689">
        <ele>1220.5</ele>
        <time>2022-09-07T17:17:08Z</time>
      </trkpt>
      <trkpt lat="42.44465716416036" lon="1.932209730148316">
        <ele>1220.6</ele>
        <time>2022-09-07T17:17:09Z</time>
      </trkpt>
      <trkpt lat="42.44465270838836" lon="1.932231858372689">
        <ele>1220.6</ele>
        <time>2022-09-07T17:17:09Z</time>
      </trkpt>
      <trkpt lat="42.44464825261603" lon="1.932253986597062">
        <ele>1220.6</ele>
        <time>2022-09-07T17:17:09Z</time>
      </trkpt>
      <trkpt lat="42.44463488529705" lon="1.932272762060166">
        <ele>1220.6</ele>
        <time>2022-09-07T17:17:10Z</time>
      </trkpt>
      <trkpt lat="42.44462151797524" lon="1.93229153752327">
        <ele>1220.7</ele>
        <time>2022-09-07T17:17:10Z</time>
      </trkpt>
      <trkpt lat="42.44460815065062" lon="1.932311654090882">
        <ele>1220.7</ele>
        <time>2022-09-07T17:17:11Z</time>
      </trkpt>
      <trkpt lat="42.44459478332312" lon="1.932331770658493">
        <ele>1220.8</ele>
        <time>2022-09-07T17:17:11Z</time>
      </trkpt>
      <trkpt lat="42.4445789405609" lon="1.932355239987374">
        <ele>1220.9</ele>
        <time>2022-09-07T17:17:12Z</time>
      </trkpt>
      <trkpt lat="42.44456309779468" lon="1.932378709316254">
        <ele>1221</ele>
        <time>2022-09-07T17:17:12Z</time>
      </trkpt>
      <trkpt lat="42.44454230415795" lon="1.932408213615418">
        <ele>1221.1</ele>
        <time>2022-09-07T17:17:13Z</time>
      </trkpt>
      <trkpt lat="42.44452151051429" lon="1.932437717914582">
        <ele>1221.2</ele>
        <time>2022-09-07T17:17:13Z</time>
      </trkpt>
      <trkpt lat="42.44450764808136" lon="1.932459175586701">
        <ele>1221.3</ele>
        <time>2022-09-07T17:17:14Z</time>
      </trkpt>
      <trkpt lat="42.44449378564536" lon="1.93248063325882">
        <ele>1221.3</ele>
        <time>2022-09-07T17:17:14Z</time>
      </trkpt>
      <trkpt lat="42.44447348707283" lon="1.932506114244461">
        <ele>1221.4</ele>
        <time>2022-09-07T17:17:15Z</time>
      </trkpt>
      <trkpt lat="42.4444531884937" lon="1.932531595230103">
        <ele>1221.5</ele>
        <time>2022-09-07T17:17:16Z</time>
      </trkpt>
      <trkpt lat="42.44443685060817" lon="1.932560428977013">
        <ele>1221.6</ele>
        <time>2022-09-07T17:17:16Z</time>
      </trkpt>
      <trkpt lat="42.44442051271839" lon="1.932589262723923">
        <ele>1221.7</ele>
        <time>2022-09-07T17:17:17Z</time>
      </trkpt>
      <trkpt lat="42.44440021412212" lon="1.932614073157311">
        <ele>1221.8</ele>
        <time>2022-09-07T17:17:17Z</time>
      </trkpt>
      <trkpt lat="42.44437991551927" lon="1.932638883590698">
        <ele>1221.8</ele>
        <time>2022-09-07T17:17:18Z</time>
      </trkpt>
      <trkpt lat="42.44436605305501" lon="1.93265900015831">
        <ele>1221.9</ele>
        <time>2022-09-07T17:17:18Z</time>
      </trkpt>
      <trkpt lat="42.44435219058768" lon="1.932679116725922">
        <ele>1221.9</ele>
        <time>2022-09-07T17:17:19Z</time>
      </trkpt>
      <trkpt lat="42.44433337723426" lon="1.932701244950295">
        <ele>1222</ele>
        <time>2022-09-07T17:17:19Z</time>
      </trkpt>
      <trkpt lat="42.44431456387516" lon="1.932723373174668">
        <ele>1222</ele>
        <time>2022-09-07T17:17:20Z</time>
      </trkpt>
      <trkpt lat="42.44430070139644" lon="1.932744160294533">
        <ele>1222.1</ele>
        <time>2022-09-07T17:17:20Z</time>
      </trkpt>
      <trkpt lat="42.44428683891466" lon="1.932764947414398">
        <ele>1222.2</ele>
        <time>2022-09-07T17:17:21Z</time>
      </trkpt>
      <trkpt lat="42.44426257956415" lon="1.932789757847786">
        <ele>1222.2</ele>
        <time>2022-09-07T17:17:22Z</time>
      </trkpt>
      <trkpt lat="42.44423832020425" lon="1.932814568281174">
        <ele>1222.4</ele>
        <time>2022-09-07T17:17:22Z</time>
      </trkpt>
      <trkpt lat="42.44423336931332" lon="1.932829990983009">
        <ele>1222.4</ele>
        <time>2022-09-07T17:17:23Z</time>
      </trkpt>
      <trkpt lat="42.444228418422" lon="1.932845413684845">
        <ele>1222.5</ele>
        <time>2022-09-07T17:17:23Z</time>
      </trkpt>
      <trkpt lat="42.44421604119199" lon="1.932862177491188">
        <ele>1222.5</ele>
        <time>2022-09-07T17:17:23Z</time>
      </trkpt>
      <trkpt lat="42.44420366395953" lon="1.932878941297531">
        <ele>1222.5</ele>
        <time>2022-09-07T17:17:24Z</time>
      </trkpt>
      <trkpt lat="42.44418732600892" lon="1.932902410626412">
        <ele>1222.6</ele>
        <time>2022-09-07T17:17:24Z</time>
      </trkpt>
      <trkpt lat="42.44417098805405" lon="1.932925879955292">
        <ele>1222.7</ele>
        <time>2022-09-07T17:17:25Z</time>
      </trkpt>
      <trkpt lat="42.4441600960818" lon="1.932940632104874">
        <ele>1222.6</ele>
        <time>2022-09-07T17:17:25Z</time>
      </trkpt>
      <trkpt lat="42.44414920410765" lon="1.932955384254456">
        <ele>1222.7</ele>
        <time>2022-09-07T17:17:25Z</time>
      </trkpt>
      <trkpt lat="42.44413435141256" lon="1.932977512478829">
        <ele>1222.6</ele>
        <time>2022-09-07T17:17:26Z</time>
      </trkpt>
      <trkpt lat="42.44411949871393" lon="1.932999640703202">
        <ele>1222.6</ele>
        <time>2022-09-07T17:17:26Z</time>
      </trkpt>
      <trkpt lat="42.44410118038077" lon="1.933019086718559">
        <ele>1222.5</ele>
        <time>2022-09-07T17:17:27Z</time>
      </trkpt>
      <trkpt lat="42.44408286204229" lon="1.933038532733917">
        <ele>1222.5</ele>
        <time>2022-09-07T17:17:27Z</time>
      </trkpt>
      <trkpt lat="42.44406305842708" lon="1.933055296540261">
        <ele>1222.5</ele>
        <time>2022-09-07T17:17:28Z</time>
      </trkpt>
      <trkpt lat="42.4440432548056" lon="1.933072060346604">
        <ele>1222.5</ele>
        <time>2022-09-07T17:17:28Z</time>
      </trkpt>
      <trkpt lat="42.44404176953373" lon="1.933077424764634">
        <ele>1222.5</ele>
        <time>2022-09-07T17:17:29Z</time>
      </trkpt>
      <trkpt lat="42.44404028426185" lon="1.933082789182664">
        <ele>1222.5</ele>
        <time>2022-09-07T17:17:29Z</time>
      </trkpt>
      <trkpt lat="42.44403830389927" lon="1.933098882436753">
        <ele>1222.4</ele>
        <time>2022-09-07T17:17:29Z</time>
      </trkpt>
      <trkpt lat="42.44403632353661" lon="1.933114975690842">
        <ele>1222.4</ele>
        <time>2022-09-07T17:17:29Z</time>
      </trkpt>
      <trkpt lat="42.44403087753902" lon="1.933125033974648">
        <ele>1222.3</ele>
        <time>2022-09-07T17:17:29Z</time>
      </trkpt>
      <trkpt lat="42.44402543154094" lon="1.933135092258454">
        <ele>1222.3</ele>
        <time>2022-09-07T17:17:30Z</time>
      </trkpt>
      <trkpt lat="42.4440244413594" lon="1.933144479990006">
        <ele>1222.3</ele>
        <time>2022-09-07T17:17:30Z</time>
      </trkpt>
      <trkpt lat="42.44402345117788" lon="1.933153867721558">
        <ele>1222.3</ele>
        <time>2022-09-07T17:17:30Z</time>
      </trkpt>
      <trkpt lat="42.44402345117788" lon="1.933166608214379">
        <ele>1222.3</ele>
        <time>2022-09-07T17:17:30Z</time>
      </trkpt>
      <trkpt lat="42.44402345117788" lon="1.933179348707199">
        <ele>1222.2</ele>
        <time>2022-09-07T17:17:30Z</time>
      </trkpt>
      <trkpt lat="42.44401057881651" lon="1.933190077543259">
        <ele>1222.2</ele>
        <time>2022-09-07T17:17:31Z</time>
      </trkpt>
      <trkpt lat="42.44399770645248" lon="1.933200806379318">
        <ele>1222.2</ele>
        <time>2022-09-07T17:17:31Z</time>
      </trkpt>
      <trkpt lat="42.44399077517843" lon="1.933203488588333">
        <ele>1222.2</ele>
        <time>2022-09-07T17:17:31Z</time>
      </trkpt>
      <trkpt lat="42.44398384390362" lon="1.933206170797348">
        <ele>1222.2</ele>
        <time>2022-09-07T17:17:31Z</time>
      </trkpt>
      <trkpt lat="42.44397691262806" lon="1.933210194110871">
        <ele>1222.2</ele>
        <time>2022-09-07T17:17:31Z</time>
      </trkpt>
      <trkpt lat="42.44396998135175" lon="1.933214217424393">
        <ele>1222.2</ele>
        <time>2022-09-07T17:17:32Z</time>
      </trkpt>
      <trkpt lat="42.44395710897934" lon="1.933225616812706">
        <ele>1222.1</ele>
        <time>2022-09-07T17:17:32Z</time>
      </trkpt>
      <trkpt lat="42.443959" lon="1.933284">
        <ele>1221.8</ele>
        <time>2022-09-07T17:17:33Z</time>
      </trkpt>
      <trkpt lat="42.443777" lon="1.933395">
        <ele>1221.5</ele>
        <time>2022-09-07T17:17:37Z</time>
      </trkpt>
      <trkpt lat="42.443601" lon="1.933503">
        <ele>1221.3</ele>
        <time>2022-09-07T17:17:42Z</time>
      </trkpt>
      <trkpt lat="42.443437" lon="1.933603">
        <ele>1221</ele>
        <time>2022-09-07T17:17:46Z</time>
      </trkpt>
      <trkpt lat="42.44326" lon="1.933711">
        <ele>1220.5</ele>
        <time>2022-09-07T17:17:50Z</time>
      </trkpt>
      <trkpt lat="42.443111" lon="1.933802">
        <ele>1220.3</ele>
        <time>2022-09-07T17:17:54Z</time>
      </trkpt>
      <trkpt lat="42.442949" lon="1.933901">
        <ele>1220</ele>
        <time>2022-09-07T17:17:58Z</time>
      </trkpt>
      <trkpt lat="42.442815" lon="1.933984">
        <ele>1220</ele>
        <time>2022-09-07T17:18:01Z</time>
      </trkpt>
      <trkpt lat="42.442805" lon="1.933989">
        <ele>1220</ele>
        <time>2022-09-07T17:18:01Z</time>
      </trkpt>
      <trkpt lat="42.442775" lon="1.934006">
        <ele>1220</ele>
        <time>2022-09-07T17:18:02Z</time>
      </trkpt>
      <trkpt lat="42.442742" lon="1.934027">
        <ele>1220</ele>
        <time>2022-09-07T17:18:03Z</time>
      </trkpt>
      <trkpt lat="42.44263" lon="1.934101">
        <ele>1220</ele>
        <time>2022-09-07T17:18:05Z</time>
      </trkpt>
      <trkpt lat="42.4426" lon="1.934115">
        <ele>1220</ele>
        <time>2022-09-07T17:18:06Z</time>
      </trkpt>
      <trkpt lat="42.442442" lon="1.934191">
        <ele>1220</ele>
        <time>2022-09-07T17:18:10Z</time>
      </trkpt>
      <trkpt lat="42.442394" lon="1.934181">
        <ele>1220</ele>
        <time>2022-09-07T17:18:11Z</time>
      </trkpt>
      <trkpt lat="42.442261" lon="1.934156">
        <ele>1220.8</ele>
        <time>2022-09-07T17:18:14Z</time>
      </trkpt>
      <trkpt lat="42.442213" lon="1.934256">
        <ele>1220.5</ele>
        <time>2022-09-07T17:18:16Z</time>
      </trkpt>
      <trkpt lat="42.442014" lon="1.934538">
        <ele>1220</ele>
        <time>2022-09-07T17:18:22Z</time>
      </trkpt>
      <trkpt lat="42.441813" lon="1.934824">
        <ele>1219.8</ele>
        <time>2022-09-07T17:18:29Z</time>
      </trkpt>
      <trkpt lat="42.441698" lon="1.93499">
        <ele>1219.8</ele>
        <time>2022-09-07T17:18:33Z</time>
      </trkpt>
      <trkpt lat="42.441588" lon="1.935091">
        <ele>1219.5</ele>
        <time>2022-09-07T17:18:36Z</time>
      </trkpt>
      <trkpt lat="42.441433" lon="1.935236">
        <ele>1219</ele>
        <time>2022-09-07T17:18:40Z</time>
      </trkpt>
      <trkpt lat="42.441349" lon="1.935315">
        <ele>1219</ele>
        <time>2022-09-07T17:18:42Z</time>
      </trkpt>
      <trkpt lat="42.441276" lon="1.935382">
        <ele>1218.8</ele>
        <time>2022-09-07T17:18:44Z</time>
      </trkpt>
      <trkpt lat="42.441103" lon="1.935544">
        <ele>1218</ele>
        <time>2022-09-07T17:18:49Z</time>
      </trkpt>
      <trkpt lat="42.441036" lon="1.935607">
        <ele>1218</ele>
        <time>2022-09-07T17:18:50Z</time>
      </trkpt>
      <trkpt lat="42.440944" lon="1.935638">
        <ele>1217.8</ele>
        <time>2022-09-07T17:18:53Z</time>
      </trkpt>
      <trkpt lat="42.440894" lon="1.935655">
        <ele>1217.8</ele>
        <time>2022-09-07T17:18:54Z</time>
      </trkpt>
      <trkpt lat="42.440852" lon="1.935641">
        <ele>1217.8</ele>
        <time>2022-09-07T17:18:55Z</time>
      </trkpt>
      <trkpt lat="42.440817" lon="1.935631">
        <ele>1218</ele>
        <time>2022-09-07T17:18:55Z</time>
      </trkpt>
      <trkpt lat="42.440691" lon="1.935433">
        <ele>1218</ele>
        <time>2022-09-07T17:19:00Z</time>
      </trkpt>
      <trkpt lat="42.440588" lon="1.935272">
        <ele>1218</ele>
        <time>2022-09-07T17:19:03Z</time>
      </trkpt>
      <trkpt lat="42.440444" lon="1.935046">
        <ele>1218</ele>
        <time>2022-09-07T17:19:08Z</time>
      </trkpt>
      <trkpt lat="42.440357" lon="1.93491">
        <ele>1218</ele>
        <time>2022-09-07T17:19:11Z</time>
      </trkpt>
      <trkpt lat="42.440293" lon="1.93481">
        <ele>1218.3</ele>
        <time>2022-09-07T17:19:13Z</time>
      </trkpt>
      <trkpt lat="42.44022799999999" lon="1.934715">
        <ele>1216.4</ele>
        <time>2022-09-07T17:19:16Z</time>
      </trkpt>
    </trkseg>
  </trk>

</gpx>
